<?xml version="1.0" encoding="UTF-8" standalone="no" ?>
<gpx xmlns="http://www.topografix.com/GPX/1/1" xmlns:xsi="http://www.w3.org/2001/XMLSchema-instance" xsi:schemaLocation="http://www.topografix.com/GPX/1/1 http://www.topografix.com/GPX/1/1/gpx.xsd" version="1.1" creator="VisuGPX - https://www.visugpx.com">
  <metadata>
    <name>2018-09-28 Bike ride VTT-Amberieux-Saone O Quincieux O</name>
    <desc><![CDATA[2018-09-28 Bike ride VTT-Amberieux-Saone O Quincieux O]]></desc>
  </metadata>
  <wpt lat="45.92456" lon="4.73709">
    <ele>174</ele>
    <name><![CDATA[2018-09-28 10:15 (Start)]]></name>
  </wpt>
  <wpt lat="45.92464" lon="4.7371">
    <ele>174</ele>
    <name><![CDATA[2018-09-28 10:15 (End)]]></name>
  </wpt>
  <trk>
    <name><![CDATA[2018-09-28 10:15]]></name>
    <trkseg>
      <trkpt lat="45.92456" lon="4.73709">
        <ele>174</ele>
        <time>2018-09-28T08:15:37.617Z</time>
      </trkpt>
      <trkpt lat="45.92456" lon="4.73709">
        <ele>174</ele>
        <time>2018-09-28T08:15:40Z</time>
      </trkpt>
      <trkpt lat="45.92456" lon="4.73709">
        <ele>174</ele>
        <time>2018-09-28T08:15:41Z</time>
      </trkpt>
      <trkpt lat="45.92456" lon="4.73712">
        <ele>174</ele>
        <time>2018-09-28T08:15:48Z</time>
      </trkpt>
      <trkpt lat="45.92456" lon="4.73712">
        <ele>174</ele>
        <time>2018-09-28T08:15:49Z</time>
      </trkpt>
      <trkpt lat="45.92463" lon="4.73717">
        <ele>174</ele>
        <time>2018-09-28T08:16:01Z</time>
      </trkpt>
      <trkpt lat="45.92463" lon="4.73719">
        <ele>174</ele>
        <time>2018-09-28T08:16:02Z</time>
      </trkpt>
      <trkpt lat="45.92463" lon="4.73729">
        <ele>174</ele>
        <time>2018-09-28T08:16:05Z</time>
      </trkpt>
      <trkpt lat="45.92463" lon="4.73733">
        <ele>174</ele>
        <time>2018-09-28T08:16:06Z</time>
      </trkpt>
      <trkpt lat="45.92462" lon="4.73745">
        <ele>174</ele>
        <time>2018-09-28T08:16:09Z</time>
      </trkpt>
      <trkpt lat="45.92462" lon="4.73749">
        <ele>174</ele>
        <time>2018-09-28T08:16:10Z</time>
      </trkpt>
      <trkpt lat="45.92462" lon="4.73753">
        <ele>173</ele>
        <time>2018-09-28T08:16:11Z</time>
      </trkpt>
      <trkpt lat="45.92461" lon="4.73766">
        <ele>173</ele>
        <time>2018-09-28T08:16:12Z</time>
      </trkpt>
      <trkpt lat="45.9246" lon="4.73778">
        <ele>173</ele>
        <time>2018-09-28T08:16:14Z</time>
      </trkpt>
      <trkpt lat="45.92461" lon="4.73784">
        <ele>172</ele>
        <time>2018-09-28T08:16:15Z</time>
      </trkpt>
      <trkpt lat="45.92461" lon="4.7379">
        <ele>172</ele>
        <time>2018-09-28T08:16:16Z</time>
      </trkpt>
      <trkpt lat="45.92462" lon="4.73797">
        <ele>172</ele>
        <time>2018-09-28T08:16:17Z</time>
      </trkpt>
      <trkpt lat="45.92462" lon="4.73808">
        <ele>172</ele>
        <time>2018-09-28T08:16:19Z</time>
      </trkpt>
      <trkpt lat="45.92462" lon="4.73814">
        <ele>172</ele>
        <time>2018-09-28T08:16:20Z</time>
      </trkpt>
      <trkpt lat="45.9246" lon="4.73825">
        <ele>172</ele>
        <time>2018-09-28T08:16:23Z</time>
      </trkpt>
      <trkpt lat="45.9246" lon="4.73829">
        <ele>172</ele>
        <time>2018-09-28T08:16:24Z</time>
      </trkpt>
      <trkpt lat="45.92461" lon="4.73832">
        <ele>172</ele>
        <time>2018-09-28T08:16:25Z</time>
      </trkpt>
      <trkpt lat="45.92461" lon="4.73845">
        <ele>171</ele>
        <time>2018-09-28T08:16:26Z</time>
      </trkpt>
      <trkpt lat="45.92461" lon="4.73854">
        <ele>171</ele>
        <time>2018-09-28T08:16:28Z</time>
      </trkpt>
      <trkpt lat="45.92461" lon="4.7386">
        <ele>171</ele>
        <time>2018-09-28T08:16:29Z</time>
      </trkpt>
      <trkpt lat="45.9246" lon="4.73871">
        <ele>171</ele>
        <time>2018-09-28T08:16:31Z</time>
      </trkpt>
      <trkpt lat="45.9246" lon="4.73879">
        <ele>171</ele>
        <time>2018-09-28T08:16:32Z</time>
      </trkpt>
      <trkpt lat="45.9246" lon="4.73887">
        <ele>171</ele>
        <time>2018-09-28T08:16:33Z</time>
      </trkpt>
      <trkpt lat="45.92459" lon="4.73892">
        <ele>171</ele>
        <time>2018-09-28T08:16:34Z</time>
      </trkpt>
      <trkpt lat="45.9246" lon="4.73899">
        <ele>171</ele>
        <time>2018-09-28T08:16:35Z</time>
      </trkpt>
      <trkpt lat="45.92459" lon="4.73906">
        <ele>171</ele>
        <time>2018-09-28T08:16:36Z</time>
      </trkpt>
      <trkpt lat="45.92458" lon="4.73917">
        <ele>172</ele>
        <time>2018-09-28T08:16:38Z</time>
      </trkpt>
      <trkpt lat="45.92456" lon="4.73921">
        <ele>172</ele>
        <time>2018-09-28T08:16:39Z</time>
      </trkpt>
      <trkpt lat="45.92457" lon="4.73932">
        <ele>172</ele>
        <time>2018-09-28T08:16:41Z</time>
      </trkpt>
      <trkpt lat="45.92458" lon="4.73938">
        <ele>172</ele>
        <time>2018-09-28T08:16:42Z</time>
      </trkpt>
      <trkpt lat="45.92461" lon="4.73948">
        <ele>172</ele>
        <time>2018-09-28T08:16:44Z</time>
      </trkpt>
      <trkpt lat="45.92464" lon="4.73952">
        <ele>172</ele>
        <time>2018-09-28T08:16:45Z</time>
      </trkpt>
      <trkpt lat="45.92471" lon="4.73959">
        <ele>172</ele>
        <time>2018-09-28T08:16:47Z</time>
      </trkpt>
      <trkpt lat="45.92476" lon="4.73962">
        <ele>172</ele>
        <time>2018-09-28T08:16:48Z</time>
      </trkpt>
      <trkpt lat="45.92481" lon="4.73965">
        <ele>172</ele>
        <time>2018-09-28T08:16:49Z</time>
      </trkpt>
      <trkpt lat="45.92486" lon="4.73968">
        <ele>172</ele>
        <time>2018-09-28T08:16:50Z</time>
      </trkpt>
      <trkpt lat="45.92495" lon="4.73971">
        <ele>172</ele>
        <time>2018-09-28T08:16:52Z</time>
      </trkpt>
      <trkpt lat="45.925" lon="4.73973">
        <ele>172</ele>
        <time>2018-09-28T08:16:53Z</time>
      </trkpt>
      <trkpt lat="45.92504" lon="4.73975">
        <ele>172</ele>
        <time>2018-09-28T08:16:54Z</time>
      </trkpt>
      <trkpt lat="45.92509" lon="4.73978">
        <ele>172</ele>
        <time>2018-09-28T08:16:55Z</time>
      </trkpt>
      <trkpt lat="45.92514" lon="4.73981">
        <ele>172</ele>
        <time>2018-09-28T08:16:56Z</time>
      </trkpt>
      <trkpt lat="45.92518" lon="4.73983">
        <ele>172</ele>
        <time>2018-09-28T08:16:57Z</time>
      </trkpt>
      <trkpt lat="45.92526" lon="4.73986">
        <ele>172</ele>
        <time>2018-09-28T08:16:59Z</time>
      </trkpt>
      <trkpt lat="45.9253" lon="4.73989">
        <ele>172</ele>
        <time>2018-09-28T08:17:00Z</time>
      </trkpt>
      <trkpt lat="45.92537" lon="4.73994">
        <ele>172</ele>
        <time>2018-09-28T08:17:02Z</time>
      </trkpt>
      <trkpt lat="45.92541" lon="4.73997">
        <ele>172</ele>
        <time>2018-09-28T08:17:03Z</time>
      </trkpt>
      <trkpt lat="45.92547" lon="4.74004">
        <ele>172</ele>
        <time>2018-09-28T08:17:05Z</time>
      </trkpt>
      <trkpt lat="45.92548" lon="4.7401">
        <ele>172</ele>
        <time>2018-09-28T08:17:06Z</time>
      </trkpt>
      <trkpt lat="45.92551" lon="4.74019">
        <ele>172</ele>
        <time>2018-09-28T08:17:08Z</time>
      </trkpt>
      <trkpt lat="45.9255" lon="4.74024">
        <ele>172</ele>
        <time>2018-09-28T08:17:09Z</time>
      </trkpt>
      <trkpt lat="45.92546" lon="4.74033">
        <ele>172</ele>
        <time>2018-09-28T08:17:11Z</time>
      </trkpt>
      <trkpt lat="45.92542" lon="4.74036">
        <ele>172</ele>
        <time>2018-09-28T08:17:12Z</time>
      </trkpt>
      <trkpt lat="45.92536" lon="4.74044">
        <ele>172</ele>
        <time>2018-09-28T08:17:14Z</time>
      </trkpt>
      <trkpt lat="45.92533" lon="4.74049">
        <ele>172</ele>
        <time>2018-09-28T08:17:15Z</time>
      </trkpt>
      <trkpt lat="45.92527" lon="4.74057">
        <ele>172</ele>
        <time>2018-09-28T08:17:17Z</time>
      </trkpt>
      <trkpt lat="45.92524" lon="4.74061">
        <ele>172</ele>
        <time>2018-09-28T08:17:18Z</time>
      </trkpt>
      <trkpt lat="45.92521" lon="4.74065">
        <ele>172</ele>
        <time>2018-09-28T08:17:19Z</time>
      </trkpt>
      <trkpt lat="45.92516" lon="4.74067">
        <ele>172</ele>
        <time>2018-09-28T08:17:20Z</time>
      </trkpt>
      <trkpt lat="45.9251" lon="4.74076">
        <ele>172</ele>
        <time>2018-09-28T08:17:22Z</time>
      </trkpt>
      <trkpt lat="45.92507" lon="4.74081">
        <ele>172</ele>
        <time>2018-09-28T08:17:23Z</time>
      </trkpt>
      <trkpt lat="45.92504" lon="4.74086">
        <ele>172</ele>
        <time>2018-09-28T08:17:24Z</time>
      </trkpt>
      <trkpt lat="45.925" lon="4.7409">
        <ele>172</ele>
        <time>2018-09-28T08:17:25Z</time>
      </trkpt>
      <trkpt lat="45.92494" lon="4.74097">
        <ele>172</ele>
        <time>2018-09-28T08:17:27Z</time>
      </trkpt>
      <trkpt lat="45.92491" lon="4.74102">
        <ele>172</ele>
        <time>2018-09-28T08:17:28Z</time>
      </trkpt>
      <trkpt lat="45.92486" lon="4.74111">
        <ele>172</ele>
        <time>2018-09-28T08:17:30Z</time>
      </trkpt>
      <trkpt lat="45.92485" lon="4.74116">
        <ele>172</ele>
        <time>2018-09-28T08:17:31Z</time>
      </trkpt>
      <trkpt lat="45.92481" lon="4.74127">
        <ele>171</ele>
        <time>2018-09-28T08:17:33Z</time>
      </trkpt>
      <trkpt lat="45.9248" lon="4.74134">
        <ele>171</ele>
        <time>2018-09-28T08:17:34Z</time>
      </trkpt>
      <trkpt lat="45.92479" lon="4.74139">
        <ele>171</ele>
        <time>2018-09-28T08:17:35Z</time>
      </trkpt>
      <trkpt lat="45.92477" lon="4.74146">
        <ele>171</ele>
        <time>2018-09-28T08:17:36Z</time>
      </trkpt>
      <trkpt lat="45.92476" lon="4.74153">
        <ele>171</ele>
        <time>2018-09-28T08:17:37Z</time>
      </trkpt>
      <trkpt lat="45.92474" lon="4.74159">
        <ele>171</ele>
        <time>2018-09-28T08:17:38Z</time>
      </trkpt>
      <trkpt lat="45.9247" lon="4.7417">
        <ele>171</ele>
        <time>2018-09-28T08:17:40Z</time>
      </trkpt>
      <trkpt lat="45.92468" lon="4.74175">
        <ele>171</ele>
        <time>2018-09-28T08:17:41Z</time>
      </trkpt>
      <trkpt lat="45.92466" lon="4.74182">
        <ele>171</ele>
        <time>2018-09-28T08:17:42Z</time>
      </trkpt>
      <trkpt lat="45.92463" lon="4.7419">
        <ele>171</ele>
        <time>2018-09-28T08:17:43Z</time>
      </trkpt>
      <trkpt lat="45.92461" lon="4.74196">
        <ele>171</ele>
        <time>2018-09-28T08:17:44Z</time>
      </trkpt>
      <trkpt lat="45.92458" lon="4.74203">
        <ele>171</ele>
        <time>2018-09-28T08:17:45Z</time>
      </trkpt>
      <trkpt lat="45.92453" lon="4.7421">
        <ele>171</ele>
        <time>2018-09-28T08:17:47Z</time>
      </trkpt>
      <trkpt lat="45.92452" lon="4.74218">
        <ele>171</ele>
        <time>2018-09-28T08:17:48Z</time>
      </trkpt>
      <trkpt lat="45.92448" lon="4.74227">
        <ele>171</ele>
        <time>2018-09-28T08:17:50Z</time>
      </trkpt>
      <trkpt lat="45.92445" lon="4.74232">
        <ele>171</ele>
        <time>2018-09-28T08:17:51Z</time>
      </trkpt>
      <trkpt lat="45.9244" lon="4.74242">
        <ele>171</ele>
        <time>2018-09-28T08:17:53Z</time>
      </trkpt>
      <trkpt lat="45.92438" lon="4.74249">
        <ele>171</ele>
        <time>2018-09-28T08:17:54Z</time>
      </trkpt>
      <trkpt lat="45.92436" lon="4.74254">
        <ele>170</ele>
        <time>2018-09-28T08:17:55Z</time>
      </trkpt>
      <trkpt lat="45.92433" lon="4.7426">
        <ele>170</ele>
        <time>2018-09-28T08:17:56Z</time>
      </trkpt>
      <trkpt lat="45.9243" lon="4.74271">
        <ele>170</ele>
        <time>2018-09-28T08:17:58Z</time>
      </trkpt>
      <trkpt lat="45.92427" lon="4.74276">
        <ele>170</ele>
        <time>2018-09-28T08:17:59Z</time>
      </trkpt>
      <trkpt lat="45.92423" lon="4.74286">
        <ele>170</ele>
        <time>2018-09-28T08:18:01Z</time>
      </trkpt>
      <trkpt lat="45.92421" lon="4.7429">
        <ele>170</ele>
        <time>2018-09-28T08:18:02Z</time>
      </trkpt>
      <trkpt lat="45.92415" lon="4.74299">
        <ele>170</ele>
        <time>2018-09-28T08:18:04Z</time>
      </trkpt>
      <trkpt lat="45.92413" lon="4.74303">
        <ele>170</ele>
        <time>2018-09-28T08:18:05Z</time>
      </trkpt>
      <trkpt lat="45.92406" lon="4.74311">
        <ele>170</ele>
        <time>2018-09-28T08:18:07Z</time>
      </trkpt>
      <trkpt lat="45.92405" lon="4.74313">
        <ele>170</ele>
        <time>2018-09-28T08:18:08Z</time>
      </trkpt>
      <trkpt lat="45.92401" lon="4.74316">
        <ele>170</ele>
        <time>2018-09-28T08:18:10Z</time>
      </trkpt>
      <trkpt lat="45.92393" lon="4.74317">
        <ele>170</ele>
        <time>2018-09-28T08:18:11Z</time>
      </trkpt>
      <trkpt lat="45.92384" lon="4.74315">
        <ele>170</ele>
        <time>2018-09-28T08:18:13Z</time>
      </trkpt>
      <trkpt lat="45.9238" lon="4.74313">
        <ele>170</ele>
        <time>2018-09-28T08:18:14Z</time>
      </trkpt>
      <trkpt lat="45.92373" lon="4.7431">
        <ele>170</ele>
        <time>2018-09-28T08:18:16Z</time>
      </trkpt>
      <trkpt lat="45.92369" lon="4.74307">
        <ele>170</ele>
        <time>2018-09-28T08:18:17Z</time>
      </trkpt>
      <trkpt lat="45.92364" lon="4.74305">
        <ele>170</ele>
        <time>2018-09-28T08:18:18Z</time>
      </trkpt>
      <trkpt lat="45.9236" lon="4.74303">
        <ele>170</ele>
        <time>2018-09-28T08:18:19Z</time>
      </trkpt>
      <trkpt lat="45.92354" lon="4.74305">
        <ele>170</ele>
        <time>2018-09-28T08:18:20Z</time>
      </trkpt>
      <trkpt lat="45.9235" lon="4.74303">
        <ele>170</ele>
        <time>2018-09-28T08:18:21Z</time>
      </trkpt>
      <trkpt lat="45.92341" lon="4.74302">
        <ele>170</ele>
        <time>2018-09-28T08:18:23Z</time>
      </trkpt>
      <trkpt lat="45.92336" lon="4.74302">
        <ele>170</ele>
        <time>2018-09-28T08:18:24Z</time>
      </trkpt>
      <trkpt lat="45.92332" lon="4.74303">
        <ele>170</ele>
        <time>2018-09-28T08:18:25Z</time>
      </trkpt>
      <trkpt lat="45.92326" lon="4.74305">
        <ele>170</ele>
        <time>2018-09-28T08:18:26Z</time>
      </trkpt>
      <trkpt lat="45.92318" lon="4.74309">
        <ele>170</ele>
        <time>2018-09-28T08:18:28Z</time>
      </trkpt>
      <trkpt lat="45.92314" lon="4.74312">
        <ele>170</ele>
        <time>2018-09-28T08:18:29Z</time>
      </trkpt>
      <trkpt lat="45.92307" lon="4.74319">
        <ele>170</ele>
        <time>2018-09-28T08:18:31Z</time>
      </trkpt>
      <trkpt lat="45.92303" lon="4.74323">
        <ele>170</ele>
        <time>2018-09-28T08:18:32Z</time>
      </trkpt>
      <trkpt lat="45.92295" lon="4.7433">
        <ele>170</ele>
        <time>2018-09-28T08:18:34Z</time>
      </trkpt>
      <trkpt lat="45.92292" lon="4.74334">
        <ele>171</ele>
        <time>2018-09-28T08:18:35Z</time>
      </trkpt>
      <trkpt lat="45.92286" lon="4.74341">
        <ele>171</ele>
        <time>2018-09-28T08:18:37Z</time>
      </trkpt>
      <trkpt lat="45.92282" lon="4.74345">
        <ele>171</ele>
        <time>2018-09-28T08:18:38Z</time>
      </trkpt>
      <trkpt lat="45.92276" lon="4.74351">
        <ele>171</ele>
        <time>2018-09-28T08:18:40Z</time>
      </trkpt>
      <trkpt lat="45.92273" lon="4.74354">
        <ele>171</ele>
        <time>2018-09-28T08:18:41Z</time>
      </trkpt>
      <trkpt lat="45.92269" lon="4.74362">
        <ele>171</ele>
        <time>2018-09-28T08:18:43Z</time>
      </trkpt>
      <trkpt lat="45.92266" lon="4.74366">
        <ele>171</ele>
        <time>2018-09-28T08:18:44Z</time>
      </trkpt>
      <trkpt lat="45.9226" lon="4.74376">
        <ele>171</ele>
        <time>2018-09-28T08:18:46Z</time>
      </trkpt>
      <trkpt lat="45.92258" lon="4.74381">
        <ele>171</ele>
        <time>2018-09-28T08:18:47Z</time>
      </trkpt>
      <trkpt lat="45.92254" lon="4.74392">
        <ele>171</ele>
        <time>2018-09-28T08:18:49Z</time>
      </trkpt>
      <trkpt lat="45.92252" lon="4.74399">
        <ele>171</ele>
        <time>2018-09-28T08:18:50Z</time>
      </trkpt>
      <trkpt lat="45.92252" lon="4.74407">
        <ele>171</ele>
        <time>2018-09-28T08:18:51Z</time>
      </trkpt>
      <trkpt lat="45.92249" lon="4.74414">
        <ele>171</ele>
        <time>2018-09-28T08:18:52Z</time>
      </trkpt>
      <trkpt lat="45.92245" lon="4.74425">
        <ele>171</ele>
        <time>2018-09-28T08:18:54Z</time>
      </trkpt>
      <trkpt lat="45.92244" lon="4.7443">
        <ele>171</ele>
        <time>2018-09-28T08:18:55Z</time>
      </trkpt>
      <trkpt lat="45.92243" lon="4.74441">
        <ele>171</ele>
        <time>2018-09-28T08:18:58Z</time>
      </trkpt>
      <trkpt lat="45.92242" lon="4.74444">
        <ele>171</ele>
        <time>2018-09-28T08:18:59Z</time>
      </trkpt>
      <trkpt lat="45.92242" lon="4.74457">
        <ele>171</ele>
        <time>2018-09-28T08:19:02Z</time>
      </trkpt>
      <trkpt lat="45.92242" lon="4.74461">
        <ele>171</ele>
        <time>2018-09-28T08:19:03Z</time>
      </trkpt>
      <trkpt lat="45.92244" lon="4.74465">
        <ele>171</ele>
        <time>2018-09-28T08:19:04Z</time>
      </trkpt>
      <trkpt lat="45.92249" lon="4.74475">
        <ele>171</ele>
        <time>2018-09-28T08:19:05Z</time>
      </trkpt>
      <trkpt lat="45.92256" lon="4.74479">
        <ele>171</ele>
        <time>2018-09-28T08:19:07Z</time>
      </trkpt>
      <trkpt lat="45.92259" lon="4.74481">
        <ele>171</ele>
        <time>2018-09-28T08:19:08Z</time>
      </trkpt>
      <trkpt lat="45.92267" lon="4.74484">
        <ele>171</ele>
        <time>2018-09-28T08:19:10Z</time>
      </trkpt>
      <trkpt lat="45.9227" lon="4.74486">
        <ele>171</ele>
        <time>2018-09-28T08:19:11Z</time>
      </trkpt>
      <trkpt lat="45.92278" lon="4.74491">
        <ele>171</ele>
        <time>2018-09-28T08:19:13Z</time>
      </trkpt>
      <trkpt lat="45.92282" lon="4.74493">
        <ele>171</ele>
        <time>2018-09-28T08:19:14Z</time>
      </trkpt>
      <trkpt lat="45.92286" lon="4.74496">
        <ele>171</ele>
        <time>2018-09-28T08:19:15Z</time>
      </trkpt>
      <trkpt lat="45.92292" lon="4.74498">
        <ele>171</ele>
        <time>2018-09-28T08:19:16Z</time>
      </trkpt>
      <trkpt lat="45.923" lon="4.74502">
        <ele>171</ele>
        <time>2018-09-28T08:19:18Z</time>
      </trkpt>
      <trkpt lat="45.92304" lon="4.74502">
        <ele>171</ele>
        <time>2018-09-28T08:19:19Z</time>
      </trkpt>
      <trkpt lat="45.92307" lon="4.74505">
        <ele>171</ele>
        <time>2018-09-28T08:19:20Z</time>
      </trkpt>
      <trkpt lat="45.92312" lon="4.74508">
        <ele>171</ele>
        <time>2018-09-28T08:19:21Z</time>
      </trkpt>
      <trkpt lat="45.92318" lon="4.74511">
        <ele>171</ele>
        <time>2018-09-28T08:19:23Z</time>
      </trkpt>
      <trkpt lat="45.92322" lon="4.74512">
        <ele>171</ele>
        <time>2018-09-28T08:19:24Z</time>
      </trkpt>
      <trkpt lat="45.92326" lon="4.74516">
        <ele>171</ele>
        <time>2018-09-28T08:19:25Z</time>
      </trkpt>
      <trkpt lat="45.9233" lon="4.74518">
        <ele>171</ele>
        <time>2018-09-28T08:19:26Z</time>
      </trkpt>
      <trkpt lat="45.92335" lon="4.74523">
        <ele>171</ele>
        <time>2018-09-28T08:19:28Z</time>
      </trkpt>
      <trkpt lat="45.92339" lon="4.74526">
        <ele>171</ele>
        <time>2018-09-28T08:19:29Z</time>
      </trkpt>
      <trkpt lat="45.92343" lon="4.74529">
        <ele>171</ele>
        <time>2018-09-28T08:19:30Z</time>
      </trkpt>
      <trkpt lat="45.92348" lon="4.74531">
        <ele>171</ele>
        <time>2018-09-28T08:19:31Z</time>
      </trkpt>
      <trkpt lat="45.92355" lon="4.74537">
        <ele>171</ele>
        <time>2018-09-28T08:19:33Z</time>
      </trkpt>
      <trkpt lat="45.9236" lon="4.7454">
        <ele>171</ele>
        <time>2018-09-28T08:19:34Z</time>
      </trkpt>
      <trkpt lat="45.92364" lon="4.74543">
        <ele>170</ele>
        <time>2018-09-28T08:19:35Z</time>
      </trkpt>
      <trkpt lat="45.92369" lon="4.74545">
        <ele>170</ele>
        <time>2018-09-28T08:19:36Z</time>
      </trkpt>
      <trkpt lat="45.92373" lon="4.74548">
        <ele>170</ele>
        <time>2018-09-28T08:19:37Z</time>
      </trkpt>
      <trkpt lat="45.92378" lon="4.74549">
        <ele>171</ele>
        <time>2018-09-28T08:19:38Z</time>
      </trkpt>
      <trkpt lat="45.92385" lon="4.74554">
        <ele>171</ele>
        <time>2018-09-28T08:19:40Z</time>
      </trkpt>
      <trkpt lat="45.92387" lon="4.74555">
        <ele>171</ele>
        <time>2018-09-28T08:19:41Z</time>
      </trkpt>
      <trkpt lat="45.92391" lon="4.74558">
        <ele>171</ele>
        <time>2018-09-28T08:19:43Z</time>
      </trkpt>
      <trkpt lat="45.92398" lon="4.74562">
        <ele>171</ele>
        <time>2018-09-28T08:19:44Z</time>
      </trkpt>
      <trkpt lat="45.92404" lon="4.74567">
        <ele>171</ele>
        <time>2018-09-28T08:19:46Z</time>
      </trkpt>
      <trkpt lat="45.92409" lon="4.7457">
        <ele>171</ele>
        <time>2018-09-28T08:19:47Z</time>
      </trkpt>
      <trkpt lat="45.92416" lon="4.74574">
        <ele>171</ele>
        <time>2018-09-28T08:19:49Z</time>
      </trkpt>
      <trkpt lat="45.92418" lon="4.74575">
        <ele>171</ele>
        <time>2018-09-28T08:19:50Z</time>
      </trkpt>
      <trkpt lat="45.9242" lon="4.74577">
        <ele>171</ele>
        <time>2018-09-28T08:19:51Z</time>
      </trkpt>
      <trkpt lat="45.92426" lon="4.74582">
        <ele>171</ele>
        <time>2018-09-28T08:19:52Z</time>
      </trkpt>
      <trkpt lat="45.92432" lon="4.7459">
        <ele>171</ele>
        <time>2018-09-28T08:19:55Z</time>
      </trkpt>
      <trkpt lat="45.92433" lon="4.74593">
        <ele>171</ele>
        <time>2018-09-28T08:19:56Z</time>
      </trkpt>
      <trkpt lat="45.92434" lon="4.74596">
        <ele>171</ele>
        <time>2018-09-28T08:19:57Z</time>
      </trkpt>
      <trkpt lat="45.92436" lon="4.74606">
        <ele>171</ele>
        <time>2018-09-28T08:19:58Z</time>
      </trkpt>
      <trkpt lat="45.92431" lon="4.74617">
        <ele>171</ele>
        <time>2018-09-28T08:20:00Z</time>
      </trkpt>
      <trkpt lat="45.92428" lon="4.74622">
        <ele>171</ele>
        <time>2018-09-28T08:20:01Z</time>
      </trkpt>
      <trkpt lat="45.92426" lon="4.74628">
        <ele>171</ele>
        <time>2018-09-28T08:20:02Z</time>
      </trkpt>
      <trkpt lat="45.92424" lon="4.74633">
        <ele>171</ele>
        <time>2018-09-28T08:20:03Z</time>
      </trkpt>
      <trkpt lat="45.92422" lon="4.74635">
        <ele>171</ele>
        <time>2018-09-28T08:20:04Z</time>
      </trkpt>
      <trkpt lat="45.92416" lon="4.74644">
        <ele>171</ele>
        <time>2018-09-28T08:20:05Z</time>
      </trkpt>
      <trkpt lat="45.92413" lon="4.74648">
        <ele>171</ele>
        <time>2018-09-28T08:20:06Z</time>
      </trkpt>
      <trkpt lat="45.92409" lon="4.74653">
        <ele>171</ele>
        <time>2018-09-28T08:20:07Z</time>
      </trkpt>
      <trkpt lat="45.92404" lon="4.74663">
        <ele>171</ele>
        <time>2018-09-28T08:20:09Z</time>
      </trkpt>
      <trkpt lat="45.92403" lon="4.74668">
        <ele>171</ele>
        <time>2018-09-28T08:20:10Z</time>
      </trkpt>
      <trkpt lat="45.92398" lon="4.74676">
        <ele>171</ele>
        <time>2018-09-28T08:20:12Z</time>
      </trkpt>
      <trkpt lat="45.92395" lon="4.7468">
        <ele>171</ele>
        <time>2018-09-28T08:20:13Z</time>
      </trkpt>
      <trkpt lat="45.92391" lon="4.74686">
        <ele>171</ele>
        <time>2018-09-28T08:20:15Z</time>
      </trkpt>
      <trkpt lat="45.92388" lon="4.74692">
        <ele>171</ele>
        <time>2018-09-28T08:20:16Z</time>
      </trkpt>
      <trkpt lat="45.92384" lon="4.747">
        <ele>171</ele>
        <time>2018-09-28T08:20:18Z</time>
      </trkpt>
      <trkpt lat="45.92382" lon="4.74705">
        <ele>171</ele>
        <time>2018-09-28T08:20:19Z</time>
      </trkpt>
      <trkpt lat="45.92377" lon="4.74713">
        <ele>171</ele>
        <time>2018-09-28T08:20:21Z</time>
      </trkpt>
      <trkpt lat="45.92375" lon="4.74719">
        <ele>171</ele>
        <time>2018-09-28T08:20:22Z</time>
      </trkpt>
      <trkpt lat="45.92372" lon="4.74726">
        <ele>171</ele>
        <time>2018-09-28T08:20:23Z</time>
      </trkpt>
      <trkpt lat="45.92371" lon="4.74732">
        <ele>171</ele>
        <time>2018-09-28T08:20:24Z</time>
      </trkpt>
      <trkpt lat="45.9237" lon="4.74739">
        <ele>171</ele>
        <time>2018-09-28T08:20:25Z</time>
      </trkpt>
      <trkpt lat="45.92367" lon="4.74744">
        <ele>171</ele>
        <time>2018-09-28T08:20:26Z</time>
      </trkpt>
      <trkpt lat="45.92364" lon="4.74748">
        <ele>171</ele>
        <time>2018-09-28T08:20:27Z</time>
      </trkpt>
      <trkpt lat="45.92361" lon="4.74755">
        <ele>171</ele>
        <time>2018-09-28T08:20:28Z</time>
      </trkpt>
      <trkpt lat="45.92356" lon="4.74764">
        <ele>171</ele>
        <time>2018-09-28T08:20:30Z</time>
      </trkpt>
      <trkpt lat="45.92353" lon="4.74768">
        <ele>171</ele>
        <time>2018-09-28T08:20:31Z</time>
      </trkpt>
      <trkpt lat="45.92348" lon="4.74777">
        <ele>171</ele>
        <time>2018-09-28T08:20:34Z</time>
      </trkpt>
      <trkpt lat="45.92347" lon="4.74779">
        <ele>171</ele>
        <time>2018-09-28T08:20:35Z</time>
      </trkpt>
      <trkpt lat="45.92342" lon="4.74786">
        <ele>171</ele>
        <time>2018-09-28T08:20:36Z</time>
      </trkpt>
      <trkpt lat="45.9234" lon="4.7479">
        <ele>171</ele>
        <time>2018-09-28T08:20:37Z</time>
      </trkpt>
      <trkpt lat="45.92335" lon="4.74798">
        <ele>171</ele>
        <time>2018-09-28T08:20:39Z</time>
      </trkpt>
      <trkpt lat="45.92333" lon="4.74803">
        <ele>171</ele>
        <time>2018-09-28T08:20:40Z</time>
      </trkpt>
      <trkpt lat="45.92327" lon="4.74813">
        <ele>171</ele>
        <time>2018-09-28T08:20:42Z</time>
      </trkpt>
      <trkpt lat="45.92325" lon="4.74817">
        <ele>171</ele>
        <time>2018-09-28T08:20:43Z</time>
      </trkpt>
      <trkpt lat="45.92322" lon="4.74822">
        <ele>171</ele>
        <time>2018-09-28T08:20:44Z</time>
      </trkpt>
      <trkpt lat="45.92319" lon="4.74827">
        <ele>171</ele>
        <time>2018-09-28T08:20:45Z</time>
      </trkpt>
      <trkpt lat="45.92313" lon="4.74835">
        <ele>172</ele>
        <time>2018-09-28T08:20:47Z</time>
      </trkpt>
      <trkpt lat="45.92312" lon="4.74837">
        <ele>172</ele>
        <time>2018-09-28T08:20:48Z</time>
      </trkpt>
      <trkpt lat="45.92307" lon="4.74844">
        <ele>172</ele>
        <time>2018-09-28T08:20:51Z</time>
      </trkpt>
      <trkpt lat="45.92306" lon="4.74847">
        <ele>172</ele>
        <time>2018-09-28T08:20:52Z</time>
      </trkpt>
      <trkpt lat="45.92301" lon="4.74853">
        <ele>172</ele>
        <time>2018-09-28T08:20:54Z</time>
      </trkpt>
      <trkpt lat="45.92295" lon="4.74863">
        <ele>172</ele>
        <time>2018-09-28T08:20:55Z</time>
      </trkpt>
      <trkpt lat="45.9229" lon="4.74871">
        <ele>171</ele>
        <time>2018-09-28T08:20:57Z</time>
      </trkpt>
      <trkpt lat="45.92287" lon="4.74875">
        <ele>171</ele>
        <time>2018-09-28T08:20:58Z</time>
      </trkpt>
      <trkpt lat="45.92282" lon="4.74884">
        <ele>172</ele>
        <time>2018-09-28T08:21:00Z</time>
      </trkpt>
      <trkpt lat="45.92279" lon="4.74888">
        <ele>172</ele>
        <time>2018-09-28T08:21:01Z</time>
      </trkpt>
      <trkpt lat="45.92274" lon="4.74897">
        <ele>172</ele>
        <time>2018-09-28T08:21:03Z</time>
      </trkpt>
      <trkpt lat="45.92271" lon="4.74902">
        <ele>172</ele>
        <time>2018-09-28T08:21:04Z</time>
      </trkpt>
      <trkpt lat="45.92264" lon="4.7491">
        <ele>172</ele>
        <time>2018-09-28T08:21:08Z</time>
      </trkpt>
      <trkpt lat="45.92262" lon="4.74912">
        <ele>172</ele>
        <time>2018-09-28T08:21:09Z</time>
      </trkpt>
      <trkpt lat="45.92255" lon="4.74921">
        <ele>172</ele>
        <time>2018-09-28T08:21:10Z</time>
      </trkpt>
      <trkpt lat="45.92254" lon="4.74927">
        <ele>172</ele>
        <time>2018-09-28T08:21:11Z</time>
      </trkpt>
      <trkpt lat="45.92252" lon="4.74933">
        <ele>172</ele>
        <time>2018-09-28T08:21:12Z</time>
      </trkpt>
      <trkpt lat="45.92251" lon="4.74939">
        <ele>172</ele>
        <time>2018-09-28T08:21:13Z</time>
      </trkpt>
      <trkpt lat="45.92248" lon="4.74951">
        <ele>172</ele>
        <time>2018-09-28T08:21:15Z</time>
      </trkpt>
      <trkpt lat="45.92247" lon="4.74957">
        <ele>172</ele>
        <time>2018-09-28T08:21:16Z</time>
      </trkpt>
      <trkpt lat="45.92243" lon="4.74968">
        <ele>172</ele>
        <time>2018-09-28T08:21:20Z</time>
      </trkpt>
      <trkpt lat="45.92241" lon="4.74969">
        <ele>172</ele>
        <time>2018-09-28T08:21:21Z</time>
      </trkpt>
      <trkpt lat="45.92234" lon="4.74964">
        <ele>171</ele>
        <time>2018-09-28T08:21:33Z</time>
      </trkpt>
      <trkpt lat="45.92233" lon="4.74963">
        <ele>171</ele>
        <time>2018-09-28T08:21:34Z</time>
      </trkpt>
      <trkpt lat="45.92225" lon="4.74959">
        <ele>171</ele>
        <time>2018-09-28T08:21:37Z</time>
      </trkpt>
      <trkpt lat="45.92216" lon="4.74956">
        <ele>171</ele>
        <time>2018-09-28T08:21:38Z</time>
      </trkpt>
      <trkpt lat="45.92208" lon="4.74952">
        <ele>171</ele>
        <time>2018-09-28T08:21:41Z</time>
      </trkpt>
      <trkpt lat="45.92205" lon="4.7495">
        <ele>171</ele>
        <time>2018-09-28T08:21:42Z</time>
      </trkpt>
      <trkpt lat="45.922" lon="4.74947">
        <ele>171</ele>
        <time>2018-09-28T08:21:44Z</time>
      </trkpt>
      <trkpt lat="45.92197" lon="4.74945">
        <ele>171</ele>
        <time>2018-09-28T08:21:45Z</time>
      </trkpt>
      <trkpt lat="45.92188" lon="4.74939">
        <ele>171</ele>
        <time>2018-09-28T08:21:46Z</time>
      </trkpt>
      <trkpt lat="45.92182" lon="4.74933">
        <ele>171</ele>
        <time>2018-09-28T08:21:47Z</time>
      </trkpt>
      <trkpt lat="45.92179" lon="4.74931">
        <ele>171</ele>
        <time>2018-09-28T08:21:48Z</time>
      </trkpt>
      <trkpt lat="45.92171" lon="4.74926">
        <ele>170</ele>
        <time>2018-09-28T08:21:50Z</time>
      </trkpt>
      <trkpt lat="45.92165" lon="4.74925">
        <ele>170</ele>
        <time>2018-09-28T08:21:51Z</time>
      </trkpt>
      <trkpt lat="45.92159" lon="4.74923">
        <ele>170</ele>
        <time>2018-09-28T08:21:52Z</time>
      </trkpt>
      <trkpt lat="45.92154" lon="4.74921">
        <ele>170</ele>
        <time>2018-09-28T08:21:53Z</time>
      </trkpt>
      <trkpt lat="45.92146" lon="4.74916">
        <ele>170</ele>
        <time>2018-09-28T08:21:56Z</time>
      </trkpt>
      <trkpt lat="45.92142" lon="4.74914">
        <ele>170</ele>
        <time>2018-09-28T08:21:57Z</time>
      </trkpt>
      <trkpt lat="45.92135" lon="4.74912">
        <ele>170</ele>
        <time>2018-09-28T08:21:58Z</time>
      </trkpt>
      <trkpt lat="45.92131" lon="4.74909">
        <ele>170</ele>
        <time>2018-09-28T08:21:59Z</time>
      </trkpt>
      <trkpt lat="45.92126" lon="4.74906">
        <ele>170</ele>
        <time>2018-09-28T08:22:00Z</time>
      </trkpt>
      <trkpt lat="45.92118" lon="4.74904">
        <ele>170</ele>
        <time>2018-09-28T08:22:01Z</time>
      </trkpt>
      <trkpt lat="45.9211" lon="4.74901">
        <ele>170</ele>
        <time>2018-09-28T08:22:03Z</time>
      </trkpt>
      <trkpt lat="45.92103" lon="4.74896">
        <ele>170</ele>
        <time>2018-09-28T08:22:04Z</time>
      </trkpt>
      <trkpt lat="45.92094" lon="4.74893">
        <ele>170</ele>
        <time>2018-09-28T08:22:06Z</time>
      </trkpt>
      <trkpt lat="45.92092" lon="4.74892">
        <ele>170</ele>
        <time>2018-09-28T08:22:07Z</time>
      </trkpt>
      <trkpt lat="45.92083" lon="4.7489">
        <ele>169</ele>
        <time>2018-09-28T08:22:09Z</time>
      </trkpt>
      <trkpt lat="45.9208" lon="4.74888">
        <ele>169</ele>
        <time>2018-09-28T08:22:10Z</time>
      </trkpt>
      <trkpt lat="45.92073" lon="4.74881">
        <ele>169</ele>
        <time>2018-09-28T08:22:12Z</time>
      </trkpt>
      <trkpt lat="45.92069" lon="4.74877">
        <ele>169</ele>
        <time>2018-09-28T08:22:13Z</time>
      </trkpt>
      <trkpt lat="45.92064" lon="4.74874">
        <ele>169</ele>
        <time>2018-09-28T08:22:14Z</time>
      </trkpt>
      <trkpt lat="45.9206" lon="4.74872">
        <ele>169</ele>
        <time>2018-09-28T08:22:15Z</time>
      </trkpt>
      <trkpt lat="45.92056" lon="4.7487">
        <ele>169</ele>
        <time>2018-09-28T08:22:16Z</time>
      </trkpt>
      <trkpt lat="45.92051" lon="4.74868">
        <ele>169</ele>
        <time>2018-09-28T08:22:17Z</time>
      </trkpt>
      <trkpt lat="45.92044" lon="4.74863">
        <ele>169</ele>
        <time>2018-09-28T08:22:19Z</time>
      </trkpt>
      <trkpt lat="45.92041" lon="4.74859">
        <ele>169</ele>
        <time>2018-09-28T08:22:20Z</time>
      </trkpt>
      <trkpt lat="45.92037" lon="4.74858">
        <ele>169</ele>
        <time>2018-09-28T08:22:21Z</time>
      </trkpt>
      <trkpt lat="45.92032" lon="4.74855">
        <ele>169</ele>
        <time>2018-09-28T08:22:22Z</time>
      </trkpt>
      <trkpt lat="45.92028" lon="4.74852">
        <ele>169</ele>
        <time>2018-09-28T08:22:23Z</time>
      </trkpt>
      <trkpt lat="45.92022" lon="4.74849">
        <ele>169</ele>
        <time>2018-09-28T08:22:24Z</time>
      </trkpt>
      <trkpt lat="45.92019" lon="4.74846">
        <ele>169</ele>
        <time>2018-09-28T08:22:25Z</time>
      </trkpt>
      <trkpt lat="45.92013" lon="4.74843">
        <ele>168</ele>
        <time>2018-09-28T08:22:26Z</time>
      </trkpt>
      <trkpt lat="45.9201" lon="4.7484">
        <ele>168</ele>
        <time>2018-09-28T08:22:27Z</time>
      </trkpt>
      <trkpt lat="45.92003" lon="4.74841">
        <ele>168</ele>
        <time>2018-09-28T08:22:28Z</time>
      </trkpt>
      <trkpt lat="45.91999" lon="4.74839">
        <ele>168</ele>
        <time>2018-09-28T08:22:29Z</time>
      </trkpt>
      <trkpt lat="45.91993" lon="4.74837">
        <ele>169</ele>
        <time>2018-09-28T08:22:30Z</time>
      </trkpt>
      <trkpt lat="45.91988" lon="4.74835">
        <ele>169</ele>
        <time>2018-09-28T08:22:31Z</time>
      </trkpt>
      <trkpt lat="45.91983" lon="4.74833">
        <ele>169</ele>
        <time>2018-09-28T08:22:32Z</time>
      </trkpt>
      <trkpt lat="45.91975" lon="4.74828">
        <ele>169</ele>
        <time>2018-09-28T08:22:34Z</time>
      </trkpt>
      <trkpt lat="45.91971" lon="4.74826">
        <ele>169</ele>
        <time>2018-09-28T08:22:35Z</time>
      </trkpt>
      <trkpt lat="45.91963" lon="4.74825">
        <ele>170</ele>
        <time>2018-09-28T08:22:37Z</time>
      </trkpt>
      <trkpt lat="45.91959" lon="4.74823">
        <ele>170</ele>
        <time>2018-09-28T08:22:38Z</time>
      </trkpt>
      <trkpt lat="45.91956" lon="4.74818">
        <ele>170</ele>
        <time>2018-09-28T08:22:39Z</time>
      </trkpt>
      <trkpt lat="45.91951" lon="4.74816">
        <ele>170</ele>
        <time>2018-09-28T08:22:40Z</time>
      </trkpt>
      <trkpt lat="45.91947" lon="4.74812">
        <ele>170</ele>
        <time>2018-09-28T08:22:41Z</time>
      </trkpt>
      <trkpt lat="45.91943" lon="4.7481">
        <ele>170</ele>
        <time>2018-09-28T08:22:42Z</time>
      </trkpt>
      <trkpt lat="45.91938" lon="4.74808">
        <ele>170</ele>
        <time>2018-09-28T08:22:43Z</time>
      </trkpt>
      <trkpt lat="45.91934" lon="4.74804">
        <ele>170</ele>
        <time>2018-09-28T08:22:44Z</time>
      </trkpt>
      <trkpt lat="45.91929" lon="4.748">
        <ele>170</ele>
        <time>2018-09-28T08:22:45Z</time>
      </trkpt>
      <trkpt lat="45.91926" lon="4.74797">
        <ele>170</ele>
        <time>2018-09-28T08:22:46Z</time>
      </trkpt>
      <trkpt lat="45.91921" lon="4.74793">
        <ele>171</ele>
        <time>2018-09-28T08:22:47Z</time>
      </trkpt>
      <trkpt lat="45.91917" lon="4.7479">
        <ele>172</ele>
        <time>2018-09-28T08:22:48Z</time>
      </trkpt>
      <trkpt lat="45.9191" lon="4.74785">
        <ele>172</ele>
        <time>2018-09-28T08:22:50Z</time>
      </trkpt>
      <trkpt lat="45.91905" lon="4.74783">
        <ele>172</ele>
        <time>2018-09-28T08:22:51Z</time>
      </trkpt>
      <trkpt lat="45.91901" lon="4.74781">
        <ele>172</ele>
        <time>2018-09-28T08:22:52Z</time>
      </trkpt>
      <trkpt lat="45.91896" lon="4.74778">
        <ele>172</ele>
        <time>2018-09-28T08:22:53Z</time>
      </trkpt>
      <trkpt lat="45.91889" lon="4.74776">
        <ele>172</ele>
        <time>2018-09-28T08:22:54Z</time>
      </trkpt>
      <trkpt lat="45.91884" lon="4.74774">
        <ele>172</ele>
        <time>2018-09-28T08:22:55Z</time>
      </trkpt>
      <trkpt lat="45.91879" lon="4.74771">
        <ele>172</ele>
        <time>2018-09-28T08:22:56Z</time>
      </trkpt>
      <trkpt lat="45.91872" lon="4.74768">
        <ele>171</ele>
        <time>2018-09-28T08:22:57Z</time>
      </trkpt>
      <trkpt lat="45.91867" lon="4.74768">
        <ele>171</ele>
        <time>2018-09-28T08:22:58Z</time>
      </trkpt>
      <trkpt lat="45.91862" lon="4.74766">
        <ele>171</ele>
        <time>2018-09-28T08:22:59Z</time>
      </trkpt>
      <trkpt lat="45.91854" lon="4.74768">
        <ele>171</ele>
        <time>2018-09-28T08:23:01Z</time>
      </trkpt>
      <trkpt lat="45.91849" lon="4.74771">
        <ele>171</ele>
        <time>2018-09-28T08:23:02Z</time>
      </trkpt>
      <trkpt lat="45.91844" lon="4.74773">
        <ele>171</ele>
        <time>2018-09-28T08:23:03Z</time>
      </trkpt>
      <trkpt lat="45.9184" lon="4.74776">
        <ele>171</ele>
        <time>2018-09-28T08:23:04Z</time>
      </trkpt>
      <trkpt lat="45.91836" lon="4.74786">
        <ele>171</ele>
        <time>2018-09-28T08:23:07Z</time>
      </trkpt>
      <trkpt lat="45.91834" lon="4.74792">
        <ele>172</ele>
        <time>2018-09-28T08:23:08Z</time>
      </trkpt>
      <trkpt lat="45.91831" lon="4.74797">
        <ele>172</ele>
        <time>2018-09-28T08:23:09Z</time>
      </trkpt>
      <trkpt lat="45.91826" lon="4.74801">
        <ele>172</ele>
        <time>2018-09-28T08:23:10Z</time>
      </trkpt>
      <trkpt lat="45.91825" lon="4.74809">
        <ele>172</ele>
        <time>2018-09-28T08:23:11Z</time>
      </trkpt>
      <trkpt lat="45.91821" lon="4.74815">
        <ele>172</ele>
        <time>2018-09-28T08:23:12Z</time>
      </trkpt>
      <trkpt lat="45.91818" lon="4.74821">
        <ele>172</ele>
        <time>2018-09-28T08:23:13Z</time>
      </trkpt>
      <trkpt lat="45.91814" lon="4.74825">
        <ele>172</ele>
        <time>2018-09-28T08:23:14Z</time>
      </trkpt>
      <trkpt lat="45.91811" lon="4.74829">
        <ele>172</ele>
        <time>2018-09-28T08:23:15Z</time>
      </trkpt>
      <trkpt lat="45.91806" lon="4.74833">
        <ele>172</ele>
        <time>2018-09-28T08:23:16Z</time>
      </trkpt>
      <trkpt lat="45.91803" lon="4.7484">
        <ele>172</ele>
        <time>2018-09-28T08:23:17Z</time>
      </trkpt>
      <trkpt lat="45.91802" lon="4.74847">
        <ele>173</ele>
        <time>2018-09-28T08:23:18Z</time>
      </trkpt>
      <trkpt lat="45.918" lon="4.74853">
        <ele>173</ele>
        <time>2018-09-28T08:23:19Z</time>
      </trkpt>
      <trkpt lat="45.91798" lon="4.74858">
        <ele>173</ele>
        <time>2018-09-28T08:23:20Z</time>
      </trkpt>
      <trkpt lat="45.91792" lon="4.74866">
        <ele>173</ele>
        <time>2018-09-28T08:23:22Z</time>
      </trkpt>
      <trkpt lat="45.91789" lon="4.7487">
        <ele>173</ele>
        <time>2018-09-28T08:23:23Z</time>
      </trkpt>
      <trkpt lat="45.91784" lon="4.74878">
        <ele>173</ele>
        <time>2018-09-28T08:23:25Z</time>
      </trkpt>
      <trkpt lat="45.91782" lon="4.74883">
        <ele>173</ele>
        <time>2018-09-28T08:23:26Z</time>
      </trkpt>
      <trkpt lat="45.91779" lon="4.74888">
        <ele>173</ele>
        <time>2018-09-28T08:23:27Z</time>
      </trkpt>
      <trkpt lat="45.91777" lon="4.74894">
        <ele>173</ele>
        <time>2018-09-28T08:23:28Z</time>
      </trkpt>
      <trkpt lat="45.91773" lon="4.74904">
        <ele>173</ele>
        <time>2018-09-28T08:23:30Z</time>
      </trkpt>
      <trkpt lat="45.91771" lon="4.74909">
        <ele>173</ele>
        <time>2018-09-28T08:23:31Z</time>
      </trkpt>
      <trkpt lat="45.91766" lon="4.74917">
        <ele>173</ele>
        <time>2018-09-28T08:23:34Z</time>
      </trkpt>
      <trkpt lat="45.91765" lon="4.7492">
        <ele>174</ele>
        <time>2018-09-28T08:23:35Z</time>
      </trkpt>
      <trkpt lat="45.91761" lon="4.74927">
        <ele>174</ele>
        <time>2018-09-28T08:23:37Z</time>
      </trkpt>
      <trkpt lat="45.91759" lon="4.74931">
        <ele>174</ele>
        <time>2018-09-28T08:23:38Z</time>
      </trkpt>
      <trkpt lat="45.91755" lon="4.74938">
        <ele>174</ele>
        <time>2018-09-28T08:23:40Z</time>
      </trkpt>
      <trkpt lat="45.91752" lon="4.74941">
        <ele>174</ele>
        <time>2018-09-28T08:23:41Z</time>
      </trkpt>
      <trkpt lat="45.91748" lon="4.74947">
        <ele>174</ele>
        <time>2018-09-28T08:23:43Z</time>
      </trkpt>
      <trkpt lat="45.91745" lon="4.7495">
        <ele>174</ele>
        <time>2018-09-28T08:23:44Z</time>
      </trkpt>
      <trkpt lat="45.91743" lon="4.74952">
        <ele>174</ele>
        <time>2018-09-28T08:23:45Z</time>
      </trkpt>
      <trkpt lat="45.91737" lon="4.7496">
        <ele>175</ele>
        <time>2018-09-28T08:23:46Z</time>
      </trkpt>
      <trkpt lat="45.91731" lon="4.74965">
        <ele>175</ele>
        <time>2018-09-28T08:23:49Z</time>
      </trkpt>
      <trkpt lat="45.91725" lon="4.7497">
        <ele>175</ele>
        <time>2018-09-28T08:23:50Z</time>
      </trkpt>
      <trkpt lat="45.91719" lon="4.74975">
        <ele>175</ele>
        <time>2018-09-28T08:23:52Z</time>
      </trkpt>
      <trkpt lat="45.91716" lon="4.74978">
        <ele>175</ele>
        <time>2018-09-28T08:23:53Z</time>
      </trkpt>
      <trkpt lat="45.91712" lon="4.74981">
        <ele>175</ele>
        <time>2018-09-28T08:23:55Z</time>
      </trkpt>
      <trkpt lat="45.91707" lon="4.74985">
        <ele>175</ele>
        <time>2018-09-28T08:23:56Z</time>
      </trkpt>
      <trkpt lat="45.91702" lon="4.74988">
        <ele>175</ele>
        <time>2018-09-28T08:23:58Z</time>
      </trkpt>
      <trkpt lat="45.91696" lon="4.7499">
        <ele>175</ele>
        <time>2018-09-28T08:23:59Z</time>
      </trkpt>
      <trkpt lat="45.91687" lon="4.74988">
        <ele>175</ele>
        <time>2018-09-28T08:24:01Z</time>
      </trkpt>
      <trkpt lat="45.91683" lon="4.74986">
        <ele>175</ele>
        <time>2018-09-28T08:24:02Z</time>
      </trkpt>
      <trkpt lat="45.91674" lon="4.74983">
        <ele>175</ele>
        <time>2018-09-28T08:24:04Z</time>
      </trkpt>
      <trkpt lat="45.9167" lon="4.74981">
        <ele>175</ele>
        <time>2018-09-28T08:24:05Z</time>
      </trkpt>
      <trkpt lat="45.91664" lon="4.74979">
        <ele>176</ele>
        <time>2018-09-28T08:24:07Z</time>
      </trkpt>
      <trkpt lat="45.91659" lon="4.74976">
        <ele>176</ele>
        <time>2018-09-28T08:24:08Z</time>
      </trkpt>
      <trkpt lat="45.91651" lon="4.74972">
        <ele>176</ele>
        <time>2018-09-28T08:24:10Z</time>
      </trkpt>
      <trkpt lat="45.91647" lon="4.7497">
        <ele>176</ele>
        <time>2018-09-28T08:24:11Z</time>
      </trkpt>
      <trkpt lat="45.91643" lon="4.74968">
        <ele>176</ele>
        <time>2018-09-28T08:24:12Z</time>
      </trkpt>
      <trkpt lat="45.91638" lon="4.74966">
        <ele>176</ele>
        <time>2018-09-28T08:24:13Z</time>
      </trkpt>
      <trkpt lat="45.9163" lon="4.74964">
        <ele>176</ele>
        <time>2018-09-28T08:24:15Z</time>
      </trkpt>
      <trkpt lat="45.91626" lon="4.74962">
        <ele>177</ele>
        <time>2018-09-28T08:24:16Z</time>
      </trkpt>
      <trkpt lat="45.91619" lon="4.74958">
        <ele>177</ele>
        <time>2018-09-28T08:24:18Z</time>
      </trkpt>
      <trkpt lat="45.91613" lon="4.74957">
        <ele>177</ele>
        <time>2018-09-28T08:24:19Z</time>
      </trkpt>
      <trkpt lat="45.91605" lon="4.74954">
        <ele>177</ele>
        <time>2018-09-28T08:24:21Z</time>
      </trkpt>
      <trkpt lat="45.916" lon="4.74954">
        <ele>177</ele>
        <time>2018-09-28T08:24:22Z</time>
      </trkpt>
      <trkpt lat="45.91593" lon="4.74952">
        <ele>177</ele>
        <time>2018-09-28T08:24:24Z</time>
      </trkpt>
      <trkpt lat="45.91589" lon="4.7495">
        <ele>177</ele>
        <time>2018-09-28T08:24:25Z</time>
      </trkpt>
      <trkpt lat="45.91585" lon="4.74949">
        <ele>177</ele>
        <time>2018-09-28T08:24:26Z</time>
      </trkpt>
      <trkpt lat="45.91579" lon="4.74945">
        <ele>178</ele>
        <time>2018-09-28T08:24:27Z</time>
      </trkpt>
      <trkpt lat="45.91572" lon="4.74942">
        <ele>178</ele>
        <time>2018-09-28T08:24:29Z</time>
      </trkpt>
      <trkpt lat="45.91567" lon="4.74943">
        <ele>178</ele>
        <time>2018-09-28T08:24:30Z</time>
      </trkpt>
      <trkpt lat="45.91562" lon="4.74942">
        <ele>178</ele>
        <time>2018-09-28T08:24:31Z</time>
      </trkpt>
      <trkpt lat="45.91557" lon="4.74941">
        <ele>178</ele>
        <time>2018-09-28T08:24:32Z</time>
      </trkpt>
      <trkpt lat="45.91552" lon="4.74939">
        <ele>178</ele>
        <time>2018-09-28T08:24:33Z</time>
      </trkpt>
      <trkpt lat="45.91546" lon="4.74938">
        <ele>178</ele>
        <time>2018-09-28T08:24:34Z</time>
      </trkpt>
      <trkpt lat="45.91539" lon="4.74938">
        <ele>178</ele>
        <time>2018-09-28T08:24:35Z</time>
      </trkpt>
      <trkpt lat="45.91535" lon="4.74939">
        <ele>178</ele>
        <time>2018-09-28T08:24:36Z</time>
      </trkpt>
      <trkpt lat="45.9153" lon="4.7494">
        <ele>178</ele>
        <time>2018-09-28T08:24:37Z</time>
      </trkpt>
      <trkpt lat="45.91526" lon="4.74938">
        <ele>178</ele>
        <time>2018-09-28T08:24:38Z</time>
      </trkpt>
      <trkpt lat="45.91517" lon="4.74934">
        <ele>177</ele>
        <time>2018-09-28T08:24:41Z</time>
      </trkpt>
      <trkpt lat="45.91513" lon="4.74936">
        <ele>177</ele>
        <time>2018-09-28T08:24:42Z</time>
      </trkpt>
      <trkpt lat="45.91509" lon="4.74936">
        <ele>177</ele>
        <time>2018-09-28T08:24:43Z</time>
      </trkpt>
      <trkpt lat="45.91503" lon="4.74932">
        <ele>177</ele>
        <time>2018-09-28T08:24:44Z</time>
      </trkpt>
      <trkpt lat="45.91495" lon="4.74926">
        <ele>177</ele>
        <time>2018-09-28T08:24:46Z</time>
      </trkpt>
      <trkpt lat="45.9149" lon="4.74927">
        <ele>178</ele>
        <time>2018-09-28T08:24:47Z</time>
      </trkpt>
      <trkpt lat="45.91485" lon="4.74925">
        <ele>178</ele>
        <time>2018-09-28T08:24:48Z</time>
      </trkpt>
      <trkpt lat="45.91481" lon="4.74924">
        <ele>178</ele>
        <time>2018-09-28T08:24:49Z</time>
      </trkpt>
      <trkpt lat="45.91476" lon="4.74923">
        <ele>178</ele>
        <time>2018-09-28T08:24:50Z</time>
      </trkpt>
      <trkpt lat="45.91472" lon="4.74922">
        <ele>178</ele>
        <time>2018-09-28T08:24:51Z</time>
      </trkpt>
      <trkpt lat="45.91466" lon="4.74922">
        <ele>178</ele>
        <time>2018-09-28T08:24:52Z</time>
      </trkpt>
      <trkpt lat="45.91461" lon="4.7492">
        <ele>178</ele>
        <time>2018-09-28T08:24:53Z</time>
      </trkpt>
      <trkpt lat="45.91453" lon="4.74918">
        <ele>178</ele>
        <time>2018-09-28T08:24:55Z</time>
      </trkpt>
      <trkpt lat="45.91449" lon="4.74917">
        <ele>177</ele>
        <time>2018-09-28T08:24:56Z</time>
      </trkpt>
      <trkpt lat="45.91441" lon="4.74916">
        <ele>177</ele>
        <time>2018-09-28T08:24:58Z</time>
      </trkpt>
      <trkpt lat="45.91438" lon="4.74915">
        <ele>177</ele>
        <time>2018-09-28T08:24:59Z</time>
      </trkpt>
      <trkpt lat="45.9143" lon="4.74913">
        <ele>177</ele>
        <time>2018-09-28T08:25:01Z</time>
      </trkpt>
      <trkpt lat="45.91424" lon="4.74914">
        <ele>178</ele>
        <time>2018-09-28T08:25:02Z</time>
      </trkpt>
      <trkpt lat="45.91416" lon="4.7491">
        <ele>178</ele>
        <time>2018-09-28T08:25:04Z</time>
      </trkpt>
      <trkpt lat="45.91412" lon="4.74909">
        <ele>177</ele>
        <time>2018-09-28T08:25:05Z</time>
      </trkpt>
      <trkpt lat="45.91403" lon="4.74906">
        <ele>177</ele>
        <time>2018-09-28T08:25:07Z</time>
      </trkpt>
      <trkpt lat="45.91399" lon="4.74905">
        <ele>177</ele>
        <time>2018-09-28T08:25:08Z</time>
      </trkpt>
      <trkpt lat="45.91392" lon="4.74904">
        <ele>177</ele>
        <time>2018-09-28T08:25:09Z</time>
      </trkpt>
      <trkpt lat="45.91387" lon="4.74902">
        <ele>177</ele>
        <time>2018-09-28T08:25:10Z</time>
      </trkpt>
      <trkpt lat="45.91383" lon="4.749">
        <ele>177</ele>
        <time>2018-09-28T08:25:11Z</time>
      </trkpt>
      <trkpt lat="45.91378" lon="4.74898">
        <ele>177</ele>
        <time>2018-09-28T08:25:12Z</time>
      </trkpt>
      <trkpt lat="45.91371" lon="4.74893">
        <ele>176</ele>
        <time>2018-09-28T08:25:15Z</time>
      </trkpt>
      <trkpt lat="45.91366" lon="4.7489">
        <ele>176</ele>
        <time>2018-09-28T08:25:16Z</time>
      </trkpt>
      <trkpt lat="45.91358" lon="4.74886">
        <ele>176</ele>
        <time>2018-09-28T08:25:17Z</time>
      </trkpt>
      <trkpt lat="45.91352" lon="4.74885">
        <ele>176</ele>
        <time>2018-09-28T08:25:18Z</time>
      </trkpt>
      <trkpt lat="45.91343" lon="4.74882">
        <ele>176</ele>
        <time>2018-09-28T08:25:20Z</time>
      </trkpt>
      <trkpt lat="45.91338" lon="4.74881">
        <ele>176</ele>
        <time>2018-09-28T08:25:21Z</time>
      </trkpt>
      <trkpt lat="45.91331" lon="4.74878">
        <ele>176</ele>
        <time>2018-09-28T08:25:23Z</time>
      </trkpt>
      <trkpt lat="45.91327" lon="4.74877">
        <ele>176</ele>
        <time>2018-09-28T08:25:24Z</time>
      </trkpt>
      <trkpt lat="45.91319" lon="4.74876">
        <ele>176</ele>
        <time>2018-09-28T08:25:28Z</time>
      </trkpt>
      <trkpt lat="45.91311" lon="4.74881">
        <ele>176</ele>
        <time>2018-09-28T08:25:29Z</time>
      </trkpt>
      <trkpt lat="45.91308" lon="4.74889">
        <ele>176</ele>
        <time>2018-09-28T08:25:31Z</time>
      </trkpt>
      <trkpt lat="45.91307" lon="4.74894">
        <ele>176</ele>
        <time>2018-09-28T08:25:32Z</time>
      </trkpt>
      <trkpt lat="45.91307" lon="4.74906">
        <ele>176</ele>
        <time>2018-09-28T08:25:34Z</time>
      </trkpt>
      <trkpt lat="45.91306" lon="4.74913">
        <ele>176</ele>
        <time>2018-09-28T08:25:35Z</time>
      </trkpt>
      <trkpt lat="45.91305" lon="4.74919">
        <ele>177</ele>
        <time>2018-09-28T08:25:36Z</time>
      </trkpt>
      <trkpt lat="45.91304" lon="4.74927">
        <ele>177</ele>
        <time>2018-09-28T08:25:37Z</time>
      </trkpt>
      <trkpt lat="45.91303" lon="4.74935">
        <ele>177</ele>
        <time>2018-09-28T08:25:38Z</time>
      </trkpt>
      <trkpt lat="45.91303" lon="4.74941">
        <ele>177</ele>
        <time>2018-09-28T08:25:39Z</time>
      </trkpt>
      <trkpt lat="45.91303" lon="4.74954">
        <ele>177</ele>
        <time>2018-09-28T08:25:41Z</time>
      </trkpt>
      <trkpt lat="45.91302" lon="4.7496">
        <ele>177</ele>
        <time>2018-09-28T08:25:42Z</time>
      </trkpt>
      <trkpt lat="45.91301" lon="4.74971">
        <ele>177</ele>
        <time>2018-09-28T08:25:44Z</time>
      </trkpt>
      <trkpt lat="45.913" lon="4.74973">
        <ele>177</ele>
        <time>2018-09-28T08:25:45Z</time>
      </trkpt>
      <trkpt lat="45.91298" lon="4.74981">
        <ele>177</ele>
        <time>2018-09-28T08:25:46Z</time>
      </trkpt>
      <trkpt lat="45.91297" lon="4.74987">
        <ele>177</ele>
        <time>2018-09-28T08:25:47Z</time>
      </trkpt>
      <trkpt lat="45.91297" lon="4.74993">
        <ele>177</ele>
        <time>2018-09-28T08:25:48Z</time>
      </trkpt>
      <trkpt lat="45.91296" lon="4.75001">
        <ele>177</ele>
        <time>2018-09-28T08:25:49Z</time>
      </trkpt>
      <trkpt lat="45.91296" lon="4.75009">
        <ele>177</ele>
        <time>2018-09-28T08:25:50Z</time>
      </trkpt>
      <trkpt lat="45.91297" lon="4.75017">
        <ele>177</ele>
        <time>2018-09-28T08:25:51Z</time>
      </trkpt>
      <trkpt lat="45.91296" lon="4.75024">
        <ele>177</ele>
        <time>2018-09-28T08:25:52Z</time>
      </trkpt>
      <trkpt lat="45.91296" lon="4.75031">
        <ele>177</ele>
        <time>2018-09-28T08:25:53Z</time>
      </trkpt>
      <trkpt lat="45.91298" lon="4.75042">
        <ele>177</ele>
        <time>2018-09-28T08:25:55Z</time>
      </trkpt>
      <trkpt lat="45.91299" lon="4.75045">
        <ele>177</ele>
        <time>2018-09-28T08:25:56Z</time>
      </trkpt>
      <trkpt lat="45.91299" lon="4.75054">
        <ele>177</ele>
        <time>2018-09-28T08:25:57Z</time>
      </trkpt>
      <trkpt lat="45.91301" lon="4.7506">
        <ele>177</ele>
        <time>2018-09-28T08:25:58Z</time>
      </trkpt>
      <trkpt lat="45.91301" lon="4.75072">
        <ele>177</ele>
        <time>2018-09-28T08:26:00Z</time>
      </trkpt>
      <trkpt lat="45.91301" lon="4.75078">
        <ele>177</ele>
        <time>2018-09-28T08:26:01Z</time>
      </trkpt>
      <trkpt lat="45.91301" lon="4.75086">
        <ele>177</ele>
        <time>2018-09-28T08:26:02Z</time>
      </trkpt>
      <trkpt lat="45.91301" lon="4.75093">
        <ele>177</ele>
        <time>2018-09-28T08:26:03Z</time>
      </trkpt>
      <trkpt lat="45.91301" lon="4.751">
        <ele>177</ele>
        <time>2018-09-28T08:26:04Z</time>
      </trkpt>
      <trkpt lat="45.91302" lon="4.75107">
        <ele>177</ele>
        <time>2018-09-28T08:26:05Z</time>
      </trkpt>
      <trkpt lat="45.91303" lon="4.75119">
        <ele>177</ele>
        <time>2018-09-28T08:26:07Z</time>
      </trkpt>
      <trkpt lat="45.91303" lon="4.75126">
        <ele>177</ele>
        <time>2018-09-28T08:26:08Z</time>
      </trkpt>
      <trkpt lat="45.91306" lon="4.75138">
        <ele>177</ele>
        <time>2018-09-28T08:26:10Z</time>
      </trkpt>
      <trkpt lat="45.91306" lon="4.75145">
        <ele>177</ele>
        <time>2018-09-28T08:26:11Z</time>
      </trkpt>
      <trkpt lat="45.91301" lon="4.75155">
        <ele>177</ele>
        <time>2018-09-28T08:26:14Z</time>
      </trkpt>
      <trkpt lat="45.913" lon="4.75155">
        <ele>177</ele>
        <time>2018-09-28T08:26:15Z</time>
      </trkpt>
      <trkpt lat="45.91298" lon="4.75156">
        <ele>177</ele>
        <time>2018-09-28T08:26:16Z</time>
      </trkpt>
      <trkpt lat="45.91291" lon="4.75151">
        <ele>177</ele>
        <time>2018-09-28T08:26:17Z</time>
      </trkpt>
      <trkpt lat="45.91288" lon="4.7515">
        <ele>177</ele>
        <time>2018-09-28T08:26:19Z</time>
      </trkpt>
      <trkpt lat="45.91278" lon="4.75146">
        <ele>177</ele>
        <time>2018-09-28T08:26:20Z</time>
      </trkpt>
      <trkpt lat="45.91273" lon="4.75145">
        <ele>177</ele>
        <time>2018-09-28T08:26:21Z</time>
      </trkpt>
      <trkpt lat="45.91269" lon="4.75142">
        <ele>177</ele>
        <time>2018-09-28T08:26:22Z</time>
      </trkpt>
      <trkpt lat="45.91261" lon="4.75138">
        <ele>177</ele>
        <time>2018-09-28T08:26:24Z</time>
      </trkpt>
      <trkpt lat="45.9125" lon="4.75138">
        <ele>177</ele>
        <time>2018-09-28T08:26:25Z</time>
      </trkpt>
      <trkpt lat="45.91243" lon="4.75135">
        <ele>177</ele>
        <time>2018-09-28T08:26:27Z</time>
      </trkpt>
      <trkpt lat="45.9124" lon="4.75133">
        <ele>177</ele>
        <time>2018-09-28T08:26:28Z</time>
      </trkpt>
      <trkpt lat="45.91235" lon="4.7513">
        <ele>177</ele>
        <time>2018-09-28T08:26:29Z</time>
      </trkpt>
      <trkpt lat="45.91231" lon="4.75128">
        <ele>177</ele>
        <time>2018-09-28T08:26:30Z</time>
      </trkpt>
      <trkpt lat="45.91225" lon="4.75128">
        <ele>177</ele>
        <time>2018-09-28T08:26:31Z</time>
      </trkpt>
      <trkpt lat="45.91221" lon="4.75127">
        <ele>177</ele>
        <time>2018-09-28T08:26:32Z</time>
      </trkpt>
      <trkpt lat="45.91213" lon="4.75125">
        <ele>177</ele>
        <time>2018-09-28T08:26:34Z</time>
      </trkpt>
      <trkpt lat="45.91207" lon="4.75124">
        <ele>178</ele>
        <time>2018-09-28T08:26:35Z</time>
      </trkpt>
      <trkpt lat="45.91203" lon="4.75122">
        <ele>178</ele>
        <time>2018-09-28T08:26:36Z</time>
      </trkpt>
      <trkpt lat="45.91198" lon="4.75121">
        <ele>178</ele>
        <time>2018-09-28T08:26:37Z</time>
      </trkpt>
      <trkpt lat="45.91189" lon="4.75121">
        <ele>178</ele>
        <time>2018-09-28T08:26:39Z</time>
      </trkpt>
      <trkpt lat="45.91186" lon="4.75119">
        <ele>178</ele>
        <time>2018-09-28T08:26:40Z</time>
      </trkpt>
      <trkpt lat="45.91177" lon="4.75116">
        <ele>178</ele>
        <time>2018-09-28T08:26:42Z</time>
      </trkpt>
      <trkpt lat="45.91174" lon="4.75116">
        <ele>178</ele>
        <time>2018-09-28T08:26:43Z</time>
      </trkpt>
      <trkpt lat="45.91166" lon="4.75113">
        <ele>179</ele>
        <time>2018-09-28T08:26:45Z</time>
      </trkpt>
      <trkpt lat="45.91161" lon="4.75112">
        <ele>179</ele>
        <time>2018-09-28T08:26:46Z</time>
      </trkpt>
      <trkpt lat="45.91156" lon="4.7511">
        <ele>179</ele>
        <time>2018-09-28T08:26:47Z</time>
      </trkpt>
      <trkpt lat="45.9115" lon="4.75108">
        <ele>179</ele>
        <time>2018-09-28T08:26:48Z</time>
      </trkpt>
      <trkpt lat="45.91146" lon="4.75106">
        <ele>179</ele>
        <time>2018-09-28T08:26:49Z</time>
      </trkpt>
      <trkpt lat="45.9114" lon="4.75104">
        <ele>179</ele>
        <time>2018-09-28T08:26:50Z</time>
      </trkpt>
      <trkpt lat="45.91136" lon="4.75102">
        <ele>179</ele>
        <time>2018-09-28T08:26:51Z</time>
      </trkpt>
      <trkpt lat="45.9113" lon="4.75099">
        <ele>179</ele>
        <time>2018-09-28T08:26:52Z</time>
      </trkpt>
      <trkpt lat="45.91125" lon="4.75097">
        <ele>179</ele>
        <time>2018-09-28T08:26:53Z</time>
      </trkpt>
      <trkpt lat="45.91121" lon="4.75096">
        <ele>179</ele>
        <time>2018-09-28T08:26:54Z</time>
      </trkpt>
      <trkpt lat="45.91113" lon="4.75096">
        <ele>179</ele>
        <time>2018-09-28T08:26:56Z</time>
      </trkpt>
      <trkpt lat="45.91107" lon="4.75094">
        <ele>180</ele>
        <time>2018-09-28T08:26:57Z</time>
      </trkpt>
      <trkpt lat="45.91103" lon="4.75092">
        <ele>180</ele>
        <time>2018-09-28T08:26:58Z</time>
      </trkpt>
      <trkpt lat="45.91098" lon="4.75093">
        <ele>180</ele>
        <time>2018-09-28T08:26:59Z</time>
      </trkpt>
      <trkpt lat="45.91089" lon="4.75088">
        <ele>180</ele>
        <time>2018-09-28T08:27:01Z</time>
      </trkpt>
      <trkpt lat="45.91084" lon="4.75086">
        <ele>180</ele>
        <time>2018-09-28T08:27:02Z</time>
      </trkpt>
      <trkpt lat="45.9108" lon="4.75084">
        <ele>180</ele>
        <time>2018-09-28T08:27:03Z</time>
      </trkpt>
      <trkpt lat="45.91073" lon="4.75082">
        <ele>179</ele>
        <time>2018-09-28T08:27:04Z</time>
      </trkpt>
      <trkpt lat="45.91064" lon="4.7508">
        <ele>179</ele>
        <time>2018-09-28T08:27:06Z</time>
      </trkpt>
      <trkpt lat="45.9106" lon="4.75079">
        <ele>179</ele>
        <time>2018-09-28T08:27:07Z</time>
      </trkpt>
      <trkpt lat="45.91053" lon="4.75076">
        <ele>179</ele>
        <time>2018-09-28T08:27:09Z</time>
      </trkpt>
      <trkpt lat="45.9105" lon="4.75077">
        <ele>179</ele>
        <time>2018-09-28T08:27:10Z</time>
      </trkpt>
      <trkpt lat="45.91041" lon="4.75075">
        <ele>179</ele>
        <time>2018-09-28T08:27:12Z</time>
      </trkpt>
      <trkpt lat="45.91038" lon="4.75074">
        <ele>179</ele>
        <time>2018-09-28T08:27:13Z</time>
      </trkpt>
      <trkpt lat="45.9103" lon="4.75069">
        <ele>179</ele>
        <time>2018-09-28T08:27:15Z</time>
      </trkpt>
      <trkpt lat="45.91026" lon="4.75066">
        <ele>179</ele>
        <time>2018-09-28T08:27:16Z</time>
      </trkpt>
      <trkpt lat="45.91017" lon="4.75063">
        <ele>179</ele>
        <time>2018-09-28T08:27:18Z</time>
      </trkpt>
      <trkpt lat="45.91013" lon="4.75061">
        <ele>179</ele>
        <time>2018-09-28T08:27:19Z</time>
      </trkpt>
      <trkpt lat="45.91008" lon="4.75059">
        <ele>179</ele>
        <time>2018-09-28T08:27:20Z</time>
      </trkpt>
      <trkpt lat="45.91004" lon="4.75057">
        <ele>179</ele>
        <time>2018-09-28T08:27:21Z</time>
      </trkpt>
      <trkpt lat="45.90996" lon="4.75053">
        <ele>179</ele>
        <time>2018-09-28T08:27:23Z</time>
      </trkpt>
      <trkpt lat="45.90992" lon="4.75051">
        <ele>179</ele>
        <time>2018-09-28T08:27:24Z</time>
      </trkpt>
      <trkpt lat="45.90987" lon="4.75048">
        <ele>179</ele>
        <time>2018-09-28T08:27:26Z</time>
      </trkpt>
      <trkpt lat="45.90983" lon="4.75046">
        <ele>179</ele>
        <time>2018-09-28T08:27:27Z</time>
      </trkpt>
      <trkpt lat="45.90979" lon="4.75045">
        <ele>179</ele>
        <time>2018-09-28T08:27:28Z</time>
      </trkpt>
      <trkpt lat="45.90974" lon="4.75044">
        <ele>179</ele>
        <time>2018-09-28T08:27:29Z</time>
      </trkpt>
      <trkpt lat="45.90966" lon="4.7504">
        <ele>179</ele>
        <time>2018-09-28T08:27:31Z</time>
      </trkpt>
      <trkpt lat="45.90962" lon="4.75039">
        <ele>179</ele>
        <time>2018-09-28T08:27:32Z</time>
      </trkpt>
      <trkpt lat="45.90954" lon="4.75039">
        <ele>179</ele>
        <time>2018-09-28T08:27:34Z</time>
      </trkpt>
      <trkpt lat="45.90952" lon="4.7504">
        <ele>179</ele>
        <time>2018-09-28T08:27:35Z</time>
      </trkpt>
      <trkpt lat="45.90947" lon="4.7505">
        <ele>179</ele>
        <time>2018-09-28T08:27:40Z</time>
      </trkpt>
      <trkpt lat="45.90947" lon="4.75053">
        <ele>179</ele>
        <time>2018-09-28T08:27:41Z</time>
      </trkpt>
      <trkpt lat="45.90949" lon="4.75063">
        <ele>179</ele>
        <time>2018-09-28T08:27:44Z</time>
      </trkpt>
      <trkpt lat="45.90949" lon="4.75067">
        <ele>179</ele>
        <time>2018-09-28T08:27:45Z</time>
      </trkpt>
      <trkpt lat="45.9095" lon="4.75078">
        <ele>179</ele>
        <time>2018-09-28T08:27:48Z</time>
      </trkpt>
      <trkpt lat="45.9095" lon="4.75082">
        <ele>179</ele>
        <time>2018-09-28T08:27:49Z</time>
      </trkpt>
      <trkpt lat="45.9095" lon="4.75092">
        <ele>181</ele>
        <time>2018-09-28T08:27:52Z</time>
      </trkpt>
      <trkpt lat="45.9095" lon="4.75095">
        <ele>181</ele>
        <time>2018-09-28T08:27:53Z</time>
      </trkpt>
      <trkpt lat="45.90949" lon="4.75106">
        <ele>181</ele>
        <time>2018-09-28T08:27:56Z</time>
      </trkpt>
      <trkpt lat="45.90949" lon="4.7511">
        <ele>181</ele>
        <time>2018-09-28T08:27:57Z</time>
      </trkpt>
      <trkpt lat="45.90947" lon="4.75121">
        <ele>181</ele>
        <time>2018-09-28T08:28:00Z</time>
      </trkpt>
      <trkpt lat="45.90947" lon="4.75125">
        <ele>181</ele>
        <time>2018-09-28T08:28:01Z</time>
      </trkpt>
      <trkpt lat="45.90946" lon="4.75136">
        <ele>182</ele>
        <time>2018-09-28T08:28:04Z</time>
      </trkpt>
      <trkpt lat="45.90946" lon="4.75139">
        <ele>182</ele>
        <time>2018-09-28T08:28:05Z</time>
      </trkpt>
      <trkpt lat="45.90945" lon="4.7515">
        <ele>182</ele>
        <time>2018-09-28T08:28:08Z</time>
      </trkpt>
      <trkpt lat="45.90945" lon="4.75154">
        <ele>182</ele>
        <time>2018-09-28T08:28:09Z</time>
      </trkpt>
      <trkpt lat="45.90944" lon="4.75165">
        <ele>182</ele>
        <time>2018-09-28T08:28:12Z</time>
      </trkpt>
      <trkpt lat="45.90943" lon="4.75168">
        <ele>183</ele>
        <time>2018-09-28T08:28:13Z</time>
      </trkpt>
      <trkpt lat="45.90942" lon="4.75179">
        <ele>183</ele>
        <time>2018-09-28T08:28:16Z</time>
      </trkpt>
      <trkpt lat="45.90942" lon="4.75183">
        <ele>183</ele>
        <time>2018-09-28T08:28:17Z</time>
      </trkpt>
      <trkpt lat="45.90941" lon="4.75194">
        <ele>183</ele>
        <time>2018-09-28T08:28:20Z</time>
      </trkpt>
      <trkpt lat="45.90941" lon="4.75198">
        <ele>183</ele>
        <time>2018-09-28T08:28:21Z</time>
      </trkpt>
      <trkpt lat="45.9094" lon="4.75209">
        <ele>184</ele>
        <time>2018-09-28T08:28:24Z</time>
      </trkpt>
      <trkpt lat="45.9094" lon="4.75212">
        <ele>184</ele>
        <time>2018-09-28T08:28:25Z</time>
      </trkpt>
      <trkpt lat="45.90939" lon="4.75224">
        <ele>184</ele>
        <time>2018-09-28T08:28:28Z</time>
      </trkpt>
      <trkpt lat="45.90938" lon="4.75228">
        <ele>184</ele>
        <time>2018-09-28T08:28:29Z</time>
      </trkpt>
      <trkpt lat="45.90937" lon="4.7524">
        <ele>184</ele>
        <time>2018-09-28T08:28:32Z</time>
      </trkpt>
      <trkpt lat="45.90936" lon="4.75244">
        <ele>184</ele>
        <time>2018-09-28T08:28:33Z</time>
      </trkpt>
      <trkpt lat="45.90934" lon="4.75255">
        <ele>185</ele>
        <time>2018-09-28T08:28:36Z</time>
      </trkpt>
      <trkpt lat="45.90934" lon="4.75258">
        <ele>185</ele>
        <time>2018-09-28T08:28:37Z</time>
      </trkpt>
      <trkpt lat="45.90933" lon="4.75269">
        <ele>185</ele>
        <time>2018-09-28T08:28:40Z</time>
      </trkpt>
      <trkpt lat="45.90932" lon="4.75273">
        <ele>185</ele>
        <time>2018-09-28T08:28:41Z</time>
      </trkpt>
      <trkpt lat="45.90931" lon="4.75285">
        <ele>185</ele>
        <time>2018-09-28T08:28:44Z</time>
      </trkpt>
      <trkpt lat="45.90931" lon="4.75289">
        <ele>185</ele>
        <time>2018-09-28T08:28:45Z</time>
      </trkpt>
      <trkpt lat="45.9093" lon="4.75298">
        <ele>185</ele>
        <time>2018-09-28T08:28:47Z</time>
      </trkpt>
      <trkpt lat="45.90929" lon="4.75302">
        <ele>185</ele>
        <time>2018-09-28T08:28:48Z</time>
      </trkpt>
      <trkpt lat="45.90929" lon="4.75315">
        <ele>185</ele>
        <time>2018-09-28T08:28:51Z</time>
      </trkpt>
      <trkpt lat="45.90928" lon="4.7532">
        <ele>185</ele>
        <time>2018-09-28T08:28:52Z</time>
      </trkpt>
      <trkpt lat="45.90928" lon="4.7533">
        <ele>186</ele>
        <time>2018-09-28T08:28:54Z</time>
      </trkpt>
      <trkpt lat="45.90927" lon="4.75344">
        <ele>186</ele>
        <time>2018-09-28T08:28:55Z</time>
      </trkpt>
      <trkpt lat="45.90925" lon="4.75356">
        <ele>185</ele>
        <time>2018-09-28T08:28:59Z</time>
      </trkpt>
      <trkpt lat="45.90925" lon="4.75359">
        <ele>185</ele>
        <time>2018-09-28T08:29:00Z</time>
      </trkpt>
      <trkpt lat="45.90924" lon="4.75371">
        <ele>185</ele>
        <time>2018-09-28T08:29:03Z</time>
      </trkpt>
      <trkpt lat="45.90923" lon="4.75375">
        <ele>185</ele>
        <time>2018-09-28T08:29:04Z</time>
      </trkpt>
      <trkpt lat="45.90922" lon="4.75383">
        <ele>185</ele>
        <time>2018-09-28T08:29:06Z</time>
      </trkpt>
      <trkpt lat="45.90921" lon="4.75388">
        <ele>185</ele>
        <time>2018-09-28T08:29:07Z</time>
      </trkpt>
      <trkpt lat="45.9092" lon="4.754">
        <ele>185</ele>
        <time>2018-09-28T08:29:10Z</time>
      </trkpt>
      <trkpt lat="45.9092" lon="4.75404">
        <ele>185</ele>
        <time>2018-09-28T08:29:11Z</time>
      </trkpt>
      <trkpt lat="45.9092" lon="4.75412">
        <ele>185</ele>
        <time>2018-09-28T08:29:13Z</time>
      </trkpt>
      <trkpt lat="45.90918" lon="4.75426">
        <ele>185</ele>
        <time>2018-09-28T08:29:14Z</time>
      </trkpt>
      <trkpt lat="45.90917" lon="4.75436">
        <ele>185</ele>
        <time>2018-09-28T08:29:17Z</time>
      </trkpt>
      <trkpt lat="45.90917" lon="4.7544">
        <ele>185</ele>
        <time>2018-09-28T08:29:18Z</time>
      </trkpt>
      <trkpt lat="45.90916" lon="4.75452">
        <ele>186</ele>
        <time>2018-09-28T08:29:21Z</time>
      </trkpt>
      <trkpt lat="45.90916" lon="4.75456">
        <ele>186</ele>
        <time>2018-09-28T08:29:22Z</time>
      </trkpt>
      <trkpt lat="45.90915" lon="4.75465">
        <ele>186</ele>
        <time>2018-09-28T08:29:24Z</time>
      </trkpt>
      <trkpt lat="45.90915" lon="4.7547">
        <ele>186</ele>
        <time>2018-09-28T08:29:25Z</time>
      </trkpt>
      <trkpt lat="45.90914" lon="4.7548">
        <ele>186</ele>
        <time>2018-09-28T08:29:27Z</time>
      </trkpt>
      <trkpt lat="45.90914" lon="4.75485">
        <ele>186</ele>
        <time>2018-09-28T08:29:28Z</time>
      </trkpt>
      <trkpt lat="45.90913" lon="4.75495">
        <ele>186</ele>
        <time>2018-09-28T08:29:30Z</time>
      </trkpt>
      <trkpt lat="45.90913" lon="4.755">
        <ele>186</ele>
        <time>2018-09-28T08:29:31Z</time>
      </trkpt>
      <trkpt lat="45.90911" lon="4.75512">
        <ele>186</ele>
        <time>2018-09-28T08:29:34Z</time>
      </trkpt>
      <trkpt lat="45.9091" lon="4.75525">
        <ele>186</ele>
        <time>2018-09-28T08:29:35Z</time>
      </trkpt>
      <trkpt lat="45.90909" lon="4.75535">
        <ele>186</ele>
        <time>2018-09-28T08:29:37Z</time>
      </trkpt>
      <trkpt lat="45.90909" lon="4.75541">
        <ele>186</ele>
        <time>2018-09-28T08:29:38Z</time>
      </trkpt>
      <trkpt lat="45.90907" lon="4.75552">
        <ele>186</ele>
        <time>2018-09-28T08:29:40Z</time>
      </trkpt>
      <trkpt lat="45.90907" lon="4.75558">
        <ele>186</ele>
        <time>2018-09-28T08:29:41Z</time>
      </trkpt>
      <trkpt lat="45.90906" lon="4.75569">
        <ele>186</ele>
        <time>2018-09-28T08:29:43Z</time>
      </trkpt>
      <trkpt lat="45.90905" lon="4.75575">
        <ele>185</ele>
        <time>2018-09-28T08:29:44Z</time>
      </trkpt>
      <trkpt lat="45.90905" lon="4.75585">
        <ele>185</ele>
        <time>2018-09-28T08:29:46Z</time>
      </trkpt>
      <trkpt lat="45.90904" lon="4.75588">
        <ele>185</ele>
        <time>2018-09-28T08:29:47Z</time>
      </trkpt>
      <trkpt lat="45.90904" lon="4.75599">
        <ele>185</ele>
        <time>2018-09-28T08:29:50Z</time>
      </trkpt>
      <trkpt lat="45.90903" lon="4.75603">
        <ele>185</ele>
        <time>2018-09-28T08:29:51Z</time>
      </trkpt>
      <trkpt lat="45.90902" lon="4.75611">
        <ele>185</ele>
        <time>2018-09-28T08:29:53Z</time>
      </trkpt>
      <trkpt lat="45.90902" lon="4.75625">
        <ele>185</ele>
        <time>2018-09-28T08:29:54Z</time>
      </trkpt>
      <trkpt lat="45.90902" lon="4.75636">
        <ele>185</ele>
        <time>2018-09-28T08:29:56Z</time>
      </trkpt>
      <trkpt lat="45.90902" lon="4.75641">
        <ele>185</ele>
        <time>2018-09-28T08:29:57Z</time>
      </trkpt>
      <trkpt lat="45.90902" lon="4.75651">
        <ele>184</ele>
        <time>2018-09-28T08:30:00Z</time>
      </trkpt>
      <trkpt lat="45.90902" lon="4.75655">
        <ele>184</ele>
        <time>2018-09-28T08:30:01Z</time>
      </trkpt>
      <trkpt lat="45.90902" lon="4.75658">
        <ele>184</ele>
        <time>2018-09-28T08:30:02Z</time>
      </trkpt>
      <trkpt lat="45.90902" lon="4.7567">
        <ele>184</ele>
        <time>2018-09-28T08:30:03Z</time>
      </trkpt>
      <trkpt lat="45.90899" lon="4.7568">
        <ele>184</ele>
        <time>2018-09-28T08:30:05Z</time>
      </trkpt>
      <trkpt lat="45.90898" lon="4.75682">
        <ele>184</ele>
        <time>2018-09-28T08:30:06Z</time>
      </trkpt>
      <trkpt lat="45.90899" lon="4.75693">
        <ele>184</ele>
        <time>2018-09-28T08:30:10Z</time>
      </trkpt>
      <trkpt lat="45.90898" lon="4.75704">
        <ele>184</ele>
        <time>2018-09-28T08:30:11Z</time>
      </trkpt>
      <trkpt lat="45.90895" lon="4.75714">
        <ele>184</ele>
        <time>2018-09-28T08:30:14Z</time>
      </trkpt>
      <trkpt lat="45.90895" lon="4.75717">
        <ele>185</ele>
        <time>2018-09-28T08:30:15Z</time>
      </trkpt>
      <trkpt lat="45.90895" lon="4.75724">
        <ele>185</ele>
        <time>2018-09-28T08:30:17Z</time>
      </trkpt>
      <trkpt lat="45.90894" lon="4.75735">
        <ele>185</ele>
        <time>2018-09-28T08:30:18Z</time>
      </trkpt>
      <trkpt lat="45.90893" lon="4.75747">
        <ele>185</ele>
        <time>2018-09-28T08:30:20Z</time>
      </trkpt>
      <trkpt lat="45.90893" lon="4.75753">
        <ele>185</ele>
        <time>2018-09-28T08:30:21Z</time>
      </trkpt>
      <trkpt lat="45.90892" lon="4.75764">
        <ele>185</ele>
        <time>2018-09-28T08:30:23Z</time>
      </trkpt>
      <trkpt lat="45.90892" lon="4.7577">
        <ele>185</ele>
        <time>2018-09-28T08:30:24Z</time>
      </trkpt>
      <trkpt lat="45.90892" lon="4.75781">
        <ele>185</ele>
        <time>2018-09-28T08:30:26Z</time>
      </trkpt>
      <trkpt lat="45.90892" lon="4.75786">
        <ele>185</ele>
        <time>2018-09-28T08:30:27Z</time>
      </trkpt>
      <trkpt lat="45.90892" lon="4.75798">
        <ele>184</ele>
        <time>2018-09-28T08:30:29Z</time>
      </trkpt>
      <trkpt lat="45.90892" lon="4.75804">
        <ele>184</ele>
        <time>2018-09-28T08:30:30Z</time>
      </trkpt>
      <trkpt lat="45.90891" lon="4.75815">
        <ele>184</ele>
        <time>2018-09-28T08:30:32Z</time>
      </trkpt>
      <trkpt lat="45.90891" lon="4.75821">
        <ele>184</ele>
        <time>2018-09-28T08:30:33Z</time>
      </trkpt>
      <trkpt lat="45.90888" lon="4.75828">
        <ele>184</ele>
        <time>2018-09-28T08:30:34Z</time>
      </trkpt>
      <trkpt lat="45.90888" lon="4.75835">
        <ele>184</ele>
        <time>2018-09-28T08:30:35Z</time>
      </trkpt>
      <trkpt lat="45.90889" lon="4.75843">
        <ele>184</ele>
        <time>2018-09-28T08:30:36Z</time>
      </trkpt>
      <trkpt lat="45.9089" lon="4.75849">
        <ele>184</ele>
        <time>2018-09-28T08:30:37Z</time>
      </trkpt>
      <trkpt lat="45.90889" lon="4.75861">
        <ele>184</ele>
        <time>2018-09-28T08:30:41Z</time>
      </trkpt>
      <trkpt lat="45.90888" lon="4.75864">
        <ele>184</ele>
        <time>2018-09-28T08:30:42Z</time>
      </trkpt>
      <trkpt lat="45.90882" lon="4.75868">
        <ele>184</ele>
        <time>2018-09-28T08:30:45Z</time>
      </trkpt>
      <trkpt lat="45.90874" lon="4.75869">
        <ele>184</ele>
        <time>2018-09-28T08:30:46Z</time>
      </trkpt>
      <trkpt lat="45.90866" lon="4.75867">
        <ele>184</ele>
        <time>2018-09-28T08:30:48Z</time>
      </trkpt>
      <trkpt lat="45.90862" lon="4.75866">
        <ele>184</ele>
        <time>2018-09-28T08:30:49Z</time>
      </trkpt>
      <trkpt lat="45.90858" lon="4.75865">
        <ele>184</ele>
        <time>2018-09-28T08:30:50Z</time>
      </trkpt>
      <trkpt lat="45.90852" lon="4.75864">
        <ele>184</ele>
        <time>2018-09-28T08:30:51Z</time>
      </trkpt>
      <trkpt lat="45.90845" lon="4.7586">
        <ele>184</ele>
        <time>2018-09-28T08:30:53Z</time>
      </trkpt>
      <trkpt lat="45.90841" lon="4.75861">
        <ele>184</ele>
        <time>2018-09-28T08:30:54Z</time>
      </trkpt>
      <trkpt lat="45.90836" lon="4.75863">
        <ele>184</ele>
        <time>2018-09-28T08:30:57Z</time>
      </trkpt>
      <trkpt lat="45.90829" lon="4.75865">
        <ele>185</ele>
        <time>2018-09-28T08:30:58Z</time>
      </trkpt>
      <trkpt lat="45.90821" lon="4.75866">
        <ele>185</ele>
        <time>2018-09-28T08:31:00Z</time>
      </trkpt>
      <trkpt lat="45.90817" lon="4.75867">
        <ele>185</ele>
        <time>2018-09-28T08:31:01Z</time>
      </trkpt>
      <trkpt lat="45.90809" lon="4.75866">
        <ele>185</ele>
        <time>2018-09-28T08:31:03Z</time>
      </trkpt>
      <trkpt lat="45.90807" lon="4.75865">
        <ele>185</ele>
        <time>2018-09-28T08:31:04Z</time>
      </trkpt>
      <trkpt lat="45.908" lon="4.75863">
        <ele>185</ele>
        <time>2018-09-28T08:31:05Z</time>
      </trkpt>
      <trkpt lat="45.90795" lon="4.75864">
        <ele>185</ele>
        <time>2018-09-28T08:31:06Z</time>
      </trkpt>
      <trkpt lat="45.9079" lon="4.75863">
        <ele>185</ele>
        <time>2018-09-28T08:31:07Z</time>
      </trkpt>
      <trkpt lat="45.90784" lon="4.75859">
        <ele>185</ele>
        <time>2018-09-28T08:31:08Z</time>
      </trkpt>
      <trkpt lat="45.90775" lon="4.75858">
        <ele>185</ele>
        <time>2018-09-28T08:31:10Z</time>
      </trkpt>
      <trkpt lat="45.90772" lon="4.75858">
        <ele>185</ele>
        <time>2018-09-28T08:31:11Z</time>
      </trkpt>
      <trkpt lat="45.90763" lon="4.75857">
        <ele>186</ele>
        <time>2018-09-28T08:31:13Z</time>
      </trkpt>
      <trkpt lat="45.90761" lon="4.75857">
        <ele>186</ele>
        <time>2018-09-28T08:31:14Z</time>
      </trkpt>
      <trkpt lat="45.90759" lon="4.75856">
        <ele>186</ele>
        <time>2018-09-28T08:31:15Z</time>
      </trkpt>
      <trkpt lat="45.90751" lon="4.75857">
        <ele>186</ele>
        <time>2018-09-28T08:31:16Z</time>
      </trkpt>
      <trkpt lat="45.90743" lon="4.75854">
        <ele>186</ele>
        <time>2018-09-28T08:31:18Z</time>
      </trkpt>
      <trkpt lat="45.90738" lon="4.75853">
        <ele>186</ele>
        <time>2018-09-28T08:31:19Z</time>
      </trkpt>
      <trkpt lat="45.90729" lon="4.75852">
        <ele>186</ele>
        <time>2018-09-28T08:31:21Z</time>
      </trkpt>
      <trkpt lat="45.90725" lon="4.75853">
        <ele>186</ele>
        <time>2018-09-28T08:31:22Z</time>
      </trkpt>
      <trkpt lat="45.90716" lon="4.75851">
        <ele>187</ele>
        <time>2018-09-28T08:31:24Z</time>
      </trkpt>
      <trkpt lat="45.90711" lon="4.75848">
        <ele>187</ele>
        <time>2018-09-28T08:31:25Z</time>
      </trkpt>
      <trkpt lat="45.90703" lon="4.75851">
        <ele>187</ele>
        <time>2018-09-28T08:31:27Z</time>
      </trkpt>
      <trkpt lat="45.90698" lon="4.75852">
        <ele>187</ele>
        <time>2018-09-28T08:31:28Z</time>
      </trkpt>
      <trkpt lat="45.90691" lon="4.75855">
        <ele>187</ele>
        <time>2018-09-28T08:31:30Z</time>
      </trkpt>
      <trkpt lat="45.90687" lon="4.75859">
        <ele>187</ele>
        <time>2018-09-28T08:31:31Z</time>
      </trkpt>
      <trkpt lat="45.90683" lon="4.75861">
        <ele>187</ele>
        <time>2018-09-28T08:31:32Z</time>
      </trkpt>
      <trkpt lat="45.90678" lon="4.75863">
        <ele>187</ele>
        <time>2018-09-28T08:31:33Z</time>
      </trkpt>
      <trkpt lat="45.90671" lon="4.75868">
        <ele>187</ele>
        <time>2018-09-28T08:31:36Z</time>
      </trkpt>
      <trkpt lat="45.90669" lon="4.7587">
        <ele>187</ele>
        <time>2018-09-28T08:31:37Z</time>
      </trkpt>
      <trkpt lat="45.90663" lon="4.75877">
        <ele>187</ele>
        <time>2018-09-28T08:31:38Z</time>
      </trkpt>
      <trkpt lat="45.90661" lon="4.75881">
        <ele>187</ele>
        <time>2018-09-28T08:31:39Z</time>
      </trkpt>
      <trkpt lat="45.90657" lon="4.75889">
        <ele>187</ele>
        <time>2018-09-28T08:31:41Z</time>
      </trkpt>
      <trkpt lat="45.90654" lon="4.75894">
        <ele>187</ele>
        <time>2018-09-28T08:31:42Z</time>
      </trkpt>
      <trkpt lat="45.90649" lon="4.75904">
        <ele>187</ele>
        <time>2018-09-28T08:31:44Z</time>
      </trkpt>
      <trkpt lat="45.90647" lon="4.75908">
        <ele>187</ele>
        <time>2018-09-28T08:31:45Z</time>
      </trkpt>
      <trkpt lat="45.90641" lon="4.75916">
        <ele>187</ele>
        <time>2018-09-28T08:31:47Z</time>
      </trkpt>
      <trkpt lat="45.90638" lon="4.75919">
        <ele>186</ele>
        <time>2018-09-28T08:31:48Z</time>
      </trkpt>
      <trkpt lat="45.90635" lon="4.75927">
        <ele>186</ele>
        <time>2018-09-28T08:31:49Z</time>
      </trkpt>
      <trkpt lat="45.90631" lon="4.75933">
        <ele>186</ele>
        <time>2018-09-28T08:31:50Z</time>
      </trkpt>
      <trkpt lat="45.90627" lon="4.75939">
        <ele>186</ele>
        <time>2018-09-28T08:31:51Z</time>
      </trkpt>
      <trkpt lat="45.90624" lon="4.75944">
        <ele>186</ele>
        <time>2018-09-28T08:31:52Z</time>
      </trkpt>
      <trkpt lat="45.90621" lon="4.75951">
        <ele>186</ele>
        <time>2018-09-28T08:31:53Z</time>
      </trkpt>
      <trkpt lat="45.90617" lon="4.75955">
        <ele>186</ele>
        <time>2018-09-28T08:31:54Z</time>
      </trkpt>
      <trkpt lat="45.90612" lon="4.75962">
        <ele>186</ele>
        <time>2018-09-28T08:31:56Z</time>
      </trkpt>
      <trkpt lat="45.90609" lon="4.75965">
        <ele>186</ele>
        <time>2018-09-28T08:31:57Z</time>
      </trkpt>
      <trkpt lat="45.90603" lon="4.75975">
        <ele>186</ele>
        <time>2018-09-28T08:31:59Z</time>
      </trkpt>
      <trkpt lat="45.90602" lon="4.75979">
        <ele>186</ele>
        <time>2018-09-28T08:32:00Z</time>
      </trkpt>
      <trkpt lat="45.90597" lon="4.75983">
        <ele>186</ele>
        <time>2018-09-28T08:32:01Z</time>
      </trkpt>
      <trkpt lat="45.90591" lon="4.75985">
        <ele>186</ele>
        <time>2018-09-28T08:32:02Z</time>
      </trkpt>
      <trkpt lat="45.90587" lon="4.75991">
        <ele>186</ele>
        <time>2018-09-28T08:32:03Z</time>
      </trkpt>
      <trkpt lat="45.90581" lon="4.75989">
        <ele>186</ele>
        <time>2018-09-28T08:32:04Z</time>
      </trkpt>
      <trkpt lat="45.90579" lon="4.75981">
        <ele>186</ele>
        <time>2018-09-28T08:32:05Z</time>
      </trkpt>
      <trkpt lat="45.90575" lon="4.75977">
        <ele>186</ele>
        <time>2018-09-28T08:32:06Z</time>
      </trkpt>
      <trkpt lat="45.9057" lon="4.75971">
        <ele>186</ele>
        <time>2018-09-28T08:32:07Z</time>
      </trkpt>
      <trkpt lat="45.90566" lon="4.75965">
        <ele>186</ele>
        <time>2018-09-28T08:32:08Z</time>
      </trkpt>
      <trkpt lat="45.90559" lon="4.75958">
        <ele>186</ele>
        <time>2018-09-28T08:32:10Z</time>
      </trkpt>
      <trkpt lat="45.90555" lon="4.75956">
        <ele>186</ele>
        <time>2018-09-28T08:32:11Z</time>
      </trkpt>
      <trkpt lat="45.90549" lon="4.75953">
        <ele>186</ele>
        <time>2018-09-28T08:32:13Z</time>
      </trkpt>
      <trkpt lat="45.90546" lon="4.75952">
        <ele>186</ele>
        <time>2018-09-28T08:32:14Z</time>
      </trkpt>
      <trkpt lat="45.90541" lon="4.75951">
        <ele>186</ele>
        <time>2018-09-28T08:32:16Z</time>
      </trkpt>
      <trkpt lat="45.90533" lon="4.75951">
        <ele>186</ele>
        <time>2018-09-28T08:32:17Z</time>
      </trkpt>
      <trkpt lat="45.90526" lon="4.75958">
        <ele>186</ele>
        <time>2018-09-28T08:32:19Z</time>
      </trkpt>
      <trkpt lat="45.90523" lon="4.75961">
        <ele>186</ele>
        <time>2018-09-28T08:32:20Z</time>
      </trkpt>
      <trkpt lat="45.90521" lon="4.75967">
        <ele>186</ele>
        <time>2018-09-28T08:32:21Z</time>
      </trkpt>
      <trkpt lat="45.90518" lon="4.75971">
        <ele>186</ele>
        <time>2018-09-28T08:32:22Z</time>
      </trkpt>
      <trkpt lat="45.90514" lon="4.75981">
        <ele>186</ele>
        <time>2018-09-28T08:32:24Z</time>
      </trkpt>
      <trkpt lat="45.90514" lon="4.75983">
        <ele>186</ele>
        <time>2018-09-28T08:32:25Z</time>
      </trkpt>
      <trkpt lat="45.9051" lon="4.75995">
        <ele>186</ele>
        <time>2018-09-28T08:32:27Z</time>
      </trkpt>
      <trkpt lat="45.90509" lon="4.76001">
        <ele>186</ele>
        <time>2018-09-28T08:32:28Z</time>
      </trkpt>
      <trkpt lat="45.90507" lon="4.76013">
        <ele>186</ele>
        <time>2018-09-28T08:32:30Z</time>
      </trkpt>
      <trkpt lat="45.90507" lon="4.7602">
        <ele>186</ele>
        <time>2018-09-28T08:32:31Z</time>
      </trkpt>
      <trkpt lat="45.90506" lon="4.76025">
        <ele>186</ele>
        <time>2018-09-28T08:32:32Z</time>
      </trkpt>
      <trkpt lat="45.90505" lon="4.76033">
        <ele>185</ele>
        <time>2018-09-28T08:32:33Z</time>
      </trkpt>
      <trkpt lat="45.90504" lon="4.76041">
        <ele>185</ele>
        <time>2018-09-28T08:32:34Z</time>
      </trkpt>
      <trkpt lat="45.90503" lon="4.76046">
        <ele>185</ele>
        <time>2018-09-28T08:32:35Z</time>
      </trkpt>
      <trkpt lat="45.90502" lon="4.76051">
        <ele>185</ele>
        <time>2018-09-28T08:32:36Z</time>
      </trkpt>
      <trkpt lat="45.905" lon="4.76058">
        <ele>185</ele>
        <time>2018-09-28T08:32:37Z</time>
      </trkpt>
      <trkpt lat="45.90495" lon="4.76066">
        <ele>185</ele>
        <time>2018-09-28T08:32:39Z</time>
      </trkpt>
      <trkpt lat="45.90493" lon="4.76072">
        <ele>185</ele>
        <time>2018-09-28T08:32:40Z</time>
      </trkpt>
      <trkpt lat="45.90489" lon="4.76083">
        <ele>185</ele>
        <time>2018-09-28T08:32:42Z</time>
      </trkpt>
      <trkpt lat="45.90486" lon="4.76087">
        <ele>185</ele>
        <time>2018-09-28T08:32:43Z</time>
      </trkpt>
      <trkpt lat="45.90482" lon="4.76098">
        <ele>185</ele>
        <time>2018-09-28T08:32:45Z</time>
      </trkpt>
      <trkpt lat="45.90478" lon="4.76101">
        <ele>185</ele>
        <time>2018-09-28T08:32:46Z</time>
      </trkpt>
      <trkpt lat="45.90473" lon="4.7611">
        <ele>185</ele>
        <time>2018-09-28T08:32:48Z</time>
      </trkpt>
      <trkpt lat="45.9047" lon="4.76116">
        <ele>185</ele>
        <time>2018-09-28T08:32:49Z</time>
      </trkpt>
      <trkpt lat="45.90467" lon="4.7612">
        <ele>185</ele>
        <time>2018-09-28T08:32:50Z</time>
      </trkpt>
      <trkpt lat="45.90464" lon="4.76125">
        <ele>185</ele>
        <time>2018-09-28T08:32:51Z</time>
      </trkpt>
      <trkpt lat="45.9046" lon="4.7613">
        <ele>185</ele>
        <time>2018-09-28T08:32:52Z</time>
      </trkpt>
      <trkpt lat="45.90457" lon="4.76135">
        <ele>186</ele>
        <time>2018-09-28T08:32:53Z</time>
      </trkpt>
      <trkpt lat="45.90451" lon="4.76141">
        <ele>186</ele>
        <time>2018-09-28T08:32:56Z</time>
      </trkpt>
      <trkpt lat="45.90446" lon="4.76146">
        <ele>186</ele>
        <time>2018-09-28T08:32:57Z</time>
      </trkpt>
      <trkpt lat="45.9044" lon="4.76154">
        <ele>186</ele>
        <time>2018-09-28T08:32:59Z</time>
      </trkpt>
      <trkpt lat="45.90437" lon="4.76158">
        <ele>186</ele>
        <time>2018-09-28T08:33:00Z</time>
      </trkpt>
      <trkpt lat="45.90431" lon="4.76165">
        <ele>186</ele>
        <time>2018-09-28T08:33:02Z</time>
      </trkpt>
      <trkpt lat="45.90427" lon="4.76169">
        <ele>186</ele>
        <time>2018-09-28T08:33:03Z</time>
      </trkpt>
      <trkpt lat="45.90423" lon="4.76177">
        <ele>186</ele>
        <time>2018-09-28T08:33:07Z</time>
      </trkpt>
      <trkpt lat="45.90422" lon="4.76181">
        <ele>186</ele>
        <time>2018-09-28T08:33:08Z</time>
      </trkpt>
      <trkpt lat="45.90427" lon="4.76191">
        <ele>186</ele>
        <time>2018-09-28T08:33:12Z</time>
      </trkpt>
      <trkpt lat="45.9043" lon="4.76192">
        <ele>186</ele>
        <time>2018-09-28T08:33:13Z</time>
      </trkpt>
      <trkpt lat="45.90432" lon="4.76194">
        <ele>186</ele>
        <time>2018-09-28T08:33:14Z</time>
      </trkpt>
      <trkpt lat="45.90441" lon="4.76198">
        <ele>186</ele>
        <time>2018-09-28T08:33:15Z</time>
      </trkpt>
      <trkpt lat="45.90448" lon="4.76202">
        <ele>186</ele>
        <time>2018-09-28T08:33:17Z</time>
      </trkpt>
      <trkpt lat="45.90451" lon="4.76205">
        <ele>186</ele>
        <time>2018-09-28T08:33:18Z</time>
      </trkpt>
      <trkpt lat="45.90458" lon="4.7621">
        <ele>186</ele>
        <time>2018-09-28T08:33:20Z</time>
      </trkpt>
      <trkpt lat="45.90461" lon="4.76213">
        <ele>185</ele>
        <time>2018-09-28T08:33:21Z</time>
      </trkpt>
      <trkpt lat="45.90469" lon="4.76219">
        <ele>185</ele>
        <time>2018-09-28T08:33:25Z</time>
      </trkpt>
      <trkpt lat="45.90471" lon="4.76221">
        <ele>185</ele>
        <time>2018-09-28T08:33:26Z</time>
      </trkpt>
      <trkpt lat="45.90479" lon="4.76228">
        <ele>185</ele>
        <time>2018-09-28T08:33:27Z</time>
      </trkpt>
      <trkpt lat="45.90482" lon="4.7623">
        <ele>185</ele>
        <time>2018-09-28T08:33:28Z</time>
      </trkpt>
      <trkpt lat="45.9049" lon="4.76236">
        <ele>185</ele>
        <time>2018-09-28T08:33:30Z</time>
      </trkpt>
      <trkpt lat="45.9049" lon="4.76244">
        <ele>185</ele>
        <time>2018-09-28T08:33:31Z</time>
      </trkpt>
      <trkpt lat="45.9049" lon="4.76257">
        <ele>185</ele>
        <time>2018-09-28T08:33:33Z</time>
      </trkpt>
      <trkpt lat="45.90488" lon="4.76262">
        <ele>185</ele>
        <time>2018-09-28T08:33:34Z</time>
      </trkpt>
      <trkpt lat="45.90486" lon="4.76268">
        <ele>186</ele>
        <time>2018-09-28T08:33:35Z</time>
      </trkpt>
      <trkpt lat="45.90483" lon="4.76275">
        <ele>186</ele>
        <time>2018-09-28T08:33:36Z</time>
      </trkpt>
      <trkpt lat="45.90481" lon="4.7628">
        <ele>186</ele>
        <time>2018-09-28T08:33:37Z</time>
      </trkpt>
      <trkpt lat="45.90479" lon="4.76287">
        <ele>186</ele>
        <time>2018-09-28T08:33:38Z</time>
      </trkpt>
      <trkpt lat="45.90476" lon="4.76297">
        <ele>186</ele>
        <time>2018-09-28T08:33:40Z</time>
      </trkpt>
      <trkpt lat="45.90475" lon="4.76301">
        <ele>186</ele>
        <time>2018-09-28T08:33:41Z</time>
      </trkpt>
      <trkpt lat="45.90472" lon="4.7631">
        <ele>186</ele>
        <time>2018-09-28T08:33:44Z</time>
      </trkpt>
      <trkpt lat="45.90471" lon="4.76313">
        <ele>186</ele>
        <time>2018-09-28T08:33:45Z</time>
      </trkpt>
      <trkpt lat="45.9047" lon="4.76316">
        <ele>186</ele>
        <time>2018-09-28T08:33:46Z</time>
      </trkpt>
      <trkpt lat="45.90466" lon="4.76327">
        <ele>186</ele>
        <time>2018-09-28T08:33:47Z</time>
      </trkpt>
      <trkpt lat="45.90464" lon="4.76336">
        <ele>186</ele>
        <time>2018-09-28T08:33:49Z</time>
      </trkpt>
      <trkpt lat="45.90462" lon="4.76342">
        <ele>186</ele>
        <time>2018-09-28T08:33:50Z</time>
      </trkpt>
      <trkpt lat="45.90459" lon="4.76352">
        <ele>186</ele>
        <time>2018-09-28T08:33:52Z</time>
      </trkpt>
      <trkpt lat="45.90457" lon="4.76358">
        <ele>186</ele>
        <time>2018-09-28T08:33:53Z</time>
      </trkpt>
      <trkpt lat="45.90456" lon="4.76363">
        <ele>186</ele>
        <time>2018-09-28T08:33:54Z</time>
      </trkpt>
      <trkpt lat="45.90454" lon="4.76369">
        <ele>186</ele>
        <time>2018-09-28T08:33:55Z</time>
      </trkpt>
      <trkpt lat="45.90451" lon="4.7638">
        <ele>186</ele>
        <time>2018-09-28T08:33:57Z</time>
      </trkpt>
      <trkpt lat="45.9045" lon="4.76385">
        <ele>186</ele>
        <time>2018-09-28T08:33:58Z</time>
      </trkpt>
      <trkpt lat="45.90445" lon="4.76396">
        <ele>187</ele>
        <time>2018-09-28T08:34:02Z</time>
      </trkpt>
      <trkpt lat="45.90444" lon="4.764">
        <ele>187</ele>
        <time>2018-09-28T08:34:03Z</time>
      </trkpt>
      <trkpt lat="45.90442" lon="4.76413">
        <ele>187</ele>
        <time>2018-09-28T08:34:04Z</time>
      </trkpt>
      <trkpt lat="45.90438" lon="4.76421">
        <ele>187</ele>
        <time>2018-09-28T08:34:06Z</time>
      </trkpt>
      <trkpt lat="45.90436" lon="4.76426">
        <ele>187</ele>
        <time>2018-09-28T08:34:07Z</time>
      </trkpt>
      <trkpt lat="45.90431" lon="4.76434">
        <ele>187</ele>
        <time>2018-09-28T08:34:09Z</time>
      </trkpt>
      <trkpt lat="45.90429" lon="4.76441">
        <ele>187</ele>
        <time>2018-09-28T08:34:10Z</time>
      </trkpt>
      <trkpt lat="45.90427" lon="4.76448">
        <ele>186</ele>
        <time>2018-09-28T08:34:11Z</time>
      </trkpt>
      <trkpt lat="45.90425" lon="4.76454">
        <ele>186</ele>
        <time>2018-09-28T08:34:12Z</time>
      </trkpt>
      <trkpt lat="45.90422" lon="4.7646">
        <ele>186</ele>
        <time>2018-09-28T08:34:13Z</time>
      </trkpt>
      <trkpt lat="45.90422" lon="4.76468">
        <ele>186</ele>
        <time>2018-09-28T08:34:14Z</time>
      </trkpt>
      <trkpt lat="45.90418" lon="4.76471">
        <ele>186</ele>
        <time>2018-09-28T08:34:15Z</time>
      </trkpt>
      <trkpt lat="45.90414" lon="4.76475">
        <ele>187</ele>
        <time>2018-09-28T08:34:16Z</time>
      </trkpt>
      <trkpt lat="45.90407" lon="4.76481">
        <ele>187</ele>
        <time>2018-09-28T08:34:19Z</time>
      </trkpt>
      <trkpt lat="45.90405" lon="4.76482">
        <ele>187</ele>
        <time>2018-09-28T08:34:20Z</time>
      </trkpt>
      <trkpt lat="45.90397" lon="4.76482">
        <ele>188</ele>
        <time>2018-09-28T08:34:23Z</time>
      </trkpt>
      <trkpt lat="45.90395" lon="4.76481">
        <ele>188</ele>
        <time>2018-09-28T08:34:24Z</time>
      </trkpt>
      <trkpt lat="45.90392" lon="4.76481">
        <ele>188</ele>
        <time>2018-09-28T08:34:25Z</time>
      </trkpt>
      <trkpt lat="45.90383" lon="4.76479">
        <ele>188</ele>
        <time>2018-09-28T08:34:26Z</time>
      </trkpt>
      <trkpt lat="45.90374" lon="4.7648">
        <ele>188</ele>
        <time>2018-09-28T08:34:28Z</time>
      </trkpt>
      <trkpt lat="45.9037" lon="4.76482">
        <ele>188</ele>
        <time>2018-09-28T08:34:29Z</time>
      </trkpt>
      <trkpt lat="45.90363" lon="4.76488">
        <ele>188</ele>
        <time>2018-09-28T08:34:31Z</time>
      </trkpt>
      <trkpt lat="45.9036" lon="4.76492">
        <ele>188</ele>
        <time>2018-09-28T08:34:32Z</time>
      </trkpt>
      <trkpt lat="45.90354" lon="4.765">
        <ele>188</ele>
        <time>2018-09-28T08:34:34Z</time>
      </trkpt>
      <trkpt lat="45.90352" lon="4.76504">
        <ele>187</ele>
        <time>2018-09-28T08:34:35Z</time>
      </trkpt>
      <trkpt lat="45.90347" lon="4.76513">
        <ele>187</ele>
        <time>2018-09-28T08:34:37Z</time>
      </trkpt>
      <trkpt lat="45.90345" lon="4.76518">
        <ele>186</ele>
        <time>2018-09-28T08:34:38Z</time>
      </trkpt>
      <trkpt lat="45.90342" lon="4.76528">
        <ele>186</ele>
        <time>2018-09-28T08:34:40Z</time>
      </trkpt>
      <trkpt lat="45.90341" lon="4.76534">
        <ele>186</ele>
        <time>2018-09-28T08:34:41Z</time>
      </trkpt>
      <trkpt lat="45.90341" lon="4.76546">
        <ele>186</ele>
        <time>2018-09-28T08:34:43Z</time>
      </trkpt>
      <trkpt lat="45.90341" lon="4.76552">
        <ele>185</ele>
        <time>2018-09-28T08:34:44Z</time>
      </trkpt>
      <trkpt lat="45.90341" lon="4.76558">
        <ele>185</ele>
        <time>2018-09-28T08:34:45Z</time>
      </trkpt>
      <trkpt lat="45.90342" lon="4.76565">
        <ele>185</ele>
        <time>2018-09-28T08:34:46Z</time>
      </trkpt>
      <trkpt lat="45.90342" lon="4.76577">
        <ele>185</ele>
        <time>2018-09-28T08:34:48Z</time>
      </trkpt>
      <trkpt lat="45.90342" lon="4.76584">
        <ele>184</ele>
        <time>2018-09-28T08:34:49Z</time>
      </trkpt>
      <trkpt lat="45.90342" lon="4.76592">
        <ele>184</ele>
        <time>2018-09-28T08:34:50Z</time>
      </trkpt>
      <trkpt lat="45.90341" lon="4.76599">
        <ele>184</ele>
        <time>2018-09-28T08:34:51Z</time>
      </trkpt>
      <trkpt lat="45.90342" lon="4.76607">
        <ele>184</ele>
        <time>2018-09-28T08:34:52Z</time>
      </trkpt>
      <trkpt lat="45.90342" lon="4.76614">
        <ele>184</ele>
        <time>2018-09-28T08:34:53Z</time>
      </trkpt>
      <trkpt lat="45.90342" lon="4.76622">
        <ele>184</ele>
        <time>2018-09-28T08:34:54Z</time>
      </trkpt>
      <trkpt lat="45.90342" lon="4.7663">
        <ele>184</ele>
        <time>2018-09-28T08:34:55Z</time>
      </trkpt>
      <trkpt lat="45.90341" lon="4.76639">
        <ele>184</ele>
        <time>2018-09-28T08:34:56Z</time>
      </trkpt>
      <trkpt lat="45.90343" lon="4.76648">
        <ele>184</ele>
        <time>2018-09-28T08:34:57Z</time>
      </trkpt>
      <trkpt lat="45.90343" lon="4.76656">
        <ele>184</ele>
        <time>2018-09-28T08:34:58Z</time>
      </trkpt>
      <trkpt lat="45.90343" lon="4.76664">
        <ele>184</ele>
        <time>2018-09-28T08:34:59Z</time>
      </trkpt>
      <trkpt lat="45.90343" lon="4.76672">
        <ele>183</ele>
        <time>2018-09-28T08:35:00Z</time>
      </trkpt>
      <trkpt lat="45.90342" lon="4.76679">
        <ele>183</ele>
        <time>2018-09-28T08:35:01Z</time>
      </trkpt>
      <trkpt lat="45.90342" lon="4.76686">
        <ele>183</ele>
        <time>2018-09-28T08:35:02Z</time>
      </trkpt>
      <trkpt lat="45.90342" lon="4.76693">
        <ele>183</ele>
        <time>2018-09-28T08:35:03Z</time>
      </trkpt>
      <trkpt lat="45.90344" lon="4.767">
        <ele>183</ele>
        <time>2018-09-28T08:35:04Z</time>
      </trkpt>
      <trkpt lat="45.90344" lon="4.76708">
        <ele>183</ele>
        <time>2018-09-28T08:35:05Z</time>
      </trkpt>
      <trkpt lat="45.90343" lon="4.76716">
        <ele>183</ele>
        <time>2018-09-28T08:35:06Z</time>
      </trkpt>
      <trkpt lat="45.90343" lon="4.76721">
        <ele>183</ele>
        <time>2018-09-28T08:35:07Z</time>
      </trkpt>
      <trkpt lat="45.90344" lon="4.76733">
        <ele>183</ele>
        <time>2018-09-28T08:35:09Z</time>
      </trkpt>
      <trkpt lat="45.90344" lon="4.7674">
        <ele>183</ele>
        <time>2018-09-28T08:35:10Z</time>
      </trkpt>
      <trkpt lat="45.90344" lon="4.76746">
        <ele>183</ele>
        <time>2018-09-28T08:35:11Z</time>
      </trkpt>
      <trkpt lat="45.90343" lon="4.76753">
        <ele>183</ele>
        <time>2018-09-28T08:35:12Z</time>
      </trkpt>
      <trkpt lat="45.90344" lon="4.76762">
        <ele>182</ele>
        <time>2018-09-28T08:35:13Z</time>
      </trkpt>
      <trkpt lat="45.90343" lon="4.76769">
        <ele>182</ele>
        <time>2018-09-28T08:35:14Z</time>
      </trkpt>
      <trkpt lat="45.90343" lon="4.76781">
        <ele>182</ele>
        <time>2018-09-28T08:35:16Z</time>
      </trkpt>
      <trkpt lat="45.90342" lon="4.76786">
        <ele>182</ele>
        <time>2018-09-28T08:35:17Z</time>
      </trkpt>
      <trkpt lat="45.90342" lon="4.76797">
        <ele>182</ele>
        <time>2018-09-28T08:35:20Z</time>
      </trkpt>
      <trkpt lat="45.90342" lon="4.76802">
        <ele>182</ele>
        <time>2018-09-28T08:35:21Z</time>
      </trkpt>
      <trkpt lat="45.90341" lon="4.76806">
        <ele>182</ele>
        <time>2018-09-28T08:35:22Z</time>
      </trkpt>
      <trkpt lat="45.90341" lon="4.76818">
        <ele>182</ele>
        <time>2018-09-28T08:35:23Z</time>
      </trkpt>
      <trkpt lat="45.9034" lon="4.7683">
        <ele>182</ele>
        <time>2018-09-28T08:35:25Z</time>
      </trkpt>
      <trkpt lat="45.9034" lon="4.76836">
        <ele>182</ele>
        <time>2018-09-28T08:35:26Z</time>
      </trkpt>
      <trkpt lat="45.9034" lon="4.76848">
        <ele>182</ele>
        <time>2018-09-28T08:35:28Z</time>
      </trkpt>
      <trkpt lat="45.90341" lon="4.76853">
        <ele>182</ele>
        <time>2018-09-28T08:35:29Z</time>
      </trkpt>
      <trkpt lat="45.90346" lon="4.76861">
        <ele>182</ele>
        <time>2018-09-28T08:35:32Z</time>
      </trkpt>
      <trkpt lat="45.90352" lon="4.76863">
        <ele>182</ele>
        <time>2018-09-28T08:35:33Z</time>
      </trkpt>
      <trkpt lat="45.90356" lon="4.76863">
        <ele>182</ele>
        <time>2018-09-28T08:35:34Z</time>
      </trkpt>
      <trkpt lat="45.90362" lon="4.76856">
        <ele>182</ele>
        <time>2018-09-28T08:35:35Z</time>
      </trkpt>
      <trkpt lat="45.9037" lon="4.76854">
        <ele>182</ele>
        <time>2018-09-28T08:35:37Z</time>
      </trkpt>
      <trkpt lat="45.90374" lon="4.76854">
        <ele>182</ele>
        <time>2018-09-28T08:35:38Z</time>
      </trkpt>
      <trkpt lat="45.90383" lon="4.76855">
        <ele>182</ele>
        <time>2018-09-28T08:35:40Z</time>
      </trkpt>
      <trkpt lat="45.90387" lon="4.76854">
        <ele>182</ele>
        <time>2018-09-28T08:35:41Z</time>
      </trkpt>
      <trkpt lat="45.90395" lon="4.76854">
        <ele>182</ele>
        <time>2018-09-28T08:35:43Z</time>
      </trkpt>
      <trkpt lat="45.90398" lon="4.76853">
        <ele>182</ele>
        <time>2018-09-28T08:35:44Z</time>
      </trkpt>
      <trkpt lat="45.90402" lon="4.76853">
        <ele>182</ele>
        <time>2018-09-28T08:35:45Z</time>
      </trkpt>
      <trkpt lat="45.90407" lon="4.76854">
        <ele>182</ele>
        <time>2018-09-28T08:35:46Z</time>
      </trkpt>
      <trkpt lat="45.90412" lon="4.76853">
        <ele>182</ele>
        <time>2018-09-28T08:35:47Z</time>
      </trkpt>
      <trkpt lat="45.90416" lon="4.76854">
        <ele>182</ele>
        <time>2018-09-28T08:35:48Z</time>
      </trkpt>
      <trkpt lat="45.90425" lon="4.76855">
        <ele>181</ele>
        <time>2018-09-28T08:35:50Z</time>
      </trkpt>
      <trkpt lat="45.90429" lon="4.76856">
        <ele>181</ele>
        <time>2018-09-28T08:35:51Z</time>
      </trkpt>
      <trkpt lat="45.90437" lon="4.76858">
        <ele>181</ele>
        <time>2018-09-28T08:35:53Z</time>
      </trkpt>
      <trkpt lat="45.90442" lon="4.76859">
        <ele>181</ele>
        <time>2018-09-28T08:35:54Z</time>
      </trkpt>
      <trkpt lat="45.90446" lon="4.7686">
        <ele>181</ele>
        <time>2018-09-28T08:35:55Z</time>
      </trkpt>
      <trkpt lat="45.90451" lon="4.76861">
        <ele>181</ele>
        <time>2018-09-28T08:35:56Z</time>
      </trkpt>
      <trkpt lat="45.90456" lon="4.76861">
        <ele>181</ele>
        <time>2018-09-28T08:35:57Z</time>
      </trkpt>
      <trkpt lat="45.90461" lon="4.76864">
        <ele>181</ele>
        <time>2018-09-28T08:35:58Z</time>
      </trkpt>
      <trkpt lat="45.90466" lon="4.76863">
        <ele>181</ele>
        <time>2018-09-28T08:35:59Z</time>
      </trkpt>
      <trkpt lat="45.90471" lon="4.76863">
        <ele>181</ele>
        <time>2018-09-28T08:36:00Z</time>
      </trkpt>
      <trkpt lat="45.9048" lon="4.76866">
        <ele>181</ele>
        <time>2018-09-28T08:36:02Z</time>
      </trkpt>
      <trkpt lat="45.90483" lon="4.76868">
        <ele>181</ele>
        <time>2018-09-28T08:36:03Z</time>
      </trkpt>
      <trkpt lat="45.90487" lon="4.76869">
        <ele>181</ele>
        <time>2018-09-28T08:36:04Z</time>
      </trkpt>
      <trkpt lat="45.90492" lon="4.7687">
        <ele>181</ele>
        <time>2018-09-28T08:36:05Z</time>
      </trkpt>
      <trkpt lat="45.905" lon="4.76874">
        <ele>180</ele>
        <time>2018-09-28T08:36:07Z</time>
      </trkpt>
      <trkpt lat="45.90505" lon="4.76875">
        <ele>180</ele>
        <time>2018-09-28T08:36:08Z</time>
      </trkpt>
      <trkpt lat="45.9051" lon="4.76877">
        <ele>180</ele>
        <time>2018-09-28T08:36:09Z</time>
      </trkpt>
      <trkpt lat="45.90515" lon="4.76879">
        <ele>180</ele>
        <time>2018-09-28T08:36:10Z</time>
      </trkpt>
      <trkpt lat="45.90519" lon="4.7688">
        <ele>180</ele>
        <time>2018-09-28T08:36:11Z</time>
      </trkpt>
      <trkpt lat="45.90524" lon="4.7688">
        <ele>180</ele>
        <time>2018-09-28T08:36:12Z</time>
      </trkpt>
      <trkpt lat="45.90529" lon="4.76881">
        <ele>180</ele>
        <time>2018-09-28T08:36:13Z</time>
      </trkpt>
      <trkpt lat="45.90534" lon="4.76882">
        <ele>180</ele>
        <time>2018-09-28T08:36:14Z</time>
      </trkpt>
      <trkpt lat="45.90541" lon="4.76885">
        <ele>180</ele>
        <time>2018-09-28T08:36:16Z</time>
      </trkpt>
      <trkpt lat="45.90546" lon="4.76884">
        <ele>180</ele>
        <time>2018-09-28T08:36:17Z</time>
      </trkpt>
      <trkpt lat="45.90551" lon="4.76886">
        <ele>180</ele>
        <time>2018-09-28T08:36:18Z</time>
      </trkpt>
      <trkpt lat="45.90556" lon="4.76887">
        <ele>180</ele>
        <time>2018-09-28T08:36:19Z</time>
      </trkpt>
      <trkpt lat="45.90561" lon="4.76888">
        <ele>180</ele>
        <time>2018-09-28T08:36:20Z</time>
      </trkpt>
      <trkpt lat="45.90566" lon="4.7689">
        <ele>180</ele>
        <time>2018-09-28T08:36:21Z</time>
      </trkpt>
      <trkpt lat="45.90571" lon="4.76891">
        <ele>180</ele>
        <time>2018-09-28T08:36:22Z</time>
      </trkpt>
      <trkpt lat="45.90576" lon="4.76892">
        <ele>180</ele>
        <time>2018-09-28T08:36:23Z</time>
      </trkpt>
      <trkpt lat="45.90581" lon="4.76893">
        <ele>180</ele>
        <time>2018-09-28T08:36:24Z</time>
      </trkpt>
      <trkpt lat="45.90585" lon="4.76895">
        <ele>179</ele>
        <time>2018-09-28T08:36:25Z</time>
      </trkpt>
      <trkpt lat="45.9059" lon="4.76896">
        <ele>179</ele>
        <time>2018-09-28T08:36:26Z</time>
      </trkpt>
      <trkpt lat="45.90595" lon="4.76897">
        <ele>179</ele>
        <time>2018-09-28T08:36:27Z</time>
      </trkpt>
      <trkpt lat="45.90599" lon="4.76899">
        <ele>179</ele>
        <time>2018-09-28T08:36:28Z</time>
      </trkpt>
      <trkpt lat="45.90604" lon="4.76899">
        <ele>179</ele>
        <time>2018-09-28T08:36:29Z</time>
      </trkpt>
      <trkpt lat="45.90611" lon="4.76903">
        <ele>179</ele>
        <time>2018-09-28T08:36:31Z</time>
      </trkpt>
      <trkpt lat="45.90613" lon="4.76903">
        <ele>179</ele>
        <time>2018-09-28T08:36:32Z</time>
      </trkpt>
      <trkpt lat="45.90619" lon="4.76906">
        <ele>179</ele>
        <time>2018-09-28T08:36:33Z</time>
      </trkpt>
      <trkpt lat="45.90623" lon="4.76908">
        <ele>179</ele>
        <time>2018-09-28T08:36:34Z</time>
      </trkpt>
      <trkpt lat="45.90632" lon="4.76909">
        <ele>179</ele>
        <time>2018-09-28T08:36:36Z</time>
      </trkpt>
      <trkpt lat="45.90637" lon="4.76911">
        <ele>179</ele>
        <time>2018-09-28T08:36:37Z</time>
      </trkpt>
      <trkpt lat="45.90642" lon="4.76912">
        <ele>179</ele>
        <time>2018-09-28T08:36:38Z</time>
      </trkpt>
      <trkpt lat="45.90647" lon="4.76914">
        <ele>179</ele>
        <time>2018-09-28T08:36:39Z</time>
      </trkpt>
      <trkpt lat="45.90652" lon="4.76915">
        <ele>179</ele>
        <time>2018-09-28T08:36:40Z</time>
      </trkpt>
      <trkpt lat="45.90656" lon="4.76916">
        <ele>179</ele>
        <time>2018-09-28T08:36:41Z</time>
      </trkpt>
      <trkpt lat="45.90664" lon="4.76921">
        <ele>179</ele>
        <time>2018-09-28T08:36:43Z</time>
      </trkpt>
      <trkpt lat="45.90667" lon="4.76923">
        <ele>179</ele>
        <time>2018-09-28T08:36:44Z</time>
      </trkpt>
      <trkpt lat="45.90675" lon="4.76926">
        <ele>179</ele>
        <time>2018-09-28T08:36:46Z</time>
      </trkpt>
      <trkpt lat="45.90679" lon="4.76928">
        <ele>179</ele>
        <time>2018-09-28T08:36:47Z</time>
      </trkpt>
      <trkpt lat="45.90687" lon="4.76931">
        <ele>179</ele>
        <time>2018-09-28T08:36:49Z</time>
      </trkpt>
      <trkpt lat="45.90691" lon="4.76934">
        <ele>179</ele>
        <time>2018-09-28T08:36:50Z</time>
      </trkpt>
      <trkpt lat="45.90696" lon="4.76936">
        <ele>179</ele>
        <time>2018-09-28T08:36:51Z</time>
      </trkpt>
      <trkpt lat="45.907" lon="4.76939">
        <ele>179</ele>
        <time>2018-09-28T08:36:52Z</time>
      </trkpt>
      <trkpt lat="45.90704" lon="4.76941">
        <ele>179</ele>
        <time>2018-09-28T08:36:53Z</time>
      </trkpt>
      <trkpt lat="45.90708" lon="4.76945">
        <ele>179</ele>
        <time>2018-09-28T08:36:54Z</time>
      </trkpt>
      <trkpt lat="45.90713" lon="4.76948">
        <ele>179</ele>
        <time>2018-09-28T08:36:55Z</time>
      </trkpt>
      <trkpt lat="45.90718" lon="4.76951">
        <ele>179</ele>
        <time>2018-09-28T08:36:56Z</time>
      </trkpt>
      <trkpt lat="45.90722" lon="4.76954">
        <ele>179</ele>
        <time>2018-09-28T08:36:57Z</time>
      </trkpt>
      <trkpt lat="45.90726" lon="4.76956">
        <ele>179</ele>
        <time>2018-09-28T08:36:58Z</time>
      </trkpt>
      <trkpt lat="45.90731" lon="4.76957">
        <ele>179</ele>
        <time>2018-09-28T08:36:59Z</time>
      </trkpt>
      <trkpt lat="45.90735" lon="4.76958">
        <ele>179</ele>
        <time>2018-09-28T08:37:00Z</time>
      </trkpt>
      <trkpt lat="45.90742" lon="4.76962">
        <ele>179</ele>
        <time>2018-09-28T08:37:03Z</time>
      </trkpt>
      <trkpt lat="45.90745" lon="4.76964">
        <ele>179</ele>
        <time>2018-09-28T08:37:04Z</time>
      </trkpt>
      <trkpt lat="45.90751" lon="4.76965">
        <ele>178</ele>
        <time>2018-09-28T08:37:06Z</time>
      </trkpt>
      <trkpt lat="45.9076" lon="4.76969">
        <ele>178</ele>
        <time>2018-09-28T08:37:07Z</time>
      </trkpt>
      <trkpt lat="45.90768" lon="4.76975">
        <ele>178</ele>
        <time>2018-09-28T08:37:09Z</time>
      </trkpt>
      <trkpt lat="45.90772" lon="4.76978">
        <ele>178</ele>
        <time>2018-09-28T08:37:10Z</time>
      </trkpt>
      <trkpt lat="45.90776" lon="4.76983">
        <ele>178</ele>
        <time>2018-09-28T08:37:11Z</time>
      </trkpt>
      <trkpt lat="45.90781" lon="4.76986">
        <ele>178</ele>
        <time>2018-09-28T08:37:12Z</time>
      </trkpt>
      <trkpt lat="45.90785" lon="4.76993">
        <ele>178</ele>
        <time>2018-09-28T08:37:13Z</time>
      </trkpt>
      <trkpt lat="45.90789" lon="4.76998">
        <ele>178</ele>
        <time>2018-09-28T08:37:14Z</time>
      </trkpt>
      <trkpt lat="45.90793" lon="4.77003">
        <ele>178</ele>
        <time>2018-09-28T08:37:15Z</time>
      </trkpt>
      <trkpt lat="45.90797" lon="4.77007">
        <ele>177</ele>
        <time>2018-09-28T08:37:16Z</time>
      </trkpt>
      <trkpt lat="45.90801" lon="4.77013">
        <ele>177</ele>
        <time>2018-09-28T08:37:17Z</time>
      </trkpt>
      <trkpt lat="45.90805" lon="4.77017">
        <ele>177</ele>
        <time>2018-09-28T08:37:18Z</time>
      </trkpt>
      <trkpt lat="45.90809" lon="4.7702">
        <ele>177</ele>
        <time>2018-09-28T08:37:19Z</time>
      </trkpt>
      <trkpt lat="45.90813" lon="4.77026">
        <ele>177</ele>
        <time>2018-09-28T08:37:20Z</time>
      </trkpt>
      <trkpt lat="45.90817" lon="4.7703">
        <ele>177</ele>
        <time>2018-09-28T08:37:21Z</time>
      </trkpt>
      <trkpt lat="45.9082" lon="4.77034">
        <ele>177</ele>
        <time>2018-09-28T08:37:22Z</time>
      </trkpt>
      <trkpt lat="45.90824" lon="4.77037">
        <ele>177</ele>
        <time>2018-09-28T08:37:23Z</time>
      </trkpt>
      <trkpt lat="45.90828" lon="4.77041">
        <ele>177</ele>
        <time>2018-09-28T08:37:24Z</time>
      </trkpt>
      <trkpt lat="45.90834" lon="4.77047">
        <ele>177</ele>
        <time>2018-09-28T08:37:26Z</time>
      </trkpt>
      <trkpt lat="45.90837" lon="4.77052">
        <ele>177</ele>
        <time>2018-09-28T08:37:27Z</time>
      </trkpt>
      <trkpt lat="45.90842" lon="4.77056">
        <ele>177</ele>
        <time>2018-09-28T08:37:28Z</time>
      </trkpt>
      <trkpt lat="45.90846" lon="4.7706">
        <ele>177</ele>
        <time>2018-09-28T08:37:29Z</time>
      </trkpt>
      <trkpt lat="45.9085" lon="4.77065">
        <ele>177</ele>
        <time>2018-09-28T08:37:30Z</time>
      </trkpt>
      <trkpt lat="45.90855" lon="4.77069">
        <ele>177</ele>
        <time>2018-09-28T08:37:31Z</time>
      </trkpt>
      <trkpt lat="45.90859" lon="4.77074">
        <ele>177</ele>
        <time>2018-09-28T08:37:32Z</time>
      </trkpt>
      <trkpt lat="45.90863" lon="4.7708">
        <ele>177</ele>
        <time>2018-09-28T08:37:33Z</time>
      </trkpt>
      <trkpt lat="45.90867" lon="4.77085">
        <ele>176</ele>
        <time>2018-09-28T08:37:34Z</time>
      </trkpt>
      <trkpt lat="45.90871" lon="4.7709">
        <ele>176</ele>
        <time>2018-09-28T08:37:35Z</time>
      </trkpt>
      <trkpt lat="45.90874" lon="4.77095">
        <ele>176</ele>
        <time>2018-09-28T08:37:36Z</time>
      </trkpt>
      <trkpt lat="45.90879" lon="4.77098">
        <ele>176</ele>
        <time>2018-09-28T08:37:37Z</time>
      </trkpt>
      <trkpt lat="45.90882" lon="4.77102">
        <ele>176</ele>
        <time>2018-09-28T08:37:38Z</time>
      </trkpt>
      <trkpt lat="45.90887" lon="4.77106">
        <ele>176</ele>
        <time>2018-09-28T08:37:39Z</time>
      </trkpt>
      <trkpt lat="45.90891" lon="4.77111">
        <ele>176</ele>
        <time>2018-09-28T08:37:40Z</time>
      </trkpt>
      <trkpt lat="45.90895" lon="4.77116">
        <ele>176</ele>
        <time>2018-09-28T08:37:41Z</time>
      </trkpt>
      <trkpt lat="45.90899" lon="4.77121">
        <ele>176</ele>
        <time>2018-09-28T08:37:42Z</time>
      </trkpt>
      <trkpt lat="45.90902" lon="4.77126">
        <ele>176</ele>
        <time>2018-09-28T08:37:43Z</time>
      </trkpt>
      <trkpt lat="45.90907" lon="4.7713">
        <ele>176</ele>
        <time>2018-09-28T08:37:44Z</time>
      </trkpt>
      <trkpt lat="45.90911" lon="4.77136">
        <ele>176</ele>
        <time>2018-09-28T08:37:45Z</time>
      </trkpt>
      <trkpt lat="45.90915" lon="4.7714">
        <ele>176</ele>
        <time>2018-09-28T08:37:46Z</time>
      </trkpt>
      <trkpt lat="45.90919" lon="4.77144">
        <ele>176</ele>
        <time>2018-09-28T08:37:47Z</time>
      </trkpt>
      <trkpt lat="45.90922" lon="4.77149">
        <ele>176</ele>
        <time>2018-09-28T08:37:48Z</time>
      </trkpt>
      <trkpt lat="45.90926" lon="4.77151">
        <ele>176</ele>
        <time>2018-09-28T08:37:49Z</time>
      </trkpt>
      <trkpt lat="45.9093" lon="4.77156">
        <ele>176</ele>
        <time>2018-09-28T08:37:50Z</time>
      </trkpt>
      <trkpt lat="45.90932" lon="4.77161">
        <ele>176</ele>
        <time>2018-09-28T08:37:51Z</time>
      </trkpt>
      <trkpt lat="45.90936" lon="4.77165">
        <ele>176</ele>
        <time>2018-09-28T08:37:52Z</time>
      </trkpt>
      <trkpt lat="45.90939" lon="4.77171">
        <ele>176</ele>
        <time>2018-09-28T08:37:53Z</time>
      </trkpt>
      <trkpt lat="45.90944" lon="4.77178">
        <ele>176</ele>
        <time>2018-09-28T08:37:54Z</time>
      </trkpt>
      <trkpt lat="45.90947" lon="4.77183">
        <ele>176</ele>
        <time>2018-09-28T08:37:55Z</time>
      </trkpt>
      <trkpt lat="45.9095" lon="4.77189">
        <ele>176</ele>
        <time>2018-09-28T08:37:56Z</time>
      </trkpt>
      <trkpt lat="45.90954" lon="4.77194">
        <ele>176</ele>
        <time>2018-09-28T08:37:57Z</time>
      </trkpt>
      <trkpt lat="45.90957" lon="4.77199">
        <ele>177</ele>
        <time>2018-09-28T08:37:58Z</time>
      </trkpt>
      <trkpt lat="45.9096" lon="4.77204">
        <ele>177</ele>
        <time>2018-09-28T08:37:59Z</time>
      </trkpt>
      <trkpt lat="45.90964" lon="4.77215">
        <ele>177</ele>
        <time>2018-09-28T08:38:01Z</time>
      </trkpt>
      <trkpt lat="45.90966" lon="4.77219">
        <ele>177</ele>
        <time>2018-09-28T08:38:02Z</time>
      </trkpt>
      <trkpt lat="45.90968" lon="4.77226">
        <ele>177</ele>
        <time>2018-09-28T08:38:03Z</time>
      </trkpt>
      <trkpt lat="45.9097" lon="4.77231">
        <ele>177</ele>
        <time>2018-09-28T08:38:04Z</time>
      </trkpt>
      <trkpt lat="45.90974" lon="4.7724">
        <ele>177</ele>
        <time>2018-09-28T08:38:05Z</time>
      </trkpt>
      <trkpt lat="45.90975" lon="4.77246">
        <ele>178</ele>
        <time>2018-09-28T08:38:06Z</time>
      </trkpt>
      <trkpt lat="45.90978" lon="4.77258">
        <ele>178</ele>
        <time>2018-09-28T08:38:08Z</time>
      </trkpt>
      <trkpt lat="45.90978" lon="4.77264">
        <ele>178</ele>
        <time>2018-09-28T08:38:09Z</time>
      </trkpt>
      <trkpt lat="45.90977" lon="4.77275">
        <ele>178</ele>
        <time>2018-09-28T08:38:11Z</time>
      </trkpt>
      <trkpt lat="45.90974" lon="4.77283">
        <ele>178</ele>
        <time>2018-09-28T08:38:12Z</time>
      </trkpt>
      <trkpt lat="45.9097" lon="4.77294">
        <ele>178</ele>
        <time>2018-09-28T08:38:14Z</time>
      </trkpt>
      <trkpt lat="45.90967" lon="4.77301">
        <ele>178</ele>
        <time>2018-09-28T08:38:15Z</time>
      </trkpt>
      <trkpt lat="45.90962" lon="4.77308">
        <ele>178</ele>
        <time>2018-09-28T08:38:17Z</time>
      </trkpt>
      <trkpt lat="45.90959" lon="4.77313">
        <ele>178</ele>
        <time>2018-09-28T08:38:18Z</time>
      </trkpt>
      <trkpt lat="45.90959" lon="4.7732">
        <ele>178</ele>
        <time>2018-09-28T08:38:19Z</time>
      </trkpt>
      <trkpt lat="45.90955" lon="4.77326">
        <ele>178</ele>
        <time>2018-09-28T08:38:20Z</time>
      </trkpt>
      <trkpt lat="45.90951" lon="4.7733">
        <ele>178</ele>
        <time>2018-09-28T08:38:21Z</time>
      </trkpt>
      <trkpt lat="45.90948" lon="4.77335">
        <ele>177</ele>
        <time>2018-09-28T08:38:22Z</time>
      </trkpt>
      <trkpt lat="45.90945" lon="4.7734">
        <ele>177</ele>
        <time>2018-09-28T08:38:23Z</time>
      </trkpt>
      <trkpt lat="45.90942" lon="4.77345">
        <ele>177</ele>
        <time>2018-09-28T08:38:24Z</time>
      </trkpt>
      <trkpt lat="45.90936" lon="4.77353">
        <ele>177</ele>
        <time>2018-09-28T08:38:26Z</time>
      </trkpt>
      <trkpt lat="45.90934" lon="4.77358">
        <ele>177</ele>
        <time>2018-09-28T08:38:27Z</time>
      </trkpt>
      <trkpt lat="45.90929" lon="4.77369">
        <ele>177</ele>
        <time>2018-09-28T08:38:29Z</time>
      </trkpt>
      <trkpt lat="45.90926" lon="4.77375">
        <ele>177</ele>
        <time>2018-09-28T08:38:30Z</time>
      </trkpt>
      <trkpt lat="45.90921" lon="4.77385">
        <ele>176</ele>
        <time>2018-09-28T08:38:32Z</time>
      </trkpt>
      <trkpt lat="45.90917" lon="4.77389">
        <ele>176</ele>
        <time>2018-09-28T08:38:33Z</time>
      </trkpt>
      <trkpt lat="45.90912" lon="4.774">
        <ele>177</ele>
        <time>2018-09-28T08:38:35Z</time>
      </trkpt>
      <trkpt lat="45.90909" lon="4.77403">
        <ele>177</ele>
        <time>2018-09-28T08:38:36Z</time>
      </trkpt>
      <trkpt lat="45.90907" lon="4.77409">
        <ele>176</ele>
        <time>2018-09-28T08:38:37Z</time>
      </trkpt>
      <trkpt lat="45.90904" lon="4.77415">
        <ele>177</ele>
        <time>2018-09-28T08:38:38Z</time>
      </trkpt>
      <trkpt lat="45.90901" lon="4.77419">
        <ele>177</ele>
        <time>2018-09-28T08:38:39Z</time>
      </trkpt>
      <trkpt lat="45.90898" lon="4.77424">
        <ele>177</ele>
        <time>2018-09-28T08:38:40Z</time>
      </trkpt>
      <trkpt lat="45.90897" lon="4.77432">
        <ele>177</ele>
        <time>2018-09-28T08:38:41Z</time>
      </trkpt>
      <trkpt lat="45.90894" lon="4.77438">
        <ele>177</ele>
        <time>2018-09-28T08:38:42Z</time>
      </trkpt>
      <trkpt lat="45.90892" lon="4.77445">
        <ele>177</ele>
        <time>2018-09-28T08:38:43Z</time>
      </trkpt>
      <trkpt lat="45.90889" lon="4.77451">
        <ele>178</ele>
        <time>2018-09-28T08:38:44Z</time>
      </trkpt>
      <trkpt lat="45.90883" lon="4.77458">
        <ele>178</ele>
        <time>2018-09-28T08:38:46Z</time>
      </trkpt>
      <trkpt lat="45.90881" lon="4.77463">
        <ele>178</ele>
        <time>2018-09-28T08:38:47Z</time>
      </trkpt>
      <trkpt lat="45.90875" lon="4.77472">
        <ele>178</ele>
        <time>2018-09-28T08:38:49Z</time>
      </trkpt>
      <trkpt lat="45.90872" lon="4.77476">
        <ele>178</ele>
        <time>2018-09-28T08:38:50Z</time>
      </trkpt>
      <trkpt lat="45.90869" lon="4.77481">
        <ele>178</ele>
        <time>2018-09-28T08:38:51Z</time>
      </trkpt>
      <trkpt lat="45.90866" lon="4.77486">
        <ele>178</ele>
        <time>2018-09-28T08:38:52Z</time>
      </trkpt>
      <trkpt lat="45.9086" lon="4.77494">
        <ele>178</ele>
        <time>2018-09-28T08:38:54Z</time>
      </trkpt>
      <trkpt lat="45.90858" lon="4.77499">
        <ele>178</ele>
        <time>2018-09-28T08:38:55Z</time>
      </trkpt>
      <trkpt lat="45.90852" lon="4.77506">
        <ele>178</ele>
        <time>2018-09-28T08:38:57Z</time>
      </trkpt>
      <trkpt lat="45.90849" lon="4.7751">
        <ele>178</ele>
        <time>2018-09-28T08:38:58Z</time>
      </trkpt>
      <trkpt lat="45.90844" lon="4.77519">
        <ele>178</ele>
        <time>2018-09-28T08:39:00Z</time>
      </trkpt>
      <trkpt lat="45.90842" lon="4.77524">
        <ele>178</ele>
        <time>2018-09-28T08:39:01Z</time>
      </trkpt>
      <trkpt lat="45.90837" lon="4.77534">
        <ele>178</ele>
        <time>2018-09-28T08:39:03Z</time>
      </trkpt>
      <trkpt lat="45.90834" lon="4.77539">
        <ele>178</ele>
        <time>2018-09-28T08:39:04Z</time>
      </trkpt>
      <trkpt lat="45.90828" lon="4.77546">
        <ele>178</ele>
        <time>2018-09-28T08:39:06Z</time>
      </trkpt>
      <trkpt lat="45.90825" lon="4.7755">
        <ele>178</ele>
        <time>2018-09-28T08:39:07Z</time>
      </trkpt>
      <trkpt lat="45.9082" lon="4.77557">
        <ele>178</ele>
        <time>2018-09-28T08:39:09Z</time>
      </trkpt>
      <trkpt lat="45.90817" lon="4.77561">
        <ele>178</ele>
        <time>2018-09-28T08:39:10Z</time>
      </trkpt>
      <trkpt lat="45.90812" lon="4.77568">
        <ele>178</ele>
        <time>2018-09-28T08:39:12Z</time>
      </trkpt>
      <trkpt lat="45.90809" lon="4.77572">
        <ele>178</ele>
        <time>2018-09-28T08:39:13Z</time>
      </trkpt>
      <trkpt lat="45.90804" lon="4.77579">
        <ele>178</ele>
        <time>2018-09-28T08:39:15Z</time>
      </trkpt>
      <trkpt lat="45.90801" lon="4.77582">
        <ele>178</ele>
        <time>2018-09-28T08:39:16Z</time>
      </trkpt>
      <trkpt lat="45.90795" lon="4.77589">
        <ele>179</ele>
        <time>2018-09-28T08:39:18Z</time>
      </trkpt>
      <trkpt lat="45.90791" lon="4.77593">
        <ele>179</ele>
        <time>2018-09-28T08:39:19Z</time>
      </trkpt>
      <trkpt lat="45.90786" lon="4.77599">
        <ele>179</ele>
        <time>2018-09-28T08:39:22Z</time>
      </trkpt>
      <trkpt lat="45.90784" lon="4.77602">
        <ele>179</ele>
        <time>2018-09-28T08:39:23Z</time>
      </trkpt>
      <trkpt lat="45.9078" lon="4.77607">
        <ele>179</ele>
        <time>2018-09-28T08:39:25Z</time>
      </trkpt>
      <trkpt lat="45.90778" lon="4.77611">
        <ele>179</ele>
        <time>2018-09-28T08:39:26Z</time>
      </trkpt>
      <trkpt lat="45.90773" lon="4.77618">
        <ele>179</ele>
        <time>2018-09-28T08:39:28Z</time>
      </trkpt>
      <trkpt lat="45.90771" lon="4.77621">
        <ele>179</ele>
        <time>2018-09-28T08:39:29Z</time>
      </trkpt>
      <trkpt lat="45.90769" lon="4.77625">
        <ele>179</ele>
        <time>2018-09-28T08:39:30Z</time>
      </trkpt>
      <trkpt lat="45.90763" lon="4.77634">
        <ele>179</ele>
        <time>2018-09-28T08:39:31Z</time>
      </trkpt>
      <trkpt lat="45.90759" lon="4.7764">
        <ele>180</ele>
        <time>2018-09-28T08:39:34Z</time>
      </trkpt>
      <trkpt lat="45.90754" lon="4.77647">
        <ele>180</ele>
        <time>2018-09-28T08:39:35Z</time>
      </trkpt>
      <trkpt lat="45.90749" lon="4.77654">
        <ele>180</ele>
        <time>2018-09-28T08:39:37Z</time>
      </trkpt>
      <trkpt lat="45.90747" lon="4.77658">
        <ele>180</ele>
        <time>2018-09-28T08:39:38Z</time>
      </trkpt>
      <trkpt lat="45.90747" lon="4.7767">
        <ele>181</ele>
        <time>2018-09-28T08:39:41Z</time>
      </trkpt>
      <trkpt lat="45.90749" lon="4.77673">
        <ele>181</ele>
        <time>2018-09-28T08:39:42Z</time>
      </trkpt>
      <trkpt lat="45.90757" lon="4.77674">
        <ele>180</ele>
        <time>2018-09-28T08:39:45Z</time>
      </trkpt>
      <trkpt lat="45.90765" lon="4.7767">
        <ele>180</ele>
        <time>2018-09-28T08:39:46Z</time>
      </trkpt>
      <trkpt lat="45.90772" lon="4.77667">
        <ele>180</ele>
        <time>2018-09-28T08:39:48Z</time>
      </trkpt>
      <trkpt lat="45.90776" lon="4.77667">
        <ele>180</ele>
        <time>2018-09-28T08:39:49Z</time>
      </trkpt>
      <trkpt lat="45.90785" lon="4.77664">
        <ele>180</ele>
        <time>2018-09-28T08:39:51Z</time>
      </trkpt>
      <trkpt lat="45.90789" lon="4.77666">
        <ele>179</ele>
        <time>2018-09-28T08:39:52Z</time>
      </trkpt>
      <trkpt lat="45.90797" lon="4.77669">
        <ele>179</ele>
        <time>2018-09-28T08:39:54Z</time>
      </trkpt>
      <trkpt lat="45.90801" lon="4.7767">
        <ele>179</ele>
        <time>2018-09-28T08:39:55Z</time>
      </trkpt>
      <trkpt lat="45.90808" lon="4.77673">
        <ele>179</ele>
        <time>2018-09-28T08:39:57Z</time>
      </trkpt>
      <trkpt lat="45.90813" lon="4.77673">
        <ele>179</ele>
        <time>2018-09-28T08:39:58Z</time>
      </trkpt>
      <trkpt lat="45.90821" lon="4.77676">
        <ele>179</ele>
        <time>2018-09-28T08:40:01Z</time>
      </trkpt>
      <trkpt lat="45.90827" lon="4.77678">
        <ele>179</ele>
        <time>2018-09-28T08:40:02Z</time>
      </trkpt>
      <trkpt lat="45.90835" lon="4.77683">
        <ele>178</ele>
        <time>2018-09-28T08:40:04Z</time>
      </trkpt>
      <trkpt lat="45.9084" lon="4.77685">
        <ele>178</ele>
        <time>2018-09-28T08:40:05Z</time>
      </trkpt>
      <trkpt lat="45.90844" lon="4.77686">
        <ele>178</ele>
        <time>2018-09-28T08:40:06Z</time>
      </trkpt>
      <trkpt lat="45.90848" lon="4.7769">
        <ele>178</ele>
        <time>2018-09-28T08:40:07Z</time>
      </trkpt>
      <trkpt lat="45.90853" lon="4.77693">
        <ele>178</ele>
        <time>2018-09-28T08:40:08Z</time>
      </trkpt>
      <trkpt lat="45.90858" lon="4.77696">
        <ele>178</ele>
        <time>2018-09-28T08:40:09Z</time>
      </trkpt>
      <trkpt lat="45.90862" lon="4.777">
        <ele>178</ele>
        <time>2018-09-28T08:40:10Z</time>
      </trkpt>
      <trkpt lat="45.90868" lon="4.77705">
        <ele>178</ele>
        <time>2018-09-28T08:40:11Z</time>
      </trkpt>
      <trkpt lat="45.90872" lon="4.77708">
        <ele>178</ele>
        <time>2018-09-28T08:40:12Z</time>
      </trkpt>
      <trkpt lat="45.90878" lon="4.77714">
        <ele>177</ele>
        <time>2018-09-28T08:40:13Z</time>
      </trkpt>
      <trkpt lat="45.90883" lon="4.7772">
        <ele>177</ele>
        <time>2018-09-28T08:40:14Z</time>
      </trkpt>
      <trkpt lat="45.90889" lon="4.77725">
        <ele>177</ele>
        <time>2018-09-28T08:40:15Z</time>
      </trkpt>
      <trkpt lat="45.90894" lon="4.77731">
        <ele>177</ele>
        <time>2018-09-28T08:40:16Z</time>
      </trkpt>
      <trkpt lat="45.909" lon="4.77736">
        <ele>177</ele>
        <time>2018-09-28T08:40:17Z</time>
      </trkpt>
      <trkpt lat="45.90907" lon="4.77743">
        <ele>177</ele>
        <time>2018-09-28T08:40:18Z</time>
      </trkpt>
      <trkpt lat="45.90911" lon="4.7775">
        <ele>176</ele>
        <time>2018-09-28T08:40:19Z</time>
      </trkpt>
      <trkpt lat="45.90915" lon="4.77757">
        <ele>176</ele>
        <time>2018-09-28T08:40:20Z</time>
      </trkpt>
      <trkpt lat="45.9092" lon="4.77762">
        <ele>176</ele>
        <time>2018-09-28T08:40:21Z</time>
      </trkpt>
      <trkpt lat="45.90924" lon="4.77768">
        <ele>177</ele>
        <time>2018-09-28T08:40:22Z</time>
      </trkpt>
      <trkpt lat="45.90929" lon="4.77772">
        <ele>177</ele>
        <time>2018-09-28T08:40:23Z</time>
      </trkpt>
      <trkpt lat="45.90933" lon="4.77777">
        <ele>177</ele>
        <time>2018-09-28T08:40:24Z</time>
      </trkpt>
      <trkpt lat="45.90938" lon="4.77782">
        <ele>177</ele>
        <time>2018-09-28T08:40:25Z</time>
      </trkpt>
      <trkpt lat="45.90942" lon="4.77785">
        <ele>177</ele>
        <time>2018-09-28T08:40:26Z</time>
      </trkpt>
      <trkpt lat="45.90947" lon="4.77788">
        <ele>177</ele>
        <time>2018-09-28T08:40:27Z</time>
      </trkpt>
      <trkpt lat="45.90953" lon="4.77789">
        <ele>177</ele>
        <time>2018-09-28T08:40:28Z</time>
      </trkpt>
      <trkpt lat="45.90959" lon="4.77788">
        <ele>177</ele>
        <time>2018-09-28T08:40:29Z</time>
      </trkpt>
      <trkpt lat="45.90964" lon="4.77787">
        <ele>177</ele>
        <time>2018-09-28T08:40:30Z</time>
      </trkpt>
      <trkpt lat="45.90969" lon="4.77787">
        <ele>177</ele>
        <time>2018-09-28T08:40:31Z</time>
      </trkpt>
      <trkpt lat="45.90974" lon="4.77788">
        <ele>177</ele>
        <time>2018-09-28T08:40:32Z</time>
      </trkpt>
      <trkpt lat="45.90979" lon="4.77786">
        <ele>177</ele>
        <time>2018-09-28T08:40:33Z</time>
      </trkpt>
      <trkpt lat="45.90984" lon="4.77786">
        <ele>177</ele>
        <time>2018-09-28T08:40:34Z</time>
      </trkpt>
      <trkpt lat="45.90989" lon="4.77784">
        <ele>177</ele>
        <time>2018-09-28T08:40:35Z</time>
      </trkpt>
      <trkpt lat="45.90992" lon="4.77782">
        <ele>177</ele>
        <time>2018-09-28T08:40:36Z</time>
      </trkpt>
      <trkpt lat="45.90998" lon="4.77778">
        <ele>177</ele>
        <time>2018-09-28T08:40:37Z</time>
      </trkpt>
      <trkpt lat="45.91003" lon="4.77778">
        <ele>178</ele>
        <time>2018-09-28T08:40:38Z</time>
      </trkpt>
      <trkpt lat="45.91008" lon="4.77778">
        <ele>178</ele>
        <time>2018-09-28T08:40:39Z</time>
      </trkpt>
      <trkpt lat="45.91015" lon="4.77777">
        <ele>178</ele>
        <time>2018-09-28T08:40:41Z</time>
      </trkpt>
      <trkpt lat="45.91021" lon="4.77775">
        <ele>178</ele>
        <time>2018-09-28T08:40:42Z</time>
      </trkpt>
      <trkpt lat="45.91029" lon="4.77772">
        <ele>178</ele>
        <time>2018-09-28T08:40:44Z</time>
      </trkpt>
      <trkpt lat="45.91034" lon="4.77767">
        <ele>178</ele>
        <time>2018-09-28T08:40:45Z</time>
      </trkpt>
      <trkpt lat="45.91039" lon="4.77764">
        <ele>178</ele>
        <time>2018-09-28T08:40:46Z</time>
      </trkpt>
      <trkpt lat="45.91044" lon="4.77763">
        <ele>178</ele>
        <time>2018-09-28T08:40:47Z</time>
      </trkpt>
      <trkpt lat="45.91049" lon="4.77763">
        <ele>178</ele>
        <time>2018-09-28T08:40:48Z</time>
      </trkpt>
      <trkpt lat="45.91055" lon="4.7776">
        <ele>178</ele>
        <time>2018-09-28T08:40:49Z</time>
      </trkpt>
      <trkpt lat="45.91062" lon="4.77762">
        <ele>178</ele>
        <time>2018-09-28T08:40:51Z</time>
      </trkpt>
      <trkpt lat="45.91068" lon="4.77764">
        <ele>178</ele>
        <time>2018-09-28T08:40:52Z</time>
      </trkpt>
      <trkpt lat="45.91075" lon="4.77758">
        <ele>179</ele>
        <time>2018-09-28T08:40:54Z</time>
      </trkpt>
      <trkpt lat="45.9108" lon="4.77755">
        <ele>179</ele>
        <time>2018-09-28T08:40:55Z</time>
      </trkpt>
      <trkpt lat="45.91084" lon="4.77752">
        <ele>179</ele>
        <time>2018-09-28T08:40:56Z</time>
      </trkpt>
      <trkpt lat="45.91088" lon="4.77748">
        <ele>179</ele>
        <time>2018-09-28T08:40:57Z</time>
      </trkpt>
      <trkpt lat="45.91092" lon="4.77746">
        <ele>178</ele>
        <time>2018-09-28T08:40:58Z</time>
      </trkpt>
      <trkpt lat="45.91096" lon="4.77743">
        <ele>178</ele>
        <time>2018-09-28T08:40:59Z</time>
      </trkpt>
      <trkpt lat="45.91102" lon="4.77739">
        <ele>178</ele>
        <time>2018-09-28T08:41:00Z</time>
      </trkpt>
      <trkpt lat="45.91106" lon="4.77735">
        <ele>178</ele>
        <time>2018-09-28T08:41:01Z</time>
      </trkpt>
      <trkpt lat="45.91115" lon="4.77731">
        <ele>178</ele>
        <time>2018-09-28T08:41:03Z</time>
      </trkpt>
      <trkpt lat="45.91119" lon="4.77727">
        <ele>178</ele>
        <time>2018-09-28T08:41:04Z</time>
      </trkpt>
      <trkpt lat="45.91124" lon="4.77725">
        <ele>178</ele>
        <time>2018-09-28T08:41:05Z</time>
      </trkpt>
      <trkpt lat="45.91129" lon="4.77723">
        <ele>177</ele>
        <time>2018-09-28T08:41:06Z</time>
      </trkpt>
      <trkpt lat="45.91134" lon="4.77719">
        <ele>177</ele>
        <time>2018-09-28T08:41:07Z</time>
      </trkpt>
      <trkpt lat="45.91138" lon="4.77716">
        <ele>177</ele>
        <time>2018-09-28T08:41:08Z</time>
      </trkpt>
      <trkpt lat="45.91144" lon="4.77714">
        <ele>177</ele>
        <time>2018-09-28T08:41:09Z</time>
      </trkpt>
      <trkpt lat="45.91148" lon="4.77712">
        <ele>177</ele>
        <time>2018-09-28T08:41:10Z</time>
      </trkpt>
      <trkpt lat="45.91152" lon="4.77715">
        <ele>177</ele>
        <time>2018-09-28T08:41:11Z</time>
      </trkpt>
      <trkpt lat="45.91157" lon="4.77713">
        <ele>177</ele>
        <time>2018-09-28T08:41:12Z</time>
      </trkpt>
      <trkpt lat="45.91162" lon="4.77711">
        <ele>177</ele>
        <time>2018-09-28T08:41:13Z</time>
      </trkpt>
      <trkpt lat="45.91167" lon="4.77709">
        <ele>177</ele>
        <time>2018-09-28T08:41:14Z</time>
      </trkpt>
      <trkpt lat="45.91173" lon="4.77707">
        <ele>176</ele>
        <time>2018-09-28T08:41:15Z</time>
      </trkpt>
      <trkpt lat="45.91177" lon="4.77704">
        <ele>176</ele>
        <time>2018-09-28T08:41:16Z</time>
      </trkpt>
      <trkpt lat="45.91182" lon="4.77703">
        <ele>176</ele>
        <time>2018-09-28T08:41:17Z</time>
      </trkpt>
      <trkpt lat="45.91187" lon="4.77702">
        <ele>176</ele>
        <time>2018-09-28T08:41:18Z</time>
      </trkpt>
      <trkpt lat="45.91192" lon="4.77701">
        <ele>176</ele>
        <time>2018-09-28T08:41:19Z</time>
      </trkpt>
      <trkpt lat="45.91197" lon="4.77697">
        <ele>176</ele>
        <time>2018-09-28T08:41:20Z</time>
      </trkpt>
      <trkpt lat="45.91202" lon="4.77695">
        <ele>176</ele>
        <time>2018-09-28T08:41:21Z</time>
      </trkpt>
      <trkpt lat="45.91208" lon="4.77693">
        <ele>176</ele>
        <time>2018-09-28T08:41:22Z</time>
      </trkpt>
      <trkpt lat="45.91216" lon="4.77694">
        <ele>176</ele>
        <time>2018-09-28T08:41:24Z</time>
      </trkpt>
      <trkpt lat="45.9122" lon="4.77691">
        <ele>176</ele>
        <time>2018-09-28T08:41:25Z</time>
      </trkpt>
      <trkpt lat="45.91228" lon="4.77689">
        <ele>176</ele>
        <time>2018-09-28T08:41:27Z</time>
      </trkpt>
      <trkpt lat="45.91235" lon="4.77685">
        <ele>176</ele>
        <time>2018-09-28T08:41:28Z</time>
      </trkpt>
      <trkpt lat="45.9124" lon="4.77684">
        <ele>176</ele>
        <time>2018-09-28T08:41:29Z</time>
      </trkpt>
      <trkpt lat="45.91245" lon="4.77683">
        <ele>176</ele>
        <time>2018-09-28T08:41:30Z</time>
      </trkpt>
      <trkpt lat="45.9125" lon="4.77683">
        <ele>176</ele>
        <time>2018-09-28T08:41:31Z</time>
      </trkpt>
      <trkpt lat="45.91255" lon="4.77682">
        <ele>176</ele>
        <time>2018-09-28T08:41:32Z</time>
      </trkpt>
      <trkpt lat="45.91261" lon="4.77683">
        <ele>176</ele>
        <time>2018-09-28T08:41:33Z</time>
      </trkpt>
      <trkpt lat="45.91265" lon="4.77684">
        <ele>176</ele>
        <time>2018-09-28T08:41:34Z</time>
      </trkpt>
      <trkpt lat="45.91269" lon="4.77686">
        <ele>176</ele>
        <time>2018-09-28T08:41:35Z</time>
      </trkpt>
      <trkpt lat="45.91273" lon="4.77689">
        <ele>176</ele>
        <time>2018-09-28T08:41:36Z</time>
      </trkpt>
      <trkpt lat="45.91278" lon="4.77692">
        <ele>176</ele>
        <time>2018-09-28T08:41:37Z</time>
      </trkpt>
      <trkpt lat="45.91282" lon="4.77695">
        <ele>176</ele>
        <time>2018-09-28T08:41:38Z</time>
      </trkpt>
      <trkpt lat="45.91291" lon="4.777">
        <ele>176</ele>
        <time>2018-09-28T08:41:40Z</time>
      </trkpt>
      <trkpt lat="45.91295" lon="4.77702">
        <ele>176</ele>
        <time>2018-09-28T08:41:41Z</time>
      </trkpt>
      <trkpt lat="45.913" lon="4.77706">
        <ele>176</ele>
        <time>2018-09-28T08:41:42Z</time>
      </trkpt>
      <trkpt lat="45.91304" lon="4.77709">
        <ele>176</ele>
        <time>2018-09-28T08:41:43Z</time>
      </trkpt>
      <trkpt lat="45.91309" lon="4.7771">
        <ele>176</ele>
        <time>2018-09-28T08:41:44Z</time>
      </trkpt>
      <trkpt lat="45.91313" lon="4.77711">
        <ele>176</ele>
        <time>2018-09-28T08:41:45Z</time>
      </trkpt>
      <trkpt lat="45.9132" lon="4.77713">
        <ele>176</ele>
        <time>2018-09-28T08:41:46Z</time>
      </trkpt>
      <trkpt lat="45.91325" lon="4.77715">
        <ele>176</ele>
        <time>2018-09-28T08:41:47Z</time>
      </trkpt>
      <trkpt lat="45.91328" lon="4.77716">
        <ele>176</ele>
        <time>2018-09-28T08:41:48Z</time>
      </trkpt>
      <trkpt lat="45.91336" lon="4.77718">
        <ele>176</ele>
        <time>2018-09-28T08:41:49Z</time>
      </trkpt>
      <trkpt lat="45.91342" lon="4.77717">
        <ele>176</ele>
        <time>2018-09-28T08:41:50Z</time>
      </trkpt>
      <trkpt lat="45.91347" lon="4.7772">
        <ele>176</ele>
        <time>2018-09-28T08:41:51Z</time>
      </trkpt>
      <trkpt lat="45.91353" lon="4.7772">
        <ele>176</ele>
        <time>2018-09-28T08:41:52Z</time>
      </trkpt>
      <trkpt lat="45.91357" lon="4.77721">
        <ele>176</ele>
        <time>2018-09-28T08:41:53Z</time>
      </trkpt>
      <trkpt lat="45.91362" lon="4.77722">
        <ele>176</ele>
        <time>2018-09-28T08:41:54Z</time>
      </trkpt>
      <trkpt lat="45.91366" lon="4.77722">
        <ele>176</ele>
        <time>2018-09-28T08:41:55Z</time>
      </trkpt>
      <trkpt lat="45.91375" lon="4.77722">
        <ele>176</ele>
        <time>2018-09-28T08:41:57Z</time>
      </trkpt>
      <trkpt lat="45.9138" lon="4.77721">
        <ele>176</ele>
        <time>2018-09-28T08:41:58Z</time>
      </trkpt>
      <trkpt lat="45.91385" lon="4.77719">
        <ele>177</ele>
        <time>2018-09-28T08:41:59Z</time>
      </trkpt>
      <trkpt lat="45.9139" lon="4.77718">
        <ele>177</ele>
        <time>2018-09-28T08:42:00Z</time>
      </trkpt>
      <trkpt lat="45.91398" lon="4.77717">
        <ele>177</ele>
        <time>2018-09-28T08:42:02Z</time>
      </trkpt>
      <trkpt lat="45.914" lon="4.77718">
        <ele>177</ele>
        <time>2018-09-28T08:42:03Z</time>
      </trkpt>
      <trkpt lat="45.91407" lon="4.77721">
        <ele>177</ele>
        <time>2018-09-28T08:42:06Z</time>
      </trkpt>
      <trkpt lat="45.9141" lon="4.77721">
        <ele>177</ele>
        <time>2018-09-28T08:42:07Z</time>
      </trkpt>
      <trkpt lat="45.91413" lon="4.77721">
        <ele>177</ele>
        <time>2018-09-28T08:42:08Z</time>
      </trkpt>
      <trkpt lat="45.91421" lon="4.77714">
        <ele>177</ele>
        <time>2018-09-28T08:42:09Z</time>
      </trkpt>
      <trkpt lat="45.91418" lon="4.77704">
        <ele>177</ele>
        <time>2018-09-28T08:42:11Z</time>
      </trkpt>
      <trkpt lat="45.91417" lon="4.77697">
        <ele>177</ele>
        <time>2018-09-28T08:42:12Z</time>
      </trkpt>
      <trkpt lat="45.91415" lon="4.77686">
        <ele>176</ele>
        <time>2018-09-28T08:42:14Z</time>
      </trkpt>
      <trkpt lat="45.91412" lon="4.7768">
        <ele>176</ele>
        <time>2018-09-28T08:42:15Z</time>
      </trkpt>
      <trkpt lat="45.91413" lon="4.77673">
        <ele>176</ele>
        <time>2018-09-28T08:42:16Z</time>
      </trkpt>
      <trkpt lat="45.91412" lon="4.77665">
        <ele>176</ele>
        <time>2018-09-28T08:42:17Z</time>
      </trkpt>
      <trkpt lat="45.9141" lon="4.77658">
        <ele>175</ele>
        <time>2018-09-28T08:42:18Z</time>
      </trkpt>
      <trkpt lat="45.91409" lon="4.77651">
        <ele>175</ele>
        <time>2018-09-28T08:42:19Z</time>
      </trkpt>
      <trkpt lat="45.91408" lon="4.77645">
        <ele>175</ele>
        <time>2018-09-28T08:42:20Z</time>
      </trkpt>
      <trkpt lat="45.91408" lon="4.77638">
        <ele>175</ele>
        <time>2018-09-28T08:42:21Z</time>
      </trkpt>
      <trkpt lat="45.91406" lon="4.77631">
        <ele>175</ele>
        <time>2018-09-28T08:42:22Z</time>
      </trkpt>
      <trkpt lat="45.91405" lon="4.77623">
        <ele>175</ele>
        <time>2018-09-28T08:42:23Z</time>
      </trkpt>
      <trkpt lat="45.91403" lon="4.77617">
        <ele>175</ele>
        <time>2018-09-28T08:42:24Z</time>
      </trkpt>
      <trkpt lat="45.91402" lon="4.77608">
        <ele>174</ele>
        <time>2018-09-28T08:42:25Z</time>
      </trkpt>
      <trkpt lat="45.91402" lon="4.776">
        <ele>174</ele>
        <time>2018-09-28T08:42:26Z</time>
      </trkpt>
      <trkpt lat="45.91401" lon="4.77592">
        <ele>174</ele>
        <time>2018-09-28T08:42:27Z</time>
      </trkpt>
      <trkpt lat="45.914" lon="4.77584">
        <ele>174</ele>
        <time>2018-09-28T08:42:28Z</time>
      </trkpt>
      <trkpt lat="45.91398" lon="4.77576">
        <ele>174</ele>
        <time>2018-09-28T08:42:29Z</time>
      </trkpt>
      <trkpt lat="45.91397" lon="4.77568">
        <ele>174</ele>
        <time>2018-09-28T08:42:30Z</time>
      </trkpt>
      <trkpt lat="45.91398" lon="4.77561">
        <ele>174</ele>
        <time>2018-09-28T08:42:31Z</time>
      </trkpt>
      <trkpt lat="45.91399" lon="4.77548">
        <ele>174</ele>
        <time>2018-09-28T08:42:33Z</time>
      </trkpt>
      <trkpt lat="45.91397" lon="4.77541">
        <ele>174</ele>
        <time>2018-09-28T08:42:34Z</time>
      </trkpt>
      <trkpt lat="45.91397" lon="4.77533">
        <ele>174</ele>
        <time>2018-09-28T08:42:35Z</time>
      </trkpt>
      <trkpt lat="45.91395" lon="4.77524">
        <ele>174</ele>
        <time>2018-09-28T08:42:36Z</time>
      </trkpt>
      <trkpt lat="45.91397" lon="4.77517">
        <ele>174</ele>
        <time>2018-09-28T08:42:37Z</time>
      </trkpt>
      <trkpt lat="45.91397" lon="4.77511">
        <ele>174</ele>
        <time>2018-09-28T08:42:38Z</time>
      </trkpt>
      <trkpt lat="45.91396" lon="4.77503">
        <ele>174</ele>
        <time>2018-09-28T08:42:39Z</time>
      </trkpt>
      <trkpt lat="45.91395" lon="4.77494">
        <ele>174</ele>
        <time>2018-09-28T08:42:40Z</time>
      </trkpt>
      <trkpt lat="45.91395" lon="4.77487">
        <ele>174</ele>
        <time>2018-09-28T08:42:41Z</time>
      </trkpt>
      <trkpt lat="45.91394" lon="4.77479">
        <ele>174</ele>
        <time>2018-09-28T08:42:42Z</time>
      </trkpt>
      <trkpt lat="45.91393" lon="4.77471">
        <ele>174</ele>
        <time>2018-09-28T08:42:43Z</time>
      </trkpt>
      <trkpt lat="45.91392" lon="4.77463">
        <ele>174</ele>
        <time>2018-09-28T08:42:44Z</time>
      </trkpt>
      <trkpt lat="45.91392" lon="4.77455">
        <ele>174</ele>
        <time>2018-09-28T08:42:45Z</time>
      </trkpt>
      <trkpt lat="45.91392" lon="4.77449">
        <ele>174</ele>
        <time>2018-09-28T08:42:46Z</time>
      </trkpt>
      <trkpt lat="45.91391" lon="4.77438">
        <ele>174</ele>
        <time>2018-09-28T08:42:48Z</time>
      </trkpt>
      <trkpt lat="45.91392" lon="4.77433">
        <ele>174</ele>
        <time>2018-09-28T08:42:49Z</time>
      </trkpt>
      <trkpt lat="45.91392" lon="4.77426">
        <ele>174</ele>
        <time>2018-09-28T08:42:50Z</time>
      </trkpt>
      <trkpt lat="45.91391" lon="4.77419">
        <ele>174</ele>
        <time>2018-09-28T08:42:51Z</time>
      </trkpt>
      <trkpt lat="45.9139" lon="4.7741">
        <ele>174</ele>
        <time>2018-09-28T08:42:52Z</time>
      </trkpt>
      <trkpt lat="45.9139" lon="4.77402">
        <ele>174</ele>
        <time>2018-09-28T08:42:53Z</time>
      </trkpt>
      <trkpt lat="45.91389" lon="4.77396">
        <ele>174</ele>
        <time>2018-09-28T08:42:54Z</time>
      </trkpt>
      <trkpt lat="45.91388" lon="4.77387">
        <ele>174</ele>
        <time>2018-09-28T08:42:55Z</time>
      </trkpt>
      <trkpt lat="45.91389" lon="4.77381">
        <ele>174</ele>
        <time>2018-09-28T08:42:56Z</time>
      </trkpt>
      <trkpt lat="45.9139" lon="4.77373">
        <ele>174</ele>
        <time>2018-09-28T08:42:57Z</time>
      </trkpt>
      <trkpt lat="45.9139" lon="4.77367">
        <ele>174</ele>
        <time>2018-09-28T08:42:58Z</time>
      </trkpt>
      <trkpt lat="45.91389" lon="4.7736">
        <ele>174</ele>
        <time>2018-09-28T08:42:59Z</time>
      </trkpt>
      <trkpt lat="45.91389" lon="4.77353">
        <ele>174</ele>
        <time>2018-09-28T08:43:00Z</time>
      </trkpt>
      <trkpt lat="45.91389" lon="4.77346">
        <ele>174</ele>
        <time>2018-09-28T08:43:01Z</time>
      </trkpt>
      <trkpt lat="45.91382" lon="4.77339">
        <ele>175</ele>
        <time>2018-09-28T08:43:02Z</time>
      </trkpt>
      <trkpt lat="45.91381" lon="4.77332">
        <ele>175</ele>
        <time>2018-09-28T08:43:03Z</time>
      </trkpt>
      <trkpt lat="45.91383" lon="4.77323">
        <ele>175</ele>
        <time>2018-09-28T08:43:04Z</time>
      </trkpt>
      <trkpt lat="45.91383" lon="4.77317">
        <ele>175</ele>
        <time>2018-09-28T08:43:05Z</time>
      </trkpt>
      <trkpt lat="45.91382" lon="4.77304">
        <ele>175</ele>
        <time>2018-09-28T08:43:07Z</time>
      </trkpt>
      <trkpt lat="45.91382" lon="4.77297">
        <ele>175</ele>
        <time>2018-09-28T08:43:08Z</time>
      </trkpt>
      <trkpt lat="45.91382" lon="4.77289">
        <ele>175</ele>
        <time>2018-09-28T08:43:10Z</time>
      </trkpt>
      <trkpt lat="45.91385" lon="4.77281">
        <ele>175</ele>
        <time>2018-09-28T08:43:11Z</time>
      </trkpt>
      <trkpt lat="45.91385" lon="4.77274">
        <ele>175</ele>
        <time>2018-09-28T08:43:12Z</time>
      </trkpt>
      <trkpt lat="45.91384" lon="4.77267">
        <ele>175</ele>
        <time>2018-09-28T08:43:13Z</time>
      </trkpt>
      <trkpt lat="45.91384" lon="4.7726">
        <ele>175</ele>
        <time>2018-09-28T08:43:14Z</time>
      </trkpt>
      <trkpt lat="45.91382" lon="4.77252">
        <ele>175</ele>
        <time>2018-09-28T08:43:15Z</time>
      </trkpt>
      <trkpt lat="45.91381" lon="4.77244">
        <ele>176</ele>
        <time>2018-09-28T08:43:16Z</time>
      </trkpt>
      <trkpt lat="45.91381" lon="4.77238">
        <ele>176</ele>
        <time>2018-09-28T08:43:17Z</time>
      </trkpt>
      <trkpt lat="45.9138" lon="4.7723">
        <ele>176</ele>
        <time>2018-09-28T08:43:18Z</time>
      </trkpt>
      <trkpt lat="45.9138" lon="4.77222">
        <ele>176</ele>
        <time>2018-09-28T08:43:19Z</time>
      </trkpt>
      <trkpt lat="45.9138" lon="4.77211">
        <ele>176</ele>
        <time>2018-09-28T08:43:21Z</time>
      </trkpt>
      <trkpt lat="45.91378" lon="4.77204">
        <ele>176</ele>
        <time>2018-09-28T08:43:22Z</time>
      </trkpt>
      <trkpt lat="45.91376" lon="4.77198">
        <ele>176</ele>
        <time>2018-09-28T08:43:23Z</time>
      </trkpt>
      <trkpt lat="45.91374" lon="4.77191">
        <ele>176</ele>
        <time>2018-09-28T08:43:24Z</time>
      </trkpt>
      <trkpt lat="45.91371" lon="4.77179">
        <ele>176</ele>
        <time>2018-09-28T08:43:26Z</time>
      </trkpt>
      <trkpt lat="45.9137" lon="4.77173">
        <ele>176</ele>
        <time>2018-09-28T08:43:27Z</time>
      </trkpt>
      <trkpt lat="45.91368" lon="4.77166">
        <ele>177</ele>
        <time>2018-09-28T08:43:28Z</time>
      </trkpt>
      <trkpt lat="45.91366" lon="4.77159">
        <ele>177</ele>
        <time>2018-09-28T08:43:29Z</time>
      </trkpt>
      <trkpt lat="45.91364" lon="4.77148">
        <ele>177</ele>
        <time>2018-09-28T08:43:31Z</time>
      </trkpt>
      <trkpt lat="45.91362" lon="4.77141">
        <ele>177</ele>
        <time>2018-09-28T08:43:32Z</time>
      </trkpt>
      <trkpt lat="45.91363" lon="4.7713">
        <ele>177</ele>
        <time>2018-09-28T08:43:34Z</time>
      </trkpt>
      <trkpt lat="45.91361" lon="4.77125">
        <ele>177</ele>
        <time>2018-09-28T08:43:35Z</time>
      </trkpt>
      <trkpt lat="45.91358" lon="4.77114">
        <ele>177</ele>
        <time>2018-09-28T08:43:37Z</time>
      </trkpt>
      <trkpt lat="45.91356" lon="4.77106">
        <ele>177</ele>
        <time>2018-09-28T08:43:38Z</time>
      </trkpt>
      <trkpt lat="45.91354" lon="4.77099">
        <ele>177</ele>
        <time>2018-09-28T08:43:39Z</time>
      </trkpt>
      <trkpt lat="45.91353" lon="4.77091">
        <ele>177</ele>
        <time>2018-09-28T08:43:40Z</time>
      </trkpt>
      <trkpt lat="45.91352" lon="4.77085">
        <ele>177</ele>
        <time>2018-09-28T08:43:41Z</time>
      </trkpt>
      <trkpt lat="45.91351" lon="4.77075">
        <ele>176</ele>
        <time>2018-09-28T08:43:42Z</time>
      </trkpt>
      <trkpt lat="45.9135" lon="4.77063">
        <ele>176</ele>
        <time>2018-09-28T08:43:44Z</time>
      </trkpt>
      <trkpt lat="45.91348" lon="4.77056">
        <ele>176</ele>
        <time>2018-09-28T08:43:45Z</time>
      </trkpt>
      <trkpt lat="45.91346" lon="4.77048">
        <ele>176</ele>
        <time>2018-09-28T08:43:46Z</time>
      </trkpt>
      <trkpt lat="45.91345" lon="4.77043">
        <ele>176</ele>
        <time>2018-09-28T08:43:47Z</time>
      </trkpt>
      <trkpt lat="45.91343" lon="4.77036">
        <ele>176</ele>
        <time>2018-09-28T08:43:48Z</time>
      </trkpt>
      <trkpt lat="45.91343" lon="4.77029">
        <ele>176</ele>
        <time>2018-09-28T08:43:49Z</time>
      </trkpt>
      <trkpt lat="45.9134" lon="4.77022">
        <ele>176</ele>
        <time>2018-09-28T08:43:50Z</time>
      </trkpt>
      <trkpt lat="45.91337" lon="4.77016">
        <ele>176</ele>
        <time>2018-09-28T08:43:51Z</time>
      </trkpt>
      <trkpt lat="45.91338" lon="4.77009">
        <ele>176</ele>
        <time>2018-09-28T08:43:52Z</time>
      </trkpt>
      <trkpt lat="45.91335" lon="4.77002">
        <ele>176</ele>
        <time>2018-09-28T08:43:53Z</time>
      </trkpt>
      <trkpt lat="45.91334" lon="4.76995">
        <ele>176</ele>
        <time>2018-09-28T08:43:54Z</time>
      </trkpt>
      <trkpt lat="45.91332" lon="4.76989">
        <ele>176</ele>
        <time>2018-09-28T08:43:55Z</time>
      </trkpt>
      <trkpt lat="45.91328" lon="4.76981">
        <ele>175</ele>
        <time>2018-09-28T08:43:56Z</time>
      </trkpt>
      <trkpt lat="45.91327" lon="4.76975">
        <ele>175</ele>
        <time>2018-09-28T08:43:57Z</time>
      </trkpt>
      <trkpt lat="45.91325" lon="4.76966">
        <ele>175</ele>
        <time>2018-09-28T08:43:58Z</time>
      </trkpt>
      <trkpt lat="45.91327" lon="4.7696">
        <ele>175</ele>
        <time>2018-09-28T08:43:59Z</time>
      </trkpt>
      <trkpt lat="45.91328" lon="4.76951">
        <ele>175</ele>
        <time>2018-09-28T08:44:00Z</time>
      </trkpt>
      <trkpt lat="45.91327" lon="4.76944">
        <ele>175</ele>
        <time>2018-09-28T08:44:01Z</time>
      </trkpt>
      <trkpt lat="45.91328" lon="4.76931">
        <ele>175</ele>
        <time>2018-09-28T08:44:03Z</time>
      </trkpt>
      <trkpt lat="45.91328" lon="4.76924">
        <ele>175</ele>
        <time>2018-09-28T08:44:04Z</time>
      </trkpt>
      <trkpt lat="45.91329" lon="4.76915">
        <ele>175</ele>
        <time>2018-09-28T08:44:06Z</time>
      </trkpt>
      <trkpt lat="45.91328" lon="4.76907">
        <ele>175</ele>
        <time>2018-09-28T08:44:07Z</time>
      </trkpt>
      <trkpt lat="45.9133" lon="4.76895">
        <ele>175</ele>
        <time>2018-09-28T08:44:09Z</time>
      </trkpt>
      <trkpt lat="45.91329" lon="4.76889">
        <ele>175</ele>
        <time>2018-09-28T08:44:10Z</time>
      </trkpt>
      <trkpt lat="45.9133" lon="4.76879">
        <ele>175</ele>
        <time>2018-09-28T08:44:12Z</time>
      </trkpt>
      <trkpt lat="45.91328" lon="4.76872">
        <ele>175</ele>
        <time>2018-09-28T08:44:13Z</time>
      </trkpt>
      <trkpt lat="45.91329" lon="4.76861">
        <ele>175</ele>
        <time>2018-09-28T08:44:15Z</time>
      </trkpt>
      <trkpt lat="45.91328" lon="4.76856">
        <ele>175</ele>
        <time>2018-09-28T08:44:16Z</time>
      </trkpt>
      <trkpt lat="45.91328" lon="4.76844">
        <ele>174</ele>
        <time>2018-09-28T08:44:18Z</time>
      </trkpt>
      <trkpt lat="45.91328" lon="4.76837">
        <ele>174</ele>
        <time>2018-09-28T08:44:19Z</time>
      </trkpt>
      <trkpt lat="45.91329" lon="4.7683">
        <ele>174</ele>
        <time>2018-09-28T08:44:20Z</time>
      </trkpt>
      <trkpt lat="45.91329" lon="4.76823">
        <ele>175</ele>
        <time>2018-09-28T08:44:21Z</time>
      </trkpt>
      <trkpt lat="45.9133" lon="4.76816">
        <ele>175</ele>
        <time>2018-09-28T08:44:22Z</time>
      </trkpt>
      <trkpt lat="45.9133" lon="4.7681">
        <ele>175</ele>
        <time>2018-09-28T08:44:23Z</time>
      </trkpt>
      <trkpt lat="45.91331" lon="4.76797">
        <ele>175</ele>
        <time>2018-09-28T08:44:25Z</time>
      </trkpt>
      <trkpt lat="45.91332" lon="4.76791">
        <ele>175</ele>
        <time>2018-09-28T08:44:26Z</time>
      </trkpt>
      <trkpt lat="45.91333" lon="4.76779">
        <ele>176</ele>
        <time>2018-09-28T08:44:28Z</time>
      </trkpt>
      <trkpt lat="45.91333" lon="4.76774">
        <ele>176</ele>
        <time>2018-09-28T08:44:29Z</time>
      </trkpt>
      <trkpt lat="45.91333" lon="4.76763">
        <ele>176</ele>
        <time>2018-09-28T08:44:31Z</time>
      </trkpt>
      <trkpt lat="45.91333" lon="4.76758">
        <ele>176</ele>
        <time>2018-09-28T08:44:32Z</time>
      </trkpt>
      <trkpt lat="45.91333" lon="4.76753">
        <ele>176</ele>
        <time>2018-09-28T08:44:34Z</time>
      </trkpt>
      <trkpt lat="45.91333" lon="4.76744">
        <ele>176</ele>
        <time>2018-09-28T08:44:35Z</time>
      </trkpt>
      <trkpt lat="45.91333" lon="4.76733">
        <ele>176</ele>
        <time>2018-09-28T08:44:37Z</time>
      </trkpt>
      <trkpt lat="45.91333" lon="4.76728">
        <ele>176</ele>
        <time>2018-09-28T08:44:38Z</time>
      </trkpt>
      <trkpt lat="45.91334" lon="4.76715">
        <ele>176</ele>
        <time>2018-09-28T08:44:41Z</time>
      </trkpt>
      <trkpt lat="45.91335" lon="4.76712">
        <ele>176</ele>
        <time>2018-09-28T08:44:42Z</time>
      </trkpt>
      <trkpt lat="45.91337" lon="4.767">
        <ele>176</ele>
        <time>2018-09-28T08:44:45Z</time>
      </trkpt>
      <trkpt lat="45.91338" lon="4.76696">
        <ele>176</ele>
        <time>2018-09-28T08:44:46Z</time>
      </trkpt>
      <trkpt lat="45.91341" lon="4.76688">
        <ele>176</ele>
        <time>2018-09-28T08:44:48Z</time>
      </trkpt>
      <trkpt lat="45.91345" lon="4.76677">
        <ele>176</ele>
        <time>2018-09-28T08:44:49Z</time>
      </trkpt>
      <trkpt lat="45.91349" lon="4.76669">
        <ele>176</ele>
        <time>2018-09-28T08:44:51Z</time>
      </trkpt>
      <trkpt lat="45.91352" lon="4.76665">
        <ele>176</ele>
        <time>2018-09-28T08:44:52Z</time>
      </trkpt>
      <trkpt lat="45.91356" lon="4.76657">
        <ele>176</ele>
        <time>2018-09-28T08:44:55Z</time>
      </trkpt>
      <trkpt lat="45.91357" lon="4.76654">
        <ele>176</ele>
        <time>2018-09-28T08:44:56Z</time>
      </trkpt>
      <trkpt lat="45.91362" lon="4.76643">
        <ele>176</ele>
        <time>2018-09-28T08:44:59Z</time>
      </trkpt>
      <trkpt lat="45.91363" lon="4.76639">
        <ele>176</ele>
        <time>2018-09-28T08:45:00Z</time>
      </trkpt>
      <trkpt lat="45.91368" lon="4.76629">
        <ele>176</ele>
        <time>2018-09-28T08:45:03Z</time>
      </trkpt>
      <trkpt lat="45.91373" lon="4.76617">
        <ele>176</ele>
        <time>2018-09-28T08:45:04Z</time>
      </trkpt>
      <trkpt lat="45.91379" lon="4.76608">
        <ele>176</ele>
        <time>2018-09-28T08:45:06Z</time>
      </trkpt>
      <trkpt lat="45.91382" lon="4.76602">
        <ele>176</ele>
        <time>2018-09-28T08:45:07Z</time>
      </trkpt>
      <trkpt lat="45.91385" lon="4.76595">
        <ele>176</ele>
        <time>2018-09-28T08:45:08Z</time>
      </trkpt>
      <trkpt lat="45.91388" lon="4.76591">
        <ele>176</ele>
        <time>2018-09-28T08:45:09Z</time>
      </trkpt>
      <trkpt lat="45.91391" lon="4.76586">
        <ele>177</ele>
        <time>2018-09-28T08:45:10Z</time>
      </trkpt>
      <trkpt lat="45.91394" lon="4.76581">
        <ele>177</ele>
        <time>2018-09-28T08:45:11Z</time>
      </trkpt>
      <trkpt lat="45.91399" lon="4.76573">
        <ele>177</ele>
        <time>2018-09-28T08:45:13Z</time>
      </trkpt>
      <trkpt lat="45.914" lon="4.76571">
        <ele>177</ele>
        <time>2018-09-28T08:45:14Z</time>
      </trkpt>
      <trkpt lat="45.91403" lon="4.76563">
        <ele>177</ele>
        <time>2018-09-28T08:45:17Z</time>
      </trkpt>
      <trkpt lat="45.91405" lon="4.76559">
        <ele>177</ele>
        <time>2018-09-28T08:45:18Z</time>
      </trkpt>
      <trkpt lat="45.9141" lon="4.76548">
        <ele>177</ele>
        <time>2018-09-28T08:45:19Z</time>
      </trkpt>
      <trkpt lat="45.91415" lon="4.76538">
        <ele>177</ele>
        <time>2018-09-28T08:45:21Z</time>
      </trkpt>
      <trkpt lat="45.91419" lon="4.76532">
        <ele>177</ele>
        <time>2018-09-28T08:45:22Z</time>
      </trkpt>
      <trkpt lat="45.91422" lon="4.76527">
        <ele>177</ele>
        <time>2018-09-28T08:45:23Z</time>
      </trkpt>
      <trkpt lat="45.91425" lon="4.76521">
        <ele>177</ele>
        <time>2018-09-28T08:45:24Z</time>
      </trkpt>
      <trkpt lat="45.91431" lon="4.76511">
        <ele>177</ele>
        <time>2018-09-28T08:45:26Z</time>
      </trkpt>
      <trkpt lat="45.91435" lon="4.76507">
        <ele>177</ele>
        <time>2018-09-28T08:45:27Z</time>
      </trkpt>
      <trkpt lat="45.91439" lon="4.76499">
        <ele>177</ele>
        <time>2018-09-28T08:45:29Z</time>
      </trkpt>
      <trkpt lat="45.91443" lon="4.76497">
        <ele>177</ele>
        <time>2018-09-28T08:45:30Z</time>
      </trkpt>
      <trkpt lat="45.91448" lon="4.76487">
        <ele>177</ele>
        <time>2018-09-28T08:45:32Z</time>
      </trkpt>
      <trkpt lat="45.91452" lon="4.7648">
        <ele>177</ele>
        <time>2018-09-28T08:45:33Z</time>
      </trkpt>
      <trkpt lat="45.91454" lon="4.76476">
        <ele>177</ele>
        <time>2018-09-28T08:45:34Z</time>
      </trkpt>
      <trkpt lat="45.91457" lon="4.7647">
        <ele>177</ele>
        <time>2018-09-28T08:45:35Z</time>
      </trkpt>
      <trkpt lat="45.91462" lon="4.76465">
        <ele>177</ele>
        <time>2018-09-28T08:45:36Z</time>
      </trkpt>
      <trkpt lat="45.91465" lon="4.7646">
        <ele>177</ele>
        <time>2018-09-28T08:45:37Z</time>
      </trkpt>
      <trkpt lat="45.91469" lon="4.76454">
        <ele>177</ele>
        <time>2018-09-28T08:45:39Z</time>
      </trkpt>
      <trkpt lat="45.91473" lon="4.76447">
        <ele>176</ele>
        <time>2018-09-28T08:45:40Z</time>
      </trkpt>
      <trkpt lat="45.91479" lon="4.76441">
        <ele>176</ele>
        <time>2018-09-28T08:45:42Z</time>
      </trkpt>
      <trkpt lat="45.91481" lon="4.76436">
        <ele>176</ele>
        <time>2018-09-28T08:45:43Z</time>
      </trkpt>
      <trkpt lat="45.91483" lon="4.76426">
        <ele>176</ele>
        <time>2018-09-28T08:45:45Z</time>
      </trkpt>
      <trkpt lat="45.91486" lon="4.76422">
        <ele>176</ele>
        <time>2018-09-28T08:45:46Z</time>
      </trkpt>
      <trkpt lat="45.91492" lon="4.76413">
        <ele>176</ele>
        <time>2018-09-28T08:45:48Z</time>
      </trkpt>
      <trkpt lat="45.91494" lon="4.76409">
        <ele>176</ele>
        <time>2018-09-28T08:45:49Z</time>
      </trkpt>
      <trkpt lat="45.91496" lon="4.76399">
        <ele>176</ele>
        <time>2018-09-28T08:45:51Z</time>
      </trkpt>
      <trkpt lat="45.91497" lon="4.76393">
        <ele>176</ele>
        <time>2018-09-28T08:45:52Z</time>
      </trkpt>
      <trkpt lat="45.91504" lon="4.76386">
        <ele>176</ele>
        <time>2018-09-28T08:45:54Z</time>
      </trkpt>
      <trkpt lat="45.91507" lon="4.76379">
        <ele>176</ele>
        <time>2018-09-28T08:45:55Z</time>
      </trkpt>
      <trkpt lat="45.9151" lon="4.76373">
        <ele>176</ele>
        <time>2018-09-28T08:45:56Z</time>
      </trkpt>
      <trkpt lat="45.91512" lon="4.76369">
        <ele>176</ele>
        <time>2018-09-28T08:45:57Z</time>
      </trkpt>
      <trkpt lat="45.91516" lon="4.76361">
        <ele>176</ele>
        <time>2018-09-28T08:45:59Z</time>
      </trkpt>
      <trkpt lat="45.91518" lon="4.76356">
        <ele>176</ele>
        <time>2018-09-28T08:46:00Z</time>
      </trkpt>
      <trkpt lat="45.91521" lon="4.7635">
        <ele>176</ele>
        <time>2018-09-28T08:46:01Z</time>
      </trkpt>
      <trkpt lat="45.91524" lon="4.76346">
        <ele>176</ele>
        <time>2018-09-28T08:46:02Z</time>
      </trkpt>
      <trkpt lat="45.91528" lon="4.76337">
        <ele>176</ele>
        <time>2018-09-28T08:46:04Z</time>
      </trkpt>
      <trkpt lat="45.91531" lon="4.76332">
        <ele>177</ele>
        <time>2018-09-28T08:46:05Z</time>
      </trkpt>
      <trkpt lat="45.91534" lon="4.76327">
        <ele>177</ele>
        <time>2018-09-28T08:46:06Z</time>
      </trkpt>
      <trkpt lat="45.91536" lon="4.76321">
        <ele>177</ele>
        <time>2018-09-28T08:46:07Z</time>
      </trkpt>
      <trkpt lat="45.91542" lon="4.76313">
        <ele>177</ele>
        <time>2018-09-28T08:46:10Z</time>
      </trkpt>
      <trkpt lat="45.91543" lon="4.76311">
        <ele>177</ele>
        <time>2018-09-28T08:46:11Z</time>
      </trkpt>
      <trkpt lat="45.91552" lon="4.76309">
        <ele>177</ele>
        <time>2018-09-28T08:46:34Z</time>
      </trkpt>
      <trkpt lat="45.91552" lon="4.76309">
        <ele>177</ele>
        <time>2018-09-28T08:46:35Z</time>
      </trkpt>
      <trkpt lat="45.91561" lon="4.76312">
        <ele>176</ele>
        <time>2018-09-28T08:46:47Z</time>
      </trkpt>
      <trkpt lat="45.91562" lon="4.76313">
        <ele>176</ele>
        <time>2018-09-28T08:46:48Z</time>
      </trkpt>
      <trkpt lat="45.91571" lon="4.76314">
        <ele>176</ele>
        <time>2018-09-28T08:46:52Z</time>
      </trkpt>
      <trkpt lat="45.91573" lon="4.76314">
        <ele>176</ele>
        <time>2018-09-28T08:46:53Z</time>
      </trkpt>
      <trkpt lat="45.91581" lon="4.76316">
        <ele>176</ele>
        <time>2018-09-28T08:46:57Z</time>
      </trkpt>
      <trkpt lat="45.91583" lon="4.76316">
        <ele>176</ele>
        <time>2018-09-28T08:46:58Z</time>
      </trkpt>
      <trkpt lat="45.91592" lon="4.76317">
        <ele>176</ele>
        <time>2018-09-28T08:47:03Z</time>
      </trkpt>
      <trkpt lat="45.91594" lon="4.76317">
        <ele>176</ele>
        <time>2018-09-28T08:47:04Z</time>
      </trkpt>
      <trkpt lat="45.91602" lon="4.76318">
        <ele>176</ele>
        <time>2018-09-28T08:47:08Z</time>
      </trkpt>
      <trkpt lat="45.91604" lon="4.76318">
        <ele>176</ele>
        <time>2018-09-28T08:47:09Z</time>
      </trkpt>
      <trkpt lat="45.91612" lon="4.76322">
        <ele>177</ele>
        <time>2018-09-28T08:47:13Z</time>
      </trkpt>
      <trkpt lat="45.91614" lon="4.76322">
        <ele>177</ele>
        <time>2018-09-28T08:47:14Z</time>
      </trkpt>
      <trkpt lat="45.91621" lon="4.76325">
        <ele>177</ele>
        <time>2018-09-28T08:47:18Z</time>
      </trkpt>
      <trkpt lat="45.91623" lon="4.76325">
        <ele>177</ele>
        <time>2018-09-28T08:47:19Z</time>
      </trkpt>
      <trkpt lat="45.9163" lon="4.76328">
        <ele>177</ele>
        <time>2018-09-28T08:47:23Z</time>
      </trkpt>
      <trkpt lat="45.91632" lon="4.76328">
        <ele>177</ele>
        <time>2018-09-28T08:47:24Z</time>
      </trkpt>
      <trkpt lat="45.9164" lon="4.76332">
        <ele>177</ele>
        <time>2018-09-28T08:47:28Z</time>
      </trkpt>
      <trkpt lat="45.91642" lon="4.76333">
        <ele>177</ele>
        <time>2018-09-28T08:47:29Z</time>
      </trkpt>
      <trkpt lat="45.9165" lon="4.76336">
        <ele>177</ele>
        <time>2018-09-28T08:47:33Z</time>
      </trkpt>
      <trkpt lat="45.91652" lon="4.76337">
        <ele>177</ele>
        <time>2018-09-28T08:47:34Z</time>
      </trkpt>
      <trkpt lat="45.91661" lon="4.7634">
        <ele>177</ele>
        <time>2018-09-28T08:47:38Z</time>
      </trkpt>
      <trkpt lat="45.91663" lon="4.76341">
        <ele>177</ele>
        <time>2018-09-28T08:47:39Z</time>
      </trkpt>
      <trkpt lat="45.91671" lon="4.76344">
        <ele>177</ele>
        <time>2018-09-28T08:47:43Z</time>
      </trkpt>
      <trkpt lat="45.91673" lon="4.76344">
        <ele>177</ele>
        <time>2018-09-28T08:47:44Z</time>
      </trkpt>
      <trkpt lat="45.91681" lon="4.76346">
        <ele>177</ele>
        <time>2018-09-28T08:47:58Z</time>
      </trkpt>
      <trkpt lat="45.91682" lon="4.76346">
        <ele>177</ele>
        <time>2018-09-28T08:47:59Z</time>
      </trkpt>
      <trkpt lat="45.9169" lon="4.76344">
        <ele>177</ele>
        <time>2018-09-28T08:48:07Z</time>
      </trkpt>
      <trkpt lat="45.91692" lon="4.76344">
        <ele>177</ele>
        <time>2018-09-28T08:48:08Z</time>
      </trkpt>
      <trkpt lat="45.91699" lon="4.76341">
        <ele>177</ele>
        <time>2018-09-28T08:48:12Z</time>
      </trkpt>
      <trkpt lat="45.91701" lon="4.76341">
        <ele>177</ele>
        <time>2018-09-28T08:48:13Z</time>
      </trkpt>
      <trkpt lat="45.9171" lon="4.76338">
        <ele>176</ele>
        <time>2018-09-28T08:48:17Z</time>
      </trkpt>
      <trkpt lat="45.91712" lon="4.76337">
        <ele>176</ele>
        <time>2018-09-28T08:48:18Z</time>
      </trkpt>
      <trkpt lat="45.91718" lon="4.76334">
        <ele>176</ele>
        <time>2018-09-28T08:48:21Z</time>
      </trkpt>
      <trkpt lat="45.91721" lon="4.76333">
        <ele>177</ele>
        <time>2018-09-28T08:48:22Z</time>
      </trkpt>
      <trkpt lat="45.91728" lon="4.76329">
        <ele>177</ele>
        <time>2018-09-28T08:48:25Z</time>
      </trkpt>
      <trkpt lat="45.9173" lon="4.76328">
        <ele>177</ele>
        <time>2018-09-28T08:48:26Z</time>
      </trkpt>
      <trkpt lat="45.91738" lon="4.76323">
        <ele>177</ele>
        <time>2018-09-28T08:48:30Z</time>
      </trkpt>
      <trkpt lat="45.9174" lon="4.76322">
        <ele>177</ele>
        <time>2018-09-28T08:48:31Z</time>
      </trkpt>
      <trkpt lat="45.91747" lon="4.76319">
        <ele>177</ele>
        <time>2018-09-28T08:48:34Z</time>
      </trkpt>
      <trkpt lat="45.91749" lon="4.76318">
        <ele>177</ele>
        <time>2018-09-28T08:48:35Z</time>
      </trkpt>
      <trkpt lat="45.91757" lon="4.76315">
        <ele>175</ele>
        <time>2018-09-28T08:48:39Z</time>
      </trkpt>
      <trkpt lat="45.9176" lon="4.76315">
        <ele>175</ele>
        <time>2018-09-28T08:48:40Z</time>
      </trkpt>
      <trkpt lat="45.91767" lon="4.76316">
        <ele>175</ele>
        <time>2018-09-28T08:48:43Z</time>
      </trkpt>
      <trkpt lat="45.9177" lon="4.76317">
        <ele>175</ele>
        <time>2018-09-28T08:48:44Z</time>
      </trkpt>
      <trkpt lat="45.91777" lon="4.76319">
        <ele>175</ele>
        <time>2018-09-28T08:48:47Z</time>
      </trkpt>
      <trkpt lat="45.91779" lon="4.7632">
        <ele>175</ele>
        <time>2018-09-28T08:48:48Z</time>
      </trkpt>
      <trkpt lat="45.91787" lon="4.76323">
        <ele>175</ele>
        <time>2018-09-28T08:48:52Z</time>
      </trkpt>
      <trkpt lat="45.9179" lon="4.76323">
        <ele>175</ele>
        <time>2018-09-28T08:48:53Z</time>
      </trkpt>
      <trkpt lat="45.91798" lon="4.76324">
        <ele>175</ele>
        <time>2018-09-28T08:48:56Z</time>
      </trkpt>
      <trkpt lat="45.918" lon="4.76324">
        <ele>174</ele>
        <time>2018-09-28T08:48:57Z</time>
      </trkpt>
      <trkpt lat="45.91807" lon="4.76325">
        <ele>174</ele>
        <time>2018-09-28T08:49:00Z</time>
      </trkpt>
      <trkpt lat="45.91809" lon="4.76325">
        <ele>174</ele>
        <time>2018-09-28T08:49:01Z</time>
      </trkpt>
      <trkpt lat="45.91817" lon="4.7632">
        <ele>174</ele>
        <time>2018-09-28T08:49:06Z</time>
      </trkpt>
      <trkpt lat="45.91819" lon="4.76317">
        <ele>174</ele>
        <time>2018-09-28T08:49:07Z</time>
      </trkpt>
      <trkpt lat="45.91825" lon="4.76308">
        <ele>174</ele>
        <time>2018-09-28T08:49:08Z</time>
      </trkpt>
      <trkpt lat="45.91827" lon="4.76303">
        <ele>174</ele>
        <time>2018-09-28T08:49:09Z</time>
      </trkpt>
      <trkpt lat="45.9183" lon="4.76294">
        <ele>174</ele>
        <time>2018-09-28T08:49:11Z</time>
      </trkpt>
      <trkpt lat="45.91831" lon="4.76291">
        <ele>174</ele>
        <time>2018-09-28T08:49:12Z</time>
      </trkpt>
      <trkpt lat="45.91832" lon="4.76285">
        <ele>174</ele>
        <time>2018-09-28T08:49:14Z</time>
      </trkpt>
      <trkpt lat="45.91835" lon="4.76275">
        <ele>172</ele>
        <time>2018-09-28T08:49:15Z</time>
      </trkpt>
      <trkpt lat="45.91837" lon="4.76263">
        <ele>173</ele>
        <time>2018-09-28T08:49:17Z</time>
      </trkpt>
      <trkpt lat="45.91839" lon="4.76258">
        <ele>173</ele>
        <time>2018-09-28T08:49:18Z</time>
      </trkpt>
      <trkpt lat="45.91842" lon="4.76246">
        <ele>173</ele>
        <time>2018-09-28T08:49:21Z</time>
      </trkpt>
      <trkpt lat="45.91843" lon="4.76242">
        <ele>173</ele>
        <time>2018-09-28T08:49:22Z</time>
      </trkpt>
      <trkpt lat="45.91844" lon="4.76239">
        <ele>173</ele>
        <time>2018-09-28T08:49:23Z</time>
      </trkpt>
      <trkpt lat="45.91846" lon="4.76228">
        <ele>172</ele>
        <time>2018-09-28T08:49:24Z</time>
      </trkpt>
      <trkpt lat="45.91847" lon="4.76218">
        <ele>172</ele>
        <time>2018-09-28T08:49:26Z</time>
      </trkpt>
      <trkpt lat="45.91847" lon="4.76213">
        <ele>172</ele>
        <time>2018-09-28T08:49:27Z</time>
      </trkpt>
      <trkpt lat="45.91849" lon="4.76204">
        <ele>172</ele>
        <time>2018-09-28T08:49:29Z</time>
      </trkpt>
      <trkpt lat="45.9185" lon="4.76199">
        <ele>172</ele>
        <time>2018-09-28T08:49:30Z</time>
      </trkpt>
      <trkpt lat="45.91854" lon="4.76189">
        <ele>172</ele>
        <time>2018-09-28T08:49:32Z</time>
      </trkpt>
      <trkpt lat="45.91853" lon="4.76186">
        <ele>172</ele>
        <time>2018-09-28T08:49:33Z</time>
      </trkpt>
      <trkpt lat="45.91853" lon="4.76178">
        <ele>172</ele>
        <time>2018-09-28T08:49:35Z</time>
      </trkpt>
      <trkpt lat="45.91858" lon="4.76171">
        <ele>172</ele>
        <time>2018-09-28T08:49:36Z</time>
      </trkpt>
      <trkpt lat="45.91866" lon="4.76171">
        <ele>172</ele>
        <time>2018-09-28T08:49:38Z</time>
      </trkpt>
      <trkpt lat="45.9187" lon="4.76173">
        <ele>172</ele>
        <time>2018-09-28T08:49:39Z</time>
      </trkpt>
      <trkpt lat="45.91874" lon="4.76175">
        <ele>172</ele>
        <time>2018-09-28T08:49:40Z</time>
      </trkpt>
      <trkpt lat="45.91879" lon="4.76178">
        <ele>172</ele>
        <time>2018-09-28T08:49:41Z</time>
      </trkpt>
      <trkpt lat="45.91884" lon="4.7618">
        <ele>172</ele>
        <time>2018-09-28T08:49:42Z</time>
      </trkpt>
      <trkpt lat="45.91889" lon="4.76181">
        <ele>172</ele>
        <time>2018-09-28T08:49:43Z</time>
      </trkpt>
      <trkpt lat="45.91893" lon="4.76184">
        <ele>172</ele>
        <time>2018-09-28T08:49:44Z</time>
      </trkpt>
      <trkpt lat="45.91898" lon="4.76186">
        <ele>172</ele>
        <time>2018-09-28T08:49:45Z</time>
      </trkpt>
      <trkpt lat="45.91902" lon="4.7619">
        <ele>172</ele>
        <time>2018-09-28T08:49:46Z</time>
      </trkpt>
      <trkpt lat="45.91907" lon="4.76193">
        <ele>172</ele>
        <time>2018-09-28T08:49:47Z</time>
      </trkpt>
      <trkpt lat="45.91911" lon="4.76197">
        <ele>172</ele>
        <time>2018-09-28T08:49:48Z</time>
      </trkpt>
      <trkpt lat="45.91917" lon="4.762">
        <ele>172</ele>
        <time>2018-09-28T08:49:49Z</time>
      </trkpt>
      <trkpt lat="45.91922" lon="4.76202">
        <ele>171</ele>
        <time>2018-09-28T08:49:50Z</time>
      </trkpt>
      <trkpt lat="45.91928" lon="4.76193">
        <ele>171</ele>
        <time>2018-09-28T08:49:51Z</time>
      </trkpt>
      <trkpt lat="45.91933" lon="4.76197">
        <ele>171</ele>
        <time>2018-09-28T08:49:52Z</time>
      </trkpt>
      <trkpt lat="45.91936" lon="4.762">
        <ele>171</ele>
        <time>2018-09-28T08:49:53Z</time>
      </trkpt>
      <trkpt lat="45.91941" lon="4.76202">
        <ele>171</ele>
        <time>2018-09-28T08:49:54Z</time>
      </trkpt>
      <trkpt lat="45.91946" lon="4.76205">
        <ele>171</ele>
        <time>2018-09-28T08:49:55Z</time>
      </trkpt>
      <trkpt lat="45.91951" lon="4.76207">
        <ele>171</ele>
        <time>2018-09-28T08:49:56Z</time>
      </trkpt>
      <trkpt lat="45.91956" lon="4.76209">
        <ele>171</ele>
        <time>2018-09-28T08:49:57Z</time>
      </trkpt>
      <trkpt lat="45.91961" lon="4.76213">
        <ele>171</ele>
        <time>2018-09-28T08:49:58Z</time>
      </trkpt>
      <trkpt lat="45.91967" lon="4.76215">
        <ele>171</ele>
        <time>2018-09-28T08:49:59Z</time>
      </trkpt>
      <trkpt lat="45.91972" lon="4.76218">
        <ele>171</ele>
        <time>2018-09-28T08:50:00Z</time>
      </trkpt>
      <trkpt lat="45.91977" lon="4.76221">
        <ele>171</ele>
        <time>2018-09-28T08:50:01Z</time>
      </trkpt>
      <trkpt lat="45.91982" lon="4.76223">
        <ele>171</ele>
        <time>2018-09-28T08:50:02Z</time>
      </trkpt>
      <trkpt lat="45.91986" lon="4.76226">
        <ele>171</ele>
        <time>2018-09-28T08:50:03Z</time>
      </trkpt>
      <trkpt lat="45.91992" lon="4.76228">
        <ele>170</ele>
        <time>2018-09-28T08:50:04Z</time>
      </trkpt>
      <trkpt lat="45.91997" lon="4.7623">
        <ele>170</ele>
        <time>2018-09-28T08:50:05Z</time>
      </trkpt>
      <trkpt lat="45.92001" lon="4.76233">
        <ele>170</ele>
        <time>2018-09-28T08:50:06Z</time>
      </trkpt>
      <trkpt lat="45.92005" lon="4.76234">
        <ele>170</ele>
        <time>2018-09-28T08:50:07Z</time>
      </trkpt>
      <trkpt lat="45.92013" lon="4.76236">
        <ele>170</ele>
        <time>2018-09-28T08:50:09Z</time>
      </trkpt>
      <trkpt lat="45.92018" lon="4.7624">
        <ele>170</ele>
        <time>2018-09-28T08:50:10Z</time>
      </trkpt>
      <trkpt lat="45.92024" lon="4.76244">
        <ele>170</ele>
        <time>2018-09-28T08:50:11Z</time>
      </trkpt>
      <trkpt lat="45.9203" lon="4.76247">
        <ele>170</ele>
        <time>2018-09-28T08:50:12Z</time>
      </trkpt>
      <trkpt lat="45.92034" lon="4.76252">
        <ele>169</ele>
        <time>2018-09-28T08:50:13Z</time>
      </trkpt>
      <trkpt lat="45.9204" lon="4.76255">
        <ele>169</ele>
        <time>2018-09-28T08:50:14Z</time>
      </trkpt>
      <trkpt lat="45.92045" lon="4.76259">
        <ele>169</ele>
        <time>2018-09-28T08:50:15Z</time>
      </trkpt>
      <trkpt lat="45.92051" lon="4.76261">
        <ele>169</ele>
        <time>2018-09-28T08:50:16Z</time>
      </trkpt>
      <trkpt lat="45.92056" lon="4.76263">
        <ele>169</ele>
        <time>2018-09-28T08:50:17Z</time>
      </trkpt>
      <trkpt lat="45.9206" lon="4.76265">
        <ele>169</ele>
        <time>2018-09-28T08:50:18Z</time>
      </trkpt>
      <trkpt lat="45.92064" lon="4.76269">
        <ele>169</ele>
        <time>2018-09-28T08:50:19Z</time>
      </trkpt>
      <trkpt lat="45.92069" lon="4.76271">
        <ele>169</ele>
        <time>2018-09-28T08:50:20Z</time>
      </trkpt>
      <trkpt lat="45.92074" lon="4.76274">
        <ele>169</ele>
        <time>2018-09-28T08:50:21Z</time>
      </trkpt>
      <trkpt lat="45.92078" lon="4.76277">
        <ele>169</ele>
        <time>2018-09-28T08:50:22Z</time>
      </trkpt>
      <trkpt lat="45.92082" lon="4.76279">
        <ele>169</ele>
        <time>2018-09-28T08:50:23Z</time>
      </trkpt>
      <trkpt lat="45.92087" lon="4.7628">
        <ele>169</ele>
        <time>2018-09-28T08:50:24Z</time>
      </trkpt>
      <trkpt lat="45.92093" lon="4.76281">
        <ele>169</ele>
        <time>2018-09-28T08:50:25Z</time>
      </trkpt>
      <trkpt lat="45.92097" lon="4.76285">
        <ele>169</ele>
        <time>2018-09-28T08:50:26Z</time>
      </trkpt>
      <trkpt lat="45.92102" lon="4.76289">
        <ele>169</ele>
        <time>2018-09-28T08:50:27Z</time>
      </trkpt>
      <trkpt lat="45.92108" lon="4.76293">
        <ele>169</ele>
        <time>2018-09-28T08:50:28Z</time>
      </trkpt>
      <trkpt lat="45.92112" lon="4.76296">
        <ele>169</ele>
        <time>2018-09-28T08:50:29Z</time>
      </trkpt>
      <trkpt lat="45.92117" lon="4.76298">
        <ele>169</ele>
        <time>2018-09-28T08:50:30Z</time>
      </trkpt>
      <trkpt lat="45.92121" lon="4.76301">
        <ele>169</ele>
        <time>2018-09-28T08:50:31Z</time>
      </trkpt>
      <trkpt lat="45.92126" lon="4.76304">
        <ele>169</ele>
        <time>2018-09-28T08:50:32Z</time>
      </trkpt>
      <trkpt lat="45.92134" lon="4.76309">
        <ele>169</ele>
        <time>2018-09-28T08:50:34Z</time>
      </trkpt>
      <trkpt lat="45.92138" lon="4.76311">
        <ele>169</ele>
        <time>2018-09-28T08:50:35Z</time>
      </trkpt>
      <trkpt lat="45.92143" lon="4.76314">
        <ele>169</ele>
        <time>2018-09-28T08:50:36Z</time>
      </trkpt>
      <trkpt lat="45.92147" lon="4.76318">
        <ele>169</ele>
        <time>2018-09-28T08:50:37Z</time>
      </trkpt>
      <trkpt lat="45.92151" lon="4.76321">
        <ele>169</ele>
        <time>2018-09-28T08:50:38Z</time>
      </trkpt>
      <trkpt lat="45.92157" lon="4.76324">
        <ele>169</ele>
        <time>2018-09-28T08:50:39Z</time>
      </trkpt>
      <trkpt lat="45.92162" lon="4.76328">
        <ele>169</ele>
        <time>2018-09-28T08:50:40Z</time>
      </trkpt>
      <trkpt lat="45.92167" lon="4.76331">
        <ele>169</ele>
        <time>2018-09-28T08:50:41Z</time>
      </trkpt>
      <trkpt lat="45.92172" lon="4.76332">
        <ele>169</ele>
        <time>2018-09-28T08:50:42Z</time>
      </trkpt>
      <trkpt lat="45.92177" lon="4.76335">
        <ele>169</ele>
        <time>2018-09-28T08:50:43Z</time>
      </trkpt>
      <trkpt lat="45.92181" lon="4.76338">
        <ele>169</ele>
        <time>2018-09-28T08:50:44Z</time>
      </trkpt>
      <trkpt lat="45.92186" lon="4.76342">
        <ele>168</ele>
        <time>2018-09-28T08:50:45Z</time>
      </trkpt>
      <trkpt lat="45.92194" lon="4.76344">
        <ele>168</ele>
        <time>2018-09-28T08:50:47Z</time>
      </trkpt>
      <trkpt lat="45.92198" lon="4.76347">
        <ele>168</ele>
        <time>2018-09-28T08:50:48Z</time>
      </trkpt>
      <trkpt lat="45.92205" lon="4.76351">
        <ele>168</ele>
        <time>2018-09-28T08:50:50Z</time>
      </trkpt>
      <trkpt lat="45.92209" lon="4.76353">
        <ele>168</ele>
        <time>2018-09-28T08:50:51Z</time>
      </trkpt>
      <trkpt lat="45.92214" lon="4.76357">
        <ele>168</ele>
        <time>2018-09-28T08:50:52Z</time>
      </trkpt>
      <trkpt lat="45.92219" lon="4.76359">
        <ele>168</ele>
        <time>2018-09-28T08:50:53Z</time>
      </trkpt>
      <trkpt lat="45.92223" lon="4.76362">
        <ele>168</ele>
        <time>2018-09-28T08:50:54Z</time>
      </trkpt>
      <trkpt lat="45.92228" lon="4.76364">
        <ele>168</ele>
        <time>2018-09-28T08:50:55Z</time>
      </trkpt>
      <trkpt lat="45.92233" lon="4.76368">
        <ele>168</ele>
        <time>2018-09-28T08:50:56Z</time>
      </trkpt>
      <trkpt lat="45.92238" lon="4.76369">
        <ele>168</ele>
        <time>2018-09-28T08:50:57Z</time>
      </trkpt>
      <trkpt lat="45.92246" lon="4.76371">
        <ele>168</ele>
        <time>2018-09-28T08:50:59Z</time>
      </trkpt>
      <trkpt lat="45.92251" lon="4.76371">
        <ele>167</ele>
        <time>2018-09-28T08:51:00Z</time>
      </trkpt>
      <trkpt lat="45.92255" lon="4.76371">
        <ele>167</ele>
        <time>2018-09-28T08:51:01Z</time>
      </trkpt>
      <trkpt lat="45.9226" lon="4.7637">
        <ele>167</ele>
        <time>2018-09-28T08:51:02Z</time>
      </trkpt>
      <trkpt lat="45.92268" lon="4.76368">
        <ele>167</ele>
        <time>2018-09-28T08:51:04Z</time>
      </trkpt>
      <trkpt lat="45.92274" lon="4.76367">
        <ele>167</ele>
        <time>2018-09-28T08:51:05Z</time>
      </trkpt>
      <trkpt lat="45.92279" lon="4.76366">
        <ele>167</ele>
        <time>2018-09-28T08:51:06Z</time>
      </trkpt>
      <trkpt lat="45.92284" lon="4.76364">
        <ele>167</ele>
        <time>2018-09-28T08:51:07Z</time>
      </trkpt>
      <trkpt lat="45.92288" lon="4.76363">
        <ele>167</ele>
        <time>2018-09-28T08:51:08Z</time>
      </trkpt>
      <trkpt lat="45.92293" lon="4.76363">
        <ele>167</ele>
        <time>2018-09-28T08:51:09Z</time>
      </trkpt>
      <trkpt lat="45.92297" lon="4.76362">
        <ele>167</ele>
        <time>2018-09-28T08:51:10Z</time>
      </trkpt>
      <trkpt lat="45.92302" lon="4.7636">
        <ele>167</ele>
        <time>2018-09-28T08:51:11Z</time>
      </trkpt>
      <trkpt lat="45.92306" lon="4.76357">
        <ele>167</ele>
        <time>2018-09-28T08:51:12Z</time>
      </trkpt>
      <trkpt lat="45.92311" lon="4.76356">
        <ele>167</ele>
        <time>2018-09-28T08:51:13Z</time>
      </trkpt>
      <trkpt lat="45.92315" lon="4.76354">
        <ele>167</ele>
        <time>2018-09-28T08:51:14Z</time>
      </trkpt>
      <trkpt lat="45.92321" lon="4.7635">
        <ele>167</ele>
        <time>2018-09-28T08:51:15Z</time>
      </trkpt>
      <trkpt lat="45.92325" lon="4.76346">
        <ele>167</ele>
        <time>2018-09-28T08:51:16Z</time>
      </trkpt>
      <trkpt lat="45.92329" lon="4.76342">
        <ele>167</ele>
        <time>2018-09-28T08:51:17Z</time>
      </trkpt>
      <trkpt lat="45.92333" lon="4.7634">
        <ele>167</ele>
        <time>2018-09-28T08:51:18Z</time>
      </trkpt>
      <trkpt lat="45.92338" lon="4.76338">
        <ele>167</ele>
        <time>2018-09-28T08:51:19Z</time>
      </trkpt>
      <trkpt lat="45.92343" lon="4.76335">
        <ele>167</ele>
        <time>2018-09-28T08:51:20Z</time>
      </trkpt>
      <trkpt lat="45.92347" lon="4.76333">
        <ele>168</ele>
        <time>2018-09-28T08:51:21Z</time>
      </trkpt>
      <trkpt lat="45.92355" lon="4.76329">
        <ele>168</ele>
        <time>2018-09-28T08:51:23Z</time>
      </trkpt>
      <trkpt lat="45.92359" lon="4.76329">
        <ele>168</ele>
        <time>2018-09-28T08:51:24Z</time>
      </trkpt>
      <trkpt lat="45.92366" lon="4.7633">
        <ele>168</ele>
        <time>2018-09-28T08:51:27Z</time>
      </trkpt>
      <trkpt lat="45.92368" lon="4.76332">
        <ele>168</ele>
        <time>2018-09-28T08:51:28Z</time>
      </trkpt>
      <trkpt lat="45.92375" lon="4.76337">
        <ele>168</ele>
        <time>2018-09-28T08:51:31Z</time>
      </trkpt>
      <trkpt lat="45.92378" lon="4.7634">
        <ele>168</ele>
        <time>2018-09-28T08:51:32Z</time>
      </trkpt>
      <trkpt lat="45.92384" lon="4.76345">
        <ele>169</ele>
        <time>2018-09-28T08:51:38Z</time>
      </trkpt>
      <trkpt lat="45.92386" lon="4.76347">
        <ele>169</ele>
        <time>2018-09-28T08:51:39Z</time>
      </trkpt>
      <trkpt lat="45.92388" lon="4.76348">
        <ele>169</ele>
        <time>2018-09-28T08:51:41Z</time>
      </trkpt>
      <trkpt lat="45.92397" lon="4.76355">
        <ele>169</ele>
        <time>2018-09-28T08:51:42Z</time>
      </trkpt>
      <trkpt lat="45.92402" lon="4.76359">
        <ele>169</ele>
        <time>2018-09-28T08:51:42.211Z</time>
      </trkpt>
      <trkpt lat="45.92407" lon="4.76365">
        <ele>169</ele>
        <time>2018-09-28T08:51:43Z</time>
      </trkpt>
      <trkpt lat="45.92415" lon="4.76371">
        <ele>169</ele>
        <time>2018-09-28T08:51:47Z</time>
      </trkpt>
      <trkpt lat="45.92417" lon="4.76369">
        <ele>169</ele>
        <time>2018-09-28T08:51:48Z</time>
      </trkpt>
      <trkpt lat="45.92421" lon="4.76363">
        <ele>170</ele>
        <time>2018-09-28T08:51:49Z</time>
      </trkpt>
      <trkpt lat="45.92423" lon="4.76358">
        <ele>170</ele>
        <time>2018-09-28T08:51:50Z</time>
      </trkpt>
      <trkpt lat="45.92428" lon="4.76349">
        <ele>170</ele>
        <time>2018-09-28T08:51:52Z</time>
      </trkpt>
      <trkpt lat="45.9243" lon="4.76344">
        <ele>170</ele>
        <time>2018-09-28T08:51:53Z</time>
      </trkpt>
      <trkpt lat="45.92435" lon="4.76335">
        <ele>170</ele>
        <time>2018-09-28T08:51:56Z</time>
      </trkpt>
      <trkpt lat="45.92437" lon="4.76333">
        <ele>170</ele>
        <time>2018-09-28T08:51:57Z</time>
      </trkpt>
      <trkpt lat="45.92442" lon="4.76324">
        <ele>170</ele>
        <time>2018-09-28T08:51:59Z</time>
      </trkpt>
      <trkpt lat="45.92444" lon="4.76321">
        <ele>170</ele>
        <time>2018-09-28T08:52:00Z</time>
      </trkpt>
      <trkpt lat="45.92445" lon="4.76318">
        <ele>170</ele>
        <time>2018-09-28T08:52:01Z</time>
      </trkpt>
      <trkpt lat="45.92448" lon="4.76309">
        <ele>169</ele>
        <time>2018-09-28T08:52:02Z</time>
      </trkpt>
      <trkpt lat="45.92451" lon="4.76304">
        <ele>169</ele>
        <time>2018-09-28T08:52:04Z</time>
      </trkpt>
      <trkpt lat="45.92455" lon="4.76297">
        <ele>169</ele>
        <time>2018-09-28T08:52:05Z</time>
      </trkpt>
      <trkpt lat="45.9246" lon="4.76288">
        <ele>169</ele>
        <time>2018-09-28T08:52:07Z</time>
      </trkpt>
      <trkpt lat="45.92463" lon="4.76284">
        <ele>169</ele>
        <time>2018-09-28T08:52:08Z</time>
      </trkpt>
      <trkpt lat="45.92467" lon="4.76281">
        <ele>169</ele>
        <time>2018-09-28T08:52:09Z</time>
      </trkpt>
      <trkpt lat="45.92474" lon="4.7628">
        <ele>169</ele>
        <time>2018-09-28T08:52:10Z</time>
      </trkpt>
      <trkpt lat="45.92482" lon="4.76274">
        <ele>169</ele>
        <time>2018-09-28T08:52:12Z</time>
      </trkpt>
      <trkpt lat="45.92484" lon="4.76269">
        <ele>169</ele>
        <time>2018-09-28T08:52:13Z</time>
      </trkpt>
      <trkpt lat="45.92489" lon="4.76264">
        <ele>169</ele>
        <time>2018-09-28T08:52:14Z</time>
      </trkpt>
      <trkpt lat="45.92493" lon="4.76262">
        <ele>169</ele>
        <time>2018-09-28T08:52:15Z</time>
      </trkpt>
      <trkpt lat="45.92497" lon="4.76258">
        <ele>168</ele>
        <time>2018-09-28T08:52:17Z</time>
      </trkpt>
      <trkpt lat="45.92502" lon="4.76256">
        <ele>168</ele>
        <time>2018-09-28T08:52:18Z</time>
      </trkpt>
      <trkpt lat="45.92511" lon="4.76252">
        <ele>168</ele>
        <time>2018-09-28T08:52:20Z</time>
      </trkpt>
      <trkpt lat="45.92515" lon="4.76251">
        <ele>168</ele>
        <time>2018-09-28T08:52:21Z</time>
      </trkpt>
      <trkpt lat="45.92519" lon="4.76253">
        <ele>168</ele>
        <time>2018-09-28T08:52:22Z</time>
      </trkpt>
      <trkpt lat="45.92524" lon="4.76255">
        <ele>168</ele>
        <time>2018-09-28T08:52:23Z</time>
      </trkpt>
      <trkpt lat="45.9253" lon="4.76256">
        <ele>168</ele>
        <time>2018-09-28T08:52:25Z</time>
      </trkpt>
      <trkpt lat="45.92534" lon="4.76258">
        <ele>168</ele>
        <time>2018-09-28T08:52:26Z</time>
      </trkpt>
      <trkpt lat="45.92538" lon="4.7626">
        <ele>168</ele>
        <time>2018-09-28T08:52:27Z</time>
      </trkpt>
      <trkpt lat="45.92543" lon="4.76263">
        <ele>168</ele>
        <time>2018-09-28T08:52:28Z</time>
      </trkpt>
      <trkpt lat="45.92551" lon="4.76267">
        <ele>168</ele>
        <time>2018-09-28T08:52:30Z</time>
      </trkpt>
      <trkpt lat="45.92556" lon="4.76272">
        <ele>168</ele>
        <time>2018-09-28T08:52:31Z</time>
      </trkpt>
      <trkpt lat="45.9256" lon="4.76273">
        <ele>168</ele>
        <time>2018-09-28T08:52:32Z</time>
      </trkpt>
      <trkpt lat="45.92565" lon="4.76275">
        <ele>168</ele>
        <time>2018-09-28T08:52:33Z</time>
      </trkpt>
      <trkpt lat="45.92572" lon="4.76282">
        <ele>168</ele>
        <time>2018-09-28T08:52:35Z</time>
      </trkpt>
      <trkpt lat="45.92576" lon="4.76283">
        <ele>168</ele>
        <time>2018-09-28T08:52:36Z</time>
      </trkpt>
      <trkpt lat="45.92583" lon="4.76286">
        <ele>168</ele>
        <time>2018-09-28T08:52:38Z</time>
      </trkpt>
      <trkpt lat="45.92587" lon="4.76289">
        <ele>168</ele>
        <time>2018-09-28T08:52:39Z</time>
      </trkpt>
      <trkpt lat="45.92594" lon="4.76294">
        <ele>167</ele>
        <time>2018-09-28T08:52:41Z</time>
      </trkpt>
      <trkpt lat="45.92599" lon="4.76297">
        <ele>167</ele>
        <time>2018-09-28T08:52:42Z</time>
      </trkpt>
      <trkpt lat="45.92603" lon="4.76301">
        <ele>167</ele>
        <time>2018-09-28T08:52:43Z</time>
      </trkpt>
      <trkpt lat="45.92608" lon="4.76304">
        <ele>167</ele>
        <time>2018-09-28T08:52:44Z</time>
      </trkpt>
      <trkpt lat="45.92613" lon="4.76307">
        <ele>167</ele>
        <time>2018-09-28T08:52:45Z</time>
      </trkpt>
      <trkpt lat="45.92618" lon="4.76307">
        <ele>167</ele>
        <time>2018-09-28T08:52:46Z</time>
      </trkpt>
      <trkpt lat="45.92623" lon="4.76311">
        <ele>167</ele>
        <time>2018-09-28T08:52:47Z</time>
      </trkpt>
      <trkpt lat="45.92628" lon="4.76312">
        <ele>168</ele>
        <time>2018-09-28T08:52:48Z</time>
      </trkpt>
      <trkpt lat="45.92632" lon="4.76315">
        <ele>168</ele>
        <time>2018-09-28T08:52:49Z</time>
      </trkpt>
      <trkpt lat="45.92636" lon="4.76318">
        <ele>168</ele>
        <time>2018-09-28T08:52:50Z</time>
      </trkpt>
      <trkpt lat="45.92643" lon="4.76322">
        <ele>168</ele>
        <time>2018-09-28T08:52:52Z</time>
      </trkpt>
      <trkpt lat="45.92649" lon="4.76326">
        <ele>168</ele>
        <time>2018-09-28T08:52:53Z</time>
      </trkpt>
      <trkpt lat="45.92654" lon="4.76327">
        <ele>168</ele>
        <time>2018-09-28T08:52:54Z</time>
      </trkpt>
      <trkpt lat="45.9266" lon="4.76329">
        <ele>168</ele>
        <time>2018-09-28T08:52:55Z</time>
      </trkpt>
      <trkpt lat="45.92666" lon="4.76331">
        <ele>168</ele>
        <time>2018-09-28T08:52:56Z</time>
      </trkpt>
      <trkpt lat="45.92672" lon="4.76333">
        <ele>168</ele>
        <time>2018-09-28T08:52:57Z</time>
      </trkpt>
      <trkpt lat="45.92676" lon="4.76335">
        <ele>168</ele>
        <time>2018-09-28T08:52:58Z</time>
      </trkpt>
      <trkpt lat="45.92681" lon="4.76338">
        <ele>168</ele>
        <time>2018-09-28T08:52:59Z</time>
      </trkpt>
      <trkpt lat="45.92686" lon="4.76339">
        <ele>168</ele>
        <time>2018-09-28T08:53:00Z</time>
      </trkpt>
      <trkpt lat="45.92692" lon="4.76339">
        <ele>168</ele>
        <time>2018-09-28T08:53:01Z</time>
      </trkpt>
      <trkpt lat="45.92699" lon="4.76343">
        <ele>168</ele>
        <time>2018-09-28T08:53:03Z</time>
      </trkpt>
      <trkpt lat="45.92704" lon="4.76343">
        <ele>168</ele>
        <time>2018-09-28T08:53:04Z</time>
      </trkpt>
      <trkpt lat="45.92713" lon="4.76346">
        <ele>169</ele>
        <time>2018-09-28T08:53:06Z</time>
      </trkpt>
      <trkpt lat="45.92717" lon="4.76349">
        <ele>169</ele>
        <time>2018-09-28T08:53:07Z</time>
      </trkpt>
      <trkpt lat="45.92721" lon="4.76351">
        <ele>169</ele>
        <time>2018-09-28T08:53:08Z</time>
      </trkpt>
      <trkpt lat="45.92726" lon="4.76352">
        <ele>169</ele>
        <time>2018-09-28T08:53:09Z</time>
      </trkpt>
      <trkpt lat="45.92731" lon="4.76354">
        <ele>169</ele>
        <time>2018-09-28T08:53:10Z</time>
      </trkpt>
      <trkpt lat="45.92735" lon="4.76353">
        <ele>169</ele>
        <time>2018-09-28T08:53:11Z</time>
      </trkpt>
      <trkpt lat="45.92744" lon="4.76357">
        <ele>169</ele>
        <time>2018-09-28T08:53:13Z</time>
      </trkpt>
      <trkpt lat="45.92747" lon="4.76356">
        <ele>169</ele>
        <time>2018-09-28T08:53:14Z</time>
      </trkpt>
      <trkpt lat="45.92753" lon="4.76357">
        <ele>169</ele>
        <time>2018-09-28T08:53:15Z</time>
      </trkpt>
      <trkpt lat="45.92757" lon="4.76359">
        <ele>169</ele>
        <time>2018-09-28T08:53:16Z</time>
      </trkpt>
      <trkpt lat="45.92763" lon="4.76363">
        <ele>169</ele>
        <time>2018-09-28T08:53:18Z</time>
      </trkpt>
      <trkpt lat="45.92768" lon="4.76365">
        <ele>169</ele>
        <time>2018-09-28T08:53:19Z</time>
      </trkpt>
      <trkpt lat="45.92777" lon="4.76368">
        <ele>169</ele>
        <time>2018-09-28T08:53:21Z</time>
      </trkpt>
      <trkpt lat="45.92781" lon="4.7637">
        <ele>169</ele>
        <time>2018-09-28T08:53:22Z</time>
      </trkpt>
      <trkpt lat="45.92786" lon="4.76373">
        <ele>169</ele>
        <time>2018-09-28T08:53:23Z</time>
      </trkpt>
      <trkpt lat="45.9279" lon="4.76375">
        <ele>169</ele>
        <time>2018-09-28T08:53:24Z</time>
      </trkpt>
      <trkpt lat="45.92799" lon="4.76377">
        <ele>169</ele>
        <time>2018-09-28T08:53:26Z</time>
      </trkpt>
      <trkpt lat="45.92803" lon="4.76377">
        <ele>169</ele>
        <time>2018-09-28T08:53:27Z</time>
      </trkpt>
      <trkpt lat="45.9281" lon="4.76375">
        <ele>169</ele>
        <time>2018-09-28T08:53:29Z</time>
      </trkpt>
      <trkpt lat="45.92814" lon="4.76372">
        <ele>169</ele>
        <time>2018-09-28T08:53:30Z</time>
      </trkpt>
      <trkpt lat="45.9282" lon="4.76363">
        <ele>169</ele>
        <time>2018-09-28T08:53:32Z</time>
      </trkpt>
      <trkpt lat="45.92823" lon="4.76359">
        <ele>169</ele>
        <time>2018-09-28T08:53:33Z</time>
      </trkpt>
      <trkpt lat="45.92829" lon="4.76351">
        <ele>170</ele>
        <time>2018-09-28T08:53:35Z</time>
      </trkpt>
      <trkpt lat="45.92832" lon="4.76347">
        <ele>170</ele>
        <time>2018-09-28T08:53:36Z</time>
      </trkpt>
      <trkpt lat="45.92836" lon="4.76342">
        <ele>170</ele>
        <time>2018-09-28T08:53:37Z</time>
      </trkpt>
      <trkpt lat="45.92839" lon="4.76338">
        <ele>170</ele>
        <time>2018-09-28T08:53:38Z</time>
      </trkpt>
      <trkpt lat="45.92844" lon="4.76331">
        <ele>170</ele>
        <time>2018-09-28T08:53:40Z</time>
      </trkpt>
      <trkpt lat="45.92846" lon="4.76329">
        <ele>170</ele>
        <time>2018-09-28T08:53:41Z</time>
      </trkpt>
      <trkpt lat="45.92849" lon="4.76321">
        <ele>169</ele>
        <time>2018-09-28T08:53:44Z</time>
      </trkpt>
      <trkpt lat="45.92856" lon="4.76316">
        <ele>169</ele>
        <time>2018-09-28T08:53:45Z</time>
      </trkpt>
      <trkpt lat="45.92861" lon="4.76311">
        <ele>169</ele>
        <time>2018-09-28T08:53:47Z</time>
      </trkpt>
      <trkpt lat="45.92866" lon="4.76307">
        <ele>169</ele>
        <time>2018-09-28T08:53:48Z</time>
      </trkpt>
      <trkpt lat="45.92873" lon="4.76299">
        <ele>169</ele>
        <time>2018-09-28T08:53:53Z</time>
      </trkpt>
      <trkpt lat="45.92874" lon="4.76298">
        <ele>169</ele>
        <time>2018-09-28T08:53:54Z</time>
      </trkpt>
      <trkpt lat="45.9288" lon="4.76294">
        <ele>169</ele>
        <time>2018-09-28T08:53:58Z</time>
      </trkpt>
      <trkpt lat="45.92882" lon="4.76294">
        <ele>169</ele>
        <time>2018-09-28T08:53:59Z</time>
      </trkpt>
      <trkpt lat="45.9289" lon="4.76299">
        <ele>169</ele>
        <time>2018-09-28T08:54:02Z</time>
      </trkpt>
      <trkpt lat="45.92893" lon="4.76302">
        <ele>169</ele>
        <time>2018-09-28T08:54:03Z</time>
      </trkpt>
      <trkpt lat="45.92898" lon="4.76307">
        <ele>169</ele>
        <time>2018-09-28T08:54:05Z</time>
      </trkpt>
      <trkpt lat="45.929" lon="4.76309">
        <ele>169</ele>
        <time>2018-09-28T08:54:06Z</time>
      </trkpt>
      <trkpt lat="45.92908" lon="4.76317">
        <ele>169</ele>
        <time>2018-09-28T08:54:07Z</time>
      </trkpt>
      <trkpt lat="45.92915" lon="4.76323">
        <ele>169</ele>
        <time>2018-09-28T08:54:10Z</time>
      </trkpt>
      <trkpt lat="45.92917" lon="4.76325">
        <ele>169</ele>
        <time>2018-09-28T08:54:11Z</time>
      </trkpt>
      <trkpt lat="45.92923" lon="4.76332">
        <ele>169</ele>
        <time>2018-09-28T08:54:12Z</time>
      </trkpt>
      <trkpt lat="45.92927" lon="4.76335">
        <ele>169</ele>
        <time>2018-09-28T08:54:13Z</time>
      </trkpt>
      <trkpt lat="45.92934" lon="4.76341">
        <ele>169</ele>
        <time>2018-09-28T08:54:16Z</time>
      </trkpt>
      <trkpt lat="45.92938" lon="4.76347">
        <ele>169</ele>
        <time>2018-09-28T08:54:17Z</time>
      </trkpt>
      <trkpt lat="45.92943" lon="4.76353">
        <ele>169</ele>
        <time>2018-09-28T08:54:19Z</time>
      </trkpt>
      <trkpt lat="45.92947" lon="4.76358">
        <ele>169</ele>
        <time>2018-09-28T08:54:20Z</time>
      </trkpt>
      <trkpt lat="45.92951" lon="4.76361">
        <ele>169</ele>
        <time>2018-09-28T08:54:21Z</time>
      </trkpt>
      <trkpt lat="45.92955" lon="4.76365">
        <ele>169</ele>
        <time>2018-09-28T08:54:22Z</time>
      </trkpt>
      <trkpt lat="45.92959" lon="4.76369">
        <ele>169</ele>
        <time>2018-09-28T08:54:23Z</time>
      </trkpt>
      <trkpt lat="45.92962" lon="4.76373">
        <ele>169</ele>
        <time>2018-09-28T08:54:24Z</time>
      </trkpt>
      <trkpt lat="45.92968" lon="4.76379">
        <ele>169</ele>
        <time>2018-09-28T08:54:26Z</time>
      </trkpt>
      <trkpt lat="45.92971" lon="4.76383">
        <ele>169</ele>
        <time>2018-09-28T08:54:27Z</time>
      </trkpt>
      <trkpt lat="45.92978" lon="4.7639">
        <ele>169</ele>
        <time>2018-09-28T08:54:29Z</time>
      </trkpt>
      <trkpt lat="45.92981" lon="4.76395">
        <ele>169</ele>
        <time>2018-09-28T08:54:30Z</time>
      </trkpt>
      <trkpt lat="45.92986" lon="4.76397">
        <ele>169</ele>
        <time>2018-09-28T08:54:31Z</time>
      </trkpt>
      <trkpt lat="45.92989" lon="4.76402">
        <ele>169</ele>
        <time>2018-09-28T08:54:32Z</time>
      </trkpt>
      <trkpt lat="45.92994" lon="4.76406">
        <ele>169</ele>
        <time>2018-09-28T08:54:33Z</time>
      </trkpt>
      <trkpt lat="45.92998" lon="4.7641">
        <ele>169</ele>
        <time>2018-09-28T08:54:34Z</time>
      </trkpt>
      <trkpt lat="45.93003" lon="4.76414">
        <ele>169</ele>
        <time>2018-09-28T08:54:35Z</time>
      </trkpt>
      <trkpt lat="45.93007" lon="4.76418">
        <ele>169</ele>
        <time>2018-09-28T08:54:36Z</time>
      </trkpt>
      <trkpt lat="45.93014" lon="4.76426">
        <ele>169</ele>
        <time>2018-09-28T08:54:38Z</time>
      </trkpt>
      <trkpt lat="45.93017" lon="4.76429">
        <ele>169</ele>
        <time>2018-09-28T08:54:39Z</time>
      </trkpt>
      <trkpt lat="45.93021" lon="4.76432">
        <ele>169</ele>
        <time>2018-09-28T08:54:41Z</time>
      </trkpt>
      <trkpt lat="45.93029" lon="4.76441">
        <ele>169</ele>
        <time>2018-09-28T08:54:42Z</time>
      </trkpt>
      <trkpt lat="45.93033" lon="4.76443">
        <ele>169</ele>
        <time>2018-09-28T08:54:43Z</time>
      </trkpt>
      <trkpt lat="45.93037" lon="4.76449">
        <ele>169</ele>
        <time>2018-09-28T08:54:44Z</time>
      </trkpt>
      <trkpt lat="45.93041" lon="4.76452">
        <ele>169</ele>
        <time>2018-09-28T08:54:45Z</time>
      </trkpt>
      <trkpt lat="45.93046" lon="4.76455">
        <ele>169</ele>
        <time>2018-09-28T08:54:46Z</time>
      </trkpt>
      <trkpt lat="45.93052" lon="4.76463">
        <ele>169</ele>
        <time>2018-09-28T08:54:48Z</time>
      </trkpt>
      <trkpt lat="45.93056" lon="4.76465">
        <ele>169</ele>
        <time>2018-09-28T08:54:49Z</time>
      </trkpt>
      <trkpt lat="45.9306" lon="4.76469">
        <ele>169</ele>
        <time>2018-09-28T08:54:51Z</time>
      </trkpt>
      <trkpt lat="45.93065" lon="4.76473">
        <ele>169</ele>
        <time>2018-09-28T08:54:52Z</time>
      </trkpt>
      <trkpt lat="45.9307" lon="4.76476">
        <ele>169</ele>
        <time>2018-09-28T08:54:53Z</time>
      </trkpt>
      <trkpt lat="45.93074" lon="4.76479">
        <ele>169</ele>
        <time>2018-09-28T08:54:54Z</time>
      </trkpt>
      <trkpt lat="45.93079" lon="4.76483">
        <ele>169</ele>
        <time>2018-09-28T08:54:55Z</time>
      </trkpt>
      <trkpt lat="45.93083" lon="4.76489">
        <ele>170</ele>
        <time>2018-09-28T08:54:56Z</time>
      </trkpt>
      <trkpt lat="45.93088" lon="4.76493">
        <ele>170</ele>
        <time>2018-09-28T08:54:57Z</time>
      </trkpt>
      <trkpt lat="45.93092" lon="4.76496">
        <ele>170</ele>
        <time>2018-09-28T08:54:58Z</time>
      </trkpt>
      <trkpt lat="45.93099" lon="4.76503">
        <ele>170</ele>
        <time>2018-09-28T08:55:00Z</time>
      </trkpt>
      <trkpt lat="45.93103" lon="4.76508">
        <ele>170</ele>
        <time>2018-09-28T08:55:01Z</time>
      </trkpt>
      <trkpt lat="45.93107" lon="4.76512">
        <ele>170</ele>
        <time>2018-09-28T08:55:02Z</time>
      </trkpt>
      <trkpt lat="45.9311" lon="4.76516">
        <ele>170</ele>
        <time>2018-09-28T08:55:03Z</time>
      </trkpt>
      <trkpt lat="45.93115" lon="4.76522">
        <ele>170</ele>
        <time>2018-09-28T08:55:05Z</time>
      </trkpt>
      <trkpt lat="45.93119" lon="4.76526">
        <ele>170</ele>
        <time>2018-09-28T08:55:06Z</time>
      </trkpt>
      <trkpt lat="45.93126" lon="4.76533">
        <ele>170</ele>
        <time>2018-09-28T08:55:08Z</time>
      </trkpt>
      <trkpt lat="45.93127" lon="4.76535">
        <ele>170</ele>
        <time>2018-09-28T08:55:09Z</time>
      </trkpt>
      <trkpt lat="45.93132" lon="4.76541">
        <ele>170</ele>
        <time>2018-09-28T08:55:12Z</time>
      </trkpt>
      <trkpt lat="45.93134" lon="4.76544">
        <ele>170</ele>
        <time>2018-09-28T08:55:13Z</time>
      </trkpt>
      <trkpt lat="45.93139" lon="4.76551">
        <ele>170</ele>
        <time>2018-09-28T08:55:16Z</time>
      </trkpt>
      <trkpt lat="45.93141" lon="4.76554">
        <ele>170</ele>
        <time>2018-09-28T08:55:17Z</time>
      </trkpt>
      <trkpt lat="45.9315" lon="4.76562">
        <ele>170</ele>
        <time>2018-09-28T08:55:18Z</time>
      </trkpt>
      <trkpt lat="45.93156" lon="4.76567">
        <ele>170</ele>
        <time>2018-09-28T08:55:20Z</time>
      </trkpt>
      <trkpt lat="45.93158" lon="4.76568">
        <ele>170</ele>
        <time>2018-09-28T08:55:21Z</time>
      </trkpt>
      <trkpt lat="45.93161" lon="4.7657">
        <ele>170</ele>
        <time>2018-09-28T08:55:22Z</time>
      </trkpt>
      <trkpt lat="45.93168" lon="4.76577">
        <ele>171</ele>
        <time>2018-09-28T08:55:23Z</time>
      </trkpt>
      <trkpt lat="45.93172" lon="4.76581">
        <ele>171</ele>
        <time>2018-09-28T08:55:24Z</time>
      </trkpt>
      <trkpt lat="45.93181" lon="4.76588">
        <ele>171</ele>
        <time>2018-09-28T08:55:25Z</time>
      </trkpt>
      <trkpt lat="45.93188" lon="4.76591">
        <ele>171</ele>
        <time>2018-09-28T08:55:27Z</time>
      </trkpt>
      <trkpt lat="45.93193" lon="4.76592">
        <ele>170</ele>
        <time>2018-09-28T08:55:28Z</time>
      </trkpt>
      <trkpt lat="45.93197" lon="4.76588">
        <ele>170</ele>
        <time>2018-09-28T08:55:29Z</time>
      </trkpt>
      <trkpt lat="45.93201" lon="4.76583">
        <ele>169</ele>
        <time>2018-09-28T08:55:30Z</time>
      </trkpt>
      <trkpt lat="45.93205" lon="4.76578">
        <ele>169</ele>
        <time>2018-09-28T08:55:31Z</time>
      </trkpt>
      <trkpt lat="45.93207" lon="4.76569">
        <ele>169</ele>
        <time>2018-09-28T08:55:32Z</time>
      </trkpt>
      <trkpt lat="45.93209" lon="4.76562">
        <ele>169</ele>
        <time>2018-09-28T08:55:33Z</time>
      </trkpt>
      <trkpt lat="45.9321" lon="4.76554">
        <ele>169</ele>
        <time>2018-09-28T08:55:34Z</time>
      </trkpt>
      <trkpt lat="45.93211" lon="4.76547">
        <ele>169</ele>
        <time>2018-09-28T08:55:35Z</time>
      </trkpt>
      <trkpt lat="45.93213" lon="4.7654">
        <ele>169</ele>
        <time>2018-09-28T08:55:36Z</time>
      </trkpt>
      <trkpt lat="45.93214" lon="4.76533">
        <ele>169</ele>
        <time>2018-09-28T08:55:37Z</time>
      </trkpt>
      <trkpt lat="45.93214" lon="4.76525">
        <ele>169</ele>
        <time>2018-09-28T08:55:38Z</time>
      </trkpt>
      <trkpt lat="45.93216" lon="4.76513">
        <ele>169</ele>
        <time>2018-09-28T08:55:40Z</time>
      </trkpt>
      <trkpt lat="45.93217" lon="4.76506">
        <ele>169</ele>
        <time>2018-09-28T08:55:41Z</time>
      </trkpt>
      <trkpt lat="45.93218" lon="4.76495">
        <ele>169</ele>
        <time>2018-09-28T08:55:43Z</time>
      </trkpt>
      <trkpt lat="45.93219" lon="4.76488">
        <ele>169</ele>
        <time>2018-09-28T08:55:44Z</time>
      </trkpt>
      <trkpt lat="45.93218" lon="4.76481">
        <ele>169</ele>
        <time>2018-09-28T08:55:45Z</time>
      </trkpt>
      <trkpt lat="45.93219" lon="4.76474">
        <ele>169</ele>
        <time>2018-09-28T08:55:46Z</time>
      </trkpt>
      <trkpt lat="45.9322" lon="4.76461">
        <ele>169</ele>
        <time>2018-09-28T08:55:48Z</time>
      </trkpt>
      <trkpt lat="45.9322" lon="4.76455">
        <ele>168</ele>
        <time>2018-09-28T08:55:49Z</time>
      </trkpt>
      <trkpt lat="45.93219" lon="4.76448">
        <ele>168</ele>
        <time>2018-09-28T08:55:50Z</time>
      </trkpt>
      <trkpt lat="45.9322" lon="4.7644">
        <ele>168</ele>
        <time>2018-09-28T08:55:51Z</time>
      </trkpt>
      <trkpt lat="45.93221" lon="4.76427">
        <ele>168</ele>
        <time>2018-09-28T08:55:53Z</time>
      </trkpt>
      <trkpt lat="45.93219" lon="4.7642">
        <ele>168</ele>
        <time>2018-09-28T08:55:54Z</time>
      </trkpt>
      <trkpt lat="45.93219" lon="4.76414">
        <ele>168</ele>
        <time>2018-09-28T08:55:55Z</time>
      </trkpt>
      <trkpt lat="45.93219" lon="4.76407">
        <ele>168</ele>
        <time>2018-09-28T08:55:56Z</time>
      </trkpt>
      <trkpt lat="45.93219" lon="4.76401">
        <ele>168</ele>
        <time>2018-09-28T08:55:57Z</time>
      </trkpt>
      <trkpt lat="45.93219" lon="4.76394">
        <ele>168</ele>
        <time>2018-09-28T08:55:58Z</time>
      </trkpt>
      <trkpt lat="45.93218" lon="4.76386">
        <ele>168</ele>
        <time>2018-09-28T08:55:59Z</time>
      </trkpt>
      <trkpt lat="45.93218" lon="4.7638">
        <ele>168</ele>
        <time>2018-09-28T08:56:00Z</time>
      </trkpt>
      <trkpt lat="45.93218" lon="4.76369">
        <ele>168</ele>
        <time>2018-09-28T08:56:02Z</time>
      </trkpt>
      <trkpt lat="45.93218" lon="4.76365">
        <ele>168</ele>
        <time>2018-09-28T08:56:03Z</time>
      </trkpt>
      <trkpt lat="45.93215" lon="4.76355">
        <ele>168</ele>
        <time>2018-09-28T08:56:05Z</time>
      </trkpt>
      <trkpt lat="45.93217" lon="4.76349">
        <ele>168</ele>
        <time>2018-09-28T08:56:06Z</time>
      </trkpt>
      <trkpt lat="45.93217" lon="4.76341">
        <ele>168</ele>
        <time>2018-09-28T08:56:07Z</time>
      </trkpt>
      <trkpt lat="45.93218" lon="4.76335">
        <ele>168</ele>
        <time>2018-09-28T08:56:08Z</time>
      </trkpt>
      <trkpt lat="45.93219" lon="4.76323">
        <ele>169</ele>
        <time>2018-09-28T08:56:10Z</time>
      </trkpt>
      <trkpt lat="45.93221" lon="4.76317">
        <ele>169</ele>
        <time>2018-09-28T08:56:11Z</time>
      </trkpt>
      <trkpt lat="45.93224" lon="4.76306">
        <ele>169</ele>
        <time>2018-09-28T08:56:14Z</time>
      </trkpt>
      <trkpt lat="45.93225" lon="4.76302">
        <ele>169</ele>
        <time>2018-09-28T08:56:15Z</time>
      </trkpt>
      <trkpt lat="45.93231" lon="4.76292">
        <ele>169</ele>
        <time>2018-09-28T08:56:16Z</time>
      </trkpt>
      <trkpt lat="45.93235" lon="4.76289">
        <ele>169</ele>
        <time>2018-09-28T08:56:17Z</time>
      </trkpt>
      <trkpt lat="45.93242" lon="4.76287">
        <ele>169</ele>
        <time>2018-09-28T08:56:19Z</time>
      </trkpt>
      <trkpt lat="45.93246" lon="4.76286">
        <ele>169</ele>
        <time>2018-09-28T08:56:20Z</time>
      </trkpt>
      <trkpt lat="45.93255" lon="4.76286">
        <ele>169</ele>
        <time>2018-09-28T08:56:23Z</time>
      </trkpt>
      <trkpt lat="45.93257" lon="4.76286">
        <ele>169</ele>
        <time>2018-09-28T08:56:24Z</time>
      </trkpt>
      <trkpt lat="45.93265" lon="4.76286">
        <ele>169</ele>
        <time>2018-09-28T08:56:25Z</time>
      </trkpt>
      <trkpt lat="45.93269" lon="4.76285">
        <ele>168</ele>
        <time>2018-09-28T08:56:26Z</time>
      </trkpt>
      <trkpt lat="45.93273" lon="4.76285">
        <ele>168</ele>
        <time>2018-09-28T08:56:27Z</time>
      </trkpt>
      <trkpt lat="45.93279" lon="4.76286">
        <ele>168</ele>
        <time>2018-09-28T08:56:28Z</time>
      </trkpt>
      <trkpt lat="45.93284" lon="4.76287">
        <ele>168</ele>
        <time>2018-09-28T08:56:30Z</time>
      </trkpt>
      <trkpt lat="45.93291" lon="4.76289">
        <ele>168</ele>
        <time>2018-09-28T08:56:31Z</time>
      </trkpt>
      <trkpt lat="45.93295" lon="4.76292">
        <ele>168</ele>
        <time>2018-09-28T08:56:32Z</time>
      </trkpt>
      <trkpt lat="45.933" lon="4.76295">
        <ele>168</ele>
        <time>2018-09-28T08:56:33Z</time>
      </trkpt>
      <trkpt lat="45.93303" lon="4.76298">
        <ele>168</ele>
        <time>2018-09-28T08:56:34Z</time>
      </trkpt>
      <trkpt lat="45.93307" lon="4.76305">
        <ele>168</ele>
        <time>2018-09-28T08:56:35Z</time>
      </trkpt>
      <trkpt lat="45.93311" lon="4.76304">
        <ele>168</ele>
        <time>2018-09-28T08:56:37Z</time>
      </trkpt>
      <trkpt lat="45.93317" lon="4.76307">
        <ele>168</ele>
        <time>2018-09-28T08:56:38Z</time>
      </trkpt>
      <trkpt lat="45.93325" lon="4.76312">
        <ele>168</ele>
        <time>2018-09-28T08:56:40Z</time>
      </trkpt>
      <trkpt lat="45.93328" lon="4.76315">
        <ele>168</ele>
        <time>2018-09-28T08:56:41Z</time>
      </trkpt>
      <trkpt lat="45.93333" lon="4.76319">
        <ele>169</ele>
        <time>2018-09-28T08:56:43Z</time>
      </trkpt>
      <trkpt lat="45.93338" lon="4.76324">
        <ele>169</ele>
        <time>2018-09-28T08:56:44Z</time>
      </trkpt>
      <trkpt lat="45.93343" lon="4.76332">
        <ele>169</ele>
        <time>2018-09-28T08:56:48Z</time>
      </trkpt>
      <trkpt lat="45.93344" lon="4.76334">
        <ele>169</ele>
        <time>2018-09-28T08:56:49Z</time>
      </trkpt>
      <trkpt lat="45.93348" lon="4.76342">
        <ele>168</ele>
        <time>2018-09-28T08:56:52Z</time>
      </trkpt>
      <trkpt lat="45.9335" lon="4.76344">
        <ele>168</ele>
        <time>2018-09-28T08:56:53Z</time>
      </trkpt>
      <trkpt lat="45.93355" lon="4.76352">
        <ele>168</ele>
        <time>2018-09-28T08:56:56Z</time>
      </trkpt>
      <trkpt lat="45.93357" lon="4.76355">
        <ele>168</ele>
        <time>2018-09-28T08:56:57Z</time>
      </trkpt>
      <trkpt lat="45.93361" lon="4.76362">
        <ele>168</ele>
        <time>2018-09-28T08:56:59Z</time>
      </trkpt>
      <trkpt lat="45.93363" lon="4.76365">
        <ele>168</ele>
        <time>2018-09-28T08:57:00Z</time>
      </trkpt>
      <trkpt lat="45.93369" lon="4.76374">
        <ele>168</ele>
        <time>2018-09-28T08:57:03Z</time>
      </trkpt>
      <trkpt lat="45.93371" lon="4.76376">
        <ele>168</ele>
        <time>2018-09-28T08:57:04Z</time>
      </trkpt>
      <trkpt lat="45.93377" lon="4.76383">
        <ele>168</ele>
        <time>2018-09-28T08:57:07Z</time>
      </trkpt>
      <trkpt lat="45.93379" lon="4.76386">
        <ele>168</ele>
        <time>2018-09-28T08:57:08Z</time>
      </trkpt>
      <trkpt lat="45.93386" lon="4.76395">
        <ele>168</ele>
        <time>2018-09-28T08:57:11Z</time>
      </trkpt>
      <trkpt lat="45.93388" lon="4.76397">
        <ele>167</ele>
        <time>2018-09-28T08:57:12Z</time>
      </trkpt>
      <trkpt lat="45.93393" lon="4.76403">
        <ele>167</ele>
        <time>2018-09-28T08:57:14Z</time>
      </trkpt>
      <trkpt lat="45.93395" lon="4.76406">
        <ele>167</ele>
        <time>2018-09-28T08:57:15Z</time>
      </trkpt>
      <trkpt lat="45.93399" lon="4.76412">
        <ele>167</ele>
        <time>2018-09-28T08:57:17Z</time>
      </trkpt>
      <trkpt lat="45.93402" lon="4.76415">
        <ele>167</ele>
        <time>2018-09-28T08:57:18Z</time>
      </trkpt>
      <trkpt lat="45.93407" lon="4.76424">
        <ele>167</ele>
        <time>2018-09-28T08:57:21Z</time>
      </trkpt>
      <trkpt lat="45.93409" lon="4.76427">
        <ele>167</ele>
        <time>2018-09-28T08:57:22Z</time>
      </trkpt>
      <trkpt lat="45.93414" lon="4.76434">
        <ele>167</ele>
        <time>2018-09-28T08:57:25Z</time>
      </trkpt>
      <trkpt lat="45.93416" lon="4.76436">
        <ele>167</ele>
        <time>2018-09-28T08:57:26Z</time>
      </trkpt>
      <trkpt lat="45.93422" lon="4.76445">
        <ele>167</ele>
        <time>2018-09-28T08:57:29Z</time>
      </trkpt>
      <trkpt lat="45.93424" lon="4.76448">
        <ele>167</ele>
        <time>2018-09-28T08:57:30Z</time>
      </trkpt>
      <trkpt lat="45.93428" lon="4.76454">
        <ele>167</ele>
        <time>2018-09-28T08:57:32Z</time>
      </trkpt>
      <trkpt lat="45.9343" lon="4.76457">
        <ele>167</ele>
        <time>2018-09-28T08:57:33Z</time>
      </trkpt>
      <trkpt lat="45.93436" lon="4.76465">
        <ele>167</ele>
        <time>2018-09-28T08:57:36Z</time>
      </trkpt>
      <trkpt lat="45.93438" lon="4.76468">
        <ele>167</ele>
        <time>2018-09-28T08:57:37Z</time>
      </trkpt>
      <trkpt lat="45.93443" lon="4.76474">
        <ele>167</ele>
        <time>2018-09-28T08:57:40Z</time>
      </trkpt>
      <trkpt lat="45.93445" lon="4.76476">
        <ele>167</ele>
        <time>2018-09-28T08:57:41Z</time>
      </trkpt>
      <trkpt lat="45.93451" lon="4.76483">
        <ele>167</ele>
        <time>2018-09-28T08:57:44Z</time>
      </trkpt>
      <trkpt lat="45.93452" lon="4.76486">
        <ele>167</ele>
        <time>2018-09-28T08:57:45Z</time>
      </trkpt>
      <trkpt lat="45.93458" lon="4.76494">
        <ele>167</ele>
        <time>2018-09-28T08:57:48Z</time>
      </trkpt>
      <trkpt lat="45.93459" lon="4.76496">
        <ele>167</ele>
        <time>2018-09-28T08:57:49Z</time>
      </trkpt>
      <trkpt lat="45.93465" lon="4.76505">
        <ele>168</ele>
        <time>2018-09-28T08:57:58Z</time>
      </trkpt>
      <trkpt lat="45.93466" lon="4.76506">
        <ele>168</ele>
        <time>2018-09-28T08:57:59Z</time>
      </trkpt>
      <trkpt lat="45.93461" lon="4.76496">
        <ele>167</ele>
        <time>2018-09-28T08:58:30Z</time>
      </trkpt>
      <trkpt lat="45.93459" lon="4.76494">
        <ele>167</ele>
        <time>2018-09-28T08:58:31Z</time>
      </trkpt>
      <trkpt lat="45.93457" lon="4.76491">
        <ele>167</ele>
        <time>2018-09-28T08:58:32Z</time>
      </trkpt>
      <trkpt lat="45.93451" lon="4.76482">
        <ele>167</ele>
        <time>2018-09-28T08:58:33Z</time>
      </trkpt>
      <trkpt lat="45.93447" lon="4.76473">
        <ele>167</ele>
        <time>2018-09-28T08:58:35Z</time>
      </trkpt>
      <trkpt lat="45.93443" lon="4.76469">
        <ele>167</ele>
        <time>2018-09-28T08:58:36Z</time>
      </trkpt>
      <trkpt lat="45.93439" lon="4.76465">
        <ele>167</ele>
        <time>2018-09-28T08:58:37Z</time>
      </trkpt>
      <trkpt lat="45.93436" lon="4.76461">
        <ele>167</ele>
        <time>2018-09-28T08:58:38Z</time>
      </trkpt>
      <trkpt lat="45.93431" lon="4.76454">
        <ele>167</ele>
        <time>2018-09-28T08:58:41Z</time>
      </trkpt>
      <trkpt lat="45.93429" lon="4.76451">
        <ele>167</ele>
        <time>2018-09-28T08:58:42Z</time>
      </trkpt>
      <trkpt lat="45.93424" lon="4.76442">
        <ele>167</ele>
        <time>2018-09-28T08:58:45Z</time>
      </trkpt>
      <trkpt lat="45.93422" lon="4.76439">
        <ele>167</ele>
        <time>2018-09-28T08:58:46Z</time>
      </trkpt>
      <trkpt lat="45.93416" lon="4.76429">
        <ele>167</ele>
        <time>2018-09-28T08:58:49Z</time>
      </trkpt>
      <trkpt lat="45.93409" lon="4.76418">
        <ele>167</ele>
        <time>2018-09-28T08:58:50Z</time>
      </trkpt>
      <trkpt lat="45.93406" lon="4.76414">
        <ele>167</ele>
        <time>2018-09-28T08:58:51Z</time>
      </trkpt>
      <trkpt lat="45.93401" lon="4.76409">
        <ele>167</ele>
        <time>2018-09-28T08:58:52Z</time>
      </trkpt>
      <trkpt lat="45.93395" lon="4.76399">
        <ele>167</ele>
        <time>2018-09-28T08:58:56Z</time>
      </trkpt>
      <trkpt lat="45.93394" lon="4.76397">
        <ele>167</ele>
        <time>2018-09-28T08:58:57Z</time>
      </trkpt>
      <trkpt lat="45.93391" lon="4.76392">
        <ele>167</ele>
        <time>2018-09-28T08:58:59Z</time>
      </trkpt>
      <trkpt lat="45.93383" lon="4.76383">
        <ele>168</ele>
        <time>2018-09-28T08:59:00Z</time>
      </trkpt>
      <trkpt lat="45.93379" lon="4.76376">
        <ele>168</ele>
        <time>2018-09-28T08:59:02Z</time>
      </trkpt>
      <trkpt lat="45.93375" lon="4.76369">
        <ele>168</ele>
        <time>2018-09-28T08:59:03Z</time>
      </trkpt>
      <trkpt lat="45.93371" lon="4.76364">
        <ele>168</ele>
        <time>2018-09-28T08:59:05Z</time>
      </trkpt>
      <trkpt lat="45.93368" lon="4.76359">
        <ele>168</ele>
        <time>2018-09-28T08:59:06Z</time>
      </trkpt>
      <trkpt lat="45.93364" lon="4.7635">
        <ele>168</ele>
        <time>2018-09-28T08:59:10Z</time>
      </trkpt>
      <trkpt lat="45.93363" lon="4.76349">
        <ele>168</ele>
        <time>2018-09-28T08:59:11Z</time>
      </trkpt>
      <trkpt lat="45.93361" lon="4.76344">
        <ele>168</ele>
        <time>2018-09-28T08:59:13Z</time>
      </trkpt>
      <trkpt lat="45.93355" lon="4.76333">
        <ele>169</ele>
        <time>2018-09-28T08:59:14Z</time>
      </trkpt>
      <trkpt lat="45.93349" lon="4.76324">
        <ele>169</ele>
        <time>2018-09-28T08:59:16Z</time>
      </trkpt>
      <trkpt lat="45.93347" lon="4.76322">
        <ele>169</ele>
        <time>2018-09-28T08:59:17Z</time>
      </trkpt>
      <trkpt lat="45.93342" lon="4.76316">
        <ele>169</ele>
        <time>2018-09-28T08:59:20Z</time>
      </trkpt>
      <trkpt lat="45.9334" lon="4.76314">
        <ele>169</ele>
        <time>2018-09-28T08:59:21Z</time>
      </trkpt>
      <trkpt lat="45.93335" lon="4.76309">
        <ele>169</ele>
        <time>2018-09-28T08:59:24Z</time>
      </trkpt>
      <trkpt lat="45.93332" lon="4.76307">
        <ele>168</ele>
        <time>2018-09-28T08:59:25Z</time>
      </trkpt>
      <trkpt lat="45.93327" lon="4.76303">
        <ele>168</ele>
        <time>2018-09-28T08:59:27Z</time>
      </trkpt>
      <trkpt lat="45.93324" lon="4.76302">
        <ele>168</ele>
        <time>2018-09-28T08:59:28Z</time>
      </trkpt>
      <trkpt lat="45.9332" lon="4.763">
        <ele>168</ele>
        <time>2018-09-28T08:59:29Z</time>
      </trkpt>
      <trkpt lat="45.93309" lon="4.76295">
        <ele>168</ele>
        <time>2018-09-28T08:59:30Z</time>
      </trkpt>
      <trkpt lat="45.93301" lon="4.76293">
        <ele>168</ele>
        <time>2018-09-28T08:59:32Z</time>
      </trkpt>
      <trkpt lat="45.933" lon="4.76292">
        <ele>168</ele>
        <time>2018-09-28T08:59:33Z</time>
      </trkpt>
      <trkpt lat="45.93296" lon="4.7629">
        <ele>168</ele>
        <time>2018-09-28T08:59:36Z</time>
      </trkpt>
      <trkpt lat="45.93289" lon="4.76287">
        <ele>168</ele>
        <time>2018-09-28T08:59:37Z</time>
      </trkpt>
      <trkpt lat="45.93282" lon="4.76284">
        <ele>168</ele>
        <time>2018-09-28T08:59:39Z</time>
      </trkpt>
      <trkpt lat="45.93279" lon="4.76284">
        <ele>168</ele>
        <time>2018-09-28T08:59:40Z</time>
      </trkpt>
      <trkpt lat="45.93273" lon="4.76283">
        <ele>168</ele>
        <time>2018-09-28T08:59:42Z</time>
      </trkpt>
      <trkpt lat="45.93269" lon="4.76282">
        <ele>169</ele>
        <time>2018-09-28T08:59:43Z</time>
      </trkpt>
      <trkpt lat="45.93262" lon="4.76281">
        <ele>169</ele>
        <time>2018-09-28T08:59:45Z</time>
      </trkpt>
      <trkpt lat="45.9326" lon="4.76281">
        <ele>169</ele>
        <time>2018-09-28T08:59:46Z</time>
      </trkpt>
      <trkpt lat="45.93252" lon="4.76281">
        <ele>169</ele>
        <time>2018-09-28T08:59:48Z</time>
      </trkpt>
      <trkpt lat="45.93248" lon="4.76282">
        <ele>169</ele>
        <time>2018-09-28T08:59:49Z</time>
      </trkpt>
      <trkpt lat="45.93236" lon="4.76288">
        <ele>169</ele>
        <time>2018-09-28T08:59:50Z</time>
      </trkpt>
      <trkpt lat="45.93233" lon="4.76294">
        <ele>169</ele>
        <time>2018-09-28T08:59:51Z</time>
      </trkpt>
      <trkpt lat="45.93231" lon="4.763">
        <ele>169</ele>
        <time>2018-09-28T08:59:52Z</time>
      </trkpt>
      <trkpt lat="45.9323" lon="4.76307">
        <ele>169</ele>
        <time>2018-09-28T08:59:53Z</time>
      </trkpt>
      <trkpt lat="45.93229" lon="4.76313">
        <ele>169</ele>
        <time>2018-09-28T08:59:54Z</time>
      </trkpt>
      <trkpt lat="45.93228" lon="4.76319">
        <ele>169</ele>
        <time>2018-09-28T08:59:55Z</time>
      </trkpt>
      <trkpt lat="45.93228" lon="4.76326">
        <ele>169</ele>
        <time>2018-09-28T08:59:56Z</time>
      </trkpt>
      <trkpt lat="45.93227" lon="4.76332">
        <ele>168</ele>
        <time>2018-09-28T08:59:57Z</time>
      </trkpt>
      <trkpt lat="45.93226" lon="4.76341">
        <ele>168</ele>
        <time>2018-09-28T08:59:58Z</time>
      </trkpt>
      <trkpt lat="45.93225" lon="4.76353">
        <ele>168</ele>
        <time>2018-09-28T09:00:00Z</time>
      </trkpt>
      <trkpt lat="45.93225" lon="4.76359">
        <ele>168</ele>
        <time>2018-09-28T09:00:01Z</time>
      </trkpt>
      <trkpt lat="45.93225" lon="4.76371">
        <ele>168</ele>
        <time>2018-09-28T09:00:03Z</time>
      </trkpt>
      <trkpt lat="45.93225" lon="4.76377">
        <ele>168</ele>
        <time>2018-09-28T09:00:04Z</time>
      </trkpt>
      <trkpt lat="45.93224" lon="4.76387">
        <ele>168</ele>
        <time>2018-09-28T09:00:07Z</time>
      </trkpt>
      <trkpt lat="45.93224" lon="4.76399">
        <ele>168</ele>
        <time>2018-09-28T09:00:08Z</time>
      </trkpt>
      <trkpt lat="45.93224" lon="4.76411">
        <ele>168</ele>
        <time>2018-09-28T09:00:10Z</time>
      </trkpt>
      <trkpt lat="45.93224" lon="4.76418">
        <ele>168</ele>
        <time>2018-09-28T09:00:11Z</time>
      </trkpt>
      <trkpt lat="45.93224" lon="4.76424">
        <ele>168</ele>
        <time>2018-09-28T09:00:12Z</time>
      </trkpt>
      <trkpt lat="45.93223" lon="4.76431">
        <ele>168</ele>
        <time>2018-09-28T09:00:13Z</time>
      </trkpt>
      <trkpt lat="45.93222" lon="4.76438">
        <ele>168</ele>
        <time>2018-09-28T09:00:14Z</time>
      </trkpt>
      <trkpt lat="45.93222" lon="4.76444">
        <ele>168</ele>
        <time>2018-09-28T09:00:15Z</time>
      </trkpt>
      <trkpt lat="45.93222" lon="4.76455">
        <ele>168</ele>
        <time>2018-09-28T09:00:17Z</time>
      </trkpt>
      <trkpt lat="45.93221" lon="4.76461">
        <ele>169</ele>
        <time>2018-09-28T09:00:18Z</time>
      </trkpt>
      <trkpt lat="45.93222" lon="4.76471">
        <ele>169</ele>
        <time>2018-09-28T09:00:20Z</time>
      </trkpt>
      <trkpt lat="45.93223" lon="4.7648">
        <ele>169</ele>
        <time>2018-09-28T09:00:21Z</time>
      </trkpt>
      <trkpt lat="45.93221" lon="4.76487">
        <ele>169</ele>
        <time>2018-09-28T09:00:22Z</time>
      </trkpt>
      <trkpt lat="45.93222" lon="4.76496">
        <ele>169</ele>
        <time>2018-09-28T09:00:23Z</time>
      </trkpt>
      <trkpt lat="45.93221" lon="4.76501">
        <ele>169</ele>
        <time>2018-09-28T09:00:24Z</time>
      </trkpt>
      <trkpt lat="45.93221" lon="4.76509">
        <ele>169</ele>
        <time>2018-09-28T09:00:25Z</time>
      </trkpt>
      <trkpt lat="45.93221" lon="4.76521">
        <ele>169</ele>
        <time>2018-09-28T09:00:27Z</time>
      </trkpt>
      <trkpt lat="45.93221" lon="4.76524">
        <ele>169</ele>
        <time>2018-09-28T09:00:28Z</time>
      </trkpt>
      <trkpt lat="45.93221" lon="4.76534">
        <ele>169</ele>
        <time>2018-09-28T09:00:29Z</time>
      </trkpt>
      <trkpt lat="45.9322" lon="4.7654">
        <ele>169</ele>
        <time>2018-09-28T09:00:30Z</time>
      </trkpt>
      <trkpt lat="45.93218" lon="4.76553">
        <ele>169</ele>
        <time>2018-09-28T09:00:32Z</time>
      </trkpt>
      <trkpt lat="45.93217" lon="4.76559">
        <ele>169</ele>
        <time>2018-09-28T09:00:33Z</time>
      </trkpt>
      <trkpt lat="45.93214" lon="4.7657">
        <ele>169</ele>
        <time>2018-09-28T09:00:35Z</time>
      </trkpt>
      <trkpt lat="45.93213" lon="4.76575">
        <ele>169</ele>
        <time>2018-09-28T09:00:36Z</time>
      </trkpt>
      <trkpt lat="45.93214" lon="4.76587">
        <ele>170</ele>
        <time>2018-09-28T09:00:40Z</time>
      </trkpt>
      <trkpt lat="45.93219" lon="4.76595">
        <ele>170</ele>
        <time>2018-09-28T09:00:41Z</time>
      </trkpt>
      <trkpt lat="45.93225" lon="4.766">
        <ele>170</ele>
        <time>2018-09-28T09:00:43Z</time>
      </trkpt>
      <trkpt lat="45.93228" lon="4.76603">
        <ele>170</ele>
        <time>2018-09-28T09:00:44Z</time>
      </trkpt>
      <trkpt lat="45.93234" lon="4.7661">
        <ele>170</ele>
        <time>2018-09-28T09:00:48Z</time>
      </trkpt>
      <trkpt lat="45.93236" lon="4.76612">
        <ele>170</ele>
        <time>2018-09-28T09:00:49Z</time>
      </trkpt>
      <trkpt lat="45.93242" lon="4.76618">
        <ele>170</ele>
        <time>2018-09-28T09:00:52Z</time>
      </trkpt>
      <trkpt lat="45.93245" lon="4.7662">
        <ele>170</ele>
        <time>2018-09-28T09:00:53Z</time>
      </trkpt>
      <trkpt lat="45.9325" lon="4.76625">
        <ele>170</ele>
        <time>2018-09-28T09:00:55Z</time>
      </trkpt>
      <trkpt lat="45.93259" lon="4.76633">
        <ele>170</ele>
        <time>2018-09-28T09:00:56Z</time>
      </trkpt>
      <trkpt lat="45.93264" lon="4.76639">
        <ele>170</ele>
        <time>2018-09-28T09:00:58Z</time>
      </trkpt>
      <trkpt lat="45.93267" lon="4.76642">
        <ele>170</ele>
        <time>2018-09-28T09:00:59Z</time>
      </trkpt>
      <trkpt lat="45.93272" lon="4.76649">
        <ele>170</ele>
        <time>2018-09-28T09:01:03Z</time>
      </trkpt>
      <trkpt lat="45.93274" lon="4.76651">
        <ele>170</ele>
        <time>2018-09-28T09:01:04Z</time>
      </trkpt>
      <trkpt lat="45.93279" lon="4.76656">
        <ele>170</ele>
        <time>2018-09-28T09:01:07Z</time>
      </trkpt>
      <trkpt lat="45.93281" lon="4.76658">
        <ele>170</ele>
        <time>2018-09-28T09:01:08Z</time>
      </trkpt>
      <trkpt lat="45.93284" lon="4.76661">
        <ele>170</ele>
        <time>2018-09-28T09:01:09Z</time>
      </trkpt>
      <trkpt lat="45.9329" lon="4.76669">
        <ele>172</ele>
        <time>2018-09-28T09:01:10Z</time>
      </trkpt>
      <trkpt lat="45.93296" lon="4.76676">
        <ele>172</ele>
        <time>2018-09-28T09:01:12Z</time>
      </trkpt>
      <trkpt lat="45.93297" lon="4.76677">
        <ele>172</ele>
        <time>2018-09-28T09:01:13Z</time>
      </trkpt>
      <trkpt lat="45.93303" lon="4.76682">
        <ele>172</ele>
        <time>2018-09-28T09:01:16Z</time>
      </trkpt>
      <trkpt lat="45.93305" lon="4.76684">
        <ele>172</ele>
        <time>2018-09-28T09:01:17Z</time>
      </trkpt>
      <trkpt lat="45.93312" lon="4.76689">
        <ele>172</ele>
        <time>2018-09-28T09:01:20Z</time>
      </trkpt>
      <trkpt lat="45.93322" lon="4.76696">
        <ele>172</ele>
        <time>2018-09-28T09:01:21Z</time>
      </trkpt>
      <trkpt lat="45.93328" lon="4.76701">
        <ele>172</ele>
        <time>2018-09-28T09:01:23Z</time>
      </trkpt>
      <trkpt lat="45.9333" lon="4.76702">
        <ele>172</ele>
        <time>2018-09-28T09:01:24Z</time>
      </trkpt>
      <trkpt lat="45.93338" lon="4.76706">
        <ele>172</ele>
        <time>2018-09-28T09:01:28Z</time>
      </trkpt>
      <trkpt lat="45.93341" lon="4.76707">
        <ele>172</ele>
        <time>2018-09-28T09:01:29Z</time>
      </trkpt>
      <trkpt lat="45.9335" lon="4.76706">
        <ele>172</ele>
        <time>2018-09-28T09:01:32Z</time>
      </trkpt>
      <trkpt lat="45.93352" lon="4.76706">
        <ele>172</ele>
        <time>2018-09-28T09:01:33Z</time>
      </trkpt>
      <trkpt lat="45.9336" lon="4.76702">
        <ele>172</ele>
        <time>2018-09-28T09:01:37Z</time>
      </trkpt>
      <trkpt lat="45.93361" lon="4.76701">
        <ele>172</ele>
        <time>2018-09-28T09:01:38Z</time>
      </trkpt>
      <trkpt lat="45.93369" lon="4.76696">
        <ele>172</ele>
        <time>2018-09-28T09:01:55Z</time>
      </trkpt>
      <trkpt lat="45.9337" lon="4.76695">
        <ele>172</ele>
        <time>2018-09-28T09:01:56Z</time>
      </trkpt>
      <trkpt lat="45.93361" lon="4.76696">
        <ele>172</ele>
        <time>2018-09-28T09:02:25Z</time>
      </trkpt>
      <trkpt lat="45.93359" lon="4.76696">
        <ele>172</ele>
        <time>2018-09-28T09:02:26Z</time>
      </trkpt>
      <trkpt lat="45.93352" lon="4.76698">
        <ele>172</ele>
        <time>2018-09-28T09:02:29Z</time>
      </trkpt>
      <trkpt lat="45.93349" lon="4.76698">
        <ele>172</ele>
        <time>2018-09-28T09:02:30Z</time>
      </trkpt>
      <trkpt lat="45.93343" lon="4.76699">
        <ele>172</ele>
        <time>2018-09-28T09:02:32Z</time>
      </trkpt>
      <trkpt lat="45.93332" lon="4.76699">
        <ele>172</ele>
        <time>2018-09-28T09:02:33Z</time>
      </trkpt>
      <trkpt lat="45.93324" lon="4.76697">
        <ele>172</ele>
        <time>2018-09-28T09:02:35Z</time>
      </trkpt>
      <trkpt lat="45.93321" lon="4.76695">
        <ele>172</ele>
        <time>2018-09-28T09:02:36Z</time>
      </trkpt>
      <trkpt lat="45.93315" lon="4.7669">
        <ele>172</ele>
        <time>2018-09-28T09:02:39Z</time>
      </trkpt>
      <trkpt lat="45.93313" lon="4.76689">
        <ele>172</ele>
        <time>2018-09-28T09:02:40Z</time>
      </trkpt>
      <trkpt lat="45.93305" lon="4.76682">
        <ele>172</ele>
        <time>2018-09-28T09:02:43Z</time>
      </trkpt>
      <trkpt lat="45.93303" lon="4.7668">
        <ele>172</ele>
        <time>2018-09-28T09:02:44Z</time>
      </trkpt>
      <trkpt lat="45.93297" lon="4.76676">
        <ele>172</ele>
        <time>2018-09-28T09:02:46Z</time>
      </trkpt>
      <trkpt lat="45.93295" lon="4.76673">
        <ele>172</ele>
        <time>2018-09-28T09:02:47Z</time>
      </trkpt>
      <trkpt lat="45.93292" lon="4.76671">
        <ele>172</ele>
        <time>2018-09-28T09:02:48Z</time>
      </trkpt>
      <trkpt lat="45.93283" lon="4.76664">
        <ele>170</ele>
        <time>2018-09-28T09:02:49Z</time>
      </trkpt>
      <trkpt lat="45.93277" lon="4.76658">
        <ele>170</ele>
        <time>2018-09-28T09:02:51Z</time>
      </trkpt>
      <trkpt lat="45.93275" lon="4.76656">
        <ele>170</ele>
        <time>2018-09-28T09:02:52Z</time>
      </trkpt>
      <trkpt lat="45.93269" lon="4.76652">
        <ele>170</ele>
        <time>2018-09-28T09:02:55Z</time>
      </trkpt>
      <trkpt lat="45.93267" lon="4.7665">
        <ele>170</ele>
        <time>2018-09-28T09:02:56Z</time>
      </trkpt>
      <trkpt lat="45.93261" lon="4.76644">
        <ele>170</ele>
        <time>2018-09-28T09:02:59Z</time>
      </trkpt>
      <trkpt lat="45.93259" lon="4.76642">
        <ele>170</ele>
        <time>2018-09-28T09:03:00Z</time>
      </trkpt>
      <trkpt lat="45.93251" lon="4.76635">
        <ele>170</ele>
        <time>2018-09-28T09:03:01Z</time>
      </trkpt>
      <trkpt lat="45.93244" lon="4.76628">
        <ele>170</ele>
        <time>2018-09-28T09:03:03Z</time>
      </trkpt>
      <trkpt lat="45.9324" lon="4.76625">
        <ele>170</ele>
        <time>2018-09-28T09:03:04Z</time>
      </trkpt>
      <trkpt lat="45.93233" lon="4.7662">
        <ele>170</ele>
        <time>2018-09-28T09:03:06Z</time>
      </trkpt>
      <trkpt lat="45.9323" lon="4.76616">
        <ele>170</ele>
        <time>2018-09-28T09:03:07Z</time>
      </trkpt>
      <trkpt lat="45.93223" lon="4.7661">
        <ele>170</ele>
        <time>2018-09-28T09:03:10Z</time>
      </trkpt>
      <trkpt lat="45.93222" lon="4.76608">
        <ele>170</ele>
        <time>2018-09-28T09:03:11Z</time>
      </trkpt>
      <trkpt lat="45.93216" lon="4.76601">
        <ele>170</ele>
        <time>2018-09-28T09:03:14Z</time>
      </trkpt>
      <trkpt lat="45.93214" lon="4.76599">
        <ele>170</ele>
        <time>2018-09-28T09:03:15Z</time>
      </trkpt>
      <trkpt lat="45.93208" lon="4.76594">
        <ele>170</ele>
        <time>2018-09-28T09:03:18Z</time>
      </trkpt>
      <trkpt lat="45.93206" lon="4.76593">
        <ele>170</ele>
        <time>2018-09-28T09:03:19Z</time>
      </trkpt>
      <trkpt lat="45.93198" lon="4.76592">
        <ele>170</ele>
        <time>2018-09-28T09:03:22Z</time>
      </trkpt>
      <trkpt lat="45.93196" lon="4.76593">
        <ele>170</ele>
        <time>2018-09-28T09:03:23Z</time>
      </trkpt>
      <trkpt lat="45.93192" lon="4.76604">
        <ele>170</ele>
        <time>2018-09-28T09:03:34Z</time>
      </trkpt>
      <trkpt lat="45.93193" lon="4.76606">
        <ele>170</ele>
        <time>2018-09-28T09:03:35Z</time>
      </trkpt>
      <trkpt lat="45.93197" lon="4.7661">
        <ele>170</ele>
        <time>2018-09-28T09:03:37Z</time>
      </trkpt>
      <trkpt lat="45.93206" lon="4.76617">
        <ele>170</ele>
        <time>2018-09-28T09:03:38Z</time>
      </trkpt>
      <trkpt lat="45.93213" lon="4.76623">
        <ele>170</ele>
        <time>2018-09-28T09:03:40Z</time>
      </trkpt>
      <trkpt lat="45.93216" lon="4.76627">
        <ele>170</ele>
        <time>2018-09-28T09:03:41Z</time>
      </trkpt>
      <trkpt lat="45.93222" lon="4.76633">
        <ele>171</ele>
        <time>2018-09-28T09:03:43Z</time>
      </trkpt>
      <trkpt lat="45.93224" lon="4.76634">
        <ele>171</ele>
        <time>2018-09-28T09:03:44Z</time>
      </trkpt>
      <trkpt lat="45.93228" lon="4.76637">
        <ele>171</ele>
        <time>2018-09-28T09:03:46Z</time>
      </trkpt>
      <trkpt lat="45.93235" lon="4.76644">
        <ele>171</ele>
        <time>2018-09-28T09:03:47Z</time>
      </trkpt>
      <trkpt lat="45.93239" lon="4.76648">
        <ele>171</ele>
        <time>2018-09-28T09:03:49Z</time>
      </trkpt>
      <trkpt lat="45.93244" lon="4.76652">
        <ele>171</ele>
        <time>2018-09-28T09:03:50Z</time>
      </trkpt>
      <trkpt lat="45.9325" lon="4.76659">
        <ele>171</ele>
        <time>2018-09-28T09:03:53Z</time>
      </trkpt>
      <trkpt lat="45.93252" lon="4.76661">
        <ele>171</ele>
        <time>2018-09-28T09:03:54Z</time>
      </trkpt>
      <trkpt lat="45.93257" lon="4.76666">
        <ele>171</ele>
        <time>2018-09-28T09:03:55Z</time>
      </trkpt>
      <trkpt lat="45.93261" lon="4.76669">
        <ele>172</ele>
        <time>2018-09-28T09:03:56Z</time>
      </trkpt>
      <trkpt lat="45.93266" lon="4.76675">
        <ele>172</ele>
        <time>2018-09-28T09:03:57Z</time>
      </trkpt>
      <trkpt lat="45.93269" lon="4.76679">
        <ele>172</ele>
        <time>2018-09-28T09:03:58Z</time>
      </trkpt>
      <trkpt lat="45.93273" lon="4.76683">
        <ele>172</ele>
        <time>2018-09-28T09:03:59Z</time>
      </trkpt>
      <trkpt lat="45.93277" lon="4.76687">
        <ele>172</ele>
        <time>2018-09-28T09:04:00Z</time>
      </trkpt>
      <trkpt lat="45.93281" lon="4.76691">
        <ele>172</ele>
        <time>2018-09-28T09:04:01Z</time>
      </trkpt>
      <trkpt lat="45.93287" lon="4.76695">
        <ele>172</ele>
        <time>2018-09-28T09:04:02Z</time>
      </trkpt>
      <trkpt lat="45.93293" lon="4.76704">
        <ele>172</ele>
        <time>2018-09-28T09:04:04Z</time>
      </trkpt>
      <trkpt lat="45.93297" lon="4.76707">
        <ele>172</ele>
        <time>2018-09-28T09:04:05Z</time>
      </trkpt>
      <trkpt lat="45.93304" lon="4.76713">
        <ele>172</ele>
        <time>2018-09-28T09:04:07Z</time>
      </trkpt>
      <trkpt lat="45.93306" lon="4.76714">
        <ele>172</ele>
        <time>2018-09-28T09:04:08Z</time>
      </trkpt>
      <trkpt lat="45.93312" lon="4.76717">
        <ele>172</ele>
        <time>2018-09-28T09:04:09Z</time>
      </trkpt>
      <trkpt lat="45.93316" lon="4.76721">
        <ele>172</ele>
        <time>2018-09-28T09:04:10Z</time>
      </trkpt>
      <trkpt lat="45.9332" lon="4.76726">
        <ele>172</ele>
        <time>2018-09-28T09:04:11Z</time>
      </trkpt>
      <trkpt lat="45.93323" lon="4.7673">
        <ele>172</ele>
        <time>2018-09-28T09:04:12Z</time>
      </trkpt>
      <trkpt lat="45.9333" lon="4.76736">
        <ele>172</ele>
        <time>2018-09-28T09:04:14Z</time>
      </trkpt>
      <trkpt lat="45.93333" lon="4.76739">
        <ele>173</ele>
        <time>2018-09-28T09:04:15Z</time>
      </trkpt>
      <trkpt lat="45.93336" lon="4.76742">
        <ele>173</ele>
        <time>2018-09-28T09:04:17Z</time>
      </trkpt>
      <trkpt lat="45.9334" lon="4.76748">
        <ele>173</ele>
        <time>2018-09-28T09:04:18Z</time>
      </trkpt>
      <trkpt lat="45.93348" lon="4.76753">
        <ele>172</ele>
        <time>2018-09-28T09:04:20Z</time>
      </trkpt>
      <trkpt lat="45.93353" lon="4.76758">
        <ele>172</ele>
        <time>2018-09-28T09:04:21Z</time>
      </trkpt>
      <trkpt lat="45.93357" lon="4.76762">
        <ele>172</ele>
        <time>2018-09-28T09:04:22Z</time>
      </trkpt>
      <trkpt lat="45.93361" lon="4.76766">
        <ele>172</ele>
        <time>2018-09-28T09:04:23Z</time>
      </trkpt>
      <trkpt lat="45.93365" lon="4.7677">
        <ele>172</ele>
        <time>2018-09-28T09:04:24Z</time>
      </trkpt>
      <trkpt lat="45.93369" lon="4.76773">
        <ele>172</ele>
        <time>2018-09-28T09:04:25Z</time>
      </trkpt>
      <trkpt lat="45.93373" lon="4.76776">
        <ele>172</ele>
        <time>2018-09-28T09:04:26Z</time>
      </trkpt>
      <trkpt lat="45.93377" lon="4.7678">
        <ele>172</ele>
        <time>2018-09-28T09:04:27Z</time>
      </trkpt>
      <trkpt lat="45.93384" lon="4.76788">
        <ele>172</ele>
        <time>2018-09-28T09:04:29Z</time>
      </trkpt>
      <trkpt lat="45.93387" lon="4.76792">
        <ele>172</ele>
        <time>2018-09-28T09:04:30Z</time>
      </trkpt>
      <trkpt lat="45.93392" lon="4.76794">
        <ele>172</ele>
        <time>2018-09-28T09:04:31Z</time>
      </trkpt>
      <trkpt lat="45.93396" lon="4.76797">
        <ele>172</ele>
        <time>2018-09-28T09:04:32Z</time>
      </trkpt>
      <trkpt lat="45.934" lon="4.768">
        <ele>172</ele>
        <time>2018-09-28T09:04:33Z</time>
      </trkpt>
      <trkpt lat="45.93403" lon="4.76807">
        <ele>172</ele>
        <time>2018-09-28T09:04:34Z</time>
      </trkpt>
      <trkpt lat="45.93406" lon="4.76812">
        <ele>172</ele>
        <time>2018-09-28T09:04:35Z</time>
      </trkpt>
      <trkpt lat="45.93409" lon="4.76816">
        <ele>172</ele>
        <time>2018-09-28T09:04:36Z</time>
      </trkpt>
      <trkpt lat="45.93413" lon="4.76821">
        <ele>172</ele>
        <time>2018-09-28T09:04:37Z</time>
      </trkpt>
      <trkpt lat="45.93416" lon="4.76826">
        <ele>172</ele>
        <time>2018-09-28T09:04:38Z</time>
      </trkpt>
      <trkpt lat="45.93421" lon="4.76834">
        <ele>172</ele>
        <time>2018-09-28T09:04:39Z</time>
      </trkpt>
      <trkpt lat="45.93426" lon="4.76837">
        <ele>171</ele>
        <time>2018-09-28T09:04:40Z</time>
      </trkpt>
      <trkpt lat="45.93433" lon="4.76843">
        <ele>171</ele>
        <time>2018-09-28T09:04:42Z</time>
      </trkpt>
      <trkpt lat="45.93437" lon="4.76847">
        <ele>171</ele>
        <time>2018-09-28T09:04:43Z</time>
      </trkpt>
      <trkpt lat="45.93445" lon="4.76849">
        <ele>171</ele>
        <time>2018-09-28T09:04:45Z</time>
      </trkpt>
      <trkpt lat="45.93449" lon="4.7685">
        <ele>171</ele>
        <time>2018-09-28T09:04:46Z</time>
      </trkpt>
      <trkpt lat="45.93454" lon="4.76853">
        <ele>170</ele>
        <time>2018-09-28T09:04:48Z</time>
      </trkpt>
      <trkpt lat="45.93458" lon="4.76855">
        <ele>170</ele>
        <time>2018-09-28T09:04:49Z</time>
      </trkpt>
      <trkpt lat="45.93465" lon="4.76863">
        <ele>170</ele>
        <time>2018-09-28T09:04:51Z</time>
      </trkpt>
      <trkpt lat="45.93468" lon="4.76866">
        <ele>170</ele>
        <time>2018-09-28T09:04:52Z</time>
      </trkpt>
      <trkpt lat="45.93472" lon="4.76869">
        <ele>170</ele>
        <time>2018-09-28T09:04:53Z</time>
      </trkpt>
      <trkpt lat="45.93476" lon="4.76873">
        <ele>170</ele>
        <time>2018-09-28T09:04:54Z</time>
      </trkpt>
      <trkpt lat="45.9348" lon="4.76878">
        <ele>170</ele>
        <time>2018-09-28T09:04:55Z</time>
      </trkpt>
      <trkpt lat="45.93485" lon="4.76881">
        <ele>170</ele>
        <time>2018-09-28T09:04:56Z</time>
      </trkpt>
      <trkpt lat="45.93488" lon="4.76886">
        <ele>170</ele>
        <time>2018-09-28T09:04:57Z</time>
      </trkpt>
      <trkpt lat="45.93492" lon="4.7689">
        <ele>170</ele>
        <time>2018-09-28T09:04:58Z</time>
      </trkpt>
      <trkpt lat="45.93497" lon="4.76894">
        <ele>170</ele>
        <time>2018-09-28T09:04:59Z</time>
      </trkpt>
      <trkpt lat="45.93501" lon="4.76899">
        <ele>169</ele>
        <time>2018-09-28T09:05:00Z</time>
      </trkpt>
      <trkpt lat="45.93508" lon="4.76905">
        <ele>169</ele>
        <time>2018-09-28T09:05:02Z</time>
      </trkpt>
      <trkpt lat="45.93511" lon="4.76909">
        <ele>169</ele>
        <time>2018-09-28T09:05:03Z</time>
      </trkpt>
      <trkpt lat="45.93516" lon="4.76917">
        <ele>169</ele>
        <time>2018-09-28T09:05:05Z</time>
      </trkpt>
      <trkpt lat="45.93519" lon="4.76921">
        <ele>170</ele>
        <time>2018-09-28T09:05:06Z</time>
      </trkpt>
      <trkpt lat="45.93523" lon="4.76925">
        <ele>170</ele>
        <time>2018-09-28T09:05:07Z</time>
      </trkpt>
      <trkpt lat="45.93527" lon="4.76929">
        <ele>170</ele>
        <time>2018-09-28T09:05:08Z</time>
      </trkpt>
      <trkpt lat="45.93531" lon="4.76932">
        <ele>170</ele>
        <time>2018-09-28T09:05:09Z</time>
      </trkpt>
      <trkpt lat="45.93535" lon="4.76937">
        <ele>170</ele>
        <time>2018-09-28T09:05:10Z</time>
      </trkpt>
      <trkpt lat="45.93539" lon="4.76941">
        <ele>170</ele>
        <time>2018-09-28T09:05:11Z</time>
      </trkpt>
      <trkpt lat="45.93543" lon="4.76945">
        <ele>170</ele>
        <time>2018-09-28T09:05:12Z</time>
      </trkpt>
      <trkpt lat="45.9355" lon="4.76953">
        <ele>170</ele>
        <time>2018-09-28T09:05:14Z</time>
      </trkpt>
      <trkpt lat="45.93553" lon="4.76956">
        <ele>170</ele>
        <time>2018-09-28T09:05:15Z</time>
      </trkpt>
      <trkpt lat="45.93558" lon="4.76958">
        <ele>170</ele>
        <time>2018-09-28T09:05:16Z</time>
      </trkpt>
      <trkpt lat="45.93562" lon="4.76962">
        <ele>170</ele>
        <time>2018-09-28T09:05:17Z</time>
      </trkpt>
      <trkpt lat="45.93565" lon="4.76966">
        <ele>170</ele>
        <time>2018-09-28T09:05:18Z</time>
      </trkpt>
      <trkpt lat="45.93568" lon="4.76971">
        <ele>170</ele>
        <time>2018-09-28T09:05:19Z</time>
      </trkpt>
      <trkpt lat="45.93575" lon="4.7698">
        <ele>170</ele>
        <time>2018-09-28T09:05:21Z</time>
      </trkpt>
      <trkpt lat="45.93579" lon="4.76983">
        <ele>171</ele>
        <time>2018-09-28T09:05:22Z</time>
      </trkpt>
      <trkpt lat="45.93586" lon="4.76988">
        <ele>170</ele>
        <time>2018-09-28T09:05:24Z</time>
      </trkpt>
      <trkpt lat="45.9359" lon="4.76992">
        <ele>170</ele>
        <time>2018-09-28T09:05:25Z</time>
      </trkpt>
      <trkpt lat="45.93598" lon="4.76996">
        <ele>170</ele>
        <time>2018-09-28T09:05:27Z</time>
      </trkpt>
      <trkpt lat="45.93601" lon="4.77001">
        <ele>170</ele>
        <time>2018-09-28T09:05:28Z</time>
      </trkpt>
      <trkpt lat="45.93604" lon="4.77006">
        <ele>170</ele>
        <time>2018-09-28T09:05:29Z</time>
      </trkpt>
      <trkpt lat="45.93609" lon="4.7701">
        <ele>170</ele>
        <time>2018-09-28T09:05:30Z</time>
      </trkpt>
      <trkpt lat="45.93614" lon="4.77014">
        <ele>170</ele>
        <time>2018-09-28T09:05:31Z</time>
      </trkpt>
      <trkpt lat="45.93619" lon="4.77018">
        <ele>170</ele>
        <time>2018-09-28T09:05:32Z</time>
      </trkpt>
      <trkpt lat="45.93623" lon="4.77022">
        <ele>170</ele>
        <time>2018-09-28T09:05:33Z</time>
      </trkpt>
      <trkpt lat="45.93627" lon="4.77027">
        <ele>169</ele>
        <time>2018-09-28T09:05:34Z</time>
      </trkpt>
      <trkpt lat="45.93631" lon="4.77032">
        <ele>169</ele>
        <time>2018-09-28T09:05:35Z</time>
      </trkpt>
      <trkpt lat="45.93636" lon="4.77035">
        <ele>169</ele>
        <time>2018-09-28T09:05:36Z</time>
      </trkpt>
      <trkpt lat="45.93641" lon="4.77042">
        <ele>169</ele>
        <time>2018-09-28T09:05:38Z</time>
      </trkpt>
      <trkpt lat="45.93645" lon="4.77046">
        <ele>169</ele>
        <time>2018-09-28T09:05:39Z</time>
      </trkpt>
      <trkpt lat="45.93652" lon="4.77052">
        <ele>169</ele>
        <time>2018-09-28T09:05:41Z</time>
      </trkpt>
      <trkpt lat="45.93656" lon="4.77056">
        <ele>170</ele>
        <time>2018-09-28T09:05:42Z</time>
      </trkpt>
      <trkpt lat="45.9366" lon="4.7706">
        <ele>170</ele>
        <time>2018-09-28T09:05:43Z</time>
      </trkpt>
      <trkpt lat="45.93665" lon="4.77065">
        <ele>170</ele>
        <time>2018-09-28T09:05:44Z</time>
      </trkpt>
      <trkpt lat="45.9367" lon="4.77069">
        <ele>170</ele>
        <time>2018-09-28T09:05:45Z</time>
      </trkpt>
      <trkpt lat="45.93674" lon="4.77074">
        <ele>170</ele>
        <time>2018-09-28T09:05:46Z</time>
      </trkpt>
      <trkpt lat="45.93677" lon="4.77079">
        <ele>170</ele>
        <time>2018-09-28T09:05:47Z</time>
      </trkpt>
      <trkpt lat="45.93682" lon="4.77083">
        <ele>170</ele>
        <time>2018-09-28T09:05:48Z</time>
      </trkpt>
      <trkpt lat="45.93687" lon="4.77088">
        <ele>171</ele>
        <time>2018-09-28T09:05:49Z</time>
      </trkpt>
      <trkpt lat="45.93692" lon="4.77092">
        <ele>171</ele>
        <time>2018-09-28T09:05:50Z</time>
      </trkpt>
      <trkpt lat="45.93697" lon="4.77097">
        <ele>171</ele>
        <time>2018-09-28T09:05:52Z</time>
      </trkpt>
      <trkpt lat="45.937" lon="4.77103">
        <ele>171</ele>
        <time>2018-09-28T09:05:53Z</time>
      </trkpt>
      <trkpt lat="45.93706" lon="4.77109">
        <ele>171</ele>
        <time>2018-09-28T09:05:55Z</time>
      </trkpt>
      <trkpt lat="45.93707" lon="4.77111">
        <ele>171</ele>
        <time>2018-09-28T09:05:56Z</time>
      </trkpt>
      <trkpt lat="45.93715" lon="4.77117">
        <ele>171</ele>
        <time>2018-09-28T09:05:58Z</time>
      </trkpt>
      <trkpt lat="45.93717" lon="4.77119">
        <ele>171</ele>
        <time>2018-09-28T09:05:59Z</time>
      </trkpt>
      <trkpt lat="45.93722" lon="4.77123">
        <ele>171</ele>
        <time>2018-09-28T09:06:00Z</time>
      </trkpt>
      <trkpt lat="45.93726" lon="4.77128">
        <ele>171</ele>
        <time>2018-09-28T09:06:01Z</time>
      </trkpt>
      <trkpt lat="45.9373" lon="4.77132">
        <ele>171</ele>
        <time>2018-09-28T09:06:02Z</time>
      </trkpt>
      <trkpt lat="45.93734" lon="4.77136">
        <ele>171</ele>
        <time>2018-09-28T09:06:03Z</time>
      </trkpt>
      <trkpt lat="45.93738" lon="4.77139">
        <ele>172</ele>
        <time>2018-09-28T09:06:04Z</time>
      </trkpt>
      <trkpt lat="45.93743" lon="4.77144">
        <ele>172</ele>
        <time>2018-09-28T09:06:05Z</time>
      </trkpt>
      <trkpt lat="45.93747" lon="4.77148">
        <ele>172</ele>
        <time>2018-09-28T09:06:06Z</time>
      </trkpt>
      <trkpt lat="45.93751" lon="4.77152">
        <ele>171</ele>
        <time>2018-09-28T09:06:07Z</time>
      </trkpt>
      <trkpt lat="45.93758" lon="4.77159">
        <ele>171</ele>
        <time>2018-09-28T09:06:09Z</time>
      </trkpt>
      <trkpt lat="45.93761" lon="4.77163">
        <ele>171</ele>
        <time>2018-09-28T09:06:10Z</time>
      </trkpt>
      <trkpt lat="45.93768" lon="4.77171">
        <ele>171</ele>
        <time>2018-09-28T09:06:12Z</time>
      </trkpt>
      <trkpt lat="45.93769" lon="4.77174">
        <ele>171</ele>
        <time>2018-09-28T09:06:13Z</time>
      </trkpt>
      <trkpt lat="45.93774" lon="4.77178">
        <ele>170</ele>
        <time>2018-09-28T09:06:14Z</time>
      </trkpt>
      <trkpt lat="45.93779" lon="4.77185">
        <ele>170</ele>
        <time>2018-09-28T09:06:15Z</time>
      </trkpt>
      <trkpt lat="45.93784" lon="4.77189">
        <ele>170</ele>
        <time>2018-09-28T09:06:16Z</time>
      </trkpt>
      <trkpt lat="45.93786" lon="4.77194">
        <ele>170</ele>
        <time>2018-09-28T09:06:17Z</time>
      </trkpt>
      <trkpt lat="45.93794" lon="4.77199">
        <ele>170</ele>
        <time>2018-09-28T09:06:19Z</time>
      </trkpt>
      <trkpt lat="45.93795" lon="4.772">
        <ele>170</ele>
        <time>2018-09-28T09:06:20Z</time>
      </trkpt>
      <trkpt lat="45.93803" lon="4.77204">
        <ele>170</ele>
        <time>2018-09-28T09:06:22Z</time>
      </trkpt>
      <trkpt lat="45.93805" lon="4.77205">
        <ele>170</ele>
        <time>2018-09-28T09:06:23Z</time>
      </trkpt>
      <trkpt lat="45.93811" lon="4.77208">
        <ele>170</ele>
        <time>2018-09-28T09:06:26Z</time>
      </trkpt>
      <trkpt lat="45.93814" lon="4.77208">
        <ele>170</ele>
        <time>2018-09-28T09:06:27Z</time>
      </trkpt>
      <trkpt lat="45.93821" lon="4.77211">
        <ele>170</ele>
        <time>2018-09-28T09:06:30Z</time>
      </trkpt>
      <trkpt lat="45.93823" lon="4.77211">
        <ele>170</ele>
        <time>2018-09-28T09:06:31Z</time>
      </trkpt>
      <trkpt lat="45.93832" lon="4.77213">
        <ele>170</ele>
        <time>2018-09-28T09:06:35Z</time>
      </trkpt>
      <trkpt lat="45.93834" lon="4.77214">
        <ele>168</ele>
        <time>2018-09-28T09:06:36Z</time>
      </trkpt>
      <trkpt lat="45.93841" lon="4.77216">
        <ele>168</ele>
        <time>2018-09-28T09:06:40Z</time>
      </trkpt>
      <trkpt lat="45.93843" lon="4.77217">
        <ele>168</ele>
        <time>2018-09-28T09:06:41Z</time>
      </trkpt>
      <trkpt lat="45.93851" lon="4.7722">
        <ele>168</ele>
        <time>2018-09-28T09:06:44Z</time>
      </trkpt>
      <trkpt lat="45.93854" lon="4.7722">
        <ele>168</ele>
        <time>2018-09-28T09:06:45Z</time>
      </trkpt>
      <trkpt lat="45.93861" lon="4.77221">
        <ele>168</ele>
        <time>2018-09-28T09:06:48Z</time>
      </trkpt>
      <trkpt lat="45.93863" lon="4.77222">
        <ele>168</ele>
        <time>2018-09-28T09:06:49Z</time>
      </trkpt>
      <trkpt lat="45.9387" lon="4.77224">
        <ele>168</ele>
        <time>2018-09-28T09:06:52Z</time>
      </trkpt>
      <trkpt lat="45.93873" lon="4.77224">
        <ele>168</ele>
        <time>2018-09-28T09:06:53Z</time>
      </trkpt>
      <trkpt lat="45.9388" lon="4.77227">
        <ele>168</ele>
        <time>2018-09-28T09:06:56Z</time>
      </trkpt>
      <trkpt lat="45.93883" lon="4.77227">
        <ele>168</ele>
        <time>2018-09-28T09:06:57Z</time>
      </trkpt>
      <trkpt lat="45.9389" lon="4.77229">
        <ele>167</ele>
        <time>2018-09-28T09:07:00Z</time>
      </trkpt>
      <trkpt lat="45.93893" lon="4.7723">
        <ele>167</ele>
        <time>2018-09-28T09:07:01Z</time>
      </trkpt>
      <trkpt lat="45.93901" lon="4.77232">
        <ele>167</ele>
        <time>2018-09-28T09:07:05Z</time>
      </trkpt>
      <trkpt lat="45.93902" lon="4.77232">
        <ele>167</ele>
        <time>2018-09-28T09:07:06Z</time>
      </trkpt>
      <trkpt lat="45.93911" lon="4.77233">
        <ele>167</ele>
        <time>2018-09-28T09:07:15Z</time>
      </trkpt>
      <trkpt lat="45.93911" lon="4.77233">
        <ele>167</ele>
        <time>2018-09-28T09:07:16Z</time>
      </trkpt>
      <trkpt lat="45.93904" lon="4.77229">
        <ele>167</ele>
        <time>2018-09-28T09:07:34Z</time>
      </trkpt>
      <trkpt lat="45.93901" lon="4.77228">
        <ele>167</ele>
        <time>2018-09-28T09:07:35Z</time>
      </trkpt>
      <trkpt lat="45.93896" lon="4.77226">
        <ele>167</ele>
        <time>2018-09-28T09:07:37Z</time>
      </trkpt>
      <trkpt lat="45.93886" lon="4.77223">
        <ele>167</ele>
        <time>2018-09-28T09:07:38Z</time>
      </trkpt>
      <trkpt lat="45.93882" lon="4.77221">
        <ele>168</ele>
        <time>2018-09-28T09:07:39Z</time>
      </trkpt>
      <trkpt lat="45.93876" lon="4.7722">
        <ele>168</ele>
        <time>2018-09-28T09:07:40Z</time>
      </trkpt>
      <trkpt lat="45.93869" lon="4.77219">
        <ele>168</ele>
        <time>2018-09-28T09:07:42Z</time>
      </trkpt>
      <trkpt lat="45.93863" lon="4.77218">
        <ele>168</ele>
        <time>2018-09-28T09:07:43Z</time>
      </trkpt>
      <trkpt lat="45.93854" lon="4.77216">
        <ele>168</ele>
        <time>2018-09-28T09:07:45Z</time>
      </trkpt>
      <trkpt lat="45.93853" lon="4.77216">
        <ele>168</ele>
        <time>2018-09-28T09:07:46Z</time>
      </trkpt>
      <trkpt lat="45.93844" lon="4.77214">
        <ele>168</ele>
        <time>2018-09-28T09:07:51Z</time>
      </trkpt>
      <trkpt lat="45.93842" lon="4.77212">
        <ele>168</ele>
        <time>2018-09-28T09:07:52Z</time>
      </trkpt>
      <trkpt lat="45.93836" lon="4.77211">
        <ele>168</ele>
        <time>2018-09-28T09:07:54Z</time>
      </trkpt>
      <trkpt lat="45.93833" lon="4.77211">
        <ele>170</ele>
        <time>2018-09-28T09:07:55Z</time>
      </trkpt>
      <trkpt lat="45.93825" lon="4.77209">
        <ele>170</ele>
        <time>2018-09-28T09:07:57Z</time>
      </trkpt>
      <trkpt lat="45.93822" lon="4.77207">
        <ele>170</ele>
        <time>2018-09-28T09:07:58Z</time>
      </trkpt>
      <trkpt lat="45.93816" lon="4.77206">
        <ele>170</ele>
        <time>2018-09-28T09:08:00Z</time>
      </trkpt>
      <trkpt lat="45.93804" lon="4.7721">
        <ele>170</ele>
        <time>2018-09-28T09:08:01Z</time>
      </trkpt>
      <trkpt lat="45.93801" lon="4.77212">
        <ele>170</ele>
        <time>2018-09-28T09:08:02Z</time>
      </trkpt>
      <trkpt lat="45.93797" lon="4.7722">
        <ele>170</ele>
        <time>2018-09-28T09:08:03Z</time>
      </trkpt>
      <trkpt lat="45.93793" lon="4.77225">
        <ele>170</ele>
        <time>2018-09-28T09:08:04Z</time>
      </trkpt>
      <trkpt lat="45.93789" lon="4.77232">
        <ele>170</ele>
        <time>2018-09-28T09:08:05Z</time>
      </trkpt>
      <trkpt lat="45.93785" lon="4.77239">
        <ele>170</ele>
        <time>2018-09-28T09:08:06Z</time>
      </trkpt>
      <trkpt lat="45.93781" lon="4.77245">
        <ele>170</ele>
        <time>2018-09-28T09:08:07Z</time>
      </trkpt>
      <trkpt lat="45.93779" lon="4.77252">
        <ele>170</ele>
        <time>2018-09-28T09:08:08Z</time>
      </trkpt>
      <trkpt lat="45.93776" lon="4.77258">
        <ele>170</ele>
        <time>2018-09-28T09:08:09Z</time>
      </trkpt>
      <trkpt lat="45.93772" lon="4.77266">
        <ele>170</ele>
        <time>2018-09-28T09:08:10Z</time>
      </trkpt>
      <trkpt lat="45.93769" lon="4.77272">
        <ele>170</ele>
        <time>2018-09-28T09:08:11Z</time>
      </trkpt>
      <trkpt lat="45.93766" lon="4.7728">
        <ele>170</ele>
        <time>2018-09-28T09:08:12Z</time>
      </trkpt>
      <trkpt lat="45.93764" lon="4.77287">
        <ele>170</ele>
        <time>2018-09-28T09:08:13Z</time>
      </trkpt>
      <trkpt lat="45.93761" lon="4.77292">
        <ele>170</ele>
        <time>2018-09-28T09:08:14Z</time>
      </trkpt>
      <trkpt lat="45.9376" lon="4.773">
        <ele>170</ele>
        <time>2018-09-28T09:08:15Z</time>
      </trkpt>
      <trkpt lat="45.93758" lon="4.77306">
        <ele>170</ele>
        <time>2018-09-28T09:08:16Z</time>
      </trkpt>
      <trkpt lat="45.93754" lon="4.7731">
        <ele>169</ele>
        <time>2018-09-28T09:08:17Z</time>
      </trkpt>
      <trkpt lat="45.9375" lon="4.77322">
        <ele>169</ele>
        <time>2018-09-28T09:08:19Z</time>
      </trkpt>
      <trkpt lat="45.93748" lon="4.77329">
        <ele>168</ele>
        <time>2018-09-28T09:08:20Z</time>
      </trkpt>
      <trkpt lat="45.93744" lon="4.77336">
        <ele>168</ele>
        <time>2018-09-28T09:08:21Z</time>
      </trkpt>
      <trkpt lat="45.93741" lon="4.77342">
        <ele>168</ele>
        <time>2018-09-28T09:08:22Z</time>
      </trkpt>
      <trkpt lat="45.93738" lon="4.77347">
        <ele>168</ele>
        <time>2018-09-28T09:08:23Z</time>
      </trkpt>
      <trkpt lat="45.93735" lon="4.77354">
        <ele>168</ele>
        <time>2018-09-28T09:08:24Z</time>
      </trkpt>
      <trkpt lat="45.93731" lon="4.77365">
        <ele>169</ele>
        <time>2018-09-28T09:08:26Z</time>
      </trkpt>
      <trkpt lat="45.93728" lon="4.77369">
        <ele>169</ele>
        <time>2018-09-28T09:08:27Z</time>
      </trkpt>
      <trkpt lat="45.93724" lon="4.7738">
        <ele>169</ele>
        <time>2018-09-28T09:08:29Z</time>
      </trkpt>
      <trkpt lat="45.93721" lon="4.77385">
        <ele>169</ele>
        <time>2018-09-28T09:08:30Z</time>
      </trkpt>
      <trkpt lat="45.93717" lon="4.77391">
        <ele>169</ele>
        <time>2018-09-28T09:08:31Z</time>
      </trkpt>
      <trkpt lat="45.93713" lon="4.77397">
        <ele>169</ele>
        <time>2018-09-28T09:08:32Z</time>
      </trkpt>
      <trkpt lat="45.9371" lon="4.77403">
        <ele>169</ele>
        <time>2018-09-28T09:08:33Z</time>
      </trkpt>
      <trkpt lat="45.93704" lon="4.77407">
        <ele>169</ele>
        <time>2018-09-28T09:08:34Z</time>
      </trkpt>
      <trkpt lat="45.937" lon="4.77409">
        <ele>169</ele>
        <time>2018-09-28T09:08:35Z</time>
      </trkpt>
      <trkpt lat="45.93695" lon="4.77412">
        <ele>169</ele>
        <time>2018-09-28T09:08:36Z</time>
      </trkpt>
      <trkpt lat="45.93691" lon="4.77416">
        <ele>169</ele>
        <time>2018-09-28T09:08:37Z</time>
      </trkpt>
      <trkpt lat="45.93688" lon="4.77421">
        <ele>169</ele>
        <time>2018-09-28T09:08:38Z</time>
      </trkpt>
      <trkpt lat="45.93681" lon="4.77427">
        <ele>169</ele>
        <time>2018-09-28T09:08:40Z</time>
      </trkpt>
      <trkpt lat="45.93675" lon="4.77428">
        <ele>169</ele>
        <time>2018-09-28T09:08:41Z</time>
      </trkpt>
      <trkpt lat="45.93667" lon="4.77433">
        <ele>169</ele>
        <time>2018-09-28T09:08:43Z</time>
      </trkpt>
      <trkpt lat="45.93661" lon="4.77438">
        <ele>170</ele>
        <time>2018-09-28T09:08:44Z</time>
      </trkpt>
      <trkpt lat="45.93654" lon="4.77438">
        <ele>170</ele>
        <time>2018-09-28T09:08:45Z</time>
      </trkpt>
      <trkpt lat="45.93648" lon="4.77441">
        <ele>170</ele>
        <time>2018-09-28T09:08:46Z</time>
      </trkpt>
      <trkpt lat="45.93641" lon="4.77443">
        <ele>170</ele>
        <time>2018-09-28T09:08:47Z</time>
      </trkpt>
      <trkpt lat="45.93635" lon="4.77444">
        <ele>170</ele>
        <time>2018-09-28T09:08:48Z</time>
      </trkpt>
      <trkpt lat="45.9363" lon="4.77446">
        <ele>170</ele>
        <time>2018-09-28T09:08:49Z</time>
      </trkpt>
      <trkpt lat="45.93624" lon="4.77447">
        <ele>170</ele>
        <time>2018-09-28T09:08:50Z</time>
      </trkpt>
      <trkpt lat="45.93617" lon="4.77447">
        <ele>170</ele>
        <time>2018-09-28T09:08:52Z</time>
      </trkpt>
      <trkpt lat="45.93615" lon="4.77448">
        <ele>170</ele>
        <time>2018-09-28T09:08:53Z</time>
      </trkpt>
      <trkpt lat="45.93612" lon="4.77448">
        <ele>170</ele>
        <time>2018-09-28T09:08:54Z</time>
      </trkpt>
      <trkpt lat="45.93605" lon="4.77449">
        <ele>170</ele>
        <time>2018-09-28T09:08:55Z</time>
      </trkpt>
      <trkpt lat="45.93599" lon="4.77448">
        <ele>170</ele>
        <time>2018-09-28T09:08:56Z</time>
      </trkpt>
      <trkpt lat="45.93595" lon="4.77449">
        <ele>170</ele>
        <time>2018-09-28T09:08:57Z</time>
      </trkpt>
      <trkpt lat="45.93589" lon="4.77448">
        <ele>170</ele>
        <time>2018-09-28T09:08:59Z</time>
      </trkpt>
      <trkpt lat="45.93582" lon="4.77447">
        <ele>169</ele>
        <time>2018-09-28T09:09:00Z</time>
      </trkpt>
      <trkpt lat="45.93575" lon="4.77446">
        <ele>169</ele>
        <time>2018-09-28T09:09:03Z</time>
      </trkpt>
      <trkpt lat="45.93571" lon="4.77446">
        <ele>169</ele>
        <time>2018-09-28T09:09:04Z</time>
      </trkpt>
      <trkpt lat="45.93564" lon="4.77445">
        <ele>169</ele>
        <time>2018-09-28T09:09:07Z</time>
      </trkpt>
      <trkpt lat="45.93562" lon="4.77444">
        <ele>169</ele>
        <time>2018-09-28T09:09:08Z</time>
      </trkpt>
      <trkpt lat="45.93553" lon="4.77445">
        <ele>169</ele>
        <time>2018-09-28T09:09:18Z</time>
      </trkpt>
      <trkpt lat="45.93553" lon="4.77446">
        <ele>169</ele>
        <time>2018-09-28T09:09:19Z</time>
      </trkpt>
      <trkpt lat="45.9355" lon="4.77458">
        <ele>169</ele>
        <time>2018-09-28T09:09:24Z</time>
      </trkpt>
      <trkpt lat="45.93551" lon="4.77462">
        <ele>169</ele>
        <time>2018-09-28T09:09:25Z</time>
      </trkpt>
      <trkpt lat="45.93555" lon="4.77474">
        <ele>169</ele>
        <time>2018-09-28T09:09:26Z</time>
      </trkpt>
      <trkpt lat="45.93559" lon="4.77479">
        <ele>169</ele>
        <time>2018-09-28T09:09:27Z</time>
      </trkpt>
      <trkpt lat="45.93561" lon="4.77486">
        <ele>169</ele>
        <time>2018-09-28T09:09:28Z</time>
      </trkpt>
      <trkpt lat="45.93563" lon="4.77492">
        <ele>169</ele>
        <time>2018-09-28T09:09:29Z</time>
      </trkpt>
      <trkpt lat="45.93564" lon="4.77498">
        <ele>169</ele>
        <time>2018-09-28T09:09:30Z</time>
      </trkpt>
      <trkpt lat="45.93566" lon="4.7751">
        <ele>169</ele>
        <time>2018-09-28T09:09:32Z</time>
      </trkpt>
      <trkpt lat="45.93568" lon="4.77516">
        <ele>169</ele>
        <time>2018-09-28T09:09:33Z</time>
      </trkpt>
      <trkpt lat="45.93569" lon="4.77525">
        <ele>169</ele>
        <time>2018-09-28T09:09:34Z</time>
      </trkpt>
      <trkpt lat="45.93569" lon="4.77531">
        <ele>169</ele>
        <time>2018-09-28T09:09:35Z</time>
      </trkpt>
      <trkpt lat="45.9357" lon="4.77539">
        <ele>169</ele>
        <time>2018-09-28T09:09:36Z</time>
      </trkpt>
      <trkpt lat="45.93572" lon="4.77546">
        <ele>169</ele>
        <time>2018-09-28T09:09:37Z</time>
      </trkpt>
      <trkpt lat="45.93575" lon="4.77553">
        <ele>169</ele>
        <time>2018-09-28T09:09:38Z</time>
      </trkpt>
      <trkpt lat="45.93576" lon="4.77558">
        <ele>169</ele>
        <time>2018-09-28T09:09:39Z</time>
      </trkpt>
      <trkpt lat="45.93578" lon="4.77565">
        <ele>169</ele>
        <time>2018-09-28T09:09:40Z</time>
      </trkpt>
      <trkpt lat="45.93581" lon="4.77571">
        <ele>170</ele>
        <time>2018-09-28T09:09:41Z</time>
      </trkpt>
      <trkpt lat="45.93584" lon="4.77581">
        <ele>170</ele>
        <time>2018-09-28T09:09:43Z</time>
      </trkpt>
      <trkpt lat="45.93585" lon="4.77587">
        <ele>170</ele>
        <time>2018-09-28T09:09:44Z</time>
      </trkpt>
      <trkpt lat="45.93588" lon="4.77594">
        <ele>170</ele>
        <time>2018-09-28T09:09:45Z</time>
      </trkpt>
      <trkpt lat="45.93589" lon="4.77599">
        <ele>170</ele>
        <time>2018-09-28T09:09:46Z</time>
      </trkpt>
      <trkpt lat="45.93592" lon="4.77605">
        <ele>170</ele>
        <time>2018-09-28T09:09:47Z</time>
      </trkpt>
      <trkpt lat="45.93594" lon="4.77612">
        <ele>170</ele>
        <time>2018-09-28T09:09:48Z</time>
      </trkpt>
      <trkpt lat="45.93597" lon="4.77619">
        <ele>170</ele>
        <time>2018-09-28T09:09:49Z</time>
      </trkpt>
      <trkpt lat="45.93599" lon="4.77625">
        <ele>169</ele>
        <time>2018-09-28T09:09:50Z</time>
      </trkpt>
      <trkpt lat="45.93601" lon="4.77632">
        <ele>169</ele>
        <time>2018-09-28T09:09:51Z</time>
      </trkpt>
      <trkpt lat="45.93604" lon="4.77638">
        <ele>169</ele>
        <time>2018-09-28T09:09:52Z</time>
      </trkpt>
      <trkpt lat="45.93608" lon="4.7765">
        <ele>169</ele>
        <time>2018-09-28T09:09:54Z</time>
      </trkpt>
      <trkpt lat="45.93609" lon="4.77655">
        <ele>169</ele>
        <time>2018-09-28T09:09:55Z</time>
      </trkpt>
      <trkpt lat="45.93615" lon="4.77664">
        <ele>169</ele>
        <time>2018-09-28T09:09:57Z</time>
      </trkpt>
      <trkpt lat="45.93617" lon="4.77669">
        <ele>169</ele>
        <time>2018-09-28T09:09:58Z</time>
      </trkpt>
      <trkpt lat="45.93621" lon="4.77678">
        <ele>169</ele>
        <time>2018-09-28T09:10:00Z</time>
      </trkpt>
      <trkpt lat="45.93624" lon="4.77684">
        <ele>169</ele>
        <time>2018-09-28T09:10:01Z</time>
      </trkpt>
      <trkpt lat="45.93627" lon="4.77691">
        <ele>169</ele>
        <time>2018-09-28T09:10:02Z</time>
      </trkpt>
      <trkpt lat="45.9363" lon="4.77696">
        <ele>169</ele>
        <time>2018-09-28T09:10:03Z</time>
      </trkpt>
      <trkpt lat="45.93634" lon="4.77706">
        <ele>170</ele>
        <time>2018-09-28T09:10:05Z</time>
      </trkpt>
      <trkpt lat="45.93637" lon="4.77712">
        <ele>170</ele>
        <time>2018-09-28T09:10:06Z</time>
      </trkpt>
      <trkpt lat="45.93642" lon="4.77721">
        <ele>170</ele>
        <time>2018-09-28T09:10:08Z</time>
      </trkpt>
      <trkpt lat="45.93643" lon="4.77723">
        <ele>170</ele>
        <time>2018-09-28T09:10:09Z</time>
      </trkpt>
      <trkpt lat="45.93647" lon="4.7773">
        <ele>170</ele>
        <time>2018-09-28T09:10:10Z</time>
      </trkpt>
      <trkpt lat="45.93649" lon="4.77734">
        <ele>170</ele>
        <time>2018-09-28T09:10:11Z</time>
      </trkpt>
      <trkpt lat="45.93655" lon="4.77742">
        <ele>170</ele>
        <time>2018-09-28T09:10:13Z</time>
      </trkpt>
      <trkpt lat="45.93656" lon="4.77744">
        <ele>170</ele>
        <time>2018-09-28T09:10:14Z</time>
      </trkpt>
      <trkpt lat="45.93662" lon="4.7775">
        <ele>171</ele>
        <time>2018-09-28T09:10:17Z</time>
      </trkpt>
      <trkpt lat="45.93664" lon="4.77753">
        <ele>171</ele>
        <time>2018-09-28T09:10:18Z</time>
      </trkpt>
      <trkpt lat="45.9367" lon="4.77762">
        <ele>170</ele>
        <time>2018-09-28T09:10:21Z</time>
      </trkpt>
      <trkpt lat="45.93677" lon="4.7777">
        <ele>170</ele>
        <time>2018-09-28T09:10:22Z</time>
      </trkpt>
      <trkpt lat="45.93683" lon="4.77779">
        <ele>170</ele>
        <time>2018-09-28T09:10:26Z</time>
      </trkpt>
      <trkpt lat="45.93685" lon="4.77781">
        <ele>170</ele>
        <time>2018-09-28T09:10:27Z</time>
      </trkpt>
      <trkpt lat="45.93687" lon="4.77783">
        <ele>170</ele>
        <time>2018-09-28T09:10:28Z</time>
      </trkpt>
      <trkpt lat="45.93694" lon="4.77791">
        <ele>169</ele>
        <time>2018-09-28T09:10:29Z</time>
      </trkpt>
      <trkpt lat="45.93698" lon="4.77796">
        <ele>169</ele>
        <time>2018-09-28T09:10:31Z</time>
      </trkpt>
      <trkpt lat="45.93702" lon="4.77801">
        <ele>169</ele>
        <time>2018-09-28T09:10:32Z</time>
      </trkpt>
      <trkpt lat="45.93707" lon="4.77806">
        <ele>169</ele>
        <time>2018-09-28T09:10:34Z</time>
      </trkpt>
      <trkpt lat="45.93711" lon="4.77812">
        <ele>169</ele>
        <time>2018-09-28T09:10:35Z</time>
      </trkpt>
      <trkpt lat="45.93717" lon="4.77819">
        <ele>169</ele>
        <time>2018-09-28T09:10:37Z</time>
      </trkpt>
      <trkpt lat="45.9372" lon="4.77824">
        <ele>168</ele>
        <time>2018-09-28T09:10:38Z</time>
      </trkpt>
      <trkpt lat="45.93726" lon="4.77832">
        <ele>168</ele>
        <time>2018-09-28T09:10:40Z</time>
      </trkpt>
      <trkpt lat="45.93729" lon="4.77836">
        <ele>167</ele>
        <time>2018-09-28T09:10:41Z</time>
      </trkpt>
      <trkpt lat="45.93735" lon="4.77845">
        <ele>167</ele>
        <time>2018-09-28T09:10:43Z</time>
      </trkpt>
      <trkpt lat="45.93739" lon="4.77849">
        <ele>167</ele>
        <time>2018-09-28T09:10:44Z</time>
      </trkpt>
      <trkpt lat="45.93744" lon="4.77857">
        <ele>167</ele>
        <time>2018-09-28T09:10:45Z</time>
      </trkpt>
      <trkpt lat="45.93747" lon="4.77861">
        <ele>167</ele>
        <time>2018-09-28T09:10:46Z</time>
      </trkpt>
      <trkpt lat="45.9375" lon="4.77866">
        <ele>166</ele>
        <time>2018-09-28T09:10:47Z</time>
      </trkpt>
      <trkpt lat="45.93754" lon="4.77871">
        <ele>166</ele>
        <time>2018-09-28T09:10:48Z</time>
      </trkpt>
      <trkpt lat="45.9376" lon="4.77879">
        <ele>166</ele>
        <time>2018-09-28T09:10:51Z</time>
      </trkpt>
      <trkpt lat="45.93762" lon="4.77883">
        <ele>166</ele>
        <time>2018-09-28T09:10:52Z</time>
      </trkpt>
      <trkpt lat="45.93767" lon="4.7789">
        <ele>166</ele>
        <time>2018-09-28T09:10:54Z</time>
      </trkpt>
      <trkpt lat="45.93769" lon="4.77893">
        <ele>166</ele>
        <time>2018-09-28T09:10:55Z</time>
      </trkpt>
      <trkpt lat="45.93775" lon="4.77899">
        <ele>166</ele>
        <time>2018-09-28T09:10:57Z</time>
      </trkpt>
      <trkpt lat="45.9378" lon="4.77905">
        <ele>166</ele>
        <time>2018-09-28T09:10:58Z</time>
      </trkpt>
      <trkpt lat="45.93783" lon="4.7791">
        <ele>166</ele>
        <time>2018-09-28T09:10:59Z</time>
      </trkpt>
      <trkpt lat="45.93786" lon="4.77915">
        <ele>166</ele>
        <time>2018-09-28T09:11:00Z</time>
      </trkpt>
      <trkpt lat="45.9379" lon="4.7792">
        <ele>168</ele>
        <time>2018-09-28T09:11:01Z</time>
      </trkpt>
      <trkpt lat="45.93795" lon="4.77927">
        <ele>168</ele>
        <time>2018-09-28T09:11:02Z</time>
      </trkpt>
      <trkpt lat="45.93799" lon="4.77932">
        <ele>168</ele>
        <time>2018-09-28T09:11:03Z</time>
      </trkpt>
      <trkpt lat="45.93803" lon="4.77937">
        <ele>169</ele>
        <time>2018-09-28T09:11:04Z</time>
      </trkpt>
      <trkpt lat="45.93806" lon="4.77941">
        <ele>169</ele>
        <time>2018-09-28T09:11:05Z</time>
      </trkpt>
      <trkpt lat="45.9381" lon="4.77946">
        <ele>169</ele>
        <time>2018-09-28T09:11:06Z</time>
      </trkpt>
      <trkpt lat="45.93813" lon="4.77951">
        <ele>169</ele>
        <time>2018-09-28T09:11:07Z</time>
      </trkpt>
      <trkpt lat="45.93816" lon="4.77955">
        <ele>170</ele>
        <time>2018-09-28T09:11:08Z</time>
      </trkpt>
      <trkpt lat="45.9382" lon="4.7796">
        <ele>170</ele>
        <time>2018-09-28T09:11:09Z</time>
      </trkpt>
      <trkpt lat="45.93824" lon="4.77965">
        <ele>171</ele>
        <time>2018-09-28T09:11:10Z</time>
      </trkpt>
      <trkpt lat="45.9383" lon="4.77974">
        <ele>172</ele>
        <time>2018-09-28T09:11:13Z</time>
      </trkpt>
      <trkpt lat="45.93832" lon="4.77976">
        <ele>173</ele>
        <time>2018-09-28T09:11:14Z</time>
      </trkpt>
      <trkpt lat="45.93837" lon="4.77985">
        <ele>178</ele>
        <time>2018-09-28T09:11:17Z</time>
      </trkpt>
      <trkpt lat="45.93841" lon="4.77993">
        <ele>179</ele>
        <time>2018-09-28T09:11:18Z</time>
      </trkpt>
      <trkpt lat="45.93843" lon="4.78004">
        <ele>181</ele>
        <time>2018-09-28T09:11:20Z</time>
      </trkpt>
      <trkpt lat="45.93843" lon="4.78011">
        <ele>181</ele>
        <time>2018-09-28T09:11:21Z</time>
      </trkpt>
      <trkpt lat="45.93843" lon="4.78023">
        <ele>182</ele>
        <time>2018-09-28T09:11:23Z</time>
      </trkpt>
      <trkpt lat="45.93846" lon="4.78028">
        <ele>182</ele>
        <time>2018-09-28T09:11:24Z</time>
      </trkpt>
      <trkpt lat="45.93852" lon="4.78032">
        <ele>182</ele>
        <time>2018-09-28T09:11:27Z</time>
      </trkpt>
      <trkpt lat="45.93859" lon="4.78031">
        <ele>183</ele>
        <time>2018-09-28T09:11:28Z</time>
      </trkpt>
      <trkpt lat="45.93865" lon="4.78023">
        <ele>183</ele>
        <time>2018-09-28T09:11:30Z</time>
      </trkpt>
      <trkpt lat="45.93867" lon="4.78018">
        <ele>183</ele>
        <time>2018-09-28T09:11:31Z</time>
      </trkpt>
      <trkpt lat="45.93868" lon="4.7801">
        <ele>183</ele>
        <time>2018-09-28T09:11:32Z</time>
      </trkpt>
      <trkpt lat="45.93867" lon="4.78004">
        <ele>183</ele>
        <time>2018-09-28T09:11:33Z</time>
      </trkpt>
      <trkpt lat="45.93868" lon="4.77997">
        <ele>180</ele>
        <time>2018-09-28T09:11:34Z</time>
      </trkpt>
      <trkpt lat="45.9387" lon="4.7799">
        <ele>180</ele>
        <time>2018-09-28T09:11:35Z</time>
      </trkpt>
      <trkpt lat="45.93871" lon="4.77983">
        <ele>180</ele>
        <time>2018-09-28T09:11:36Z</time>
      </trkpt>
      <trkpt lat="45.93874" lon="4.77975">
        <ele>179</ele>
        <time>2018-09-28T09:11:37Z</time>
      </trkpt>
      <trkpt lat="45.93875" lon="4.77967">
        <ele>179</ele>
        <time>2018-09-28T09:11:38Z</time>
      </trkpt>
      <trkpt lat="45.93877" lon="4.77959">
        <ele>179</ele>
        <time>2018-09-28T09:11:39Z</time>
      </trkpt>
      <trkpt lat="45.9388" lon="4.77951">
        <ele>179</ele>
        <time>2018-09-28T09:11:40Z</time>
      </trkpt>
      <trkpt lat="45.93882" lon="4.77944">
        <ele>179</ele>
        <time>2018-09-28T09:11:41Z</time>
      </trkpt>
      <trkpt lat="45.93885" lon="4.77936">
        <ele>179</ele>
        <time>2018-09-28T09:11:42Z</time>
      </trkpt>
      <trkpt lat="45.93888" lon="4.77926">
        <ele>179</ele>
        <time>2018-09-28T09:11:43Z</time>
      </trkpt>
      <trkpt lat="45.9389" lon="4.77919">
        <ele>179</ele>
        <time>2018-09-28T09:11:44Z</time>
      </trkpt>
      <trkpt lat="45.93892" lon="4.7791">
        <ele>177</ele>
        <time>2018-09-28T09:11:45Z</time>
      </trkpt>
      <trkpt lat="45.93895" lon="4.77902">
        <ele>177</ele>
        <time>2018-09-28T09:11:46Z</time>
      </trkpt>
      <trkpt lat="45.93896" lon="4.77894">
        <ele>176</ele>
        <time>2018-09-28T09:11:47Z</time>
      </trkpt>
      <trkpt lat="45.93897" lon="4.77886">
        <ele>176</ele>
        <time>2018-09-28T09:11:48Z</time>
      </trkpt>
      <trkpt lat="45.93901" lon="4.77878">
        <ele>176</ele>
        <time>2018-09-28T09:11:49Z</time>
      </trkpt>
      <trkpt lat="45.93903" lon="4.7787">
        <ele>176</ele>
        <time>2018-09-28T09:11:50Z</time>
      </trkpt>
      <trkpt lat="45.93907" lon="4.77862">
        <ele>176</ele>
        <time>2018-09-28T09:11:51Z</time>
      </trkpt>
      <trkpt lat="45.93908" lon="4.77853">
        <ele>176</ele>
        <time>2018-09-28T09:11:52Z</time>
      </trkpt>
      <trkpt lat="45.93911" lon="4.77847">
        <ele>176</ele>
        <time>2018-09-28T09:11:53Z</time>
      </trkpt>
      <trkpt lat="45.93914" lon="4.77837">
        <ele>177</ele>
        <time>2018-09-28T09:11:54Z</time>
      </trkpt>
      <trkpt lat="45.93916" lon="4.77827">
        <ele>176</ele>
        <time>2018-09-28T09:11:55Z</time>
      </trkpt>
      <trkpt lat="45.93916" lon="4.77813">
        <ele>173</ele>
        <time>2018-09-28T09:11:56Z</time>
      </trkpt>
      <trkpt lat="45.9392" lon="4.77805">
        <ele>180</ele>
        <time>2018-09-28T09:11:57Z</time>
      </trkpt>
      <trkpt lat="45.93919" lon="4.77795">
        <ele>179</ele>
        <time>2018-09-28T09:11:58Z</time>
      </trkpt>
      <trkpt lat="45.93924" lon="4.77787">
        <ele>178</ele>
        <time>2018-09-28T09:11:59Z</time>
      </trkpt>
      <trkpt lat="45.93928" lon="4.77778">
        <ele>177</ele>
        <time>2018-09-28T09:12:00Z</time>
      </trkpt>
      <trkpt lat="45.93931" lon="4.77769">
        <ele>176</ele>
        <time>2018-09-28T09:12:01Z</time>
      </trkpt>
      <trkpt lat="45.93932" lon="4.7776">
        <ele>175</ele>
        <time>2018-09-28T09:12:02Z</time>
      </trkpt>
      <trkpt lat="45.93937" lon="4.7775">
        <ele>175</ele>
        <time>2018-09-28T09:12:03Z</time>
      </trkpt>
      <trkpt lat="45.9394" lon="4.77743">
        <ele>174</ele>
        <time>2018-09-28T09:12:04Z</time>
      </trkpt>
      <trkpt lat="45.93943" lon="4.77736">
        <ele>175</ele>
        <time>2018-09-28T09:12:05Z</time>
      </trkpt>
      <trkpt lat="45.93948" lon="4.77728">
        <ele>176</ele>
        <time>2018-09-28T09:12:06Z</time>
      </trkpt>
      <trkpt lat="45.93951" lon="4.77722">
        <ele>177</ele>
        <time>2018-09-28T09:12:07Z</time>
      </trkpt>
      <trkpt lat="45.93953" lon="4.77713">
        <ele>177</ele>
        <time>2018-09-28T09:12:08Z</time>
      </trkpt>
      <trkpt lat="45.93957" lon="4.77706">
        <ele>178</ele>
        <time>2018-09-28T09:12:09Z</time>
      </trkpt>
      <trkpt lat="45.93959" lon="4.77699">
        <ele>178</ele>
        <time>2018-09-28T09:12:10Z</time>
      </trkpt>
      <trkpt lat="45.93961" lon="4.77692">
        <ele>178</ele>
        <time>2018-09-28T09:12:11Z</time>
      </trkpt>
      <trkpt lat="45.93963" lon="4.77685">
        <ele>179</ele>
        <time>2018-09-28T09:12:12Z</time>
      </trkpt>
      <trkpt lat="45.93965" lon="4.77678">
        <ele>179</ele>
        <time>2018-09-28T09:12:13Z</time>
      </trkpt>
      <trkpt lat="45.93967" lon="4.7767">
        <ele>180</ele>
        <time>2018-09-28T09:12:14Z</time>
      </trkpt>
      <trkpt lat="45.93967" lon="4.77663">
        <ele>179</ele>
        <time>2018-09-28T09:12:15Z</time>
      </trkpt>
      <trkpt lat="45.93968" lon="4.77656">
        <ele>179</ele>
        <time>2018-09-28T09:12:16Z</time>
      </trkpt>
      <trkpt lat="45.93969" lon="4.7765">
        <ele>179</ele>
        <time>2018-09-28T09:12:17Z</time>
      </trkpt>
      <trkpt lat="45.93972" lon="4.77643">
        <ele>179</ele>
        <time>2018-09-28T09:12:18Z</time>
      </trkpt>
      <trkpt lat="45.93973" lon="4.77635">
        <ele>179</ele>
        <time>2018-09-28T09:12:19Z</time>
      </trkpt>
      <trkpt lat="45.93975" lon="4.7763">
        <ele>179</ele>
        <time>2018-09-28T09:12:20Z</time>
      </trkpt>
      <trkpt lat="45.93976" lon="4.77624">
        <ele>179</ele>
        <time>2018-09-28T09:12:21Z</time>
      </trkpt>
      <trkpt lat="45.93978" lon="4.77615">
        <ele>180</ele>
        <time>2018-09-28T09:12:22Z</time>
      </trkpt>
      <trkpt lat="45.93981" lon="4.77608">
        <ele>180</ele>
        <time>2018-09-28T09:12:23Z</time>
      </trkpt>
      <trkpt lat="45.93983" lon="4.77604">
        <ele>181</ele>
        <time>2018-09-28T09:12:24Z</time>
      </trkpt>
      <trkpt lat="45.93982" lon="4.77593">
        <ele>181</ele>
        <time>2018-09-28T09:12:25Z</time>
      </trkpt>
      <trkpt lat="45.93986" lon="4.77586">
        <ele>182</ele>
        <time>2018-09-28T09:12:26Z</time>
      </trkpt>
      <trkpt lat="45.93988" lon="4.77578">
        <ele>182</ele>
        <time>2018-09-28T09:12:27Z</time>
      </trkpt>
      <trkpt lat="45.93992" lon="4.77573">
        <ele>182</ele>
        <time>2018-09-28T09:12:28Z</time>
      </trkpt>
      <trkpt lat="45.93993" lon="4.77564">
        <ele>181</ele>
        <time>2018-09-28T09:12:29Z</time>
      </trkpt>
      <trkpt lat="45.93993" lon="4.77553">
        <ele>179</ele>
        <time>2018-09-28T09:12:30Z</time>
      </trkpt>
      <trkpt lat="45.93995" lon="4.77546">
        <ele>179</ele>
        <time>2018-09-28T09:12:31Z</time>
      </trkpt>
      <trkpt lat="45.93997" lon="4.77539">
        <ele>179</ele>
        <time>2018-09-28T09:12:32Z</time>
      </trkpt>
      <trkpt lat="45.94" lon="4.77533">
        <ele>179</ele>
        <time>2018-09-28T09:12:33Z</time>
      </trkpt>
      <trkpt lat="45.93999" lon="4.77524">
        <ele>179</ele>
        <time>2018-09-28T09:12:34Z</time>
      </trkpt>
      <trkpt lat="45.94" lon="4.77515">
        <ele>180</ele>
        <time>2018-09-28T09:12:35Z</time>
      </trkpt>
      <trkpt lat="45.94001" lon="4.77508">
        <ele>186</ele>
        <time>2018-09-28T09:12:36Z</time>
      </trkpt>
      <trkpt lat="45.94002" lon="4.77499">
        <ele>183</ele>
        <time>2018-09-28T09:12:37Z</time>
      </trkpt>
      <trkpt lat="45.94002" lon="4.77492">
        <ele>184</ele>
        <time>2018-09-28T09:12:38Z</time>
      </trkpt>
      <trkpt lat="45.94005" lon="4.77485">
        <ele>185</ele>
        <time>2018-09-28T09:12:39Z</time>
      </trkpt>
      <trkpt lat="45.94006" lon="4.77478">
        <ele>185</ele>
        <time>2018-09-28T09:12:40Z</time>
      </trkpt>
      <trkpt lat="45.94009" lon="4.77468">
        <ele>185</ele>
        <time>2018-09-28T09:12:42Z</time>
      </trkpt>
      <trkpt lat="45.9401" lon="4.77462">
        <ele>185</ele>
        <time>2018-09-28T09:12:43Z</time>
      </trkpt>
      <trkpt lat="45.94011" lon="4.77452">
        <ele>185</ele>
        <time>2018-09-28T09:12:45Z</time>
      </trkpt>
      <trkpt lat="45.94011" lon="4.77449">
        <ele>184</ele>
        <time>2018-09-28T09:12:46Z</time>
      </trkpt>
      <trkpt lat="45.94012" lon="4.7744">
        <ele>183</ele>
        <time>2018-09-28T09:12:48Z</time>
      </trkpt>
      <trkpt lat="45.94014" lon="4.77427">
        <ele>182</ele>
        <time>2018-09-28T09:12:49Z</time>
      </trkpt>
      <trkpt lat="45.94018" lon="4.77415">
        <ele>179</ele>
        <time>2018-09-28T09:12:51Z</time>
      </trkpt>
      <trkpt lat="45.9402" lon="4.77408">
        <ele>180</ele>
        <time>2018-09-28T09:12:52Z</time>
      </trkpt>
      <trkpt lat="45.94019" lon="4.77397">
        <ele>180</ele>
        <time>2018-09-28T09:12:55Z</time>
      </trkpt>
      <trkpt lat="45.94019" lon="4.77394">
        <ele>180</ele>
        <time>2018-09-28T09:12:56Z</time>
      </trkpt>
      <trkpt lat="45.94019" lon="4.77384">
        <ele>180</ele>
        <time>2018-09-28T09:12:59Z</time>
      </trkpt>
      <trkpt lat="45.94019" lon="4.7738">
        <ele>180</ele>
        <time>2018-09-28T09:13:00Z</time>
      </trkpt>
      <trkpt lat="45.94011" lon="4.77373">
        <ele>179</ele>
        <time>2018-09-28T09:13:06Z</time>
      </trkpt>
      <trkpt lat="45.94009" lon="4.77372">
        <ele>179</ele>
        <time>2018-09-28T09:13:07Z</time>
      </trkpt>
      <trkpt lat="45.94006" lon="4.77361">
        <ele>178</ele>
        <time>2018-09-28T09:13:09Z</time>
      </trkpt>
      <trkpt lat="45.94006" lon="4.77358">
        <ele>178</ele>
        <time>2018-09-28T09:13:10Z</time>
      </trkpt>
      <trkpt lat="45.94008" lon="4.7735">
        <ele>177</ele>
        <time>2018-09-28T09:13:12Z</time>
      </trkpt>
      <trkpt lat="45.9401" lon="4.77338">
        <ele>175</ele>
        <time>2018-09-28T09:13:13Z</time>
      </trkpt>
      <trkpt lat="45.9401" lon="4.77326">
        <ele>174</ele>
        <time>2018-09-28T09:13:15Z</time>
      </trkpt>
      <trkpt lat="45.94011" lon="4.77321">
        <ele>175</ele>
        <time>2018-09-28T09:13:16Z</time>
      </trkpt>
      <trkpt lat="45.94012" lon="4.7731">
        <ele>175</ele>
        <time>2018-09-28T09:13:19Z</time>
      </trkpt>
      <trkpt lat="45.94012" lon="4.77307">
        <ele>175</ele>
        <time>2018-09-28T09:13:20Z</time>
      </trkpt>
      <trkpt lat="45.94011" lon="4.77299">
        <ele>175</ele>
        <time>2018-09-28T09:13:23Z</time>
      </trkpt>
      <trkpt lat="45.94009" lon="4.77289">
        <ele>175</ele>
        <time>2018-09-28T09:13:24Z</time>
      </trkpt>
      <trkpt lat="45.9401" lon="4.77278">
        <ele>175</ele>
        <time>2018-09-28T09:13:26Z</time>
      </trkpt>
      <trkpt lat="45.94011" lon="4.77276">
        <ele>175</ele>
        <time>2018-09-28T09:13:27Z</time>
      </trkpt>
      <trkpt lat="45.94013" lon="4.77271">
        <ele>174</ele>
        <time>2018-09-28T09:13:29Z</time>
      </trkpt>
      <trkpt lat="45.94016" lon="4.77264">
        <ele>174</ele>
        <time>2018-09-28T09:13:30Z</time>
      </trkpt>
      <trkpt lat="45.94018" lon="4.77254">
        <ele>174</ele>
        <time>2018-09-28T09:13:34Z</time>
      </trkpt>
      <trkpt lat="45.94018" lon="4.7725">
        <ele>174</ele>
        <time>2018-09-28T09:13:35Z</time>
      </trkpt>
      <trkpt lat="45.94018" lon="4.77238">
        <ele>173</ele>
        <time>2018-09-28T09:13:39Z</time>
      </trkpt>
      <trkpt lat="45.94018" lon="4.77236">
        <ele>173</ele>
        <time>2018-09-28T09:13:40Z</time>
      </trkpt>
      <trkpt lat="45.94012" lon="4.77233">
        <ele>173</ele>
        <time>2018-09-28T09:13:52Z</time>
      </trkpt>
      <trkpt lat="45.94011" lon="4.77232">
        <ele>173</ele>
        <time>2018-09-28T09:13:53Z</time>
      </trkpt>
      <trkpt lat="45.9401" lon="4.77225">
        <ele>173</ele>
        <time>2018-09-28T09:14:20Z</time>
      </trkpt>
      <trkpt lat="45.9401" lon="4.77225">
        <ele>173</ele>
        <time>2018-09-28T09:14:21Z</time>
      </trkpt>
      <trkpt lat="45.94003" lon="4.7722">
        <ele>173</ele>
        <time>2018-09-28T09:18:49Z</time>
      </trkpt>
      <trkpt lat="45.94002" lon="4.7722">
        <ele>173</ele>
        <time>2018-09-28T09:18:50Z</time>
      </trkpt>
      <trkpt lat="45.94" lon="4.7722">
        <ele>169</ele>
        <time>2018-09-28T09:19:20Z</time>
      </trkpt>
      <trkpt lat="45.94" lon="4.77221">
        <ele>169</ele>
        <time>2018-09-28T09:19:21Z</time>
      </trkpt>
      <trkpt lat="45.94005" lon="4.77231">
        <ele>173</ele>
        <time>2018-09-28T09:19:38Z</time>
      </trkpt>
      <trkpt lat="45.94005" lon="4.77231">
        <ele>173</ele>
        <time>2018-09-28T09:19:39Z</time>
      </trkpt>
      <trkpt lat="45.94" lon="4.7722">
        <ele>173</ele>
        <time>2018-09-28T09:19:53Z</time>
      </trkpt>
      <trkpt lat="45.94" lon="4.77219">
        <ele>169</ele>
        <time>2018-09-28T09:19:54Z</time>
      </trkpt>
      <trkpt lat="45.93999" lon="4.77215">
        <ele>169</ele>
        <time>2018-09-28T09:21:39Z</time>
      </trkpt>
      <trkpt lat="45.93998" lon="4.77215">
        <ele>169</ele>
        <time>2018-09-28T09:21:40Z</time>
      </trkpt>
      <trkpt lat="45.93998" lon="4.77215">
        <ele>169</ele>
        <time>2018-09-28T09:21:43Z</time>
      </trkpt>
      <trkpt lat="45.93998" lon="4.77215">
        <ele>169</ele>
        <time>2018-09-28T09:21:44Z</time>
      </trkpt>
      <trkpt lat="45.93998" lon="4.77215">
        <ele>169</ele>
        <time>2018-09-28T09:21:48Z</time>
      </trkpt>
      <trkpt lat="45.93998" lon="4.77215">
        <ele>169</ele>
        <time>2018-09-28T09:21:49Z</time>
      </trkpt>
      <trkpt lat="45.93999" lon="4.77217">
        <ele>169</ele>
        <time>2018-09-28T09:22:20Z</time>
      </trkpt>
      <trkpt lat="45.93999" lon="4.77217">
        <ele>169</ele>
        <time>2018-09-28T09:22:21Z</time>
      </trkpt>
      <trkpt lat="45.93999" lon="4.77221">
        <ele>169</ele>
        <time>2018-09-28T09:23:54Z</time>
      </trkpt>
      <trkpt lat="45.93999" lon="4.77221">
        <ele>169</ele>
        <time>2018-09-28T09:23:55Z</time>
      </trkpt>
      <trkpt lat="45.93998" lon="4.77221">
        <ele>169</ele>
        <time>2018-09-28T09:26:00Z</time>
      </trkpt>
      <trkpt lat="45.93998" lon="4.77221">
        <ele>169</ele>
        <time>2018-09-28T09:26:01Z</time>
      </trkpt>
      <trkpt lat="45.94003" lon="4.77212">
        <ele>174</ele>
        <time>2018-09-28T09:26:41Z</time>
      </trkpt>
      <trkpt lat="45.94004" lon="4.77209">
        <ele>174</ele>
        <time>2018-09-28T09:26:42Z</time>
      </trkpt>
      <trkpt lat="45.94006" lon="4.77199">
        <ele>174</ele>
        <time>2018-09-28T09:26:45Z</time>
      </trkpt>
      <trkpt lat="45.94006" lon="4.77195">
        <ele>174</ele>
        <time>2018-09-28T09:26:46Z</time>
      </trkpt>
      <trkpt lat="45.94009" lon="4.77185">
        <ele>174</ele>
        <time>2018-09-28T09:26:49Z</time>
      </trkpt>
      <trkpt lat="45.9401" lon="4.77181">
        <ele>173</ele>
        <time>2018-09-28T09:26:50Z</time>
      </trkpt>
      <trkpt lat="45.94013" lon="4.7717">
        <ele>173</ele>
        <time>2018-09-28T09:26:53Z</time>
      </trkpt>
      <trkpt lat="45.94014" lon="4.77166">
        <ele>173</ele>
        <time>2018-09-28T09:26:54Z</time>
      </trkpt>
      <trkpt lat="45.94015" lon="4.77158">
        <ele>173</ele>
        <time>2018-09-28T09:26:56Z</time>
      </trkpt>
      <trkpt lat="45.94016" lon="4.77153">
        <ele>174</ele>
        <time>2018-09-28T09:26:57Z</time>
      </trkpt>
      <trkpt lat="45.94017" lon="4.77144">
        <ele>174</ele>
        <time>2018-09-28T09:26:59Z</time>
      </trkpt>
      <trkpt lat="45.94019" lon="4.77129">
        <ele>174</ele>
        <time>2018-09-28T09:27:00Z</time>
      </trkpt>
      <trkpt lat="45.9402" lon="4.77118">
        <ele>174</ele>
        <time>2018-09-28T09:27:02Z</time>
      </trkpt>
      <trkpt lat="45.94021" lon="4.77115">
        <ele>174</ele>
        <time>2018-09-28T09:27:03Z</time>
      </trkpt>
      <trkpt lat="45.94022" lon="4.77106">
        <ele>174</ele>
        <time>2018-09-28T09:27:06Z</time>
      </trkpt>
      <trkpt lat="45.94022" lon="4.77102">
        <ele>174</ele>
        <time>2018-09-28T09:27:07Z</time>
      </trkpt>
      <trkpt lat="45.94023" lon="4.77092">
        <ele>174</ele>
        <time>2018-09-28T09:27:10Z</time>
      </trkpt>
      <trkpt lat="45.94023" lon="4.77088">
        <ele>174</ele>
        <time>2018-09-28T09:27:11Z</time>
      </trkpt>
      <trkpt lat="45.94023" lon="4.77076">
        <ele>173</ele>
        <time>2018-09-28T09:27:15Z</time>
      </trkpt>
      <trkpt lat="45.94022" lon="4.77073">
        <ele>173</ele>
        <time>2018-09-28T09:27:16Z</time>
      </trkpt>
      <trkpt lat="45.94017" lon="4.77066">
        <ele>173</ele>
        <time>2018-09-28T09:27:19Z</time>
      </trkpt>
      <trkpt lat="45.94015" lon="4.77065">
        <ele>173</ele>
        <time>2018-09-28T09:27:20Z</time>
      </trkpt>
      <trkpt lat="45.94007" lon="4.7706">
        <ele>173</ele>
        <time>2018-09-28T09:27:24Z</time>
      </trkpt>
      <trkpt lat="45.94005" lon="4.77059">
        <ele>173</ele>
        <time>2018-09-28T09:27:25Z</time>
      </trkpt>
      <trkpt lat="45.93998" lon="4.77053">
        <ele>170</ele>
        <time>2018-09-28T09:27:28Z</time>
      </trkpt>
      <trkpt lat="45.93997" lon="4.77051">
        <ele>170</ele>
        <time>2018-09-28T09:27:29Z</time>
      </trkpt>
      <trkpt lat="45.93991" lon="4.77043">
        <ele>170</ele>
        <time>2018-09-28T09:27:32Z</time>
      </trkpt>
      <trkpt lat="45.93989" lon="4.7704">
        <ele>170</ele>
        <time>2018-09-28T09:27:33Z</time>
      </trkpt>
      <trkpt lat="45.93985" lon="4.77031">
        <ele>170</ele>
        <time>2018-09-28T09:27:36Z</time>
      </trkpt>
      <trkpt lat="45.93984" lon="4.77028">
        <ele>170</ele>
        <time>2018-09-28T09:27:37Z</time>
      </trkpt>
      <trkpt lat="45.93981" lon="4.77018">
        <ele>170</ele>
        <time>2018-09-28T09:27:40Z</time>
      </trkpt>
      <trkpt lat="45.93977" lon="4.77006">
        <ele>170</ele>
        <time>2018-09-28T09:27:41Z</time>
      </trkpt>
      <trkpt lat="45.93972" lon="4.76996">
        <ele>170</ele>
        <time>2018-09-28T09:27:44Z</time>
      </trkpt>
      <trkpt lat="45.93971" lon="4.76994">
        <ele>170</ele>
        <time>2018-09-28T09:27:45Z</time>
      </trkpt>
      <trkpt lat="45.93966" lon="4.76984">
        <ele>170</ele>
        <time>2018-09-28T09:27:49Z</time>
      </trkpt>
      <trkpt lat="45.93965" lon="4.76981">
        <ele>170</ele>
        <time>2018-09-28T09:27:50Z</time>
      </trkpt>
      <trkpt lat="45.93961" lon="4.7697">
        <ele>170</ele>
        <time>2018-09-28T09:27:54Z</time>
      </trkpt>
      <trkpt lat="45.9396" lon="4.76966">
        <ele>170</ele>
        <time>2018-09-28T09:27:55Z</time>
      </trkpt>
      <trkpt lat="45.93958" lon="4.76954">
        <ele>170</ele>
        <time>2018-09-28T09:27:59Z</time>
      </trkpt>
      <trkpt lat="45.93958" lon="4.76951">
        <ele>170</ele>
        <time>2018-09-28T09:28:00Z</time>
      </trkpt>
      <trkpt lat="45.93959" lon="4.76941">
        <ele>171</ele>
        <time>2018-09-28T09:28:04Z</time>
      </trkpt>
      <trkpt lat="45.93961" lon="4.76939">
        <ele>171</ele>
        <time>2018-09-28T09:28:05Z</time>
      </trkpt>
      <trkpt lat="45.93966" lon="4.7693">
        <ele>171</ele>
        <time>2018-09-28T09:28:09Z</time>
      </trkpt>
      <trkpt lat="45.93968" lon="4.76928">
        <ele>171</ele>
        <time>2018-09-28T09:28:10Z</time>
      </trkpt>
      <trkpt lat="45.93969" lon="4.76921">
        <ele>171</ele>
        <time>2018-09-28T09:28:13Z</time>
      </trkpt>
      <trkpt lat="45.93967" lon="4.76911">
        <ele>172</ele>
        <time>2018-09-28T09:28:14Z</time>
      </trkpt>
      <trkpt lat="45.93961" lon="4.76903">
        <ele>172</ele>
        <time>2018-09-28T09:28:16Z</time>
      </trkpt>
      <trkpt lat="45.93958" lon="4.76899">
        <ele>172</ele>
        <time>2018-09-28T09:28:17Z</time>
      </trkpt>
      <trkpt lat="45.93952" lon="4.76891">
        <ele>172</ele>
        <time>2018-09-28T09:28:20Z</time>
      </trkpt>
      <trkpt lat="45.9395" lon="4.76888">
        <ele>172</ele>
        <time>2018-09-28T09:28:21Z</time>
      </trkpt>
      <trkpt lat="45.93946" lon="4.76882">
        <ele>172</ele>
        <time>2018-09-28T09:28:23Z</time>
      </trkpt>
      <trkpt lat="45.93944" lon="4.76879">
        <ele>172</ele>
        <time>2018-09-28T09:28:24Z</time>
      </trkpt>
      <trkpt lat="45.93941" lon="4.76876">
        <ele>172</ele>
        <time>2018-09-28T09:28:25Z</time>
      </trkpt>
      <trkpt lat="45.93935" lon="4.76867">
        <ele>172</ele>
        <time>2018-09-28T09:28:26Z</time>
      </trkpt>
      <trkpt lat="45.93929" lon="4.76859">
        <ele>172</ele>
        <time>2018-09-28T09:28:28Z</time>
      </trkpt>
      <trkpt lat="45.93925" lon="4.76854">
        <ele>172</ele>
        <time>2018-09-28T09:28:29Z</time>
      </trkpt>
      <trkpt lat="45.93918" lon="4.76847">
        <ele>173</ele>
        <time>2018-09-28T09:28:31Z</time>
      </trkpt>
      <trkpt lat="45.93917" lon="4.76846">
        <ele>173</ele>
        <time>2018-09-28T09:28:32Z</time>
      </trkpt>
      <trkpt lat="45.9391" lon="4.76838">
        <ele>172</ele>
        <time>2018-09-28T09:28:34Z</time>
      </trkpt>
      <trkpt lat="45.93908" lon="4.76834">
        <ele>172</ele>
        <time>2018-09-28T09:28:35Z</time>
      </trkpt>
      <trkpt lat="45.93902" lon="4.76825">
        <ele>172</ele>
        <time>2018-09-28T09:28:37Z</time>
      </trkpt>
      <trkpt lat="45.93899" lon="4.7682">
        <ele>172</ele>
        <time>2018-09-28T09:28:38Z</time>
      </trkpt>
      <trkpt lat="45.93896" lon="4.76815">
        <ele>171</ele>
        <time>2018-09-28T09:28:39Z</time>
      </trkpt>
      <trkpt lat="45.93892" lon="4.7681">
        <ele>171</ele>
        <time>2018-09-28T09:28:40Z</time>
      </trkpt>
      <trkpt lat="45.93887" lon="4.76801">
        <ele>171</ele>
        <time>2018-09-28T09:28:42Z</time>
      </trkpt>
      <trkpt lat="45.93883" lon="4.76797">
        <ele>171</ele>
        <time>2018-09-28T09:28:43Z</time>
      </trkpt>
      <trkpt lat="45.93877" lon="4.76787">
        <ele>171</ele>
        <time>2018-09-28T09:28:45Z</time>
      </trkpt>
      <trkpt lat="45.93874" lon="4.76784">
        <ele>171</ele>
        <time>2018-09-28T09:28:46Z</time>
      </trkpt>
      <trkpt lat="45.93868" lon="4.76776">
        <ele>171</ele>
        <time>2018-09-28T09:28:48Z</time>
      </trkpt>
      <trkpt lat="45.93865" lon="4.76771">
        <ele>171</ele>
        <time>2018-09-28T09:28:49Z</time>
      </trkpt>
      <trkpt lat="45.93862" lon="4.76766">
        <ele>171</ele>
        <time>2018-09-28T09:28:50Z</time>
      </trkpt>
      <trkpt lat="45.93859" lon="4.76762">
        <ele>172</ele>
        <time>2018-09-28T09:28:51Z</time>
      </trkpt>
      <trkpt lat="45.93856" lon="4.76755">
        <ele>172</ele>
        <time>2018-09-28T09:28:52Z</time>
      </trkpt>
      <trkpt lat="45.93853" lon="4.7675">
        <ele>173</ele>
        <time>2018-09-28T09:28:53Z</time>
      </trkpt>
      <trkpt lat="45.93849" lon="4.76744">
        <ele>173</ele>
        <time>2018-09-28T09:28:54Z</time>
      </trkpt>
      <trkpt lat="45.93847" lon="4.76736">
        <ele>173</ele>
        <time>2018-09-28T09:28:55Z</time>
      </trkpt>
      <trkpt lat="45.93844" lon="4.76731">
        <ele>172</ele>
        <time>2018-09-28T09:28:56Z</time>
      </trkpt>
      <trkpt lat="45.9384" lon="4.76726">
        <ele>172</ele>
        <time>2018-09-28T09:28:57Z</time>
      </trkpt>
      <trkpt lat="45.93837" lon="4.7672">
        <ele>172</ele>
        <time>2018-09-28T09:28:58Z</time>
      </trkpt>
      <trkpt lat="45.93834" lon="4.76715">
        <ele>172</ele>
        <time>2018-09-28T09:28:59Z</time>
      </trkpt>
      <trkpt lat="45.93831" lon="4.76706">
        <ele>170</ele>
        <time>2018-09-28T09:29:01Z</time>
      </trkpt>
      <trkpt lat="45.93829" lon="4.76701">
        <ele>170</ele>
        <time>2018-09-28T09:29:02Z</time>
      </trkpt>
      <trkpt lat="45.93826" lon="4.76696">
        <ele>170</ele>
        <time>2018-09-28T09:29:03Z</time>
      </trkpt>
      <trkpt lat="45.93822" lon="4.76692">
        <ele>170</ele>
        <time>2018-09-28T09:29:04Z</time>
      </trkpt>
      <trkpt lat="45.93819" lon="4.76687">
        <ele>170</ele>
        <time>2018-09-28T09:29:05Z</time>
      </trkpt>
      <trkpt lat="45.93815" lon="4.76682">
        <ele>170</ele>
        <time>2018-09-28T09:29:06Z</time>
      </trkpt>
      <trkpt lat="45.93812" lon="4.76677">
        <ele>170</ele>
        <time>2018-09-28T09:29:07Z</time>
      </trkpt>
      <trkpt lat="45.9381" lon="4.76672">
        <ele>170</ele>
        <time>2018-09-28T09:29:08Z</time>
      </trkpt>
      <trkpt lat="45.93806" lon="4.76666">
        <ele>170</ele>
        <time>2018-09-28T09:29:09Z</time>
      </trkpt>
      <trkpt lat="45.93803" lon="4.76661">
        <ele>169</ele>
        <time>2018-09-28T09:29:10Z</time>
      </trkpt>
      <trkpt lat="45.938" lon="4.76656">
        <ele>169</ele>
        <time>2018-09-28T09:29:11Z</time>
      </trkpt>
      <trkpt lat="45.93799" lon="4.76648">
        <ele>169</ele>
        <time>2018-09-28T09:29:12Z</time>
      </trkpt>
      <trkpt lat="45.93794" lon="4.76638">
        <ele>169</ele>
        <time>2018-09-28T09:29:14Z</time>
      </trkpt>
      <trkpt lat="45.93792" lon="4.76633">
        <ele>169</ele>
        <time>2018-09-28T09:29:15Z</time>
      </trkpt>
      <trkpt lat="45.93788" lon="4.76623">
        <ele>169</ele>
        <time>2018-09-28T09:29:17Z</time>
      </trkpt>
      <trkpt lat="45.93786" lon="4.76617">
        <ele>169</ele>
        <time>2018-09-28T09:29:18Z</time>
      </trkpt>
      <trkpt lat="45.93784" lon="4.76612">
        <ele>169</ele>
        <time>2018-09-28T09:29:19Z</time>
      </trkpt>
      <trkpt lat="45.93782" lon="4.76605">
        <ele>169</ele>
        <time>2018-09-28T09:29:20Z</time>
      </trkpt>
      <trkpt lat="45.9378" lon="4.76599">
        <ele>169</ele>
        <time>2018-09-28T09:29:21Z</time>
      </trkpt>
      <trkpt lat="45.93777" lon="4.76593">
        <ele>169</ele>
        <time>2018-09-28T09:29:22Z</time>
      </trkpt>
      <trkpt lat="45.93773" lon="4.76582">
        <ele>170</ele>
        <time>2018-09-28T09:29:24Z</time>
      </trkpt>
      <trkpt lat="45.93771" lon="4.76576">
        <ele>170</ele>
        <time>2018-09-28T09:29:25Z</time>
      </trkpt>
      <trkpt lat="45.9377" lon="4.7657">
        <ele>170</ele>
        <time>2018-09-28T09:29:26Z</time>
      </trkpt>
      <trkpt lat="45.93768" lon="4.76563">
        <ele>170</ele>
        <time>2018-09-28T09:29:27Z</time>
      </trkpt>
      <trkpt lat="45.93765" lon="4.76552">
        <ele>170</ele>
        <time>2018-09-28T09:29:29Z</time>
      </trkpt>
      <trkpt lat="45.93764" lon="4.76547">
        <ele>170</ele>
        <time>2018-09-28T09:29:30Z</time>
      </trkpt>
      <trkpt lat="45.9376" lon="4.76537">
        <ele>170</ele>
        <time>2018-09-28T09:29:32Z</time>
      </trkpt>
      <trkpt lat="45.93758" lon="4.76532">
        <ele>170</ele>
        <time>2018-09-28T09:29:33Z</time>
      </trkpt>
      <trkpt lat="45.93756" lon="4.76527">
        <ele>170</ele>
        <time>2018-09-28T09:29:34Z</time>
      </trkpt>
      <trkpt lat="45.93753" lon="4.76521">
        <ele>170</ele>
        <time>2018-09-28T09:29:35Z</time>
      </trkpt>
      <trkpt lat="45.93751" lon="4.76515">
        <ele>170</ele>
        <time>2018-09-28T09:29:36Z</time>
      </trkpt>
      <trkpt lat="45.93748" lon="4.76509">
        <ele>169</ele>
        <time>2018-09-28T09:29:37Z</time>
      </trkpt>
      <trkpt lat="45.93745" lon="4.76498">
        <ele>170</ele>
        <time>2018-09-28T09:29:39Z</time>
      </trkpt>
      <trkpt lat="45.93743" lon="4.76492">
        <ele>169</ele>
        <time>2018-09-28T09:29:40Z</time>
      </trkpt>
      <trkpt lat="45.93739" lon="4.76483">
        <ele>169</ele>
        <time>2018-09-28T09:29:42Z</time>
      </trkpt>
      <trkpt lat="45.93738" lon="4.7648">
        <ele>169</ele>
        <time>2018-09-28T09:29:43Z</time>
      </trkpt>
      <trkpt lat="45.93735" lon="4.76469">
        <ele>169</ele>
        <time>2018-09-28T09:29:52Z</time>
      </trkpt>
      <trkpt lat="45.93734" lon="4.76468">
        <ele>169</ele>
        <time>2018-09-28T09:29:53Z</time>
      </trkpt>
      <trkpt lat="45.93728" lon="4.7646">
        <ele>169</ele>
        <time>2018-09-28T09:30:26Z</time>
      </trkpt>
      <trkpt lat="45.93724" lon="4.7645">
        <ele>169</ele>
        <time>2018-09-28T09:30:27Z</time>
      </trkpt>
      <trkpt lat="45.93722" lon="4.76439">
        <ele>169</ele>
        <time>2018-09-28T09:30:31Z</time>
      </trkpt>
      <trkpt lat="45.93721" lon="4.76436">
        <ele>169</ele>
        <time>2018-09-28T09:30:32Z</time>
      </trkpt>
      <trkpt lat="45.93718" lon="4.76426">
        <ele>169</ele>
        <time>2018-09-28T09:30:33Z</time>
      </trkpt>
      <trkpt lat="45.93716" lon="4.76421">
        <ele>169</ele>
        <time>2018-09-28T09:30:34Z</time>
      </trkpt>
      <trkpt lat="45.93713" lon="4.7641">
        <ele>169</ele>
        <time>2018-09-28T09:30:36Z</time>
      </trkpt>
      <trkpt lat="45.93712" lon="4.76404">
        <ele>169</ele>
        <time>2018-09-28T09:30:37Z</time>
      </trkpt>
      <trkpt lat="45.93709" lon="4.76397">
        <ele>169</ele>
        <time>2018-09-28T09:30:38Z</time>
      </trkpt>
      <trkpt lat="45.93707" lon="4.76393">
        <ele>169</ele>
        <time>2018-09-28T09:30:39Z</time>
      </trkpt>
      <trkpt lat="45.93704" lon="4.76381">
        <ele>169</ele>
        <time>2018-09-28T09:30:41Z</time>
      </trkpt>
      <trkpt lat="45.93702" lon="4.76376">
        <ele>169</ele>
        <time>2018-09-28T09:30:42Z</time>
      </trkpt>
      <trkpt lat="45.937" lon="4.7637">
        <ele>169</ele>
        <time>2018-09-28T09:30:43Z</time>
      </trkpt>
      <trkpt lat="45.93698" lon="4.76363">
        <ele>169</ele>
        <time>2018-09-28T09:30:44Z</time>
      </trkpt>
      <trkpt lat="45.93698" lon="4.76354">
        <ele>169</ele>
        <time>2018-09-28T09:30:46Z</time>
      </trkpt>
      <trkpt lat="45.93697" lon="4.7635">
        <ele>169</ele>
        <time>2018-09-28T09:30:47Z</time>
      </trkpt>
      <trkpt lat="45.93693" lon="4.76339">
        <ele>169</ele>
        <time>2018-09-28T09:30:50Z</time>
      </trkpt>
      <trkpt lat="45.93692" lon="4.76336">
        <ele>169</ele>
        <time>2018-09-28T09:30:51Z</time>
      </trkpt>
      <trkpt lat="45.93687" lon="4.76325">
        <ele>170</ele>
        <time>2018-09-28T09:30:54Z</time>
      </trkpt>
      <trkpt lat="45.93681" lon="4.76315">
        <ele>170</ele>
        <time>2018-09-28T09:30:55Z</time>
      </trkpt>
      <trkpt lat="45.93677" lon="4.76305">
        <ele>170</ele>
        <time>2018-09-28T09:30:59Z</time>
      </trkpt>
      <trkpt lat="45.93676" lon="4.76293">
        <ele>170</ele>
        <time>2018-09-28T09:31:00Z</time>
      </trkpt>
      <trkpt lat="45.93674" lon="4.76283">
        <ele>170</ele>
        <time>2018-09-28T09:31:02Z</time>
      </trkpt>
      <trkpt lat="45.93676" lon="4.76277">
        <ele>170</ele>
        <time>2018-09-28T09:31:03Z</time>
      </trkpt>
      <trkpt lat="45.93673" lon="4.76267">
        <ele>170</ele>
        <time>2018-09-28T09:31:05Z</time>
      </trkpt>
      <trkpt lat="45.9367" lon="4.7626">
        <ele>170</ele>
        <time>2018-09-28T09:31:06Z</time>
      </trkpt>
      <trkpt lat="45.93666" lon="4.76249">
        <ele>170</ele>
        <time>2018-09-28T09:31:09Z</time>
      </trkpt>
      <trkpt lat="45.93662" lon="4.76243">
        <ele>170</ele>
        <time>2018-09-28T09:31:10Z</time>
      </trkpt>
      <trkpt lat="45.93659" lon="4.76231">
        <ele>169</ele>
        <time>2018-09-28T09:31:12Z</time>
      </trkpt>
      <trkpt lat="45.93656" lon="4.76228">
        <ele>169</ele>
        <time>2018-09-28T09:31:13Z</time>
      </trkpt>
      <trkpt lat="45.93655" lon="4.76216">
        <ele>169</ele>
        <time>2018-09-28T09:31:18Z</time>
      </trkpt>
      <trkpt lat="45.93653" lon="4.76206">
        <ele>169</ele>
        <time>2018-09-28T09:31:19Z</time>
      </trkpt>
      <trkpt lat="45.9365" lon="4.76198">
        <ele>169</ele>
        <time>2018-09-28T09:31:21Z</time>
      </trkpt>
      <trkpt lat="45.93647" lon="4.76191">
        <ele>169</ele>
        <time>2018-09-28T09:31:22Z</time>
      </trkpt>
      <trkpt lat="45.93643" lon="4.7618">
        <ele>170</ele>
        <time>2018-09-28T09:31:24Z</time>
      </trkpt>
      <trkpt lat="45.93643" lon="4.76178">
        <ele>170</ele>
        <time>2018-09-28T09:31:25Z</time>
      </trkpt>
      <trkpt lat="45.9364" lon="4.76169">
        <ele>170</ele>
        <time>2018-09-28T09:31:28Z</time>
      </trkpt>
      <trkpt lat="45.93639" lon="4.76166">
        <ele>170</ele>
        <time>2018-09-28T09:31:29Z</time>
      </trkpt>
      <trkpt lat="45.93635" lon="4.76154">
        <ele>170</ele>
        <time>2018-09-28T09:31:30Z</time>
      </trkpt>
      <trkpt lat="45.93632" lon="4.76146">
        <ele>170</ele>
        <time>2018-09-28T09:31:31Z</time>
      </trkpt>
      <trkpt lat="45.9363" lon="4.76136">
        <ele>170</ele>
        <time>2018-09-28T09:31:33Z</time>
      </trkpt>
      <trkpt lat="45.93628" lon="4.7613">
        <ele>170</ele>
        <time>2018-09-28T09:31:34Z</time>
      </trkpt>
      <trkpt lat="45.93628" lon="4.76122">
        <ele>170</ele>
        <time>2018-09-28T09:31:35Z</time>
      </trkpt>
      <trkpt lat="45.93625" lon="4.76116">
        <ele>170</ele>
        <time>2018-09-28T09:31:36Z</time>
      </trkpt>
      <trkpt lat="45.93623" lon="4.76106">
        <ele>170</ele>
        <time>2018-09-28T09:31:40Z</time>
      </trkpt>
      <trkpt lat="45.93621" lon="4.76102">
        <ele>170</ele>
        <time>2018-09-28T09:31:41Z</time>
      </trkpt>
      <trkpt lat="45.93615" lon="4.7609">
        <ele>170</ele>
        <time>2018-09-28T09:31:42Z</time>
      </trkpt>
      <trkpt lat="45.93614" lon="4.76082">
        <ele>170</ele>
        <time>2018-09-28T09:31:43Z</time>
      </trkpt>
      <trkpt lat="45.93611" lon="4.76078">
        <ele>170</ele>
        <time>2018-09-28T09:31:44Z</time>
      </trkpt>
      <trkpt lat="45.93608" lon="4.76067">
        <ele>170</ele>
        <time>2018-09-28T09:31:48Z</time>
      </trkpt>
      <trkpt lat="45.93606" lon="4.76064">
        <ele>170</ele>
        <time>2018-09-28T09:31:49Z</time>
      </trkpt>
      <trkpt lat="45.93603" lon="4.76051">
        <ele>170</ele>
        <time>2018-09-28T09:31:50Z</time>
      </trkpt>
      <trkpt lat="45.93599" lon="4.76041">
        <ele>170</ele>
        <time>2018-09-28T09:31:52Z</time>
      </trkpt>
      <trkpt lat="45.93596" lon="4.76037">
        <ele>170</ele>
        <time>2018-09-28T09:31:53Z</time>
      </trkpt>
      <trkpt lat="45.93593" lon="4.76031">
        <ele>170</ele>
        <time>2018-09-28T09:31:54Z</time>
      </trkpt>
      <trkpt lat="45.9359" lon="4.76022">
        <ele>171</ele>
        <time>2018-09-28T09:31:55Z</time>
      </trkpt>
      <trkpt lat="45.93586" lon="4.76012">
        <ele>171</ele>
        <time>2018-09-28T09:31:57Z</time>
      </trkpt>
      <trkpt lat="45.93586" lon="4.76009">
        <ele>171</ele>
        <time>2018-09-28T09:31:58Z</time>
      </trkpt>
      <trkpt lat="45.93583" lon="4.75998">
        <ele>172</ele>
        <time>2018-09-28T09:32:00Z</time>
      </trkpt>
      <trkpt lat="45.93579" lon="4.75989">
        <ele>171</ele>
        <time>2018-09-28T09:32:01Z</time>
      </trkpt>
      <trkpt lat="45.93574" lon="4.75978">
        <ele>170</ele>
        <time>2018-09-28T09:32:04Z</time>
      </trkpt>
      <trkpt lat="45.93572" lon="4.7597">
        <ele>170</ele>
        <time>2018-09-28T09:32:05Z</time>
      </trkpt>
      <trkpt lat="45.93568" lon="4.7596">
        <ele>169</ele>
        <time>2018-09-28T09:32:07Z</time>
      </trkpt>
      <trkpt lat="45.93567" lon="4.75952">
        <ele>169</ele>
        <time>2018-09-28T09:32:08Z</time>
      </trkpt>
      <trkpt lat="45.93563" lon="4.75941">
        <ele>169</ele>
        <time>2018-09-28T09:32:10Z</time>
      </trkpt>
      <trkpt lat="45.9356" lon="4.75936">
        <ele>169</ele>
        <time>2018-09-28T09:32:11Z</time>
      </trkpt>
      <trkpt lat="45.93556" lon="4.75929">
        <ele>169</ele>
        <time>2018-09-28T09:32:13Z</time>
      </trkpt>
      <trkpt lat="45.93554" lon="4.7592">
        <ele>169</ele>
        <time>2018-09-28T09:32:14Z</time>
      </trkpt>
      <trkpt lat="45.93549" lon="4.75912">
        <ele>169</ele>
        <time>2018-09-28T09:32:17Z</time>
      </trkpt>
      <trkpt lat="45.93548" lon="4.7591">
        <ele>169</ele>
        <time>2018-09-28T09:32:18Z</time>
      </trkpt>
      <trkpt lat="45.93546" lon="4.75907">
        <ele>169</ele>
        <time>2018-09-28T09:32:19Z</time>
      </trkpt>
      <trkpt lat="45.93543" lon="4.75897">
        <ele>169</ele>
        <time>2018-09-28T09:32:20Z</time>
      </trkpt>
      <trkpt lat="45.93541" lon="4.75892">
        <ele>169</ele>
        <time>2018-09-28T09:32:22Z</time>
      </trkpt>
      <trkpt lat="45.93538" lon="4.75882">
        <ele>169</ele>
        <time>2018-09-28T09:32:23Z</time>
      </trkpt>
      <trkpt lat="45.93536" lon="4.75871">
        <ele>169</ele>
        <time>2018-09-28T09:32:25Z</time>
      </trkpt>
      <trkpt lat="45.93535" lon="4.75869">
        <ele>169</ele>
        <time>2018-09-28T09:32:26Z</time>
      </trkpt>
      <trkpt lat="45.93532" lon="4.75859">
        <ele>168</ele>
        <time>2018-09-28T09:32:28Z</time>
      </trkpt>
      <trkpt lat="45.93532" lon="4.75856">
        <ele>168</ele>
        <time>2018-09-28T09:32:29Z</time>
      </trkpt>
      <trkpt lat="45.93534" lon="4.75845">
        <ele>169</ele>
        <time>2018-09-28T09:32:31Z</time>
      </trkpt>
      <trkpt lat="45.93534" lon="4.75836">
        <ele>169</ele>
        <time>2018-09-28T09:32:32Z</time>
      </trkpt>
      <trkpt lat="45.93535" lon="4.75825">
        <ele>169</ele>
        <time>2018-09-28T09:32:35Z</time>
      </trkpt>
      <trkpt lat="45.93535" lon="4.75822">
        <ele>169</ele>
        <time>2018-09-28T09:32:36Z</time>
      </trkpt>
      <trkpt lat="45.93535" lon="4.75815">
        <ele>169</ele>
        <time>2018-09-28T09:32:38Z</time>
      </trkpt>
      <trkpt lat="45.93536" lon="4.75803">
        <ele>169</ele>
        <time>2018-09-28T09:32:39Z</time>
      </trkpt>
      <trkpt lat="45.93537" lon="4.75793">
        <ele>170</ele>
        <time>2018-09-28T09:32:43Z</time>
      </trkpt>
      <trkpt lat="45.93538" lon="4.7579">
        <ele>170</ele>
        <time>2018-09-28T09:32:44Z</time>
      </trkpt>
      <trkpt lat="45.9354" lon="4.75778">
        <ele>170</ele>
        <time>2018-09-28T09:32:47Z</time>
      </trkpt>
      <trkpt lat="45.9354" lon="4.75773">
        <ele>170</ele>
        <time>2018-09-28T09:32:48Z</time>
      </trkpt>
      <trkpt lat="45.93541" lon="4.75765">
        <ele>170</ele>
        <time>2018-09-28T09:32:50Z</time>
      </trkpt>
      <trkpt lat="45.93541" lon="4.7576">
        <ele>170</ele>
        <time>2018-09-28T09:32:51Z</time>
      </trkpt>
      <trkpt lat="45.93542" lon="4.75751">
        <ele>170</ele>
        <time>2018-09-28T09:32:53Z</time>
      </trkpt>
      <trkpt lat="45.93544" lon="4.75732">
        <ele>170</ele>
        <time>2018-09-28T09:32:54Z</time>
      </trkpt>
      <trkpt lat="45.93545" lon="4.75729">
        <ele>170</ele>
        <time>2018-09-28T09:32:55Z</time>
      </trkpt>
      <trkpt lat="45.93547" lon="4.75719">
        <ele>170</ele>
        <time>2018-09-28T09:32:56Z</time>
      </trkpt>
      <trkpt lat="45.93548" lon="4.75711">
        <ele>170</ele>
        <time>2018-09-28T09:32:57Z</time>
      </trkpt>
      <trkpt lat="45.9355" lon="4.75703">
        <ele>170</ele>
        <time>2018-09-28T09:32:58Z</time>
      </trkpt>
      <trkpt lat="45.93552" lon="4.75692">
        <ele>171</ele>
        <time>2018-09-28T09:33:01Z</time>
      </trkpt>
      <trkpt lat="45.93553" lon="4.75687">
        <ele>171</ele>
        <time>2018-09-28T09:33:02Z</time>
      </trkpt>
      <trkpt lat="45.93552" lon="4.75662">
        <ele>170</ele>
        <time>2018-09-28T09:33:03Z</time>
      </trkpt>
      <trkpt lat="45.93554" lon="4.75656">
        <ele>170</ele>
        <time>2018-09-28T09:33:04Z</time>
      </trkpt>
      <trkpt lat="45.93556" lon="4.75647">
        <ele>170</ele>
        <time>2018-09-28T09:33:05Z</time>
      </trkpt>
      <trkpt lat="45.93558" lon="4.75639">
        <ele>170</ele>
        <time>2018-09-28T09:33:06Z</time>
      </trkpt>
      <trkpt lat="45.93559" lon="4.75633">
        <ele>170</ele>
        <time>2018-09-28T09:33:07Z</time>
      </trkpt>
      <trkpt lat="45.9356" lon="4.75627">
        <ele>170</ele>
        <time>2018-09-28T09:33:08Z</time>
      </trkpt>
      <trkpt lat="45.93561" lon="4.75618">
        <ele>170</ele>
        <time>2018-09-28T09:33:09Z</time>
      </trkpt>
      <trkpt lat="45.93562" lon="4.7561">
        <ele>170</ele>
        <time>2018-09-28T09:33:10Z</time>
      </trkpt>
      <trkpt lat="45.93561" lon="4.75604">
        <ele>170</ele>
        <time>2018-09-28T09:33:11Z</time>
      </trkpt>
      <trkpt lat="45.93565" lon="4.75599">
        <ele>170</ele>
        <time>2018-09-28T09:33:12Z</time>
      </trkpt>
      <trkpt lat="45.93568" lon="4.75594">
        <ele>171</ele>
        <time>2018-09-28T09:33:13Z</time>
      </trkpt>
      <trkpt lat="45.93569" lon="4.75587">
        <ele>171</ele>
        <time>2018-09-28T09:33:15Z</time>
      </trkpt>
      <trkpt lat="45.93571" lon="4.75577">
        <ele>170</ele>
        <time>2018-09-28T09:33:16Z</time>
      </trkpt>
      <trkpt lat="45.93572" lon="4.75566">
        <ele>170</ele>
        <time>2018-09-28T09:33:18Z</time>
      </trkpt>
      <trkpt lat="45.93573" lon="4.75554">
        <ele>170</ele>
        <time>2018-09-28T09:33:19Z</time>
      </trkpt>
      <trkpt lat="45.93573" lon="4.75548">
        <ele>169</ele>
        <time>2018-09-28T09:33:20Z</time>
      </trkpt>
      <trkpt lat="45.93573" lon="4.7554">
        <ele>169</ele>
        <time>2018-09-28T09:33:21Z</time>
      </trkpt>
      <trkpt lat="45.93576" lon="4.7553">
        <ele>169</ele>
        <time>2018-09-28T09:33:23Z</time>
      </trkpt>
      <trkpt lat="45.93577" lon="4.75521">
        <ele>169</ele>
        <time>2018-09-28T09:33:24Z</time>
      </trkpt>
      <trkpt lat="45.93578" lon="4.75508">
        <ele>170</ele>
        <time>2018-09-28T09:33:26Z</time>
      </trkpt>
      <trkpt lat="45.93578" lon="4.75505">
        <ele>170</ele>
        <time>2018-09-28T09:33:27Z</time>
      </trkpt>
      <trkpt lat="45.93579" lon="4.75495">
        <ele>169</ele>
        <time>2018-09-28T09:33:30Z</time>
      </trkpt>
      <trkpt lat="45.93581" lon="4.75482">
        <ele>169</ele>
        <time>2018-09-28T09:33:31Z</time>
      </trkpt>
      <trkpt lat="45.93581" lon="4.7547">
        <ele>168</ele>
        <time>2018-09-28T09:33:33Z</time>
      </trkpt>
      <trkpt lat="45.93582" lon="4.75462">
        <ele>168</ele>
        <time>2018-09-28T09:33:34Z</time>
      </trkpt>
      <trkpt lat="45.93583" lon="4.75456">
        <ele>168</ele>
        <time>2018-09-28T09:33:35Z</time>
      </trkpt>
      <trkpt lat="45.93583" lon="4.75447">
        <ele>168</ele>
        <time>2018-09-28T09:33:36Z</time>
      </trkpt>
      <trkpt lat="45.93584" lon="4.7544">
        <ele>169</ele>
        <time>2018-09-28T09:33:37Z</time>
      </trkpt>
      <trkpt lat="45.93589" lon="4.75433">
        <ele>169</ele>
        <time>2018-09-28T09:33:38Z</time>
      </trkpt>
      <trkpt lat="45.93591" lon="4.75423">
        <ele>168</ele>
        <time>2018-09-28T09:33:42Z</time>
      </trkpt>
      <trkpt lat="45.93594" lon="4.75411">
        <ele>168</ele>
        <time>2018-09-28T09:33:43Z</time>
      </trkpt>
      <trkpt lat="45.93595" lon="4.754">
        <ele>169</ele>
        <time>2018-09-28T09:33:47Z</time>
      </trkpt>
      <trkpt lat="45.93596" lon="4.75397">
        <ele>169</ele>
        <time>2018-09-28T09:33:48Z</time>
      </trkpt>
      <trkpt lat="45.93598" lon="4.75387">
        <ele>169</ele>
        <time>2018-09-28T09:33:51Z</time>
      </trkpt>
      <trkpt lat="45.93599" lon="4.75383">
        <ele>169</ele>
        <time>2018-09-28T09:33:52Z</time>
      </trkpt>
      <trkpt lat="45.936" lon="4.75379">
        <ele>169</ele>
        <time>2018-09-28T09:33:53Z</time>
      </trkpt>
      <trkpt lat="45.93603" lon="4.75363">
        <ele>169</ele>
        <time>2018-09-28T09:33:54Z</time>
      </trkpt>
      <trkpt lat="45.93604" lon="4.75357">
        <ele>169</ele>
        <time>2018-09-28T09:33:55Z</time>
      </trkpt>
      <trkpt lat="45.93607" lon="4.75346">
        <ele>169</ele>
        <time>2018-09-28T09:33:56Z</time>
      </trkpt>
      <trkpt lat="45.93608" lon="4.75338">
        <ele>169</ele>
        <time>2018-09-28T09:33:58Z</time>
      </trkpt>
      <trkpt lat="45.93609" lon="4.75333">
        <ele>169</ele>
        <time>2018-09-28T09:33:59Z</time>
      </trkpt>
      <trkpt lat="45.9361" lon="4.75328">
        <ele>169</ele>
        <time>2018-09-28T09:34:00Z</time>
      </trkpt>
      <trkpt lat="45.93612" lon="4.75313">
        <ele>169</ele>
        <time>2018-09-28T09:34:01Z</time>
      </trkpt>
      <trkpt lat="45.93613" lon="4.75308">
        <ele>169</ele>
        <time>2018-09-28T09:34:02Z</time>
      </trkpt>
      <trkpt lat="45.93614" lon="4.75301">
        <ele>168</ele>
        <time>2018-09-28T09:34:03Z</time>
      </trkpt>
      <trkpt lat="45.93616" lon="4.75295">
        <ele>168</ele>
        <time>2018-09-28T09:34:04Z</time>
      </trkpt>
      <trkpt lat="45.93618" lon="4.75288">
        <ele>168</ele>
        <time>2018-09-28T09:34:05Z</time>
      </trkpt>
      <trkpt lat="45.93619" lon="4.7528">
        <ele>168</ele>
        <time>2018-09-28T09:34:06Z</time>
      </trkpt>
      <trkpt lat="45.9362" lon="4.75273">
        <ele>168</ele>
        <time>2018-09-28T09:34:07Z</time>
      </trkpt>
      <trkpt lat="45.93621" lon="4.75264">
        <ele>168</ele>
        <time>2018-09-28T09:34:08Z</time>
      </trkpt>
      <trkpt lat="45.93622" lon="4.75258">
        <ele>168</ele>
        <time>2018-09-28T09:34:09Z</time>
      </trkpt>
      <trkpt lat="45.93624" lon="4.75249">
        <ele>167</ele>
        <time>2018-09-28T09:34:11Z</time>
      </trkpt>
      <trkpt lat="45.93625" lon="4.7524">
        <ele>167</ele>
        <time>2018-09-28T09:34:12Z</time>
      </trkpt>
      <trkpt lat="45.93627" lon="4.7523">
        <ele>167</ele>
        <time>2018-09-28T09:34:13Z</time>
      </trkpt>
      <trkpt lat="45.93628" lon="4.75228">
        <ele>167</ele>
        <time>2018-09-28T09:34:14Z</time>
      </trkpt>
      <trkpt lat="45.9363" lon="4.75219">
        <ele>168</ele>
        <time>2018-09-28T09:34:16Z</time>
      </trkpt>
      <trkpt lat="45.93631" lon="4.75214">
        <ele>168</ele>
        <time>2018-09-28T09:34:17Z</time>
      </trkpt>
      <trkpt lat="45.93631" lon="4.75209">
        <ele>168</ele>
        <time>2018-09-28T09:34:18Z</time>
      </trkpt>
      <trkpt lat="45.93634" lon="4.75196">
        <ele>168</ele>
        <time>2018-09-28T09:34:19Z</time>
      </trkpt>
      <trkpt lat="45.93636" lon="4.75188">
        <ele>168</ele>
        <time>2018-09-28T09:34:21Z</time>
      </trkpt>
      <trkpt lat="45.9364" lon="4.7518">
        <ele>168</ele>
        <time>2018-09-28T09:34:22Z</time>
      </trkpt>
      <trkpt lat="45.93643" lon="4.75173">
        <ele>168</ele>
        <time>2018-09-28T09:34:24Z</time>
      </trkpt>
      <trkpt lat="45.93645" lon="4.75167">
        <ele>169</ele>
        <time>2018-09-28T09:34:25Z</time>
      </trkpt>
      <trkpt lat="45.93648" lon="4.75162">
        <ele>168</ele>
        <time>2018-09-28T09:34:26Z</time>
      </trkpt>
      <trkpt lat="45.93651" lon="4.75157">
        <ele>168</ele>
        <time>2018-09-28T09:34:27Z</time>
      </trkpt>
      <trkpt lat="45.93654" lon="4.7515">
        <ele>168</ele>
        <time>2018-09-28T09:34:29Z</time>
      </trkpt>
      <trkpt lat="45.93656" lon="4.75134">
        <ele>168</ele>
        <time>2018-09-28T09:34:30Z</time>
      </trkpt>
      <trkpt lat="45.93662" lon="4.75125">
        <ele>168</ele>
        <time>2018-09-28T09:34:32Z</time>
      </trkpt>
      <trkpt lat="45.93665" lon="4.75119">
        <ele>168</ele>
        <time>2018-09-28T09:34:33Z</time>
      </trkpt>
      <trkpt lat="45.93668" lon="4.75113">
        <ele>168</ele>
        <time>2018-09-28T09:34:34Z</time>
      </trkpt>
      <trkpt lat="45.9367" lon="4.75107">
        <ele>168</ele>
        <time>2018-09-28T09:34:35Z</time>
      </trkpt>
      <trkpt lat="45.93675" lon="4.75098">
        <ele>168</ele>
        <time>2018-09-28T09:34:39Z</time>
      </trkpt>
      <trkpt lat="45.93677" lon="4.75094">
        <ele>168</ele>
        <time>2018-09-28T09:34:40Z</time>
      </trkpt>
      <trkpt lat="45.93682" lon="4.75083">
        <ele>167</ele>
        <time>2018-09-28T09:34:43Z</time>
      </trkpt>
      <trkpt lat="45.93684" lon="4.7508">
        <ele>167</ele>
        <time>2018-09-28T09:34:44Z</time>
      </trkpt>
      <trkpt lat="45.93691" lon="4.75068">
        <ele>167</ele>
        <time>2018-09-28T09:34:45Z</time>
      </trkpt>
      <trkpt lat="45.93693" lon="4.75062">
        <ele>167</ele>
        <time>2018-09-28T09:34:46Z</time>
      </trkpt>
      <trkpt lat="45.93696" lon="4.75056">
        <ele>167</ele>
        <time>2018-09-28T09:34:47Z</time>
      </trkpt>
      <trkpt lat="45.93701" lon="4.75045">
        <ele>167</ele>
        <time>2018-09-28T09:34:48Z</time>
      </trkpt>
      <trkpt lat="45.93705" lon="4.75037">
        <ele>167</ele>
        <time>2018-09-28T09:34:49Z</time>
      </trkpt>
      <trkpt lat="45.93706" lon="4.75034">
        <ele>167</ele>
        <time>2018-09-28T09:34:50Z</time>
      </trkpt>
      <trkpt lat="45.93711" lon="4.75024">
        <ele>167</ele>
        <time>2018-09-28T09:34:51Z</time>
      </trkpt>
      <trkpt lat="45.93716" lon="4.75017">
        <ele>167</ele>
        <time>2018-09-28T09:34:52Z</time>
      </trkpt>
      <trkpt lat="45.93719" lon="4.75008">
        <ele>168</ele>
        <time>2018-09-28T09:34:54Z</time>
      </trkpt>
      <trkpt lat="45.93723" lon="4.75001">
        <ele>168</ele>
        <time>2018-09-28T09:34:55Z</time>
      </trkpt>
      <trkpt lat="45.93727" lon="4.74992">
        <ele>168</ele>
        <time>2018-09-28T09:34:57Z</time>
      </trkpt>
      <trkpt lat="45.93733" lon="4.74983">
        <ele>168</ele>
        <time>2018-09-28T09:34:58Z</time>
      </trkpt>
      <trkpt lat="45.93736" lon="4.74976">
        <ele>168</ele>
        <time>2018-09-28T09:34:59Z</time>
      </trkpt>
      <trkpt lat="45.93738" lon="4.7497">
        <ele>169</ele>
        <time>2018-09-28T09:35:00Z</time>
      </trkpt>
      <trkpt lat="45.93741" lon="4.74965">
        <ele>169</ele>
        <time>2018-09-28T09:35:01Z</time>
      </trkpt>
      <trkpt lat="45.93743" lon="4.74958">
        <ele>169</ele>
        <time>2018-09-28T09:35:02Z</time>
      </trkpt>
      <trkpt lat="45.93745" lon="4.74952">
        <ele>169</ele>
        <time>2018-09-28T09:35:03Z</time>
      </trkpt>
      <trkpt lat="45.93748" lon="4.74946">
        <ele>169</ele>
        <time>2018-09-28T09:35:04Z</time>
      </trkpt>
      <trkpt lat="45.9375" lon="4.74939">
        <ele>169</ele>
        <time>2018-09-28T09:35:06Z</time>
      </trkpt>
      <trkpt lat="45.93752" lon="4.74933">
        <ele>170</ele>
        <time>2018-09-28T09:35:07Z</time>
      </trkpt>
      <trkpt lat="45.93756" lon="4.74922">
        <ele>171</ele>
        <time>2018-09-28T09:35:09Z</time>
      </trkpt>
      <trkpt lat="45.93758" lon="4.74916">
        <ele>170</ele>
        <time>2018-09-28T09:35:10Z</time>
      </trkpt>
      <trkpt lat="45.93761" lon="4.7491">
        <ele>170</ele>
        <time>2018-09-28T09:35:11Z</time>
      </trkpt>
      <trkpt lat="45.93765" lon="4.74903">
        <ele>170</ele>
        <time>2018-09-28T09:35:12Z</time>
      </trkpt>
      <trkpt lat="45.93768" lon="4.74897">
        <ele>169</ele>
        <time>2018-09-28T09:35:13Z</time>
      </trkpt>
      <trkpt lat="45.93771" lon="4.74892">
        <ele>169</ele>
        <time>2018-09-28T09:35:14Z</time>
      </trkpt>
      <trkpt lat="45.93774" lon="4.74886">
        <ele>169</ele>
        <time>2018-09-28T09:35:15Z</time>
      </trkpt>
      <trkpt lat="45.93778" lon="4.74881">
        <ele>169</ele>
        <time>2018-09-28T09:35:16Z</time>
      </trkpt>
      <trkpt lat="45.93782" lon="4.74877">
        <ele>169</ele>
        <time>2018-09-28T09:35:18Z</time>
      </trkpt>
      <trkpt lat="45.93785" lon="4.74872">
        <ele>168</ele>
        <time>2018-09-28T09:35:19Z</time>
      </trkpt>
      <trkpt lat="45.93788" lon="4.74867">
        <ele>168</ele>
        <time>2018-09-28T09:35:20Z</time>
      </trkpt>
      <trkpt lat="45.93792" lon="4.74863">
        <ele>168</ele>
        <time>2018-09-28T09:35:21Z</time>
      </trkpt>
      <trkpt lat="45.93798" lon="4.74853">
        <ele>168</ele>
        <time>2018-09-28T09:35:23Z</time>
      </trkpt>
      <trkpt lat="45.93801" lon="4.74846">
        <ele>168</ele>
        <time>2018-09-28T09:35:24Z</time>
      </trkpt>
      <trkpt lat="45.93805" lon="4.74835">
        <ele>168</ele>
        <time>2018-09-28T09:35:26Z</time>
      </trkpt>
      <trkpt lat="45.93809" lon="4.74828">
        <ele>167</ele>
        <time>2018-09-28T09:35:27Z</time>
      </trkpt>
      <trkpt lat="45.93812" lon="4.74823">
        <ele>167</ele>
        <time>2018-09-28T09:35:29Z</time>
      </trkpt>
      <trkpt lat="45.93815" lon="4.74814">
        <ele>167</ele>
        <time>2018-09-28T09:35:30Z</time>
      </trkpt>
      <trkpt lat="45.9382" lon="4.74805">
        <ele>167</ele>
        <time>2018-09-28T09:35:32Z</time>
      </trkpt>
      <trkpt lat="45.93822" lon="4.74798">
        <ele>167</ele>
        <time>2018-09-28T09:35:33Z</time>
      </trkpt>
      <trkpt lat="45.93827" lon="4.7479">
        <ele>167</ele>
        <time>2018-09-28T09:35:36Z</time>
      </trkpt>
      <trkpt lat="45.93832" lon="4.74781">
        <ele>167</ele>
        <time>2018-09-28T09:35:37Z</time>
      </trkpt>
      <trkpt lat="45.93835" lon="4.7477">
        <ele>168</ele>
        <time>2018-09-28T09:35:38Z</time>
      </trkpt>
      <trkpt lat="45.93836" lon="4.74767">
        <ele>168</ele>
        <time>2018-09-28T09:35:39Z</time>
      </trkpt>
      <trkpt lat="45.9384" lon="4.74757">
        <ele>168</ele>
        <time>2018-09-28T09:35:43Z</time>
      </trkpt>
      <trkpt lat="45.93842" lon="4.74754">
        <ele>168</ele>
        <time>2018-09-28T09:35:44Z</time>
      </trkpt>
      <trkpt lat="45.93845" lon="4.7474">
        <ele>169</ele>
        <time>2018-09-28T09:35:45Z</time>
      </trkpt>
      <trkpt lat="45.93847" lon="4.74734">
        <ele>169</ele>
        <time>2018-09-28T09:35:46Z</time>
      </trkpt>
      <trkpt lat="45.9385" lon="4.74729">
        <ele>169</ele>
        <time>2018-09-28T09:35:47Z</time>
      </trkpt>
      <trkpt lat="45.93854" lon="4.74722">
        <ele>169</ele>
        <time>2018-09-28T09:35:48Z</time>
      </trkpt>
      <trkpt lat="45.93861" lon="4.7471">
        <ele>169</ele>
        <time>2018-09-28T09:35:49Z</time>
      </trkpt>
      <trkpt lat="45.93867" lon="4.74702">
        <ele>169</ele>
        <time>2018-09-28T09:35:51Z</time>
      </trkpt>
      <trkpt lat="45.93868" lon="4.74701">
        <ele>169</ele>
        <time>2018-09-28T09:35:52Z</time>
      </trkpt>
      <trkpt lat="45.93869" lon="4.74695">
        <ele>169</ele>
        <time>2018-09-28T09:35:54Z</time>
      </trkpt>
      <trkpt lat="45.93874" lon="4.74683">
        <ele>170</ele>
        <time>2018-09-28T09:35:55Z</time>
      </trkpt>
      <trkpt lat="45.93878" lon="4.74673">
        <ele>170</ele>
        <time>2018-09-28T09:35:57Z</time>
      </trkpt>
      <trkpt lat="45.9388" lon="4.74667">
        <ele>170</ele>
        <time>2018-09-28T09:35:58Z</time>
      </trkpt>
      <trkpt lat="45.93884" lon="4.74658">
        <ele>170</ele>
        <time>2018-09-28T09:35:59Z</time>
      </trkpt>
      <trkpt lat="45.93884" lon="4.74651">
        <ele>170</ele>
        <time>2018-09-28T09:36:00Z</time>
      </trkpt>
      <trkpt lat="45.93887" lon="4.7464">
        <ele>170</ele>
        <time>2018-09-28T09:36:02Z</time>
      </trkpt>
      <trkpt lat="45.93889" lon="4.74633">
        <ele>170</ele>
        <time>2018-09-28T09:36:03Z</time>
      </trkpt>
      <trkpt lat="45.93892" lon="4.74626">
        <ele>170</ele>
        <time>2018-09-28T09:36:05Z</time>
      </trkpt>
      <trkpt lat="45.93894" lon="4.74618">
        <ele>170</ele>
        <time>2018-09-28T09:36:06Z</time>
      </trkpt>
      <trkpt lat="45.93896" lon="4.74608">
        <ele>170</ele>
        <time>2018-09-28T09:36:08Z</time>
      </trkpt>
      <trkpt lat="45.93897" lon="4.74602">
        <ele>170</ele>
        <time>2018-09-28T09:36:09Z</time>
      </trkpt>
      <trkpt lat="45.939" lon="4.74591">
        <ele>170</ele>
        <time>2018-09-28T09:36:11Z</time>
      </trkpt>
      <trkpt lat="45.93901" lon="4.74585">
        <ele>170</ele>
        <time>2018-09-28T09:36:12Z</time>
      </trkpt>
      <trkpt lat="45.93901" lon="4.74577">
        <ele>170</ele>
        <time>2018-09-28T09:36:13Z</time>
      </trkpt>
      <trkpt lat="45.93903" lon="4.74571">
        <ele>170</ele>
        <time>2018-09-28T09:36:14Z</time>
      </trkpt>
      <trkpt lat="45.93904" lon="4.7456">
        <ele>170</ele>
        <time>2018-09-28T09:36:16Z</time>
      </trkpt>
      <trkpt lat="45.93905" lon="4.74555">
        <ele>170</ele>
        <time>2018-09-28T09:36:17Z</time>
      </trkpt>
      <trkpt lat="45.93908" lon="4.74544">
        <ele>170</ele>
        <time>2018-09-28T09:36:19Z</time>
      </trkpt>
      <trkpt lat="45.9391" lon="4.74538">
        <ele>170</ele>
        <time>2018-09-28T09:36:20Z</time>
      </trkpt>
      <trkpt lat="45.93912" lon="4.74531">
        <ele>170</ele>
        <time>2018-09-28T09:36:21Z</time>
      </trkpt>
      <trkpt lat="45.93911" lon="4.74523">
        <ele>170</ele>
        <time>2018-09-28T09:36:22Z</time>
      </trkpt>
      <trkpt lat="45.93912" lon="4.74512">
        <ele>170</ele>
        <time>2018-09-28T09:36:24Z</time>
      </trkpt>
      <trkpt lat="45.93913" lon="4.74505">
        <ele>170</ele>
        <time>2018-09-28T09:36:25Z</time>
      </trkpt>
      <trkpt lat="45.93913" lon="4.74492">
        <ele>170</ele>
        <time>2018-09-28T09:36:28Z</time>
      </trkpt>
      <trkpt lat="45.93914" lon="4.74489">
        <ele>170</ele>
        <time>2018-09-28T09:36:29Z</time>
      </trkpt>
      <trkpt lat="45.93914" lon="4.7448">
        <ele>171</ele>
        <time>2018-09-28T09:36:31Z</time>
      </trkpt>
      <trkpt lat="45.93915" lon="4.74476">
        <ele>171</ele>
        <time>2018-09-28T09:36:32Z</time>
      </trkpt>
      <trkpt lat="45.93916" lon="4.74472">
        <ele>171</ele>
        <time>2018-09-28T09:36:33Z</time>
      </trkpt>
      <trkpt lat="45.93916" lon="4.74456">
        <ele>171</ele>
        <time>2018-09-28T09:36:34Z</time>
      </trkpt>
      <trkpt lat="45.93916" lon="4.74445">
        <ele>171</ele>
        <time>2018-09-28T09:36:36Z</time>
      </trkpt>
      <trkpt lat="45.93916" lon="4.74439">
        <ele>171</ele>
        <time>2018-09-28T09:36:37Z</time>
      </trkpt>
      <trkpt lat="45.93916" lon="4.74432">
        <ele>171</ele>
        <time>2018-09-28T09:36:38Z</time>
      </trkpt>
      <trkpt lat="45.93915" lon="4.74426">
        <ele>171</ele>
        <time>2018-09-28T09:36:39Z</time>
      </trkpt>
      <trkpt lat="45.93916" lon="4.74415">
        <ele>171</ele>
        <time>2018-09-28T09:36:41Z</time>
      </trkpt>
      <trkpt lat="45.93912" lon="4.74407">
        <ele>171</ele>
        <time>2018-09-28T09:36:42Z</time>
      </trkpt>
      <trkpt lat="45.93913" lon="4.74397">
        <ele>171</ele>
        <time>2018-09-28T09:36:44Z</time>
      </trkpt>
      <trkpt lat="45.93913" lon="4.74394">
        <ele>171</ele>
        <time>2018-09-28T09:36:45Z</time>
      </trkpt>
      <trkpt lat="45.93913" lon="4.74388">
        <ele>171</ele>
        <time>2018-09-28T09:36:47Z</time>
      </trkpt>
      <trkpt lat="45.93913" lon="4.74376">
        <ele>171</ele>
        <time>2018-09-28T09:36:48Z</time>
      </trkpt>
      <trkpt lat="45.93914" lon="4.74365">
        <ele>171</ele>
        <time>2018-09-28T09:36:50Z</time>
      </trkpt>
      <trkpt lat="45.93914" lon="4.74358">
        <ele>171</ele>
        <time>2018-09-28T09:36:51Z</time>
      </trkpt>
      <trkpt lat="45.93912" lon="4.74352">
        <ele>171</ele>
        <time>2018-09-28T09:36:52Z</time>
      </trkpt>
      <trkpt lat="45.93912" lon="4.74345">
        <ele>170</ele>
        <time>2018-09-28T09:36:53Z</time>
      </trkpt>
      <trkpt lat="45.9391" lon="4.74332">
        <ele>170</ele>
        <time>2018-09-28T09:36:55Z</time>
      </trkpt>
      <trkpt lat="45.9391" lon="4.74328">
        <ele>170</ele>
        <time>2018-09-28T09:36:56Z</time>
      </trkpt>
      <trkpt lat="45.9391" lon="4.74315">
        <ele>170</ele>
        <time>2018-09-28T09:36:58Z</time>
      </trkpt>
      <trkpt lat="45.9391" lon="4.74313">
        <ele>170</ele>
        <time>2018-09-28T09:36:59Z</time>
      </trkpt>
      <trkpt lat="45.9391" lon="4.74309">
        <ele>170</ele>
        <time>2018-09-28T09:37:00Z</time>
      </trkpt>
      <trkpt lat="45.9391" lon="4.74298">
        <ele>170</ele>
        <time>2018-09-28T09:37:01Z</time>
      </trkpt>
      <trkpt lat="45.9391" lon="4.74291">
        <ele>170</ele>
        <time>2018-09-28T09:37:02Z</time>
      </trkpt>
      <trkpt lat="45.9391" lon="4.74284">
        <ele>170</ele>
        <time>2018-09-28T09:37:03Z</time>
      </trkpt>
      <trkpt lat="45.9391" lon="4.74271">
        <ele>170</ele>
        <time>2018-09-28T09:37:05Z</time>
      </trkpt>
      <trkpt lat="45.9391" lon="4.74265">
        <ele>170</ele>
        <time>2018-09-28T09:37:06Z</time>
      </trkpt>
      <trkpt lat="45.9391" lon="4.74257">
        <ele>170</ele>
        <time>2018-09-28T09:37:07Z</time>
      </trkpt>
      <trkpt lat="45.93912" lon="4.74252">
        <ele>170</ele>
        <time>2018-09-28T09:37:08Z</time>
      </trkpt>
      <trkpt lat="45.93914" lon="4.74241">
        <ele>170</ele>
        <time>2018-09-28T09:37:10Z</time>
      </trkpt>
      <trkpt lat="45.93914" lon="4.74236">
        <ele>170</ele>
        <time>2018-09-28T09:37:11Z</time>
      </trkpt>
      <trkpt lat="45.93914" lon="4.74224">
        <ele>170</ele>
        <time>2018-09-28T09:37:13Z</time>
      </trkpt>
      <trkpt lat="45.93914" lon="4.74221">
        <ele>169</ele>
        <time>2018-09-28T09:37:14Z</time>
      </trkpt>
      <trkpt lat="45.93914" lon="4.74214">
        <ele>169</ele>
        <time>2018-09-28T09:37:16Z</time>
      </trkpt>
      <trkpt lat="45.93914" lon="4.74201">
        <ele>169</ele>
        <time>2018-09-28T09:37:17Z</time>
      </trkpt>
      <trkpt lat="45.93915" lon="4.7419">
        <ele>169</ele>
        <time>2018-09-28T09:37:19Z</time>
      </trkpt>
      <trkpt lat="45.93915" lon="4.74184">
        <ele>169</ele>
        <time>2018-09-28T09:37:20Z</time>
      </trkpt>
      <trkpt lat="45.93915" lon="4.74176">
        <ele>169</ele>
        <time>2018-09-28T09:37:21Z</time>
      </trkpt>
      <trkpt lat="45.93915" lon="4.7417">
        <ele>168</ele>
        <time>2018-09-28T09:37:22Z</time>
      </trkpt>
      <trkpt lat="45.93916" lon="4.74158">
        <ele>169</ele>
        <time>2018-09-28T09:37:24Z</time>
      </trkpt>
      <trkpt lat="45.93916" lon="4.74151">
        <ele>169</ele>
        <time>2018-09-28T09:37:25Z</time>
      </trkpt>
      <trkpt lat="45.93917" lon="4.74139">
        <ele>169</ele>
        <time>2018-09-28T09:37:28Z</time>
      </trkpt>
      <trkpt lat="45.93917" lon="4.74136">
        <ele>169</ele>
        <time>2018-09-28T09:37:29Z</time>
      </trkpt>
      <trkpt lat="45.93918" lon="4.74124">
        <ele>169</ele>
        <time>2018-09-28T09:37:32Z</time>
      </trkpt>
      <trkpt lat="45.93919" lon="4.74109">
        <ele>169</ele>
        <time>2018-09-28T09:37:33Z</time>
      </trkpt>
      <trkpt lat="45.93919" lon="4.74103">
        <ele>169</ele>
        <time>2018-09-28T09:37:34Z</time>
      </trkpt>
      <trkpt lat="45.9392" lon="4.74096">
        <ele>170</ele>
        <time>2018-09-28T09:37:35Z</time>
      </trkpt>
      <trkpt lat="45.93921" lon="4.74083">
        <ele>170</ele>
        <time>2018-09-28T09:37:37Z</time>
      </trkpt>
      <trkpt lat="45.93921" lon="4.74076">
        <ele>170</ele>
        <time>2018-09-28T09:37:38Z</time>
      </trkpt>
      <trkpt lat="45.93922" lon="4.74069">
        <ele>170</ele>
        <time>2018-09-28T09:37:39Z</time>
      </trkpt>
      <trkpt lat="45.93923" lon="4.74063">
        <ele>170</ele>
        <time>2018-09-28T09:37:40Z</time>
      </trkpt>
      <trkpt lat="45.93925" lon="4.74053">
        <ele>171</ele>
        <time>2018-09-28T09:37:42Z</time>
      </trkpt>
      <trkpt lat="45.93926" lon="4.74048">
        <ele>171</ele>
        <time>2018-09-28T09:37:43Z</time>
      </trkpt>
      <trkpt lat="45.93927" lon="4.74035">
        <ele>171</ele>
        <time>2018-09-28T09:37:46Z</time>
      </trkpt>
      <trkpt lat="45.93927" lon="4.74033">
        <ele>171</ele>
        <time>2018-09-28T09:37:47Z</time>
      </trkpt>
      <trkpt lat="45.93928" lon="4.74026">
        <ele>171</ele>
        <time>2018-09-28T09:37:49Z</time>
      </trkpt>
      <trkpt lat="45.93928" lon="4.74011">
        <ele>171</ele>
        <time>2018-09-28T09:37:50Z</time>
      </trkpt>
      <trkpt lat="45.93928" lon="4.74001">
        <ele>172</ele>
        <time>2018-09-28T09:37:52Z</time>
      </trkpt>
      <trkpt lat="45.93929" lon="4.73994">
        <ele>172</ele>
        <time>2018-09-28T09:37:53Z</time>
      </trkpt>
      <trkpt lat="45.9393" lon="4.73983">
        <ele>172</ele>
        <time>2018-09-28T09:37:55Z</time>
      </trkpt>
      <trkpt lat="45.93931" lon="4.73979">
        <ele>172</ele>
        <time>2018-09-28T09:37:56Z</time>
      </trkpt>
      <trkpt lat="45.93935" lon="4.73969">
        <ele>172</ele>
        <time>2018-09-28T09:37:59Z</time>
      </trkpt>
      <trkpt lat="45.93936" lon="4.73966">
        <ele>172</ele>
        <time>2018-09-28T09:38:00Z</time>
      </trkpt>
      <trkpt lat="45.93936" lon="4.73956">
        <ele>172</ele>
        <time>2018-09-28T09:38:03Z</time>
      </trkpt>
      <trkpt lat="45.93937" lon="4.73952">
        <ele>172</ele>
        <time>2018-09-28T09:38:04Z</time>
      </trkpt>
      <trkpt lat="45.93938" lon="4.73939">
        <ele>172</ele>
        <time>2018-09-28T09:38:05Z</time>
      </trkpt>
      <trkpt lat="45.93939" lon="4.73934">
        <ele>172</ele>
        <time>2018-09-28T09:38:06Z</time>
      </trkpt>
      <trkpt lat="45.93941" lon="4.73928">
        <ele>172</ele>
        <time>2018-09-28T09:38:07Z</time>
      </trkpt>
      <trkpt lat="45.93943" lon="4.73922">
        <ele>172</ele>
        <time>2018-09-28T09:38:08Z</time>
      </trkpt>
      <trkpt lat="45.93942" lon="4.73915">
        <ele>172</ele>
        <time>2018-09-28T09:38:09Z</time>
      </trkpt>
      <trkpt lat="45.93944" lon="4.73907">
        <ele>172</ele>
        <time>2018-09-28T09:38:10Z</time>
      </trkpt>
      <trkpt lat="45.93946" lon="4.73895">
        <ele>172</ele>
        <time>2018-09-28T09:38:12Z</time>
      </trkpt>
      <trkpt lat="45.93946" lon="4.73888">
        <ele>172</ele>
        <time>2018-09-28T09:38:13Z</time>
      </trkpt>
      <trkpt lat="45.93948" lon="4.73878">
        <ele>172</ele>
        <time>2018-09-28T09:38:15Z</time>
      </trkpt>
      <trkpt lat="45.93948" lon="4.73875">
        <ele>172</ele>
        <time>2018-09-28T09:38:16Z</time>
      </trkpt>
      <trkpt lat="45.93948" lon="4.73864">
        <ele>172</ele>
        <time>2018-09-28T09:38:17Z</time>
      </trkpt>
      <trkpt lat="45.93948" lon="4.73857">
        <ele>172</ele>
        <time>2018-09-28T09:38:18Z</time>
      </trkpt>
      <trkpt lat="45.93949" lon="4.73851">
        <ele>172</ele>
        <time>2018-09-28T09:38:19Z</time>
      </trkpt>
      <trkpt lat="45.93952" lon="4.73844">
        <ele>172</ele>
        <time>2018-09-28T09:38:20Z</time>
      </trkpt>
      <trkpt lat="45.93953" lon="4.73833">
        <ele>172</ele>
        <time>2018-09-28T09:38:22Z</time>
      </trkpt>
      <trkpt lat="45.93953" lon="4.73828">
        <ele>172</ele>
        <time>2018-09-28T09:38:23Z</time>
      </trkpt>
      <trkpt lat="45.93953" lon="4.73816">
        <ele>172</ele>
        <time>2018-09-28T09:38:26Z</time>
      </trkpt>
      <trkpt lat="45.93953" lon="4.73813">
        <ele>172</ele>
        <time>2018-09-28T09:38:27Z</time>
      </trkpt>
      <trkpt lat="45.93954" lon="4.73807">
        <ele>172</ele>
        <time>2018-09-28T09:38:29Z</time>
      </trkpt>
      <trkpt lat="45.93955" lon="4.73797">
        <ele>172</ele>
        <time>2018-09-28T09:38:30Z</time>
      </trkpt>
      <trkpt lat="45.93958" lon="4.73787">
        <ele>172</ele>
        <time>2018-09-28T09:38:32Z</time>
      </trkpt>
      <trkpt lat="45.93959" lon="4.73781">
        <ele>172</ele>
        <time>2018-09-28T09:38:33Z</time>
      </trkpt>
      <trkpt lat="45.93961" lon="4.73775">
        <ele>172</ele>
        <time>2018-09-28T09:38:34Z</time>
      </trkpt>
      <trkpt lat="45.93961" lon="4.73768">
        <ele>172</ele>
        <time>2018-09-28T09:38:35Z</time>
      </trkpt>
      <trkpt lat="45.93965" lon="4.73758">
        <ele>172</ele>
        <time>2018-09-28T09:38:37Z</time>
      </trkpt>
      <trkpt lat="45.93965" lon="4.73752">
        <ele>172</ele>
        <time>2018-09-28T09:38:38Z</time>
      </trkpt>
      <trkpt lat="45.93967" lon="4.73743">
        <ele>172</ele>
        <time>2018-09-28T09:38:41Z</time>
      </trkpt>
      <trkpt lat="45.93968" lon="4.73731">
        <ele>172</ele>
        <time>2018-09-28T09:38:42Z</time>
      </trkpt>
      <trkpt lat="45.93968" lon="4.73725">
        <ele>172</ele>
        <time>2018-09-28T09:38:43Z</time>
      </trkpt>
      <trkpt lat="45.9397" lon="4.73718">
        <ele>172</ele>
        <time>2018-09-28T09:38:44Z</time>
      </trkpt>
      <trkpt lat="45.93972" lon="4.73706">
        <ele>172</ele>
        <time>2018-09-28T09:38:46Z</time>
      </trkpt>
      <trkpt lat="45.93972" lon="4.737">
        <ele>172</ele>
        <time>2018-09-28T09:38:47Z</time>
      </trkpt>
      <trkpt lat="45.93973" lon="4.73688">
        <ele>172</ele>
        <time>2018-09-28T09:38:50Z</time>
      </trkpt>
      <trkpt lat="45.93973" lon="4.73678">
        <ele>172</ele>
        <time>2018-09-28T09:38:51Z</time>
      </trkpt>
      <trkpt lat="45.93974" lon="4.73667">
        <ele>171</ele>
        <time>2018-09-28T09:38:53Z</time>
      </trkpt>
      <trkpt lat="45.93975" lon="4.7366">
        <ele>171</ele>
        <time>2018-09-28T09:38:54Z</time>
      </trkpt>
      <trkpt lat="45.93977" lon="4.73649">
        <ele>171</ele>
        <time>2018-09-28T09:38:56Z</time>
      </trkpt>
      <trkpt lat="45.93977" lon="4.73643">
        <ele>170</ele>
        <time>2018-09-28T09:38:57Z</time>
      </trkpt>
      <trkpt lat="45.93979" lon="4.73632">
        <ele>170</ele>
        <time>2018-09-28T09:38:59Z</time>
      </trkpt>
      <trkpt lat="45.93979" lon="4.73629">
        <ele>170</ele>
        <time>2018-09-28T09:39:00Z</time>
      </trkpt>
      <trkpt lat="45.93981" lon="4.73618">
        <ele>170</ele>
        <time>2018-09-28T09:39:02Z</time>
      </trkpt>
      <trkpt lat="45.93981" lon="4.73609">
        <ele>170</ele>
        <time>2018-09-28T09:39:03Z</time>
      </trkpt>
      <trkpt lat="45.93983" lon="4.73598">
        <ele>169</ele>
        <time>2018-09-28T09:39:05Z</time>
      </trkpt>
      <trkpt lat="45.93986" lon="4.73592">
        <ele>169</ele>
        <time>2018-09-28T09:39:06Z</time>
      </trkpt>
      <trkpt lat="45.93992" lon="4.73583">
        <ele>168</ele>
        <time>2018-09-28T09:39:08Z</time>
      </trkpt>
      <trkpt lat="45.93994" lon="4.73575">
        <ele>168</ele>
        <time>2018-09-28T09:39:09Z</time>
      </trkpt>
      <trkpt lat="45.93998" lon="4.73565">
        <ele>168</ele>
        <time>2018-09-28T09:39:11Z</time>
      </trkpt>
      <trkpt lat="45.93999" lon="4.73562">
        <ele>168</ele>
        <time>2018-09-28T09:39:12Z</time>
      </trkpt>
      <trkpt lat="45.94001" lon="4.73556">
        <ele>171</ele>
        <time>2018-09-28T09:39:14Z</time>
      </trkpt>
      <trkpt lat="45.94006" lon="4.73544">
        <ele>171</ele>
        <time>2018-09-28T09:39:15Z</time>
      </trkpt>
      <trkpt lat="45.9401" lon="4.73533">
        <ele>171</ele>
        <time>2018-09-28T09:39:17Z</time>
      </trkpt>
      <trkpt lat="45.94012" lon="4.73529">
        <ele>171</ele>
        <time>2018-09-28T09:39:18Z</time>
      </trkpt>
      <trkpt lat="45.94014" lon="4.73522">
        <ele>171</ele>
        <time>2018-09-28T09:39:19Z</time>
      </trkpt>
      <trkpt lat="45.94017" lon="4.73515">
        <ele>171</ele>
        <time>2018-09-28T09:39:20Z</time>
      </trkpt>
      <trkpt lat="45.94021" lon="4.73504">
        <ele>171</ele>
        <time>2018-09-28T09:39:22Z</time>
      </trkpt>
      <trkpt lat="45.94023" lon="4.73502">
        <ele>171</ele>
        <time>2018-09-28T09:39:23Z</time>
      </trkpt>
      <trkpt lat="45.94026" lon="4.73493">
        <ele>170</ele>
        <time>2018-09-28T09:39:25Z</time>
      </trkpt>
      <trkpt lat="45.94029" lon="4.73487">
        <ele>171</ele>
        <time>2018-09-28T09:39:26Z</time>
      </trkpt>
      <trkpt lat="45.94034" lon="4.73478">
        <ele>171</ele>
        <time>2018-09-28T09:39:28Z</time>
      </trkpt>
      <trkpt lat="45.94037" lon="4.73473">
        <ele>171</ele>
        <time>2018-09-28T09:39:29Z</time>
      </trkpt>
      <trkpt lat="45.94039" lon="4.73466">
        <ele>171</ele>
        <time>2018-09-28T09:39:30Z</time>
      </trkpt>
      <trkpt lat="45.94042" lon="4.73461">
        <ele>171</ele>
        <time>2018-09-28T09:39:31Z</time>
      </trkpt>
      <trkpt lat="45.94047" lon="4.7345">
        <ele>171</ele>
        <time>2018-09-28T09:39:33Z</time>
      </trkpt>
      <trkpt lat="45.94049" lon="4.73446">
        <ele>171</ele>
        <time>2018-09-28T09:39:34Z</time>
      </trkpt>
      <trkpt lat="45.94054" lon="4.73438">
        <ele>172</ele>
        <time>2018-09-28T09:39:36Z</time>
      </trkpt>
      <trkpt lat="45.94058" lon="4.73433">
        <ele>172</ele>
        <time>2018-09-28T09:39:37Z</time>
      </trkpt>
      <trkpt lat="45.9406" lon="4.73428">
        <ele>172</ele>
        <time>2018-09-28T09:39:38Z</time>
      </trkpt>
      <trkpt lat="45.94063" lon="4.73422">
        <ele>172</ele>
        <time>2018-09-28T09:39:39Z</time>
      </trkpt>
      <trkpt lat="45.94067" lon="4.73415">
        <ele>172</ele>
        <time>2018-09-28T09:39:40Z</time>
      </trkpt>
      <trkpt lat="45.9407" lon="4.73411">
        <ele>172</ele>
        <time>2018-09-28T09:39:41Z</time>
      </trkpt>
      <trkpt lat="45.94074" lon="4.73406">
        <ele>172</ele>
        <time>2018-09-28T09:39:43Z</time>
      </trkpt>
      <trkpt lat="45.94078" lon="4.73398">
        <ele>171</ele>
        <time>2018-09-28T09:39:44Z</time>
      </trkpt>
      <trkpt lat="45.94084" lon="4.7339">
        <ele>174</ele>
        <time>2018-09-28T09:39:46Z</time>
      </trkpt>
      <trkpt lat="45.94085" lon="4.73388">
        <ele>174</ele>
        <time>2018-09-28T09:39:47Z</time>
      </trkpt>
      <trkpt lat="45.9409" lon="4.7338">
        <ele>174</ele>
        <time>2018-09-28T09:39:49Z</time>
      </trkpt>
      <trkpt lat="45.94093" lon="4.73377">
        <ele>174</ele>
        <time>2018-09-28T09:39:50Z</time>
      </trkpt>
      <trkpt lat="45.941" lon="4.73369">
        <ele>173</ele>
        <time>2018-09-28T09:39:52Z</time>
      </trkpt>
      <trkpt lat="45.94102" lon="4.73365">
        <ele>173</ele>
        <time>2018-09-28T09:39:53Z</time>
      </trkpt>
      <trkpt lat="45.94107" lon="4.73357">
        <ele>173</ele>
        <time>2018-09-28T09:39:55Z</time>
      </trkpt>
      <trkpt lat="45.9411" lon="4.73352">
        <ele>173</ele>
        <time>2018-09-28T09:39:56Z</time>
      </trkpt>
      <trkpt lat="45.94116" lon="4.73343">
        <ele>173</ele>
        <time>2018-09-28T09:39:58Z</time>
      </trkpt>
      <trkpt lat="45.94119" lon="4.73339">
        <ele>173</ele>
        <time>2018-09-28T09:39:59Z</time>
      </trkpt>
      <trkpt lat="45.94124" lon="4.73332">
        <ele>171</ele>
        <time>2018-09-28T09:40:02Z</time>
      </trkpt>
      <trkpt lat="45.94126" lon="4.7333">
        <ele>171</ele>
        <time>2018-09-28T09:40:03Z</time>
      </trkpt>
      <trkpt lat="45.94131" lon="4.73322">
        <ele>171</ele>
        <time>2018-09-28T09:40:06Z</time>
      </trkpt>
      <trkpt lat="45.94133" lon="4.73319">
        <ele>171</ele>
        <time>2018-09-28T09:40:07Z</time>
      </trkpt>
      <trkpt lat="45.9414" lon="4.73309">
        <ele>171</ele>
        <time>2018-09-28T09:40:08Z</time>
      </trkpt>
      <trkpt lat="45.94143" lon="4.73304">
        <ele>171</ele>
        <time>2018-09-28T09:40:09Z</time>
      </trkpt>
      <trkpt lat="45.94147" lon="4.73299">
        <ele>171</ele>
        <time>2018-09-28T09:40:10Z</time>
      </trkpt>
      <trkpt lat="45.94152" lon="4.73291">
        <ele>170</ele>
        <time>2018-09-28T09:40:12Z</time>
      </trkpt>
      <trkpt lat="45.94155" lon="4.73285">
        <ele>170</ele>
        <time>2018-09-28T09:40:13Z</time>
      </trkpt>
      <trkpt lat="45.94158" lon="4.73282">
        <ele>170</ele>
        <time>2018-09-28T09:40:14Z</time>
      </trkpt>
      <trkpt lat="45.94162" lon="4.73278">
        <ele>170</ele>
        <time>2018-09-28T09:40:15Z</time>
      </trkpt>
      <trkpt lat="45.94167" lon="4.73273">
        <ele>170</ele>
        <time>2018-09-28T09:40:16Z</time>
      </trkpt>
      <trkpt lat="45.9417" lon="4.7327">
        <ele>172</ele>
        <time>2018-09-28T09:40:17Z</time>
      </trkpt>
      <trkpt lat="45.94173" lon="4.73266">
        <ele>171</ele>
        <time>2018-09-28T09:40:18Z</time>
      </trkpt>
      <trkpt lat="45.94177" lon="4.73262">
        <ele>171</ele>
        <time>2018-09-28T09:40:19Z</time>
      </trkpt>
      <trkpt lat="45.94183" lon="4.73257">
        <ele>171</ele>
        <time>2018-09-28T09:40:22Z</time>
      </trkpt>
      <trkpt lat="45.94185" lon="4.73255">
        <ele>172</ele>
        <time>2018-09-28T09:40:23Z</time>
      </trkpt>
      <trkpt lat="45.9419" lon="4.73252">
        <ele>172</ele>
        <time>2018-09-28T09:40:25Z</time>
      </trkpt>
      <trkpt lat="45.94198" lon="4.73243">
        <ele>169</ele>
        <time>2018-09-28T09:40:26Z</time>
      </trkpt>
      <trkpt lat="45.94204" lon="4.73239">
        <ele>169</ele>
        <time>2018-09-28T09:40:28Z</time>
      </trkpt>
      <trkpt lat="45.94207" lon="4.73237">
        <ele>169</ele>
        <time>2018-09-28T09:40:29Z</time>
      </trkpt>
      <trkpt lat="45.94212" lon="4.73234">
        <ele>169</ele>
        <time>2018-09-28T09:40:31Z</time>
      </trkpt>
      <trkpt lat="45.94217" lon="4.7323">
        <ele>169</ele>
        <time>2018-09-28T09:40:32Z</time>
      </trkpt>
      <trkpt lat="45.94225" lon="4.73224">
        <ele>169</ele>
        <time>2018-09-28T09:40:36Z</time>
      </trkpt>
      <trkpt lat="45.94227" lon="4.73222">
        <ele>169</ele>
        <time>2018-09-28T09:40:37Z</time>
      </trkpt>
      <trkpt lat="45.94236" lon="4.73216">
        <ele>169</ele>
        <time>2018-09-28T09:40:38Z</time>
      </trkpt>
      <trkpt lat="45.94242" lon="4.73209">
        <ele>169</ele>
        <time>2018-09-28T09:40:40Z</time>
      </trkpt>
      <trkpt lat="45.94244" lon="4.73207">
        <ele>169</ele>
        <time>2018-09-28T09:40:41Z</time>
      </trkpt>
      <trkpt lat="45.9425" lon="4.732">
        <ele>168</ele>
        <time>2018-09-28T09:40:44Z</time>
      </trkpt>
      <trkpt lat="45.94257" lon="4.73194">
        <ele>169</ele>
        <time>2018-09-28T09:40:45Z</time>
      </trkpt>
      <trkpt lat="45.94262" lon="4.73189">
        <ele>169</ele>
        <time>2018-09-28T09:40:48Z</time>
      </trkpt>
      <trkpt lat="45.94265" lon="4.73188">
        <ele>169</ele>
        <time>2018-09-28T09:40:49Z</time>
      </trkpt>
      <trkpt lat="45.94273" lon="4.73182">
        <ele>169</ele>
        <time>2018-09-28T09:40:53Z</time>
      </trkpt>
      <trkpt lat="45.94274" lon="4.73181">
        <ele>169</ele>
        <time>2018-09-28T09:40:54Z</time>
      </trkpt>
      <trkpt lat="45.94283" lon="4.73178">
        <ele>170</ele>
        <time>2018-09-28T09:40:59Z</time>
      </trkpt>
      <trkpt lat="45.94284" lon="4.73177">
        <ele>170</ele>
        <time>2018-09-28T09:41:00Z</time>
      </trkpt>
      <trkpt lat="45.94292" lon="4.7317">
        <ele>170</ele>
        <time>2018-09-28T09:41:01Z</time>
      </trkpt>
      <trkpt lat="45.94299" lon="4.73163">
        <ele>168</ele>
        <time>2018-09-28T09:41:05Z</time>
      </trkpt>
      <trkpt lat="45.94301" lon="4.73161">
        <ele>168</ele>
        <time>2018-09-28T09:41:06Z</time>
      </trkpt>
      <trkpt lat="45.94308" lon="4.73156">
        <ele>168</ele>
        <time>2018-09-28T09:41:09Z</time>
      </trkpt>
      <trkpt lat="45.94311" lon="4.73154">
        <ele>168</ele>
        <time>2018-09-28T09:41:10Z</time>
      </trkpt>
      <trkpt lat="45.9432" lon="4.73148">
        <ele>168</ele>
        <time>2018-09-28T09:41:11Z</time>
      </trkpt>
      <trkpt lat="45.94327" lon="4.73142">
        <ele>168</ele>
        <time>2018-09-28T09:41:15Z</time>
      </trkpt>
      <trkpt lat="45.94329" lon="4.73141">
        <ele>168</ele>
        <time>2018-09-28T09:41:16Z</time>
      </trkpt>
      <trkpt lat="45.94332" lon="4.73138">
        <ele>168</ele>
        <time>2018-09-28T09:41:18Z</time>
      </trkpt>
      <trkpt lat="45.94341" lon="4.73132">
        <ele>169</ele>
        <time>2018-09-28T09:41:19Z</time>
      </trkpt>
      <trkpt lat="45.94349" lon="4.73128">
        <ele>169</ele>
        <time>2018-09-28T09:41:20Z</time>
      </trkpt>
      <trkpt lat="45.94352" lon="4.73122">
        <ele>169</ele>
        <time>2018-09-28T09:41:21Z</time>
      </trkpt>
      <trkpt lat="45.94359" lon="4.73117">
        <ele>169</ele>
        <time>2018-09-28T09:41:23Z</time>
      </trkpt>
      <trkpt lat="45.94363" lon="4.73113">
        <ele>169</ele>
        <time>2018-09-28T09:41:24Z</time>
      </trkpt>
      <trkpt lat="45.9437" lon="4.73106">
        <ele>169</ele>
        <time>2018-09-28T09:41:28Z</time>
      </trkpt>
      <trkpt lat="45.94377" lon="4.731">
        <ele>169</ele>
        <time>2018-09-28T09:41:29Z</time>
      </trkpt>
      <trkpt lat="45.94382" lon="4.73095">
        <ele>169</ele>
        <time>2018-09-28T09:41:32Z</time>
      </trkpt>
      <trkpt lat="45.94388" lon="4.73089">
        <ele>169</ele>
        <time>2018-09-28T09:41:33Z</time>
      </trkpt>
      <trkpt lat="45.94395" lon="4.73081">
        <ele>168</ele>
        <time>2018-09-28T09:41:35Z</time>
      </trkpt>
      <trkpt lat="45.94398" lon="4.73077">
        <ele>168</ele>
        <time>2018-09-28T09:41:36Z</time>
      </trkpt>
      <trkpt lat="45.94404" lon="4.73071">
        <ele>168</ele>
        <time>2018-09-28T09:41:40Z</time>
      </trkpt>
      <trkpt lat="45.94411" lon="4.73065">
        <ele>168</ele>
        <time>2018-09-28T09:41:41Z</time>
      </trkpt>
      <trkpt lat="45.94417" lon="4.73059">
        <ele>169</ele>
        <time>2018-09-28T09:41:43Z</time>
      </trkpt>
      <trkpt lat="45.94422" lon="4.73051">
        <ele>169</ele>
        <time>2018-09-28T09:41:44Z</time>
      </trkpt>
      <trkpt lat="45.94429" lon="4.73044">
        <ele>169</ele>
        <time>2018-09-28T09:41:46Z</time>
      </trkpt>
      <trkpt lat="45.9443" lon="4.73042">
        <ele>169</ele>
        <time>2018-09-28T09:41:47Z</time>
      </trkpt>
      <trkpt lat="45.94436" lon="4.73034">
        <ele>169</ele>
        <time>2018-09-28T09:41:51Z</time>
      </trkpt>
      <trkpt lat="45.94438" lon="4.73031">
        <ele>169</ele>
        <time>2018-09-28T09:41:52Z</time>
      </trkpt>
      <trkpt lat="45.94445" lon="4.73024">
        <ele>169</ele>
        <time>2018-09-28T09:41:55Z</time>
      </trkpt>
      <trkpt lat="45.94447" lon="4.73022">
        <ele>169</ele>
        <time>2018-09-28T09:41:56Z</time>
      </trkpt>
      <trkpt lat="45.94453" lon="4.73017">
        <ele>169</ele>
        <time>2018-09-28T09:41:59Z</time>
      </trkpt>
      <trkpt lat="45.94462" lon="4.73014">
        <ele>169</ele>
        <time>2018-09-28T09:42:00Z</time>
      </trkpt>
      <trkpt lat="45.94471" lon="4.73015">
        <ele>170</ele>
        <time>2018-09-28T09:42:03Z</time>
      </trkpt>
      <trkpt lat="45.94474" lon="4.73015">
        <ele>170</ele>
        <time>2018-09-28T09:42:04Z</time>
      </trkpt>
      <trkpt lat="45.94482" lon="4.73015">
        <ele>170</ele>
        <time>2018-09-28T09:42:07Z</time>
      </trkpt>
      <trkpt lat="45.94485" lon="4.73015">
        <ele>170</ele>
        <time>2018-09-28T09:42:08Z</time>
      </trkpt>
      <trkpt lat="45.94494" lon="4.73015">
        <ele>170</ele>
        <time>2018-09-28T09:42:11Z</time>
      </trkpt>
      <trkpt lat="45.94497" lon="4.73015">
        <ele>170</ele>
        <time>2018-09-28T09:42:12Z</time>
      </trkpt>
      <trkpt lat="45.94505" lon="4.73016">
        <ele>171</ele>
        <time>2018-09-28T09:42:15Z</time>
      </trkpt>
      <trkpt lat="45.94507" lon="4.73016">
        <ele>171</ele>
        <time>2018-09-28T09:42:16Z</time>
      </trkpt>
      <trkpt lat="45.94515" lon="4.73015">
        <ele>171</ele>
        <time>2018-09-28T09:42:19Z</time>
      </trkpt>
      <trkpt lat="45.94517" lon="4.73015">
        <ele>171</ele>
        <time>2018-09-28T09:42:20Z</time>
      </trkpt>
      <trkpt lat="45.94525" lon="4.73013">
        <ele>171</ele>
        <time>2018-09-28T09:42:25Z</time>
      </trkpt>
      <trkpt lat="45.94527" lon="4.73012">
        <ele>171</ele>
        <time>2018-09-28T09:42:26Z</time>
      </trkpt>
      <trkpt lat="45.94535" lon="4.7301">
        <ele>171</ele>
        <time>2018-09-28T09:42:30Z</time>
      </trkpt>
      <trkpt lat="45.94537" lon="4.73012">
        <ele>171</ele>
        <time>2018-09-28T09:42:31Z</time>
      </trkpt>
      <trkpt lat="45.94541" lon="4.7302">
        <ele>171</ele>
        <time>2018-09-28T09:42:34Z</time>
      </trkpt>
      <trkpt lat="45.94543" lon="4.73024">
        <ele>171</ele>
        <time>2018-09-28T09:42:35Z</time>
      </trkpt>
      <trkpt lat="45.94548" lon="4.73033">
        <ele>171</ele>
        <time>2018-09-28T09:42:38Z</time>
      </trkpt>
      <trkpt lat="45.94549" lon="4.73037">
        <ele>171</ele>
        <time>2018-09-28T09:42:39Z</time>
      </trkpt>
      <trkpt lat="45.94549" lon="4.7304">
        <ele>171</ele>
        <time>2018-09-28T09:42:40Z</time>
      </trkpt>
      <trkpt lat="45.94552" lon="4.73053">
        <ele>172</ele>
        <time>2018-09-28T09:42:41Z</time>
      </trkpt>
      <trkpt lat="45.9455" lon="4.73064">
        <ele>172</ele>
        <time>2018-09-28T09:42:45Z</time>
      </trkpt>
      <trkpt lat="45.94549" lon="4.73067">
        <ele>172</ele>
        <time>2018-09-28T09:42:46Z</time>
      </trkpt>
      <trkpt lat="45.94549" lon="4.73079">
        <ele>172</ele>
        <time>2018-09-28T09:42:50Z</time>
      </trkpt>
      <trkpt lat="45.94549" lon="4.73082">
        <ele>172</ele>
        <time>2018-09-28T09:42:51Z</time>
      </trkpt>
      <trkpt lat="45.9455" lon="4.73093">
        <ele>172</ele>
        <time>2018-09-28T09:42:54Z</time>
      </trkpt>
      <trkpt lat="45.94551" lon="4.73098">
        <ele>173</ele>
        <time>2018-09-28T09:42:55Z</time>
      </trkpt>
      <trkpt lat="45.94552" lon="4.73109">
        <ele>173</ele>
        <time>2018-09-28T09:42:58Z</time>
      </trkpt>
      <trkpt lat="45.94551" lon="4.73111">
        <ele>173</ele>
        <time>2018-09-28T09:42:59Z</time>
      </trkpt>
      <trkpt lat="45.94543" lon="4.73108">
        <ele>173</ele>
        <time>2018-09-28T09:43:04Z</time>
      </trkpt>
      <trkpt lat="45.94541" lon="4.73107">
        <ele>173</ele>
        <time>2018-09-28T09:43:05Z</time>
      </trkpt>
      <trkpt lat="45.94533" lon="4.73102">
        <ele>173</ele>
        <time>2018-09-28T09:43:08Z</time>
      </trkpt>
      <trkpt lat="45.94531" lon="4.73101">
        <ele>173</ele>
        <time>2018-09-28T09:43:09Z</time>
      </trkpt>
      <trkpt lat="45.94523" lon="4.73097">
        <ele>172</ele>
        <time>2018-09-28T09:43:12Z</time>
      </trkpt>
      <trkpt lat="45.94509" lon="4.73094">
        <ele>172</ele>
        <time>2018-09-28T09:43:13Z</time>
      </trkpt>
      <trkpt lat="45.94502" lon="4.7309">
        <ele>172</ele>
        <time>2018-09-28T09:43:17Z</time>
      </trkpt>
      <trkpt lat="45.945" lon="4.73089">
        <ele>172</ele>
        <time>2018-09-28T09:43:18Z</time>
      </trkpt>
      <trkpt lat="45.94494" lon="4.73086">
        <ele>172</ele>
        <time>2018-09-28T09:43:20Z</time>
      </trkpt>
      <trkpt lat="45.94491" lon="4.73085">
        <ele>172</ele>
        <time>2018-09-28T09:43:21Z</time>
      </trkpt>
      <trkpt lat="45.94481" lon="4.73082">
        <ele>171</ele>
        <time>2018-09-28T09:43:22Z</time>
      </trkpt>
      <trkpt lat="45.94474" lon="4.73081">
        <ele>170</ele>
        <time>2018-09-28T09:43:25Z</time>
      </trkpt>
      <trkpt lat="45.94472" lon="4.73081">
        <ele>170</ele>
        <time>2018-09-28T09:43:26Z</time>
      </trkpt>
      <trkpt lat="45.94465" lon="4.73076">
        <ele>170</ele>
        <time>2018-09-28T09:43:30Z</time>
      </trkpt>
      <trkpt lat="45.9446" lon="4.73067">
        <ele>170</ele>
        <time>2018-09-28T09:43:31Z</time>
      </trkpt>
      <trkpt lat="45.94459" lon="4.73058">
        <ele>170</ele>
        <time>2018-09-28T09:43:34Z</time>
      </trkpt>
      <trkpt lat="45.94459" lon="4.73054">
        <ele>170</ele>
        <time>2018-09-28T09:43:35Z</time>
      </trkpt>
      <trkpt lat="45.94458" lon="4.73042">
        <ele>169</ele>
        <time>2018-09-28T09:43:38Z</time>
      </trkpt>
      <trkpt lat="45.94457" lon="4.73038">
        <ele>169</ele>
        <time>2018-09-28T09:43:39Z</time>
      </trkpt>
      <trkpt lat="45.94457" lon="4.73029">
        <ele>169</ele>
        <time>2018-09-28T09:43:41Z</time>
      </trkpt>
      <trkpt lat="45.94457" lon="4.73024">
        <ele>169</ele>
        <time>2018-09-28T09:43:42Z</time>
      </trkpt>
      <trkpt lat="45.94456" lon="4.73015">
        <ele>169</ele>
        <time>2018-09-28T09:43:44Z</time>
      </trkpt>
      <trkpt lat="45.94456" lon="4.73011">
        <ele>169</ele>
        <time>2018-09-28T09:43:45Z</time>
      </trkpt>
      <trkpt lat="45.94455" lon="4.73006">
        <ele>169</ele>
        <time>2018-09-28T09:43:46Z</time>
      </trkpt>
      <trkpt lat="45.94453" lon="4.72993">
        <ele>167</ele>
        <time>2018-09-28T09:43:47Z</time>
      </trkpt>
      <trkpt lat="45.94451" lon="4.72981">
        <ele>167</ele>
        <time>2018-09-28T09:43:51Z</time>
      </trkpt>
      <trkpt lat="45.9445" lon="4.72977">
        <ele>167</ele>
        <time>2018-09-28T09:43:52Z</time>
      </trkpt>
      <trkpt lat="45.9445" lon="4.72969">
        <ele>167</ele>
        <time>2018-09-28T09:43:54Z</time>
      </trkpt>
      <trkpt lat="45.94449" lon="4.72964">
        <ele>167</ele>
        <time>2018-09-28T09:43:55Z</time>
      </trkpt>
      <trkpt lat="45.94448" lon="4.72955">
        <ele>167</ele>
        <time>2018-09-28T09:43:57Z</time>
      </trkpt>
      <trkpt lat="45.94448" lon="4.7295">
        <ele>167</ele>
        <time>2018-09-28T09:43:58Z</time>
      </trkpt>
      <trkpt lat="45.94447" lon="4.72941">
        <ele>167</ele>
        <time>2018-09-28T09:44:00Z</time>
      </trkpt>
      <trkpt lat="45.94446" lon="4.72937">
        <ele>167</ele>
        <time>2018-09-28T09:44:01Z</time>
      </trkpt>
      <trkpt lat="45.94445" lon="4.72928">
        <ele>167</ele>
        <time>2018-09-28T09:44:03Z</time>
      </trkpt>
      <trkpt lat="45.94445" lon="4.72924">
        <ele>167</ele>
        <time>2018-09-28T09:44:04Z</time>
      </trkpt>
      <trkpt lat="45.94443" lon="4.72915">
        <ele>166</ele>
        <time>2018-09-28T09:44:06Z</time>
      </trkpt>
      <trkpt lat="45.94441" lon="4.72903">
        <ele>166</ele>
        <time>2018-09-28T09:44:07Z</time>
      </trkpt>
      <trkpt lat="45.9444" lon="4.72892">
        <ele>166</ele>
        <time>2018-09-28T09:44:10Z</time>
      </trkpt>
      <trkpt lat="45.94439" lon="4.72888">
        <ele>166</ele>
        <time>2018-09-28T09:44:11Z</time>
      </trkpt>
      <trkpt lat="45.94438" lon="4.72884">
        <ele>166</ele>
        <time>2018-09-28T09:44:12Z</time>
      </trkpt>
      <trkpt lat="45.94437" lon="4.72872">
        <ele>166</ele>
        <time>2018-09-28T09:44:13Z</time>
      </trkpt>
      <trkpt lat="45.94435" lon="4.72862">
        <ele>166</ele>
        <time>2018-09-28T09:44:15Z</time>
      </trkpt>
      <trkpt lat="45.94434" lon="4.72856">
        <ele>166</ele>
        <time>2018-09-28T09:44:16Z</time>
      </trkpt>
      <trkpt lat="45.94433" lon="4.72849">
        <ele>166</ele>
        <time>2018-09-28T09:44:17Z</time>
      </trkpt>
      <trkpt lat="45.94432" lon="4.72843">
        <ele>166</ele>
        <time>2018-09-28T09:44:18Z</time>
      </trkpt>
      <trkpt lat="45.9443" lon="4.72836">
        <ele>166</ele>
        <time>2018-09-28T09:44:19Z</time>
      </trkpt>
      <trkpt lat="45.94427" lon="4.72829">
        <ele>166</ele>
        <time>2018-09-28T09:44:20Z</time>
      </trkpt>
      <trkpt lat="45.94425" lon="4.72822">
        <ele>167</ele>
        <time>2018-09-28T09:44:21Z</time>
      </trkpt>
      <trkpt lat="45.94424" lon="4.72815">
        <ele>167</ele>
        <time>2018-09-28T09:44:22Z</time>
      </trkpt>
      <trkpt lat="45.94424" lon="4.72808">
        <ele>167</ele>
        <time>2018-09-28T09:44:23Z</time>
      </trkpt>
      <trkpt lat="45.94423" lon="4.72799">
        <ele>167</ele>
        <time>2018-09-28T09:44:24Z</time>
      </trkpt>
      <trkpt lat="45.94422" lon="4.72792">
        <ele>168</ele>
        <time>2018-09-28T09:44:25Z</time>
      </trkpt>
      <trkpt lat="45.94421" lon="4.72784">
        <ele>168</ele>
        <time>2018-09-28T09:44:26Z</time>
      </trkpt>
      <trkpt lat="45.94418" lon="4.72776">
        <ele>168</ele>
        <time>2018-09-28T09:44:27Z</time>
      </trkpt>
      <trkpt lat="45.94417" lon="4.72768">
        <ele>169</ele>
        <time>2018-09-28T09:44:28Z</time>
      </trkpt>
      <trkpt lat="45.94416" lon="4.7276">
        <ele>170</ele>
        <time>2018-09-28T09:44:29Z</time>
      </trkpt>
      <trkpt lat="45.94415" lon="4.72752">
        <ele>171</ele>
        <time>2018-09-28T09:44:30Z</time>
      </trkpt>
      <trkpt lat="45.94414" lon="4.72744">
        <ele>171</ele>
        <time>2018-09-28T09:44:31Z</time>
      </trkpt>
      <trkpt lat="45.94414" lon="4.72735">
        <ele>172</ele>
        <time>2018-09-28T09:44:32Z</time>
      </trkpt>
      <trkpt lat="45.94414" lon="4.72726">
        <ele>172</ele>
        <time>2018-09-28T09:44:33Z</time>
      </trkpt>
      <trkpt lat="45.94411" lon="4.72718">
        <ele>172</ele>
        <time>2018-09-28T09:44:34Z</time>
      </trkpt>
      <trkpt lat="45.94411" lon="4.7271">
        <ele>172</ele>
        <time>2018-09-28T09:44:35Z</time>
      </trkpt>
      <trkpt lat="45.94409" lon="4.72702">
        <ele>172</ele>
        <time>2018-09-28T09:44:36Z</time>
      </trkpt>
      <trkpt lat="45.94408" lon="4.72689">
        <ele>173</ele>
        <time>2018-09-28T09:44:38Z</time>
      </trkpt>
      <trkpt lat="45.94407" lon="4.72682">
        <ele>173</ele>
        <time>2018-09-28T09:44:39Z</time>
      </trkpt>
      <trkpt lat="45.94407" lon="4.72675">
        <ele>173</ele>
        <time>2018-09-28T09:44:40Z</time>
      </trkpt>
      <trkpt lat="45.94407" lon="4.72667">
        <ele>174</ele>
        <time>2018-09-28T09:44:41Z</time>
      </trkpt>
      <trkpt lat="45.94406" lon="4.7266">
        <ele>174</ele>
        <time>2018-09-28T09:44:42Z</time>
      </trkpt>
      <trkpt lat="45.94405" lon="4.72652">
        <ele>174</ele>
        <time>2018-09-28T09:44:43Z</time>
      </trkpt>
      <trkpt lat="45.94404" lon="4.72646">
        <ele>174</ele>
        <time>2018-09-28T09:44:44Z</time>
      </trkpt>
      <trkpt lat="45.94403" lon="4.72639">
        <ele>174</ele>
        <time>2018-09-28T09:44:45Z</time>
      </trkpt>
      <trkpt lat="45.94403" lon="4.72632">
        <ele>174</ele>
        <time>2018-09-28T09:44:46Z</time>
      </trkpt>
      <trkpt lat="45.94403" lon="4.72625">
        <ele>173</ele>
        <time>2018-09-28T09:44:47Z</time>
      </trkpt>
      <trkpt lat="45.94403" lon="4.72613">
        <ele>173</ele>
        <time>2018-09-28T09:44:49Z</time>
      </trkpt>
      <trkpt lat="45.94404" lon="4.72606">
        <ele>173</ele>
        <time>2018-09-28T09:44:50Z</time>
      </trkpt>
      <trkpt lat="45.94402" lon="4.726">
        <ele>173</ele>
        <time>2018-09-28T09:44:51Z</time>
      </trkpt>
      <trkpt lat="45.94401" lon="4.72593">
        <ele>173</ele>
        <time>2018-09-28T09:44:52Z</time>
      </trkpt>
      <trkpt lat="45.94399" lon="4.72587">
        <ele>173</ele>
        <time>2018-09-28T09:44:53Z</time>
      </trkpt>
      <trkpt lat="45.94398" lon="4.7258">
        <ele>173</ele>
        <time>2018-09-28T09:44:54Z</time>
      </trkpt>
      <trkpt lat="45.94397" lon="4.72573">
        <ele>173</ele>
        <time>2018-09-28T09:44:55Z</time>
      </trkpt>
      <trkpt lat="45.94396" lon="4.72566">
        <ele>173</ele>
        <time>2018-09-28T09:44:56Z</time>
      </trkpt>
      <trkpt lat="45.94394" lon="4.72555">
        <ele>173</ele>
        <time>2018-09-28T09:44:58Z</time>
      </trkpt>
      <trkpt lat="45.94393" lon="4.72548">
        <ele>173</ele>
        <time>2018-09-28T09:44:59Z</time>
      </trkpt>
      <trkpt lat="45.94392" lon="4.72542">
        <ele>173</ele>
        <time>2018-09-28T09:45:00Z</time>
      </trkpt>
      <trkpt lat="45.94391" lon="4.72535">
        <ele>174</ele>
        <time>2018-09-28T09:45:01Z</time>
      </trkpt>
      <trkpt lat="45.94388" lon="4.72527">
        <ele>174</ele>
        <time>2018-09-28T09:45:02Z</time>
      </trkpt>
      <trkpt lat="45.94387" lon="4.72519">
        <ele>174</ele>
        <time>2018-09-28T09:45:03Z</time>
      </trkpt>
      <trkpt lat="45.94385" lon="4.72513">
        <ele>174</ele>
        <time>2018-09-28T09:45:04Z</time>
      </trkpt>
      <trkpt lat="45.94383" lon="4.72506">
        <ele>174</ele>
        <time>2018-09-28T09:45:05Z</time>
      </trkpt>
      <trkpt lat="45.9438" lon="4.72499">
        <ele>173</ele>
        <time>2018-09-28T09:45:06Z</time>
      </trkpt>
      <trkpt lat="45.94378" lon="4.72493">
        <ele>173</ele>
        <time>2018-09-28T09:45:07Z</time>
      </trkpt>
      <trkpt lat="45.94375" lon="4.72481">
        <ele>173</ele>
        <time>2018-09-28T09:45:09Z</time>
      </trkpt>
      <trkpt lat="45.94371" lon="4.72477">
        <ele>173</ele>
        <time>2018-09-28T09:45:10Z</time>
      </trkpt>
      <trkpt lat="45.9437" lon="4.72471">
        <ele>173</ele>
        <time>2018-09-28T09:45:11Z</time>
      </trkpt>
      <trkpt lat="45.94366" lon="4.72465">
        <ele>173</ele>
        <time>2018-09-28T09:45:12Z</time>
      </trkpt>
      <trkpt lat="45.94364" lon="4.72455">
        <ele>173</ele>
        <time>2018-09-28T09:45:14Z</time>
      </trkpt>
      <trkpt lat="45.94362" lon="4.72449">
        <ele>173</ele>
        <time>2018-09-28T09:45:15Z</time>
      </trkpt>
      <trkpt lat="45.94359" lon="4.72444">
        <ele>173</ele>
        <time>2018-09-28T09:45:16Z</time>
      </trkpt>
      <trkpt lat="45.94356" lon="4.72437">
        <ele>173</ele>
        <time>2018-09-28T09:45:17Z</time>
      </trkpt>
      <trkpt lat="45.94354" lon="4.72431">
        <ele>173</ele>
        <time>2018-09-28T09:45:18Z</time>
      </trkpt>
      <trkpt lat="45.94349" lon="4.72425">
        <ele>173</ele>
        <time>2018-09-28T09:45:19Z</time>
      </trkpt>
      <trkpt lat="45.94346" lon="4.72419">
        <ele>173</ele>
        <time>2018-09-28T09:45:20Z</time>
      </trkpt>
      <trkpt lat="45.94344" lon="4.72409">
        <ele>173</ele>
        <time>2018-09-28T09:45:21Z</time>
      </trkpt>
      <trkpt lat="45.9434" lon="4.72403">
        <ele>173</ele>
        <time>2018-09-28T09:45:22Z</time>
      </trkpt>
      <trkpt lat="45.94338" lon="4.72397">
        <ele>172</ele>
        <time>2018-09-28T09:45:23Z</time>
      </trkpt>
      <trkpt lat="45.94336" lon="4.7239">
        <ele>172</ele>
        <time>2018-09-28T09:45:24Z</time>
      </trkpt>
      <trkpt lat="45.94333" lon="4.72384">
        <ele>172</ele>
        <time>2018-09-28T09:45:25Z</time>
      </trkpt>
      <trkpt lat="45.9433" lon="4.72378">
        <ele>172</ele>
        <time>2018-09-28T09:45:26Z</time>
      </trkpt>
      <trkpt lat="45.94328" lon="4.72371">
        <ele>172</ele>
        <time>2018-09-28T09:45:27Z</time>
      </trkpt>
      <trkpt lat="45.94325" lon="4.72364">
        <ele>172</ele>
        <time>2018-09-28T09:45:28Z</time>
      </trkpt>
      <trkpt lat="45.94323" lon="4.72358">
        <ele>172</ele>
        <time>2018-09-28T09:45:29Z</time>
      </trkpt>
      <trkpt lat="45.9432" lon="4.72351">
        <ele>172</ele>
        <time>2018-09-28T09:45:30Z</time>
      </trkpt>
      <trkpt lat="45.94318" lon="4.72344">
        <ele>172</ele>
        <time>2018-09-28T09:45:31Z</time>
      </trkpt>
      <trkpt lat="45.94315" lon="4.72339">
        <ele>172</ele>
        <time>2018-09-28T09:45:32Z</time>
      </trkpt>
      <trkpt lat="45.94311" lon="4.72333">
        <ele>172</ele>
        <time>2018-09-28T09:45:33Z</time>
      </trkpt>
      <trkpt lat="45.94308" lon="4.72327">
        <ele>171</ele>
        <time>2018-09-28T09:45:34Z</time>
      </trkpt>
      <trkpt lat="45.94305" lon="4.7232">
        <ele>171</ele>
        <time>2018-09-28T09:45:35Z</time>
      </trkpt>
      <trkpt lat="45.94301" lon="4.72314">
        <ele>171</ele>
        <time>2018-09-28T09:45:36Z</time>
      </trkpt>
      <trkpt lat="45.94299" lon="4.72308">
        <ele>171</ele>
        <time>2018-09-28T09:45:37Z</time>
      </trkpt>
      <trkpt lat="45.94295" lon="4.72303">
        <ele>171</ele>
        <time>2018-09-28T09:45:38Z</time>
      </trkpt>
      <trkpt lat="45.94292" lon="4.72296">
        <ele>171</ele>
        <time>2018-09-28T09:45:39Z</time>
      </trkpt>
      <trkpt lat="45.94288" lon="4.72291">
        <ele>171</ele>
        <time>2018-09-28T09:45:40Z</time>
      </trkpt>
      <trkpt lat="45.94286" lon="4.72285">
        <ele>171</ele>
        <time>2018-09-28T09:45:41Z</time>
      </trkpt>
      <trkpt lat="45.94283" lon="4.72279">
        <ele>171</ele>
        <time>2018-09-28T09:45:42Z</time>
      </trkpt>
      <trkpt lat="45.9428" lon="4.72274">
        <ele>171</ele>
        <time>2018-09-28T09:45:43Z</time>
      </trkpt>
      <trkpt lat="45.94271" lon="4.72272">
        <ele>171</ele>
        <time>2018-09-28T09:45:45Z</time>
      </trkpt>
      <trkpt lat="45.94266" lon="4.72272">
        <ele>171</ele>
        <time>2018-09-28T09:45:46Z</time>
      </trkpt>
      <trkpt lat="45.94261" lon="4.72276">
        <ele>171</ele>
        <time>2018-09-28T09:45:47Z</time>
      </trkpt>
      <trkpt lat="45.94256" lon="4.72277">
        <ele>171</ele>
        <time>2018-09-28T09:45:48Z</time>
      </trkpt>
      <trkpt lat="45.94247" lon="4.72281">
        <ele>171</ele>
        <time>2018-09-28T09:45:50Z</time>
      </trkpt>
      <trkpt lat="45.94243" lon="4.72282">
        <ele>171</ele>
        <time>2018-09-28T09:45:51Z</time>
      </trkpt>
      <trkpt lat="45.94234" lon="4.72285">
        <ele>171</ele>
        <time>2018-09-28T09:45:53Z</time>
      </trkpt>
      <trkpt lat="45.9423" lon="4.72285">
        <ele>171</ele>
        <time>2018-09-28T09:45:54Z</time>
      </trkpt>
      <trkpt lat="45.94225" lon="4.72286">
        <ele>171</ele>
        <time>2018-09-28T09:45:55Z</time>
      </trkpt>
      <trkpt lat="45.9422" lon="4.72286">
        <ele>171</ele>
        <time>2018-09-28T09:45:56Z</time>
      </trkpt>
      <trkpt lat="45.94216" lon="4.72288">
        <ele>171</ele>
        <time>2018-09-28T09:45:57Z</time>
      </trkpt>
      <trkpt lat="45.9421" lon="4.72288">
        <ele>171</ele>
        <time>2018-09-28T09:45:58Z</time>
      </trkpt>
      <trkpt lat="45.94205" lon="4.72289">
        <ele>171</ele>
        <time>2018-09-28T09:45:59Z</time>
      </trkpt>
      <trkpt lat="45.94201" lon="4.72289">
        <ele>171</ele>
        <time>2018-09-28T09:46:00Z</time>
      </trkpt>
      <trkpt lat="45.94195" lon="4.72289">
        <ele>171</ele>
        <time>2018-09-28T09:46:01Z</time>
      </trkpt>
      <trkpt lat="45.94191" lon="4.72289">
        <ele>171</ele>
        <time>2018-09-28T09:46:02Z</time>
      </trkpt>
      <trkpt lat="45.94183" lon="4.72286">
        <ele>171</ele>
        <time>2018-09-28T09:46:04Z</time>
      </trkpt>
      <trkpt lat="45.94178" lon="4.72287">
        <ele>171</ele>
        <time>2018-09-28T09:46:05Z</time>
      </trkpt>
      <trkpt lat="45.94172" lon="4.72286">
        <ele>171</ele>
        <time>2018-09-28T09:46:06Z</time>
      </trkpt>
      <trkpt lat="45.94167" lon="4.72285">
        <ele>171</ele>
        <time>2018-09-28T09:46:07Z</time>
      </trkpt>
      <trkpt lat="45.94162" lon="4.72284">
        <ele>171</ele>
        <time>2018-09-28T09:46:08Z</time>
      </trkpt>
      <trkpt lat="45.94156" lon="4.72283">
        <ele>171</ele>
        <time>2018-09-28T09:46:09Z</time>
      </trkpt>
      <trkpt lat="45.94151" lon="4.72281">
        <ele>171</ele>
        <time>2018-09-28T09:46:10Z</time>
      </trkpt>
      <trkpt lat="45.94145" lon="4.72278">
        <ele>171</ele>
        <time>2018-09-28T09:46:11Z</time>
      </trkpt>
      <trkpt lat="45.9414" lon="4.72277">
        <ele>171</ele>
        <time>2018-09-28T09:46:12Z</time>
      </trkpt>
      <trkpt lat="45.94136" lon="4.72275">
        <ele>171</ele>
        <time>2018-09-28T09:46:13Z</time>
      </trkpt>
      <trkpt lat="45.94128" lon="4.7227">
        <ele>171</ele>
        <time>2018-09-28T09:46:15Z</time>
      </trkpt>
      <trkpt lat="45.94122" lon="4.72269">
        <ele>171</ele>
        <time>2018-09-28T09:46:16Z</time>
      </trkpt>
      <trkpt lat="45.94116" lon="4.72268">
        <ele>171</ele>
        <time>2018-09-28T09:46:18Z</time>
      </trkpt>
      <trkpt lat="45.94112" lon="4.72266">
        <ele>171</ele>
        <time>2018-09-28T09:46:19Z</time>
      </trkpt>
      <trkpt lat="45.94106" lon="4.72265">
        <ele>171</ele>
        <time>2018-09-28T09:46:20Z</time>
      </trkpt>
      <trkpt lat="45.94102" lon="4.72265">
        <ele>171</ele>
        <time>2018-09-28T09:46:21Z</time>
      </trkpt>
      <trkpt lat="45.94094" lon="4.72265">
        <ele>171</ele>
        <time>2018-09-28T09:46:23Z</time>
      </trkpt>
      <trkpt lat="45.94091" lon="4.72267">
        <ele>171</ele>
        <time>2018-09-28T09:46:24Z</time>
      </trkpt>
      <trkpt lat="45.94086" lon="4.72271">
        <ele>171</ele>
        <time>2018-09-28T09:46:25Z</time>
      </trkpt>
      <trkpt lat="45.94082" lon="4.72274">
        <ele>171</ele>
        <time>2018-09-28T09:46:26Z</time>
      </trkpt>
      <trkpt lat="45.94076" lon="4.72277">
        <ele>171</ele>
        <time>2018-09-28T09:46:27Z</time>
      </trkpt>
      <trkpt lat="45.94071" lon="4.72282">
        <ele>171</ele>
        <time>2018-09-28T09:46:28Z</time>
      </trkpt>
      <trkpt lat="45.94067" lon="4.72286">
        <ele>171</ele>
        <time>2018-09-28T09:46:29Z</time>
      </trkpt>
      <trkpt lat="45.94063" lon="4.72291">
        <ele>171</ele>
        <time>2018-09-28T09:46:30Z</time>
      </trkpt>
      <trkpt lat="45.94056" lon="4.72299">
        <ele>171</ele>
        <time>2018-09-28T09:46:32Z</time>
      </trkpt>
      <trkpt lat="45.94052" lon="4.72305">
        <ele>171</ele>
        <time>2018-09-28T09:46:33Z</time>
      </trkpt>
      <trkpt lat="45.94047" lon="4.72311">
        <ele>171</ele>
        <time>2018-09-28T09:46:34Z</time>
      </trkpt>
      <trkpt lat="45.94042" lon="4.72315">
        <ele>171</ele>
        <time>2018-09-28T09:46:35Z</time>
      </trkpt>
      <trkpt lat="45.94038" lon="4.7232">
        <ele>171</ele>
        <time>2018-09-28T09:46:36Z</time>
      </trkpt>
      <trkpt lat="45.94034" lon="4.72327">
        <ele>171</ele>
        <time>2018-09-28T09:46:37Z</time>
      </trkpt>
      <trkpt lat="45.9403" lon="4.72332">
        <ele>171</ele>
        <time>2018-09-28T09:46:38Z</time>
      </trkpt>
      <trkpt lat="45.94025" lon="4.72338">
        <ele>171</ele>
        <time>2018-09-28T09:46:39Z</time>
      </trkpt>
      <trkpt lat="45.94022" lon="4.72343">
        <ele>171</ele>
        <time>2018-09-28T09:46:40Z</time>
      </trkpt>
      <trkpt lat="45.94017" lon="4.72349">
        <ele>171</ele>
        <time>2018-09-28T09:46:41Z</time>
      </trkpt>
      <trkpt lat="45.94013" lon="4.72354">
        <ele>171</ele>
        <time>2018-09-28T09:46:42Z</time>
      </trkpt>
      <trkpt lat="45.94009" lon="4.72358">
        <ele>171</ele>
        <time>2018-09-28T09:46:43Z</time>
      </trkpt>
      <trkpt lat="45.94005" lon="4.72363">
        <ele>171</ele>
        <time>2018-09-28T09:46:44Z</time>
      </trkpt>
      <trkpt lat="45.94001" lon="4.72367">
        <ele>171</ele>
        <time>2018-09-28T09:46:45Z</time>
      </trkpt>
      <trkpt lat="45.93993" lon="4.72374">
        <ele>171</ele>
        <time>2018-09-28T09:46:47Z</time>
      </trkpt>
      <trkpt lat="45.93989" lon="4.72379">
        <ele>171</ele>
        <time>2018-09-28T09:46:48Z</time>
      </trkpt>
      <trkpt lat="45.93985" lon="4.72384">
        <ele>171</ele>
        <time>2018-09-28T09:46:49Z</time>
      </trkpt>
      <trkpt lat="45.93981" lon="4.7239">
        <ele>171</ele>
        <time>2018-09-28T09:46:50Z</time>
      </trkpt>
      <trkpt lat="45.93975" lon="4.72396">
        <ele>171</ele>
        <time>2018-09-28T09:46:51Z</time>
      </trkpt>
      <trkpt lat="45.9397" lon="4.72401">
        <ele>171</ele>
        <time>2018-09-28T09:46:52Z</time>
      </trkpt>
      <trkpt lat="45.93966" lon="4.72405">
        <ele>171</ele>
        <time>2018-09-28T09:46:53Z</time>
      </trkpt>
      <trkpt lat="45.93962" lon="4.7241">
        <ele>171</ele>
        <time>2018-09-28T09:46:54Z</time>
      </trkpt>
      <trkpt lat="45.93956" lon="4.72418">
        <ele>171</ele>
        <time>2018-09-28T09:46:56Z</time>
      </trkpt>
      <trkpt lat="45.93953" lon="4.72424">
        <ele>171</ele>
        <time>2018-09-28T09:46:57Z</time>
      </trkpt>
      <trkpt lat="45.93949" lon="4.72428">
        <ele>171</ele>
        <time>2018-09-28T09:46:58Z</time>
      </trkpt>
      <trkpt lat="45.93946" lon="4.72432">
        <ele>171</ele>
        <time>2018-09-28T09:46:59Z</time>
      </trkpt>
      <trkpt lat="45.93942" lon="4.72437">
        <ele>171</ele>
        <time>2018-09-28T09:47:00Z</time>
      </trkpt>
      <trkpt lat="45.93938" lon="4.72442">
        <ele>171</ele>
        <time>2018-09-28T09:47:01Z</time>
      </trkpt>
      <trkpt lat="45.93935" lon="4.72446">
        <ele>171</ele>
        <time>2018-09-28T09:47:02Z</time>
      </trkpt>
      <trkpt lat="45.93931" lon="4.72451">
        <ele>171</ele>
        <time>2018-09-28T09:47:03Z</time>
      </trkpt>
      <trkpt lat="45.93928" lon="4.72456">
        <ele>171</ele>
        <time>2018-09-28T09:47:04Z</time>
      </trkpt>
      <trkpt lat="45.93924" lon="4.72461">
        <ele>171</ele>
        <time>2018-09-28T09:47:05Z</time>
      </trkpt>
      <trkpt lat="45.93919" lon="4.72467">
        <ele>171</ele>
        <time>2018-09-28T09:47:06Z</time>
      </trkpt>
      <trkpt lat="45.93915" lon="4.72471">
        <ele>172</ele>
        <time>2018-09-28T09:47:07Z</time>
      </trkpt>
      <trkpt lat="45.9391" lon="4.72478">
        <ele>172</ele>
        <time>2018-09-28T09:47:08Z</time>
      </trkpt>
      <trkpt lat="45.93906" lon="4.72483">
        <ele>172</ele>
        <time>2018-09-28T09:47:09Z</time>
      </trkpt>
      <trkpt lat="45.939" lon="4.7249">
        <ele>172</ele>
        <time>2018-09-28T09:47:11Z</time>
      </trkpt>
      <trkpt lat="45.93896" lon="4.72497">
        <ele>172</ele>
        <time>2018-09-28T09:47:12Z</time>
      </trkpt>
      <trkpt lat="45.9389" lon="4.72504">
        <ele>173</ele>
        <time>2018-09-28T09:47:14Z</time>
      </trkpt>
      <trkpt lat="45.93886" lon="4.72507">
        <ele>173</ele>
        <time>2018-09-28T09:47:15Z</time>
      </trkpt>
      <trkpt lat="45.93882" lon="4.72512">
        <ele>173</ele>
        <time>2018-09-28T09:47:16Z</time>
      </trkpt>
      <trkpt lat="45.93878" lon="4.72515">
        <ele>173</ele>
        <time>2018-09-28T09:47:17Z</time>
      </trkpt>
      <trkpt lat="45.93871" lon="4.72514">
        <ele>173</ele>
        <time>2018-09-28T09:47:21Z</time>
      </trkpt>
      <trkpt lat="45.93864" lon="4.72511">
        <ele>173</ele>
        <time>2018-09-28T09:47:22Z</time>
      </trkpt>
      <trkpt lat="45.93858" lon="4.72505">
        <ele>173</ele>
        <time>2018-09-28T09:47:27Z</time>
      </trkpt>
      <trkpt lat="45.93846" lon="4.72493">
        <ele>173</ele>
        <time>2018-09-28T09:47:28Z</time>
      </trkpt>
      <trkpt lat="45.93825" lon="4.7249">
        <ele>173</ele>
        <time>2018-09-28T09:47:32Z</time>
      </trkpt>
      <trkpt lat="45.93814" lon="4.72479">
        <ele>172</ele>
        <time>2018-09-28T09:47:33Z</time>
      </trkpt>
      <trkpt lat="45.93809" lon="4.72475">
        <ele>172</ele>
        <time>2018-09-28T09:47:34Z</time>
      </trkpt>
      <trkpt lat="45.93808" lon="4.7247">
        <ele>172</ele>
        <time>2018-09-28T09:47:35Z</time>
      </trkpt>
      <trkpt lat="45.93802" lon="4.72463">
        <ele>172</ele>
        <time>2018-09-28T09:47:37Z</time>
      </trkpt>
      <trkpt lat="45.938" lon="4.72459">
        <ele>172</ele>
        <time>2018-09-28T09:47:38Z</time>
      </trkpt>
      <trkpt lat="45.93794" lon="4.7245">
        <ele>172</ele>
        <time>2018-09-28T09:47:40Z</time>
      </trkpt>
      <trkpt lat="45.93791" lon="4.72445">
        <ele>172</ele>
        <time>2018-09-28T09:47:41Z</time>
      </trkpt>
      <trkpt lat="45.93789" lon="4.72441">
        <ele>172</ele>
        <time>2018-09-28T09:47:43Z</time>
      </trkpt>
      <trkpt lat="45.93784" lon="4.72437">
        <ele>172</ele>
        <time>2018-09-28T09:47:44Z</time>
      </trkpt>
      <trkpt lat="45.93777" lon="4.72429">
        <ele>172</ele>
        <time>2018-09-28T09:47:46Z</time>
      </trkpt>
      <trkpt lat="45.93776" lon="4.72428">
        <ele>171</ele>
        <time>2018-09-28T09:47:47Z</time>
      </trkpt>
      <trkpt lat="45.93773" lon="4.72422">
        <ele>171</ele>
        <time>2018-09-28T09:47:48Z</time>
      </trkpt>
      <trkpt lat="45.9377" lon="4.72418">
        <ele>171</ele>
        <time>2018-09-28T09:47:49Z</time>
      </trkpt>
      <trkpt lat="45.93768" lon="4.72414">
        <ele>171</ele>
        <time>2018-09-28T09:47:50Z</time>
      </trkpt>
      <trkpt lat="45.93761" lon="4.7241">
        <ele>171</ele>
        <time>2018-09-28T09:47:51Z</time>
      </trkpt>
      <trkpt lat="45.93755" lon="4.72404">
        <ele>171</ele>
        <time>2018-09-28T09:47:53Z</time>
      </trkpt>
      <trkpt lat="45.93751" lon="4.72401">
        <ele>171</ele>
        <time>2018-09-28T09:47:54Z</time>
      </trkpt>
      <trkpt lat="45.93744" lon="4.72393">
        <ele>171</ele>
        <time>2018-09-28T09:47:58Z</time>
      </trkpt>
      <trkpt lat="45.93737" lon="4.72386">
        <ele>171</ele>
        <time>2018-09-28T09:47:59Z</time>
      </trkpt>
      <trkpt lat="45.9373" lon="4.72378">
        <ele>171</ele>
        <time>2018-09-28T09:48:01Z</time>
      </trkpt>
      <trkpt lat="45.93724" lon="4.72377">
        <ele>171</ele>
        <time>2018-09-28T09:48:02Z</time>
      </trkpt>
      <trkpt lat="45.93718" lon="4.72375">
        <ele>172</ele>
        <time>2018-09-28T09:48:03Z</time>
      </trkpt>
      <trkpt lat="45.93714" lon="4.72372">
        <ele>172</ele>
        <time>2018-09-28T09:48:04Z</time>
      </trkpt>
      <trkpt lat="45.9371" lon="4.72369">
        <ele>172</ele>
        <time>2018-09-28T09:48:05Z</time>
      </trkpt>
      <trkpt lat="45.93706" lon="4.72365">
        <ele>171</ele>
        <time>2018-09-28T09:48:06Z</time>
      </trkpt>
      <trkpt lat="45.93699" lon="4.72358">
        <ele>171</ele>
        <time>2018-09-28T09:48:09Z</time>
      </trkpt>
      <trkpt lat="45.93693" lon="4.72353">
        <ele>171</ele>
        <time>2018-09-28T09:48:10Z</time>
      </trkpt>
      <trkpt lat="45.93692" lon="4.72352">
        <ele>171</ele>
        <time>2018-09-28T09:48:11Z</time>
      </trkpt>
      <trkpt lat="45.93685" lon="4.72345">
        <ele>171</ele>
        <time>2018-09-28T09:48:12Z</time>
      </trkpt>
      <trkpt lat="45.93682" lon="4.72335">
        <ele>171</ele>
        <time>2018-09-28T09:48:14Z</time>
      </trkpt>
      <trkpt lat="45.93677" lon="4.72331">
        <ele>171</ele>
        <time>2018-09-28T09:48:15Z</time>
      </trkpt>
      <trkpt lat="45.93669" lon="4.72329">
        <ele>171</ele>
        <time>2018-09-28T09:48:16Z</time>
      </trkpt>
      <trkpt lat="45.93667" lon="4.72323">
        <ele>171</ele>
        <time>2018-09-28T09:48:17Z</time>
      </trkpt>
      <trkpt lat="45.93659" lon="4.7232">
        <ele>172</ele>
        <time>2018-09-28T09:48:19Z</time>
      </trkpt>
      <trkpt lat="45.93658" lon="4.72318">
        <ele>172</ele>
        <time>2018-09-28T09:48:20Z</time>
      </trkpt>
      <trkpt lat="45.93653" lon="4.72312">
        <ele>172</ele>
        <time>2018-09-28T09:48:21Z</time>
      </trkpt>
      <trkpt lat="45.93648" lon="4.72308">
        <ele>172</ele>
        <time>2018-09-28T09:48:22Z</time>
      </trkpt>
      <trkpt lat="45.93642" lon="4.723">
        <ele>172</ele>
        <time>2018-09-28T09:48:24Z</time>
      </trkpt>
      <trkpt lat="45.9364" lon="4.72298">
        <ele>172</ele>
        <time>2018-09-28T09:48:25Z</time>
      </trkpt>
      <trkpt lat="45.93635" lon="4.72294">
        <ele>172</ele>
        <time>2018-09-28T09:48:26Z</time>
      </trkpt>
      <trkpt lat="45.93631" lon="4.7229">
        <ele>172</ele>
        <time>2018-09-28T09:48:27Z</time>
      </trkpt>
      <trkpt lat="45.93624" lon="4.72283">
        <ele>172</ele>
        <time>2018-09-28T09:48:29Z</time>
      </trkpt>
      <trkpt lat="45.93621" lon="4.72279">
        <ele>172</ele>
        <time>2018-09-28T09:48:30Z</time>
      </trkpt>
      <trkpt lat="45.93615" lon="4.72273">
        <ele>172</ele>
        <time>2018-09-28T09:48:32Z</time>
      </trkpt>
      <trkpt lat="45.93611" lon="4.72269">
        <ele>172</ele>
        <time>2018-09-28T09:48:33Z</time>
      </trkpt>
      <trkpt lat="45.93604" lon="4.72261">
        <ele>173</ele>
        <time>2018-09-28T09:48:37Z</time>
      </trkpt>
      <trkpt lat="45.93602" lon="4.72259">
        <ele>173</ele>
        <time>2018-09-28T09:48:38Z</time>
      </trkpt>
      <trkpt lat="45.93597" lon="4.72252">
        <ele>173</ele>
        <time>2018-09-28T09:48:41Z</time>
      </trkpt>
      <trkpt lat="45.93595" lon="4.72249">
        <ele>173</ele>
        <time>2018-09-28T09:48:42Z</time>
      </trkpt>
      <trkpt lat="45.93587" lon="4.72244">
        <ele>173</ele>
        <time>2018-09-28T09:48:45Z</time>
      </trkpt>
      <trkpt lat="45.93585" lon="4.72243">
        <ele>173</ele>
        <time>2018-09-28T09:48:46Z</time>
      </trkpt>
      <trkpt lat="45.93581" lon="4.72236">
        <ele>173</ele>
        <time>2018-09-28T09:48:50Z</time>
      </trkpt>
      <trkpt lat="45.93578" lon="4.72228">
        <ele>173</ele>
        <time>2018-09-28T09:48:51Z</time>
      </trkpt>
      <trkpt lat="45.93572" lon="4.72224">
        <ele>173</ele>
        <time>2018-09-28T09:48:54Z</time>
      </trkpt>
      <trkpt lat="45.93569" lon="4.72224">
        <ele>173</ele>
        <time>2018-09-28T09:48:55Z</time>
      </trkpt>
      <trkpt lat="45.93563" lon="4.72225">
        <ele>173</ele>
        <time>2018-09-28T09:48:57Z</time>
      </trkpt>
      <trkpt lat="45.9356" lon="4.72226">
        <ele>173</ele>
        <time>2018-09-28T09:48:58Z</time>
      </trkpt>
      <trkpt lat="45.93555" lon="4.72233">
        <ele>173</ele>
        <time>2018-09-28T09:49:00Z</time>
      </trkpt>
      <trkpt lat="45.93547" lon="4.72245">
        <ele>172</ele>
        <time>2018-09-28T09:49:01Z</time>
      </trkpt>
      <trkpt lat="45.93545" lon="4.72251">
        <ele>172</ele>
        <time>2018-09-28T09:49:03Z</time>
      </trkpt>
      <trkpt lat="45.93541" lon="4.7226">
        <ele>172</ele>
        <time>2018-09-28T09:49:04Z</time>
      </trkpt>
      <trkpt lat="45.93536" lon="4.72271">
        <ele>172</ele>
        <time>2018-09-28T09:49:06Z</time>
      </trkpt>
      <trkpt lat="45.93536" lon="4.72274">
        <ele>172</ele>
        <time>2018-09-28T09:49:07Z</time>
      </trkpt>
      <trkpt lat="45.93533" lon="4.72281">
        <ele>172</ele>
        <time>2018-09-28T09:49:08Z</time>
      </trkpt>
      <trkpt lat="45.93531" lon="4.72286">
        <ele>172</ele>
        <time>2018-09-28T09:49:09Z</time>
      </trkpt>
      <trkpt lat="45.93528" lon="4.72295">
        <ele>172</ele>
        <time>2018-09-28T09:49:12Z</time>
      </trkpt>
      <trkpt lat="45.93527" lon="4.72299">
        <ele>172</ele>
        <time>2018-09-28T09:49:13Z</time>
      </trkpt>
      <trkpt lat="45.93523" lon="4.72308">
        <ele>173</ele>
        <time>2018-09-28T09:49:16Z</time>
      </trkpt>
      <trkpt lat="45.93522" lon="4.72311">
        <ele>173</ele>
        <time>2018-09-28T09:49:17Z</time>
      </trkpt>
      <trkpt lat="45.9352" lon="4.72323">
        <ele>173</ele>
        <time>2018-09-28T09:49:23Z</time>
      </trkpt>
      <trkpt lat="45.9352" lon="4.72324">
        <ele>173</ele>
        <time>2018-09-28T09:49:24Z</time>
      </trkpt>
      <trkpt lat="45.93528" lon="4.7232">
        <ele>173</ele>
        <time>2018-09-28T09:49:28Z</time>
      </trkpt>
      <trkpt lat="45.9353" lon="4.72319">
        <ele>173</ele>
        <time>2018-09-28T09:49:29Z</time>
      </trkpt>
      <trkpt lat="45.93537" lon="4.72318">
        <ele>173</ele>
        <time>2018-09-28T09:49:32Z</time>
      </trkpt>
      <trkpt lat="45.9354" lon="4.72318">
        <ele>173</ele>
        <time>2018-09-28T09:49:33Z</time>
      </trkpt>
      <trkpt lat="45.93548" lon="4.72319">
        <ele>173</ele>
        <time>2018-09-28T09:49:36Z</time>
      </trkpt>
      <trkpt lat="45.9355" lon="4.7232">
        <ele>173</ele>
        <time>2018-09-28T09:49:37Z</time>
      </trkpt>
      <trkpt lat="45.93559" lon="4.72323">
        <ele>173</ele>
        <time>2018-09-28T09:49:40Z</time>
      </trkpt>
      <trkpt lat="45.93561" lon="4.72325">
        <ele>173</ele>
        <time>2018-09-28T09:49:41Z</time>
      </trkpt>
      <trkpt lat="45.93567" lon="4.72329">
        <ele>173</ele>
        <time>2018-09-28T09:49:43Z</time>
      </trkpt>
      <trkpt lat="45.93569" lon="4.72331">
        <ele>173</ele>
        <time>2018-09-28T09:49:44Z</time>
      </trkpt>
      <trkpt lat="45.93577" lon="4.72336">
        <ele>173</ele>
        <time>2018-09-28T09:49:47Z</time>
      </trkpt>
      <trkpt lat="45.93579" lon="4.72338">
        <ele>173</ele>
        <time>2018-09-28T09:49:48Z</time>
      </trkpt>
      <trkpt lat="45.93586" lon="4.72345">
        <ele>173</ele>
        <time>2018-09-28T09:49:51Z</time>
      </trkpt>
      <trkpt lat="45.93589" lon="4.72348">
        <ele>173</ele>
        <time>2018-09-28T09:49:52Z</time>
      </trkpt>
      <trkpt lat="45.93594" lon="4.72353">
        <ele>172</ele>
        <time>2018-09-28T09:49:54Z</time>
      </trkpt>
      <trkpt lat="45.93597" lon="4.72355">
        <ele>172</ele>
        <time>2018-09-28T09:49:55Z</time>
      </trkpt>
      <trkpt lat="45.93602" lon="4.7236">
        <ele>172</ele>
        <time>2018-09-28T09:49:57Z</time>
      </trkpt>
      <trkpt lat="45.93605" lon="4.72362">
        <ele>172</ele>
        <time>2018-09-28T09:49:58Z</time>
      </trkpt>
      <trkpt lat="45.93612" lon="4.72369">
        <ele>172</ele>
        <time>2018-09-28T09:50:01Z</time>
      </trkpt>
      <trkpt lat="45.93614" lon="4.72372">
        <ele>172</ele>
        <time>2018-09-28T09:50:02Z</time>
      </trkpt>
      <trkpt lat="45.93621" lon="4.72378">
        <ele>172</ele>
        <time>2018-09-28T09:50:05Z</time>
      </trkpt>
      <trkpt lat="45.93623" lon="4.7238">
        <ele>172</ele>
        <time>2018-09-28T09:50:06Z</time>
      </trkpt>
      <trkpt lat="45.93625" lon="4.72382">
        <ele>172</ele>
        <time>2018-09-28T09:50:07Z</time>
      </trkpt>
      <trkpt lat="45.93632" lon="4.7239">
        <ele>172</ele>
        <time>2018-09-28T09:50:08Z</time>
      </trkpt>
      <trkpt lat="45.93638" lon="4.72399">
        <ele>172</ele>
        <time>2018-09-28T09:50:12Z</time>
      </trkpt>
      <trkpt lat="45.93639" lon="4.72401">
        <ele>172</ele>
        <time>2018-09-28T09:50:13Z</time>
      </trkpt>
      <trkpt lat="45.93644" lon="4.72408">
        <ele>172</ele>
        <time>2018-09-28T09:50:17Z</time>
      </trkpt>
      <trkpt lat="45.93646" lon="4.7241">
        <ele>172</ele>
        <time>2018-09-28T09:50:18Z</time>
      </trkpt>
      <trkpt lat="45.93652" lon="4.72418">
        <ele>172</ele>
        <time>2018-09-28T09:50:22Z</time>
      </trkpt>
      <trkpt lat="45.93653" lon="4.72419">
        <ele>172</ele>
        <time>2018-09-28T09:50:23Z</time>
      </trkpt>
      <trkpt lat="45.93656" lon="4.7243">
        <ele>172</ele>
        <time>2018-09-28T09:50:28Z</time>
      </trkpt>
      <trkpt lat="45.93657" lon="4.72433">
        <ele>172</ele>
        <time>2018-09-28T09:50:29Z</time>
      </trkpt>
      <trkpt lat="45.93658" lon="4.72436">
        <ele>172</ele>
        <time>2018-09-28T09:50:30Z</time>
      </trkpt>
      <trkpt lat="45.93663" lon="4.72446">
        <ele>172</ele>
        <time>2018-09-28T09:50:31Z</time>
      </trkpt>
      <trkpt lat="45.93669" lon="4.72454">
        <ele>171</ele>
        <time>2018-09-28T09:50:35Z</time>
      </trkpt>
      <trkpt lat="45.93672" lon="4.72456">
        <ele>171</ele>
        <time>2018-09-28T09:50:36Z</time>
      </trkpt>
      <trkpt lat="45.9368" lon="4.72465">
        <ele>171</ele>
        <time>2018-09-28T09:50:37Z</time>
      </trkpt>
      <trkpt lat="45.93684" lon="4.72468">
        <ele>171</ele>
        <time>2018-09-28T09:50:38Z</time>
      </trkpt>
      <trkpt lat="45.93688" lon="4.72472">
        <ele>171</ele>
        <time>2018-09-28T09:50:39Z</time>
      </trkpt>
      <trkpt lat="45.93694" lon="4.72478">
        <ele>171</ele>
        <time>2018-09-28T09:50:42Z</time>
      </trkpt>
      <trkpt lat="45.93697" lon="4.7248">
        <ele>171</ele>
        <time>2018-09-28T09:50:43Z</time>
      </trkpt>
      <trkpt lat="45.93699" lon="4.72482">
        <ele>171</ele>
        <time>2018-09-28T09:50:44Z</time>
      </trkpt>
      <trkpt lat="45.93707" lon="4.72488">
        <ele>171</ele>
        <time>2018-09-28T09:50:45Z</time>
      </trkpt>
      <trkpt lat="45.93711" lon="4.72492">
        <ele>171</ele>
        <time>2018-09-28T09:50:46Z</time>
      </trkpt>
      <trkpt lat="45.93715" lon="4.72495">
        <ele>171</ele>
        <time>2018-09-28T09:50:47Z</time>
      </trkpt>
      <trkpt lat="45.93721" lon="4.72502">
        <ele>171</ele>
        <time>2018-09-28T09:50:49Z</time>
      </trkpt>
      <trkpt lat="45.93724" lon="4.72506">
        <ele>171</ele>
        <time>2018-09-28T09:50:50Z</time>
      </trkpt>
      <trkpt lat="45.9373" lon="4.72511">
        <ele>171</ele>
        <time>2018-09-28T09:50:53Z</time>
      </trkpt>
      <trkpt lat="45.93732" lon="4.72513">
        <ele>171</ele>
        <time>2018-09-28T09:50:54Z</time>
      </trkpt>
      <trkpt lat="45.93735" lon="4.72516">
        <ele>171</ele>
        <time>2018-09-28T09:50:55Z</time>
      </trkpt>
      <trkpt lat="45.93742" lon="4.72522">
        <ele>172</ele>
        <time>2018-09-28T09:50:56Z</time>
      </trkpt>
      <trkpt lat="45.93746" lon="4.72527">
        <ele>172</ele>
        <time>2018-09-28T09:50:57Z</time>
      </trkpt>
      <trkpt lat="45.93752" lon="4.72529">
        <ele>172</ele>
        <time>2018-09-28T09:50:58Z</time>
      </trkpt>
      <trkpt lat="45.93758" lon="4.72537">
        <ele>173</ele>
        <time>2018-09-28T09:51:00Z</time>
      </trkpt>
      <trkpt lat="45.93763" lon="4.7254">
        <ele>173</ele>
        <time>2018-09-28T09:51:01Z</time>
      </trkpt>
      <trkpt lat="45.93768" lon="4.72543">
        <ele>173</ele>
        <time>2018-09-28T09:51:02Z</time>
      </trkpt>
      <trkpt lat="45.93772" lon="4.72546">
        <ele>173</ele>
        <time>2018-09-28T09:51:03Z</time>
      </trkpt>
      <trkpt lat="45.93779" lon="4.72553">
        <ele>173</ele>
        <time>2018-09-28T09:51:05Z</time>
      </trkpt>
      <trkpt lat="45.93782" lon="4.72557">
        <ele>173</ele>
        <time>2018-09-28T09:51:06Z</time>
      </trkpt>
      <trkpt lat="45.93802" lon="4.72575">
        <ele>174</ele>
        <time>2018-09-28T09:51:17Z</time>
      </trkpt>
      <trkpt lat="45.93803" lon="4.72579">
        <ele>174</ele>
        <time>2018-09-28T09:51:18Z</time>
      </trkpt>
      <trkpt lat="45.93803" lon="4.72588">
        <ele>174</ele>
        <time>2018-09-28T09:51:19Z</time>
      </trkpt>
      <trkpt lat="45.93804" lon="4.726">
        <ele>173</ele>
        <time>2018-09-28T09:51:22Z</time>
      </trkpt>
      <trkpt lat="45.93804" lon="4.72601">
        <ele>173</ele>
        <time>2018-09-28T09:51:22.369Z</time>
      </trkpt>
      <trkpt lat="45.93803" lon="4.7261">
        <ele>173</ele>
        <time>2018-09-28T09:51:23Z</time>
      </trkpt>
      <trkpt lat="45.938" lon="4.72615">
        <ele>173</ele>
        <time>2018-09-28T09:51:24Z</time>
      </trkpt>
      <trkpt lat="45.93797" lon="4.72622">
        <ele>173</ele>
        <time>2018-09-28T09:51:25Z</time>
      </trkpt>
      <trkpt lat="45.93794" lon="4.72626">
        <ele>173</ele>
        <time>2018-09-28T09:51:26Z</time>
      </trkpt>
      <trkpt lat="45.93791" lon="4.72632">
        <ele>173</ele>
        <time>2018-09-28T09:51:27Z</time>
      </trkpt>
      <trkpt lat="45.93788" lon="4.72636">
        <ele>173</ele>
        <time>2018-09-28T09:51:28Z</time>
      </trkpt>
      <trkpt lat="45.93785" lon="4.72641">
        <ele>173</ele>
        <time>2018-09-28T09:51:30Z</time>
      </trkpt>
      <trkpt lat="45.93781" lon="4.72649">
        <ele>173</ele>
        <time>2018-09-28T09:51:31Z</time>
      </trkpt>
      <trkpt lat="45.93776" lon="4.72655">
        <ele>173</ele>
        <time>2018-09-28T09:51:33Z</time>
      </trkpt>
      <trkpt lat="45.93772" lon="4.72661">
        <ele>173</ele>
        <time>2018-09-28T09:51:34Z</time>
      </trkpt>
      <trkpt lat="45.93767" lon="4.72669">
        <ele>173</ele>
        <time>2018-09-28T09:51:36Z</time>
      </trkpt>
      <trkpt lat="45.93764" lon="4.72672">
        <ele>173</ele>
        <time>2018-09-28T09:51:37Z</time>
      </trkpt>
      <trkpt lat="45.93759" lon="4.72679">
        <ele>173</ele>
        <time>2018-09-28T09:51:39Z</time>
      </trkpt>
      <trkpt lat="45.93756" lon="4.72685">
        <ele>173</ele>
        <time>2018-09-28T09:51:40Z</time>
      </trkpt>
      <trkpt lat="45.9375" lon="4.72693">
        <ele>172</ele>
        <time>2018-09-28T09:51:42Z</time>
      </trkpt>
      <trkpt lat="45.93747" lon="4.72697">
        <ele>173</ele>
        <time>2018-09-28T09:51:43Z</time>
      </trkpt>
      <trkpt lat="45.93743" lon="4.72701">
        <ele>173</ele>
        <time>2018-09-28T09:51:44Z</time>
      </trkpt>
      <trkpt lat="45.9374" lon="4.72707">
        <ele>173</ele>
        <time>2018-09-28T09:51:45Z</time>
      </trkpt>
      <trkpt lat="45.93732" lon="4.72713">
        <ele>173</ele>
        <time>2018-09-28T09:51:47Z</time>
      </trkpt>
      <trkpt lat="45.93728" lon="4.72717">
        <ele>173</ele>
        <time>2018-09-28T09:51:48Z</time>
      </trkpt>
      <trkpt lat="45.93721" lon="4.72725">
        <ele>173</ele>
        <time>2018-09-28T09:51:50Z</time>
      </trkpt>
      <trkpt lat="45.93718" lon="4.72729">
        <ele>173</ele>
        <time>2018-09-28T09:51:51Z</time>
      </trkpt>
      <trkpt lat="45.93714" lon="4.72733">
        <ele>173</ele>
        <time>2018-09-28T09:51:52Z</time>
      </trkpt>
      <trkpt lat="45.9371" lon="4.72737">
        <ele>173</ele>
        <time>2018-09-28T09:51:53Z</time>
      </trkpt>
      <trkpt lat="45.93704" lon="4.72742">
        <ele>173</ele>
        <time>2018-09-28T09:51:55Z</time>
      </trkpt>
      <trkpt lat="45.93699" lon="4.72747">
        <ele>173</ele>
        <time>2018-09-28T09:51:56Z</time>
      </trkpt>
      <trkpt lat="45.93695" lon="4.7275">
        <ele>172</ele>
        <time>2018-09-28T09:51:57Z</time>
      </trkpt>
      <trkpt lat="45.9369" lon="4.72754">
        <ele>172</ele>
        <time>2018-09-28T09:51:58Z</time>
      </trkpt>
      <trkpt lat="45.93687" lon="4.7276">
        <ele>172</ele>
        <time>2018-09-28T09:51:59Z</time>
      </trkpt>
      <trkpt lat="45.93683" lon="4.72763">
        <ele>173</ele>
        <time>2018-09-28T09:52:00Z</time>
      </trkpt>
      <trkpt lat="45.93679" lon="4.72769">
        <ele>172</ele>
        <time>2018-09-28T09:52:01Z</time>
      </trkpt>
      <trkpt lat="45.93676" lon="4.72772">
        <ele>172</ele>
        <time>2018-09-28T09:52:02Z</time>
      </trkpt>
      <trkpt lat="45.93669" lon="4.72775">
        <ele>172</ele>
        <time>2018-09-28T09:52:04Z</time>
      </trkpt>
      <trkpt lat="45.93666" lon="4.72778">
        <ele>174</ele>
        <time>2018-09-28T09:52:05Z</time>
      </trkpt>
      <trkpt lat="45.93659" lon="4.72783">
        <ele>173</ele>
        <time>2018-09-28T09:52:07Z</time>
      </trkpt>
      <trkpt lat="45.93655" lon="4.72786">
        <ele>173</ele>
        <time>2018-09-28T09:52:08Z</time>
      </trkpt>
      <trkpt lat="45.93647" lon="4.72792">
        <ele>173</ele>
        <time>2018-09-28T09:52:10Z</time>
      </trkpt>
      <trkpt lat="45.93644" lon="4.72794">
        <ele>173</ele>
        <time>2018-09-28T09:52:11Z</time>
      </trkpt>
      <trkpt lat="45.93639" lon="4.72798">
        <ele>173</ele>
        <time>2018-09-28T09:52:12Z</time>
      </trkpt>
      <trkpt lat="45.93635" lon="4.728">
        <ele>173</ele>
        <time>2018-09-28T09:52:13Z</time>
      </trkpt>
      <trkpt lat="45.93628" lon="4.72806">
        <ele>173</ele>
        <time>2018-09-28T09:52:15Z</time>
      </trkpt>
      <trkpt lat="45.93624" lon="4.72809">
        <ele>173</ele>
        <time>2018-09-28T09:52:16Z</time>
      </trkpt>
      <trkpt lat="45.93619" lon="4.72813">
        <ele>173</ele>
        <time>2018-09-28T09:52:17Z</time>
      </trkpt>
      <trkpt lat="45.93615" lon="4.72815">
        <ele>173</ele>
        <time>2018-09-28T09:52:18Z</time>
      </trkpt>
      <trkpt lat="45.9361" lon="4.72818">
        <ele>173</ele>
        <time>2018-09-28T09:52:19Z</time>
      </trkpt>
      <trkpt lat="45.93606" lon="4.72821">
        <ele>173</ele>
        <time>2018-09-28T09:52:20Z</time>
      </trkpt>
      <trkpt lat="45.93602" lon="4.72824">
        <ele>173</ele>
        <time>2018-09-28T09:52:21Z</time>
      </trkpt>
      <trkpt lat="45.93598" lon="4.72828">
        <ele>173</ele>
        <time>2018-09-28T09:52:22Z</time>
      </trkpt>
      <trkpt lat="45.93594" lon="4.72831">
        <ele>173</ele>
        <time>2018-09-28T09:52:23Z</time>
      </trkpt>
      <trkpt lat="45.93589" lon="4.72835">
        <ele>172</ele>
        <time>2018-09-28T09:52:24Z</time>
      </trkpt>
      <trkpt lat="45.93585" lon="4.72839">
        <ele>172</ele>
        <time>2018-09-28T09:52:25Z</time>
      </trkpt>
      <trkpt lat="45.93581" lon="4.72843">
        <ele>172</ele>
        <time>2018-09-28T09:52:26Z</time>
      </trkpt>
      <trkpt lat="45.93577" lon="4.72846">
        <ele>172</ele>
        <time>2018-09-28T09:52:27Z</time>
      </trkpt>
      <trkpt lat="45.93572" lon="4.72849">
        <ele>172</ele>
        <time>2018-09-28T09:52:28Z</time>
      </trkpt>
      <trkpt lat="45.93565" lon="4.72854">
        <ele>172</ele>
        <time>2018-09-28T09:52:30Z</time>
      </trkpt>
      <trkpt lat="45.93563" lon="4.72855">
        <ele>172</ele>
        <time>2018-09-28T09:52:31Z</time>
      </trkpt>
      <trkpt lat="45.93556" lon="4.72862">
        <ele>172</ele>
        <time>2018-09-28T09:52:33Z</time>
      </trkpt>
      <trkpt lat="45.93553" lon="4.72864">
        <ele>172</ele>
        <time>2018-09-28T09:52:34Z</time>
      </trkpt>
      <trkpt lat="45.93547" lon="4.7287">
        <ele>172</ele>
        <time>2018-09-28T09:52:36Z</time>
      </trkpt>
      <trkpt lat="45.93544" lon="4.72874">
        <ele>172</ele>
        <time>2018-09-28T09:52:37Z</time>
      </trkpt>
      <trkpt lat="45.93541" lon="4.72879">
        <ele>172</ele>
        <time>2018-09-28T09:52:38Z</time>
      </trkpt>
      <trkpt lat="45.93537" lon="4.72883">
        <ele>172</ele>
        <time>2018-09-28T09:52:39Z</time>
      </trkpt>
      <trkpt lat="45.9353" lon="4.72889">
        <ele>172</ele>
        <time>2018-09-28T09:52:41Z</time>
      </trkpt>
      <trkpt lat="45.93526" lon="4.72893">
        <ele>172</ele>
        <time>2018-09-28T09:52:42Z</time>
      </trkpt>
      <trkpt lat="45.9352" lon="4.72903">
        <ele>172</ele>
        <time>2018-09-28T09:52:44Z</time>
      </trkpt>
      <trkpt lat="45.93519" lon="4.72905">
        <ele>172</ele>
        <time>2018-09-28T09:52:45Z</time>
      </trkpt>
      <trkpt lat="45.93513" lon="4.72911">
        <ele>172</ele>
        <time>2018-09-28T09:52:48Z</time>
      </trkpt>
      <trkpt lat="45.9351" lon="4.72913">
        <ele>172</ele>
        <time>2018-09-28T09:52:49Z</time>
      </trkpt>
      <trkpt lat="45.93504" lon="4.72922">
        <ele>172</ele>
        <time>2018-09-28T09:52:50Z</time>
      </trkpt>
      <trkpt lat="45.93501" lon="4.72925">
        <ele>171</ele>
        <time>2018-09-28T09:52:51Z</time>
      </trkpt>
      <trkpt lat="45.93498" lon="4.72934">
        <ele>172</ele>
        <time>2018-09-28T09:52:53Z</time>
      </trkpt>
      <trkpt lat="45.93498" lon="4.7294">
        <ele>172</ele>
        <time>2018-09-28T09:52:54Z</time>
      </trkpt>
      <trkpt lat="45.93496" lon="4.72952">
        <ele>171</ele>
        <time>2018-09-28T09:52:56Z</time>
      </trkpt>
      <trkpt lat="45.93496" lon="4.72957">
        <ele>171</ele>
        <time>2018-09-28T09:52:57Z</time>
      </trkpt>
      <trkpt lat="45.93494" lon="4.72968">
        <ele>171</ele>
        <time>2018-09-28T09:52:59Z</time>
      </trkpt>
      <trkpt lat="45.93493" lon="4.7297">
        <ele>171</ele>
        <time>2018-09-28T09:53:00Z</time>
      </trkpt>
      <trkpt lat="45.93491" lon="4.72976">
        <ele>171</ele>
        <time>2018-09-28T09:53:02Z</time>
      </trkpt>
      <trkpt lat="45.93489" lon="4.72987">
        <ele>170</ele>
        <time>2018-09-28T09:53:03Z</time>
      </trkpt>
      <trkpt lat="45.93488" lon="4.72999">
        <ele>170</ele>
        <time>2018-09-28T09:53:05Z</time>
      </trkpt>
      <trkpt lat="45.93488" lon="4.73006">
        <ele>170</ele>
        <time>2018-09-28T09:53:06Z</time>
      </trkpt>
      <trkpt lat="45.93488" lon="4.73018">
        <ele>170</ele>
        <time>2018-09-28T09:53:08Z</time>
      </trkpt>
      <trkpt lat="45.93488" lon="4.73021">
        <ele>170</ele>
        <time>2018-09-28T09:53:09Z</time>
      </trkpt>
      <trkpt lat="45.93487" lon="4.73029">
        <ele>170</ele>
        <time>2018-09-28T09:53:10Z</time>
      </trkpt>
      <trkpt lat="45.93486" lon="4.73034">
        <ele>170</ele>
        <time>2018-09-28T09:53:11Z</time>
      </trkpt>
      <trkpt lat="45.93487" lon="4.73046">
        <ele>170</ele>
        <time>2018-09-28T09:53:13Z</time>
      </trkpt>
      <trkpt lat="45.93487" lon="4.73054">
        <ele>170</ele>
        <time>2018-09-28T09:53:14Z</time>
      </trkpt>
      <trkpt lat="45.93486" lon="4.73061">
        <ele>170</ele>
        <time>2018-09-28T09:53:15Z</time>
      </trkpt>
      <trkpt lat="45.93487" lon="4.73068">
        <ele>170</ele>
        <time>2018-09-28T09:53:16Z</time>
      </trkpt>
      <trkpt lat="45.93486" lon="4.7308">
        <ele>170</ele>
        <time>2018-09-28T09:53:18Z</time>
      </trkpt>
      <trkpt lat="45.93487" lon="4.73087">
        <ele>170</ele>
        <time>2018-09-28T09:53:19Z</time>
      </trkpt>
      <trkpt lat="45.93488" lon="4.73097">
        <ele>170</ele>
        <time>2018-09-28T09:53:21Z</time>
      </trkpt>
      <trkpt lat="45.93488" lon="4.73101">
        <ele>170</ele>
        <time>2018-09-28T09:53:22Z</time>
      </trkpt>
      <trkpt lat="45.93489" lon="4.73108">
        <ele>170</ele>
        <time>2018-09-28T09:53:24Z</time>
      </trkpt>
      <trkpt lat="45.9349" lon="4.7312">
        <ele>170</ele>
        <time>2018-09-28T09:53:25Z</time>
      </trkpt>
      <trkpt lat="45.93492" lon="4.7313">
        <ele>170</ele>
        <time>2018-09-28T09:53:27Z</time>
      </trkpt>
      <trkpt lat="45.93492" lon="4.73133">
        <ele>170</ele>
        <time>2018-09-28T09:53:28Z</time>
      </trkpt>
      <trkpt lat="45.93492" lon="4.73145">
        <ele>170</ele>
        <time>2018-09-28T09:53:30Z</time>
      </trkpt>
      <trkpt lat="45.93493" lon="4.73151">
        <ele>170</ele>
        <time>2018-09-28T09:53:31Z</time>
      </trkpt>
      <trkpt lat="45.93495" lon="4.73163">
        <ele>170</ele>
        <time>2018-09-28T09:53:34Z</time>
      </trkpt>
      <trkpt lat="45.93496" lon="4.73166">
        <ele>170</ele>
        <time>2018-09-28T09:53:35Z</time>
      </trkpt>
      <trkpt lat="45.93499" lon="4.73176">
        <ele>170</ele>
        <time>2018-09-28T09:53:38Z</time>
      </trkpt>
      <trkpt lat="45.93501" lon="4.73179">
        <ele>169</ele>
        <time>2018-09-28T09:53:39Z</time>
      </trkpt>
      <trkpt lat="45.93504" lon="4.73191">
        <ele>169</ele>
        <time>2018-09-28T09:53:40Z</time>
      </trkpt>
      <trkpt lat="45.93505" lon="4.73195">
        <ele>169</ele>
        <time>2018-09-28T09:53:41Z</time>
      </trkpt>
      <trkpt lat="45.93507" lon="4.73204">
        <ele>169</ele>
        <time>2018-09-28T09:53:42Z</time>
      </trkpt>
      <trkpt lat="45.93509" lon="4.7321">
        <ele>169</ele>
        <time>2018-09-28T09:53:43Z</time>
      </trkpt>
      <trkpt lat="45.93509" lon="4.73216">
        <ele>169</ele>
        <time>2018-09-28T09:53:44Z</time>
      </trkpt>
      <trkpt lat="45.93511" lon="4.73228">
        <ele>169</ele>
        <time>2018-09-28T09:53:46Z</time>
      </trkpt>
      <trkpt lat="45.93512" lon="4.73235">
        <ele>169</ele>
        <time>2018-09-28T09:53:47Z</time>
      </trkpt>
      <trkpt lat="45.93514" lon="4.73245">
        <ele>169</ele>
        <time>2018-09-28T09:53:49Z</time>
      </trkpt>
      <trkpt lat="45.93516" lon="4.73252">
        <ele>169</ele>
        <time>2018-09-28T09:53:50Z</time>
      </trkpt>
      <trkpt lat="45.93517" lon="4.73258">
        <ele>169</ele>
        <time>2018-09-28T09:53:51Z</time>
      </trkpt>
      <trkpt lat="45.93518" lon="4.73266">
        <ele>169</ele>
        <time>2018-09-28T09:53:52Z</time>
      </trkpt>
      <trkpt lat="45.9352" lon="4.73278">
        <ele>169</ele>
        <time>2018-09-28T09:53:54Z</time>
      </trkpt>
      <trkpt lat="45.93521" lon="4.73284">
        <ele>169</ele>
        <time>2018-09-28T09:53:55Z</time>
      </trkpt>
      <trkpt lat="45.93523" lon="4.73291">
        <ele>169</ele>
        <time>2018-09-28T09:53:56Z</time>
      </trkpt>
      <trkpt lat="45.93523" lon="4.73297">
        <ele>169</ele>
        <time>2018-09-28T09:53:57Z</time>
      </trkpt>
      <trkpt lat="45.93525" lon="4.73308">
        <ele>169</ele>
        <time>2018-09-28T09:54:00Z</time>
      </trkpt>
      <trkpt lat="45.93525" lon="4.73311">
        <ele>169</ele>
        <time>2018-09-28T09:54:01Z</time>
      </trkpt>
      <trkpt lat="45.93526" lon="4.73321">
        <ele>169</ele>
        <time>2018-09-28T09:54:02Z</time>
      </trkpt>
      <trkpt lat="45.93527" lon="4.73328">
        <ele>169</ele>
        <time>2018-09-28T09:54:03Z</time>
      </trkpt>
      <trkpt lat="45.93529" lon="4.73339">
        <ele>169</ele>
        <time>2018-09-28T09:54:05Z</time>
      </trkpt>
      <trkpt lat="45.9353" lon="4.73345">
        <ele>169</ele>
        <time>2018-09-28T09:54:06Z</time>
      </trkpt>
      <trkpt lat="45.93533" lon="4.73356">
        <ele>169</ele>
        <time>2018-09-28T09:54:08Z</time>
      </trkpt>
      <trkpt lat="45.93534" lon="4.73362">
        <ele>169</ele>
        <time>2018-09-28T09:54:09Z</time>
      </trkpt>
      <trkpt lat="45.93535" lon="4.73371">
        <ele>169</ele>
        <time>2018-09-28T09:54:11Z</time>
      </trkpt>
      <trkpt lat="45.93536" lon="4.73377">
        <ele>169</ele>
        <time>2018-09-28T09:54:12Z</time>
      </trkpt>
      <trkpt lat="45.93537" lon="4.73384">
        <ele>169</ele>
        <time>2018-09-28T09:54:13Z</time>
      </trkpt>
      <trkpt lat="45.93539" lon="4.7339">
        <ele>169</ele>
        <time>2018-09-28T09:54:14Z</time>
      </trkpt>
      <trkpt lat="45.9354" lon="4.73398">
        <ele>169</ele>
        <time>2018-09-28T09:54:15Z</time>
      </trkpt>
      <trkpt lat="45.93541" lon="4.73405">
        <ele>169</ele>
        <time>2018-09-28T09:54:16Z</time>
      </trkpt>
      <trkpt lat="45.93542" lon="4.73413">
        <ele>169</ele>
        <time>2018-09-28T09:54:17Z</time>
      </trkpt>
      <trkpt lat="45.93543" lon="4.73419">
        <ele>169</ele>
        <time>2018-09-28T09:54:18Z</time>
      </trkpt>
      <trkpt lat="45.93545" lon="4.7343">
        <ele>169</ele>
        <time>2018-09-28T09:54:20Z</time>
      </trkpt>
      <trkpt lat="45.93546" lon="4.73432">
        <ele>169</ele>
        <time>2018-09-28T09:54:21Z</time>
      </trkpt>
      <trkpt lat="45.93548" lon="4.73442">
        <ele>169</ele>
        <time>2018-09-28T09:54:24Z</time>
      </trkpt>
      <trkpt lat="45.93549" lon="4.73446">
        <ele>169</ele>
        <time>2018-09-28T09:54:25Z</time>
      </trkpt>
      <trkpt lat="45.93552" lon="4.73458">
        <ele>169</ele>
        <time>2018-09-28T09:54:26Z</time>
      </trkpt>
      <trkpt lat="45.93553" lon="4.7346">
        <ele>169</ele>
        <time>2018-09-28T09:54:27Z</time>
      </trkpt>
      <trkpt lat="45.93554" lon="4.73464">
        <ele>169</ele>
        <time>2018-09-28T09:54:29Z</time>
      </trkpt>
      <trkpt lat="45.93556" lon="4.73473">
        <ele>169</ele>
        <time>2018-09-28T09:54:30Z</time>
      </trkpt>
      <trkpt lat="45.93559" lon="4.73484">
        <ele>169</ele>
        <time>2018-09-28T09:54:32Z</time>
      </trkpt>
      <trkpt lat="45.9356" lon="4.7349">
        <ele>169</ele>
        <time>2018-09-28T09:54:33Z</time>
      </trkpt>
      <trkpt lat="45.93562" lon="4.73496">
        <ele>169</ele>
        <time>2018-09-28T09:54:34Z</time>
      </trkpt>
      <trkpt lat="45.93564" lon="4.73505">
        <ele>168</ele>
        <time>2018-09-28T09:54:35Z</time>
      </trkpt>
      <trkpt lat="45.93568" lon="4.73516">
        <ele>168</ele>
        <time>2018-09-28T09:54:37Z</time>
      </trkpt>
      <trkpt lat="45.93569" lon="4.73521">
        <ele>168</ele>
        <time>2018-09-28T09:54:38Z</time>
      </trkpt>
      <trkpt lat="45.9357" lon="4.73526">
        <ele>169</ele>
        <time>2018-09-28T09:54:39Z</time>
      </trkpt>
      <trkpt lat="45.93572" lon="4.73534">
        <ele>169</ele>
        <time>2018-09-28T09:54:40Z</time>
      </trkpt>
      <trkpt lat="45.93574" lon="4.73541">
        <ele>169</ele>
        <time>2018-09-28T09:54:41Z</time>
      </trkpt>
      <trkpt lat="45.93576" lon="4.73546">
        <ele>168</ele>
        <time>2018-09-28T09:54:42Z</time>
      </trkpt>
      <trkpt lat="45.93578" lon="4.73559">
        <ele>168</ele>
        <time>2018-09-28T09:54:45Z</time>
      </trkpt>
      <trkpt lat="45.93578" lon="4.73562">
        <ele>168</ele>
        <time>2018-09-28T09:54:46Z</time>
      </trkpt>
      <trkpt lat="45.93579" lon="4.73566">
        <ele>168</ele>
        <time>2018-09-28T09:54:47Z</time>
      </trkpt>
      <trkpt lat="45.9358" lon="4.73576">
        <ele>168</ele>
        <time>2018-09-28T09:54:48Z</time>
      </trkpt>
      <trkpt lat="45.93581" lon="4.73582">
        <ele>168</ele>
        <time>2018-09-28T09:54:49Z</time>
      </trkpt>
      <trkpt lat="45.93583" lon="4.73588">
        <ele>168</ele>
        <time>2018-09-28T09:54:50Z</time>
      </trkpt>
      <trkpt lat="45.93585" lon="4.73601">
        <ele>168</ele>
        <time>2018-09-28T09:54:52Z</time>
      </trkpt>
      <trkpt lat="45.93586" lon="4.73608">
        <ele>168</ele>
        <time>2018-09-28T09:54:53Z</time>
      </trkpt>
      <trkpt lat="45.93587" lon="4.73621">
        <ele>168</ele>
        <time>2018-09-28T09:54:55Z</time>
      </trkpt>
      <trkpt lat="45.93587" lon="4.73629">
        <ele>168</ele>
        <time>2018-09-28T09:54:56Z</time>
      </trkpt>
      <trkpt lat="45.93588" lon="4.73641">
        <ele>168</ele>
        <time>2018-09-28T09:54:58Z</time>
      </trkpt>
      <trkpt lat="45.93589" lon="4.73644">
        <ele>168</ele>
        <time>2018-09-28T09:54:59Z</time>
      </trkpt>
      <trkpt lat="45.93591" lon="4.73653">
        <ele>168</ele>
        <time>2018-09-28T09:55:00Z</time>
      </trkpt>
      <trkpt lat="45.93592" lon="4.73659">
        <ele>168</ele>
        <time>2018-09-28T09:55:01Z</time>
      </trkpt>
      <trkpt lat="45.93594" lon="4.73665">
        <ele>168</ele>
        <time>2018-09-28T09:55:02Z</time>
      </trkpt>
      <trkpt lat="45.93595" lon="4.73672">
        <ele>169</ele>
        <time>2018-09-28T09:55:03Z</time>
      </trkpt>
      <trkpt lat="45.93597" lon="4.7368">
        <ele>169</ele>
        <time>2018-09-28T09:55:04Z</time>
      </trkpt>
      <trkpt lat="45.93598" lon="4.73686">
        <ele>169</ele>
        <time>2018-09-28T09:55:05Z</time>
      </trkpt>
      <trkpt lat="45.93598" lon="4.73697">
        <ele>169</ele>
        <time>2018-09-28T09:55:07Z</time>
      </trkpt>
      <trkpt lat="45.93597" lon="4.73704">
        <ele>169</ele>
        <time>2018-09-28T09:55:08Z</time>
      </trkpt>
      <trkpt lat="45.93596" lon="4.7371">
        <ele>169</ele>
        <time>2018-09-28T09:55:09Z</time>
      </trkpt>
      <trkpt lat="45.93595" lon="4.73717">
        <ele>169</ele>
        <time>2018-09-28T09:55:10Z</time>
      </trkpt>
      <trkpt lat="45.93592" lon="4.73722">
        <ele>169</ele>
        <time>2018-09-28T09:55:11Z</time>
      </trkpt>
      <trkpt lat="45.9359" lon="4.73727">
        <ele>169</ele>
        <time>2018-09-28T09:55:12Z</time>
      </trkpt>
      <trkpt lat="45.93583" lon="4.73734">
        <ele>169</ele>
        <time>2018-09-28T09:55:14Z</time>
      </trkpt>
      <trkpt lat="45.9358" lon="4.73737">
        <ele>169</ele>
        <time>2018-09-28T09:55:15Z</time>
      </trkpt>
      <trkpt lat="45.93575" lon="4.73742">
        <ele>169</ele>
        <time>2018-09-28T09:55:16Z</time>
      </trkpt>
      <trkpt lat="45.93572" lon="4.73747">
        <ele>169</ele>
        <time>2018-09-28T09:55:17Z</time>
      </trkpt>
      <trkpt lat="45.93568" lon="4.7375">
        <ele>169</ele>
        <time>2018-09-28T09:55:18Z</time>
      </trkpt>
      <trkpt lat="45.93563" lon="4.73754">
        <ele>169</ele>
        <time>2018-09-28T09:55:19Z</time>
      </trkpt>
      <trkpt lat="45.93559" lon="4.73759">
        <ele>169</ele>
        <time>2018-09-28T09:55:20Z</time>
      </trkpt>
      <trkpt lat="45.93556" lon="4.73762">
        <ele>169</ele>
        <time>2018-09-28T09:55:21Z</time>
      </trkpt>
      <trkpt lat="45.93549" lon="4.73769">
        <ele>169</ele>
        <time>2018-09-28T09:55:23Z</time>
      </trkpt>
      <trkpt lat="45.93546" lon="4.73773">
        <ele>169</ele>
        <time>2018-09-28T09:55:24Z</time>
      </trkpt>
      <trkpt lat="45.93542" lon="4.73775">
        <ele>169</ele>
        <time>2018-09-28T09:55:25Z</time>
      </trkpt>
      <trkpt lat="45.93537" lon="4.73779">
        <ele>169</ele>
        <time>2018-09-28T09:55:26Z</time>
      </trkpt>
      <trkpt lat="45.93532" lon="4.73783">
        <ele>169</ele>
        <time>2018-09-28T09:55:27Z</time>
      </trkpt>
      <trkpt lat="45.93528" lon="4.73787">
        <ele>169</ele>
        <time>2018-09-28T09:55:28Z</time>
      </trkpt>
      <trkpt lat="45.93524" lon="4.7379">
        <ele>169</ele>
        <time>2018-09-28T09:55:29Z</time>
      </trkpt>
      <trkpt lat="45.93521" lon="4.73795">
        <ele>169</ele>
        <time>2018-09-28T09:55:30Z</time>
      </trkpt>
      <trkpt lat="45.93513" lon="4.73801">
        <ele>169</ele>
        <time>2018-09-28T09:55:33Z</time>
      </trkpt>
      <trkpt lat="45.93507" lon="4.73807">
        <ele>169</ele>
        <time>2018-09-28T09:55:34Z</time>
      </trkpt>
      <trkpt lat="45.935" lon="4.73812">
        <ele>169</ele>
        <time>2018-09-28T09:55:36Z</time>
      </trkpt>
      <trkpt lat="45.93496" lon="4.73815">
        <ele>169</ele>
        <time>2018-09-28T09:55:37Z</time>
      </trkpt>
      <trkpt lat="45.93491" lon="4.73817">
        <ele>169</ele>
        <time>2018-09-28T09:55:38Z</time>
      </trkpt>
      <trkpt lat="45.93487" lon="4.73821">
        <ele>169</ele>
        <time>2018-09-28T09:55:39Z</time>
      </trkpt>
      <trkpt lat="45.93483" lon="4.73823">
        <ele>169</ele>
        <time>2018-09-28T09:55:40Z</time>
      </trkpt>
      <trkpt lat="45.93478" lon="4.73824">
        <ele>169</ele>
        <time>2018-09-28T09:55:41Z</time>
      </trkpt>
      <trkpt lat="45.93473" lon="4.73829">
        <ele>169</ele>
        <time>2018-09-28T09:55:42Z</time>
      </trkpt>
      <trkpt lat="45.9347" lon="4.73832">
        <ele>169</ele>
        <time>2018-09-28T09:55:43Z</time>
      </trkpt>
      <trkpt lat="45.93466" lon="4.73833">
        <ele>169</ele>
        <time>2018-09-28T09:55:44Z</time>
      </trkpt>
      <trkpt lat="45.93461" lon="4.73835">
        <ele>169</ele>
        <time>2018-09-28T09:55:45Z</time>
      </trkpt>
      <trkpt lat="45.93453" lon="4.73837">
        <ele>169</ele>
        <time>2018-09-28T09:55:48Z</time>
      </trkpt>
      <trkpt lat="45.93451" lon="4.73838">
        <ele>169</ele>
        <time>2018-09-28T09:55:49Z</time>
      </trkpt>
      <trkpt lat="45.93449" lon="4.73839">
        <ele>169</ele>
        <time>2018-09-28T09:55:50Z</time>
      </trkpt>
      <trkpt lat="45.93442" lon="4.73843">
        <ele>169</ele>
        <time>2018-09-28T09:55:51Z</time>
      </trkpt>
      <trkpt lat="45.93434" lon="4.73846">
        <ele>169</ele>
        <time>2018-09-28T09:55:53Z</time>
      </trkpt>
      <trkpt lat="45.9343" lon="4.73848">
        <ele>169</ele>
        <time>2018-09-28T09:55:54Z</time>
      </trkpt>
      <trkpt lat="45.93423" lon="4.73852">
        <ele>169</ele>
        <time>2018-09-28T09:55:56Z</time>
      </trkpt>
      <trkpt lat="45.93421" lon="4.73853">
        <ele>169</ele>
        <time>2018-09-28T09:55:57Z</time>
      </trkpt>
      <trkpt lat="45.93418" lon="4.73855">
        <ele>169</ele>
        <time>2018-09-28T09:55:58Z</time>
      </trkpt>
      <trkpt lat="45.93412" lon="4.73858">
        <ele>169</ele>
        <time>2018-09-28T09:55:59Z</time>
      </trkpt>
      <trkpt lat="45.93404" lon="4.73863">
        <ele>169</ele>
        <time>2018-09-28T09:56:01Z</time>
      </trkpt>
      <trkpt lat="45.93398" lon="4.73867">
        <ele>169</ele>
        <time>2018-09-28T09:56:02Z</time>
      </trkpt>
      <trkpt lat="45.9339" lon="4.73871">
        <ele>169</ele>
        <time>2018-09-28T09:56:04Z</time>
      </trkpt>
      <trkpt lat="45.93385" lon="4.73874">
        <ele>169</ele>
        <time>2018-09-28T09:56:05Z</time>
      </trkpt>
      <trkpt lat="45.93377" lon="4.73878">
        <ele>168</ele>
        <time>2018-09-28T09:56:09Z</time>
      </trkpt>
      <trkpt lat="45.93375" lon="4.7388">
        <ele>168</ele>
        <time>2018-09-28T09:56:10Z</time>
      </trkpt>
      <trkpt lat="45.9337" lon="4.73885">
        <ele>168</ele>
        <time>2018-09-28T09:56:12Z</time>
      </trkpt>
      <trkpt lat="45.93368" lon="4.73888">
        <ele>168</ele>
        <time>2018-09-28T09:56:13Z</time>
      </trkpt>
      <trkpt lat="45.93361" lon="4.73898">
        <ele>168</ele>
        <time>2018-09-28T09:56:14Z</time>
      </trkpt>
      <trkpt lat="45.93355" lon="4.73905">
        <ele>168</ele>
        <time>2018-09-28T09:56:17Z</time>
      </trkpt>
      <trkpt lat="45.93353" lon="4.73907">
        <ele>168</ele>
        <time>2018-09-28T09:56:18Z</time>
      </trkpt>
      <trkpt lat="45.93348" lon="4.73916">
        <ele>168</ele>
        <time>2018-09-28T09:56:21Z</time>
      </trkpt>
      <trkpt lat="45.93346" lon="4.73919">
        <ele>168</ele>
        <time>2018-09-28T09:56:22Z</time>
      </trkpt>
      <trkpt lat="45.93342" lon="4.73926">
        <ele>168</ele>
        <time>2018-09-28T09:56:24Z</time>
      </trkpt>
      <trkpt lat="45.93337" lon="4.73937">
        <ele>168</ele>
        <time>2018-09-28T09:56:25Z</time>
      </trkpt>
      <trkpt lat="45.93332" lon="4.73946">
        <ele>168</ele>
        <time>2018-09-28T09:56:27Z</time>
      </trkpt>
      <trkpt lat="45.9333" lon="4.7395">
        <ele>168</ele>
        <time>2018-09-28T09:56:28Z</time>
      </trkpt>
      <trkpt lat="45.93326" lon="4.7396">
        <ele>168</ele>
        <time>2018-09-28T09:56:30Z</time>
      </trkpt>
      <trkpt lat="45.93324" lon="4.73964">
        <ele>168</ele>
        <time>2018-09-28T09:56:31Z</time>
      </trkpt>
      <trkpt lat="45.93319" lon="4.73973">
        <ele>168</ele>
        <time>2018-09-28T09:56:33Z</time>
      </trkpt>
      <trkpt lat="45.93317" lon="4.73977">
        <ele>168</ele>
        <time>2018-09-28T09:56:34Z</time>
      </trkpt>
      <trkpt lat="45.93312" lon="4.73987">
        <ele>168</ele>
        <time>2018-09-28T09:56:38Z</time>
      </trkpt>
      <trkpt lat="45.9331" lon="4.73991">
        <ele>168</ele>
        <time>2018-09-28T09:56:39Z</time>
      </trkpt>
      <trkpt lat="45.93305" lon="4.74">
        <ele>168</ele>
        <time>2018-09-28T09:56:40Z</time>
      </trkpt>
      <trkpt lat="45.93302" lon="4.74005">
        <ele>168</ele>
        <time>2018-09-28T09:56:41Z</time>
      </trkpt>
      <trkpt lat="45.93298" lon="4.74014">
        <ele>168</ele>
        <time>2018-09-28T09:56:43Z</time>
      </trkpt>
      <trkpt lat="45.93296" lon="4.74019">
        <ele>168</ele>
        <time>2018-09-28T09:56:44Z</time>
      </trkpt>
      <trkpt lat="45.93293" lon="4.74025">
        <ele>168</ele>
        <time>2018-09-28T09:56:45Z</time>
      </trkpt>
      <trkpt lat="45.93291" lon="4.7403">
        <ele>168</ele>
        <time>2018-09-28T09:56:46Z</time>
      </trkpt>
      <trkpt lat="45.93286" lon="4.7404">
        <ele>168</ele>
        <time>2018-09-28T09:56:48Z</time>
      </trkpt>
      <trkpt lat="45.93284" lon="4.74045">
        <ele>168</ele>
        <time>2018-09-28T09:56:49Z</time>
      </trkpt>
      <trkpt lat="45.93279" lon="4.74055">
        <ele>168</ele>
        <time>2018-09-28T09:56:53Z</time>
      </trkpt>
      <trkpt lat="45.93278" lon="4.74058">
        <ele>168</ele>
        <time>2018-09-28T09:56:54Z</time>
      </trkpt>
      <trkpt lat="45.93276" lon="4.7406">
        <ele>168</ele>
        <time>2018-09-28T09:56:55Z</time>
      </trkpt>
      <trkpt lat="45.93272" lon="4.7407">
        <ele>168</ele>
        <time>2018-09-28T09:56:56Z</time>
      </trkpt>
      <trkpt lat="45.93267" lon="4.74077">
        <ele>167</ele>
        <time>2018-09-28T09:56:59Z</time>
      </trkpt>
      <trkpt lat="45.93266" lon="4.7408">
        <ele>167</ele>
        <time>2018-09-28T09:57:00Z</time>
      </trkpt>
      <trkpt lat="45.93264" lon="4.74083">
        <ele>167</ele>
        <time>2018-09-28T09:57:01Z</time>
      </trkpt>
      <trkpt lat="45.93259" lon="4.74093">
        <ele>167</ele>
        <time>2018-09-28T09:57:02Z</time>
      </trkpt>
      <trkpt lat="45.93254" lon="4.74102">
        <ele>167</ele>
        <time>2018-09-28T09:57:04Z</time>
      </trkpt>
      <trkpt lat="45.93253" lon="4.74104">
        <ele>167</ele>
        <time>2018-09-28T09:57:05Z</time>
      </trkpt>
      <trkpt lat="45.93247" lon="4.74113">
        <ele>167</ele>
        <time>2018-09-28T09:57:09Z</time>
      </trkpt>
      <trkpt lat="45.93245" lon="4.74114">
        <ele>167</ele>
        <time>2018-09-28T09:57:10Z</time>
      </trkpt>
      <trkpt lat="45.93237" lon="4.74118">
        <ele>167</ele>
        <time>2018-09-28T09:57:13Z</time>
      </trkpt>
      <trkpt lat="45.93234" lon="4.74118">
        <ele>167</ele>
        <time>2018-09-28T09:57:14Z</time>
      </trkpt>
      <trkpt lat="45.93228" lon="4.74118">
        <ele>167</ele>
        <time>2018-09-28T09:57:16Z</time>
      </trkpt>
      <trkpt lat="45.93225" lon="4.74117">
        <ele>167</ele>
        <time>2018-09-28T09:57:17Z</time>
      </trkpt>
      <trkpt lat="45.93215" lon="4.74112">
        <ele>167</ele>
        <time>2018-09-28T09:57:18Z</time>
      </trkpt>
      <trkpt lat="45.93208" lon="4.74105">
        <ele>167</ele>
        <time>2018-09-28T09:57:20Z</time>
      </trkpt>
      <trkpt lat="45.93204" lon="4.74101">
        <ele>167</ele>
        <time>2018-09-28T09:57:21Z</time>
      </trkpt>
      <trkpt lat="45.93197" lon="4.74095">
        <ele>167</ele>
        <time>2018-09-28T09:57:24Z</time>
      </trkpt>
      <trkpt lat="45.93194" lon="4.74093">
        <ele>167</ele>
        <time>2018-09-28T09:57:25Z</time>
      </trkpt>
      <trkpt lat="45.93187" lon="4.74086">
        <ele>168</ele>
        <time>2018-09-28T09:57:28Z</time>
      </trkpt>
      <trkpt lat="45.93184" lon="4.74084">
        <ele>168</ele>
        <time>2018-09-28T09:57:29Z</time>
      </trkpt>
      <trkpt lat="45.93179" lon="4.74077">
        <ele>168</ele>
        <time>2018-09-28T09:57:31Z</time>
      </trkpt>
      <trkpt lat="45.93171" lon="4.74069">
        <ele>168</ele>
        <time>2018-09-28T09:57:32Z</time>
      </trkpt>
      <trkpt lat="45.93163" lon="4.74063">
        <ele>168</ele>
        <time>2018-09-28T09:57:34Z</time>
      </trkpt>
      <trkpt lat="45.9316" lon="4.7406">
        <ele>168</ele>
        <time>2018-09-28T09:57:35Z</time>
      </trkpt>
      <trkpt lat="45.93155" lon="4.74054">
        <ele>168</ele>
        <time>2018-09-28T09:57:38Z</time>
      </trkpt>
      <trkpt lat="45.93152" lon="4.74051">
        <ele>168</ele>
        <time>2018-09-28T09:57:39Z</time>
      </trkpt>
      <trkpt lat="45.93147" lon="4.74048">
        <ele>168</ele>
        <time>2018-09-28T09:57:41Z</time>
      </trkpt>
      <trkpt lat="45.93139" lon="4.74043">
        <ele>168</ele>
        <time>2018-09-28T09:57:42Z</time>
      </trkpt>
      <trkpt lat="45.93135" lon="4.74041">
        <ele>168</ele>
        <time>2018-09-28T09:57:43Z</time>
      </trkpt>
      <trkpt lat="45.9313" lon="4.74039">
        <ele>168</ele>
        <time>2018-09-28T09:57:44Z</time>
      </trkpt>
      <trkpt lat="45.93125" lon="4.74037">
        <ele>168</ele>
        <time>2018-09-28T09:57:45Z</time>
      </trkpt>
      <trkpt lat="45.93121" lon="4.74034">
        <ele>168</ele>
        <time>2018-09-28T09:57:46Z</time>
      </trkpt>
      <trkpt lat="45.93116" lon="4.74032">
        <ele>168</ele>
        <time>2018-09-28T09:57:47Z</time>
      </trkpt>
      <trkpt lat="45.93112" lon="4.74031">
        <ele>168</ele>
        <time>2018-09-28T09:57:48Z</time>
      </trkpt>
      <trkpt lat="45.93103" lon="4.74028">
        <ele>168</ele>
        <time>2018-09-28T09:57:50Z</time>
      </trkpt>
      <trkpt lat="45.93099" lon="4.74027">
        <ele>168</ele>
        <time>2018-09-28T09:57:51Z</time>
      </trkpt>
      <trkpt lat="45.93091" lon="4.74024">
        <ele>168</ele>
        <time>2018-09-28T09:57:53Z</time>
      </trkpt>
      <trkpt lat="45.93087" lon="4.74023">
        <ele>168</ele>
        <time>2018-09-28T09:57:54Z</time>
      </trkpt>
      <trkpt lat="45.9308" lon="4.74023">
        <ele>169</ele>
        <time>2018-09-28T09:57:57Z</time>
      </trkpt>
      <trkpt lat="45.93077" lon="4.74022">
        <ele>169</ele>
        <time>2018-09-28T09:57:58Z</time>
      </trkpt>
      <trkpt lat="45.93071" lon="4.74021">
        <ele>169</ele>
        <time>2018-09-28T09:58:00Z</time>
      </trkpt>
      <trkpt lat="45.93068" lon="4.7402">
        <ele>169</ele>
        <time>2018-09-28T09:58:01Z</time>
      </trkpt>
      <trkpt lat="45.9306" lon="4.74016">
        <ele>169</ele>
        <time>2018-09-28T09:58:04Z</time>
      </trkpt>
      <trkpt lat="45.93057" lon="4.74015">
        <ele>169</ele>
        <time>2018-09-28T09:58:05Z</time>
      </trkpt>
      <trkpt lat="45.93049" lon="4.7401">
        <ele>169</ele>
        <time>2018-09-28T09:58:09Z</time>
      </trkpt>
      <trkpt lat="45.93047" lon="4.74009">
        <ele>169</ele>
        <time>2018-09-28T09:58:10Z</time>
      </trkpt>
      <trkpt lat="45.9304" lon="4.74005">
        <ele>169</ele>
        <time>2018-09-28T09:58:14Z</time>
      </trkpt>
      <trkpt lat="45.93038" lon="4.74004">
        <ele>169</ele>
        <time>2018-09-28T09:58:15Z</time>
      </trkpt>
      <trkpt lat="45.93031" lon="4.74002">
        <ele>170</ele>
        <time>2018-09-28T09:58:18Z</time>
      </trkpt>
      <trkpt lat="45.93028" lon="4.74002">
        <ele>170</ele>
        <time>2018-09-28T09:58:19Z</time>
      </trkpt>
      <trkpt lat="45.93022" lon="4.74002">
        <ele>170</ele>
        <time>2018-09-28T09:58:21Z</time>
      </trkpt>
      <trkpt lat="45.93013" lon="4.74005">
        <ele>170</ele>
        <time>2018-09-28T09:58:22Z</time>
      </trkpt>
      <trkpt lat="45.93008" lon="4.74013">
        <ele>170</ele>
        <time>2018-09-28T09:58:24Z</time>
      </trkpt>
      <trkpt lat="45.93006" lon="4.74018">
        <ele>170</ele>
        <time>2018-09-28T09:58:25Z</time>
      </trkpt>
      <trkpt lat="45.93003" lon="4.74029">
        <ele>170</ele>
        <time>2018-09-28T09:58:27Z</time>
      </trkpt>
      <trkpt lat="45.93002" lon="4.74034">
        <ele>170</ele>
        <time>2018-09-28T09:58:28Z</time>
      </trkpt>
      <trkpt lat="45.93002" lon="4.74044">
        <ele>170</ele>
        <time>2018-09-28T09:58:31Z</time>
      </trkpt>
      <trkpt lat="45.93002" lon="4.74047">
        <ele>170</ele>
        <time>2018-09-28T09:58:32Z</time>
      </trkpt>
      <trkpt lat="45.93003" lon="4.74059">
        <ele>170</ele>
        <time>2018-09-28T09:58:35Z</time>
      </trkpt>
      <trkpt lat="45.93003" lon="4.74063">
        <ele>170</ele>
        <time>2018-09-28T09:58:36Z</time>
      </trkpt>
      <trkpt lat="45.93004" lon="4.74074">
        <ele>170</ele>
        <time>2018-09-28T09:58:38Z</time>
      </trkpt>
      <trkpt lat="45.93004" lon="4.74078">
        <ele>171</ele>
        <time>2018-09-28T09:58:39Z</time>
      </trkpt>
      <trkpt lat="45.93004" lon="4.74088">
        <ele>171</ele>
        <time>2018-09-28T09:58:41Z</time>
      </trkpt>
      <trkpt lat="45.93004" lon="4.74093">
        <ele>170</ele>
        <time>2018-09-28T09:58:42Z</time>
      </trkpt>
      <trkpt lat="45.93002" lon="4.74103">
        <ele>170</ele>
        <time>2018-09-28T09:58:44Z</time>
      </trkpt>
      <trkpt lat="45.93001" lon="4.74107">
        <ele>170</ele>
        <time>2018-09-28T09:58:45Z</time>
      </trkpt>
      <trkpt lat="45.92999" lon="4.74117">
        <ele>171</ele>
        <time>2018-09-28T09:58:47Z</time>
      </trkpt>
      <trkpt lat="45.92998" lon="4.74122">
        <ele>171</ele>
        <time>2018-09-28T09:58:48Z</time>
      </trkpt>
      <trkpt lat="45.92996" lon="4.74134">
        <ele>171</ele>
        <time>2018-09-28T09:58:51Z</time>
      </trkpt>
      <trkpt lat="45.92995" lon="4.74138">
        <ele>171</ele>
        <time>2018-09-28T09:58:52Z</time>
      </trkpt>
      <trkpt lat="45.92993" lon="4.74149">
        <ele>170</ele>
        <time>2018-09-28T09:58:55Z</time>
      </trkpt>
      <trkpt lat="45.92992" lon="4.74153">
        <ele>170</ele>
        <time>2018-09-28T09:58:56Z</time>
      </trkpt>
      <trkpt lat="45.92989" lon="4.74164">
        <ele>170</ele>
        <time>2018-09-28T09:58:59Z</time>
      </trkpt>
      <trkpt lat="45.92988" lon="4.74167">
        <ele>169</ele>
        <time>2018-09-28T09:59:00Z</time>
      </trkpt>
      <trkpt lat="45.92984" lon="4.74177">
        <ele>169</ele>
        <time>2018-09-28T09:59:03Z</time>
      </trkpt>
      <trkpt lat="45.92983" lon="4.7418">
        <ele>169</ele>
        <time>2018-09-28T09:59:04Z</time>
      </trkpt>
      <trkpt lat="45.9298" lon="4.7419">
        <ele>170</ele>
        <time>2018-09-28T09:59:07Z</time>
      </trkpt>
      <trkpt lat="45.92978" lon="4.74194">
        <ele>170</ele>
        <time>2018-09-28T09:59:08Z</time>
      </trkpt>
      <trkpt lat="45.92974" lon="4.74203">
        <ele>170</ele>
        <time>2018-09-28T09:59:11Z</time>
      </trkpt>
      <trkpt lat="45.92972" lon="4.74205">
        <ele>170</ele>
        <time>2018-09-28T09:59:12Z</time>
      </trkpt>
      <trkpt lat="45.92965" lon="4.74212">
        <ele>170</ele>
        <time>2018-09-28T09:59:15Z</time>
      </trkpt>
      <trkpt lat="45.92962" lon="4.74213">
        <ele>170</ele>
        <time>2018-09-28T09:59:16Z</time>
      </trkpt>
      <trkpt lat="45.92956" lon="4.74214">
        <ele>170</ele>
        <time>2018-09-28T09:59:18Z</time>
      </trkpt>
      <trkpt lat="45.92953" lon="4.74213">
        <ele>170</ele>
        <time>2018-09-28T09:59:19Z</time>
      </trkpt>
      <trkpt lat="45.92946" lon="4.7421">
        <ele>170</ele>
        <time>2018-09-28T09:59:21Z</time>
      </trkpt>
      <trkpt lat="45.92943" lon="4.74208">
        <ele>170</ele>
        <time>2018-09-28T09:59:22Z</time>
      </trkpt>
      <trkpt lat="45.92937" lon="4.74204">
        <ele>170</ele>
        <time>2018-09-28T09:59:24Z</time>
      </trkpt>
      <trkpt lat="45.92934" lon="4.74202">
        <ele>170</ele>
        <time>2018-09-28T09:59:25Z</time>
      </trkpt>
      <trkpt lat="45.92928" lon="4.74197">
        <ele>170</ele>
        <time>2018-09-28T09:59:27Z</time>
      </trkpt>
      <trkpt lat="45.92926" lon="4.74195">
        <ele>170</ele>
        <time>2018-09-28T09:59:28Z</time>
      </trkpt>
      <trkpt lat="45.92919" lon="4.7419">
        <ele>171</ele>
        <time>2018-09-28T09:59:30Z</time>
      </trkpt>
      <trkpt lat="45.92916" lon="4.74188">
        <ele>171</ele>
        <time>2018-09-28T09:59:31Z</time>
      </trkpt>
      <trkpt lat="45.9291" lon="4.74184">
        <ele>172</ele>
        <time>2018-09-28T09:59:33Z</time>
      </trkpt>
      <trkpt lat="45.92908" lon="4.74182">
        <ele>172</ele>
        <time>2018-09-28T09:59:34Z</time>
      </trkpt>
      <trkpt lat="45.92901" lon="4.74176">
        <ele>172</ele>
        <time>2018-09-28T09:59:37Z</time>
      </trkpt>
      <trkpt lat="45.92899" lon="4.74174">
        <ele>172</ele>
        <time>2018-09-28T09:59:38Z</time>
      </trkpt>
      <trkpt lat="45.92897" lon="4.74171">
        <ele>172</ele>
        <time>2018-09-28T09:59:39Z</time>
      </trkpt>
      <trkpt lat="45.92891" lon="4.74164">
        <ele>172</ele>
        <time>2018-09-28T09:59:40Z</time>
      </trkpt>
      <trkpt lat="45.92888" lon="4.74154">
        <ele>172</ele>
        <time>2018-09-28T09:59:42Z</time>
      </trkpt>
      <trkpt lat="45.92887" lon="4.74148">
        <ele>172</ele>
        <time>2018-09-28T09:59:43Z</time>
      </trkpt>
      <trkpt lat="45.92889" lon="4.74141">
        <ele>172</ele>
        <time>2018-09-28T09:59:44Z</time>
      </trkpt>
      <trkpt lat="45.92892" lon="4.74135">
        <ele>172</ele>
        <time>2018-09-28T09:59:45Z</time>
      </trkpt>
      <trkpt lat="45.92895" lon="4.7413">
        <ele>172</ele>
        <time>2018-09-28T09:59:46Z</time>
      </trkpt>
      <trkpt lat="45.92898" lon="4.74123">
        <ele>172</ele>
        <time>2018-09-28T09:59:47Z</time>
      </trkpt>
      <trkpt lat="45.92901" lon="4.74119">
        <ele>172</ele>
        <time>2018-09-28T09:59:48Z</time>
      </trkpt>
      <trkpt lat="45.92905" lon="4.74114">
        <ele>172</ele>
        <time>2018-09-28T09:59:49Z</time>
      </trkpt>
      <trkpt lat="45.92908" lon="4.7411">
        <ele>172</ele>
        <time>2018-09-28T09:59:50Z</time>
      </trkpt>
      <trkpt lat="45.92911" lon="4.74105">
        <ele>172</ele>
        <time>2018-09-28T09:59:51Z</time>
      </trkpt>
      <trkpt lat="45.92915" lon="4.74096">
        <ele>173</ele>
        <time>2018-09-28T09:59:52Z</time>
      </trkpt>
      <trkpt lat="45.92918" lon="4.74086">
        <ele>173</ele>
        <time>2018-09-28T09:59:53Z</time>
      </trkpt>
      <trkpt lat="45.9292" lon="4.74077">
        <ele>173</ele>
        <time>2018-09-28T09:59:54Z</time>
      </trkpt>
      <trkpt lat="45.9292" lon="4.74068">
        <ele>172</ele>
        <time>2018-09-28T09:59:55Z</time>
      </trkpt>
      <trkpt lat="45.92921" lon="4.7406">
        <ele>172</ele>
        <time>2018-09-28T09:59:56Z</time>
      </trkpt>
      <trkpt lat="45.92921" lon="4.74051">
        <ele>172</ele>
        <time>2018-09-28T09:59:57Z</time>
      </trkpt>
      <trkpt lat="45.92921" lon="4.74044">
        <ele>172</ele>
        <time>2018-09-28T09:59:58Z</time>
      </trkpt>
      <trkpt lat="45.92922" lon="4.74036">
        <ele>172</ele>
        <time>2018-09-28T09:59:59Z</time>
      </trkpt>
      <trkpt lat="45.92923" lon="4.74029">
        <ele>172</ele>
        <time>2018-09-28T10:00:00Z</time>
      </trkpt>
      <trkpt lat="45.92924" lon="4.74022">
        <ele>172</ele>
        <time>2018-09-28T10:00:01Z</time>
      </trkpt>
      <trkpt lat="45.92924" lon="4.74013">
        <ele>172</ele>
        <time>2018-09-28T10:00:03Z</time>
      </trkpt>
      <trkpt lat="45.92922" lon="4.74008">
        <ele>172</ele>
        <time>2018-09-28T10:00:04Z</time>
      </trkpt>
      <trkpt lat="45.92917" lon="4.73998">
        <ele>172</ele>
        <time>2018-09-28T10:00:06Z</time>
      </trkpt>
      <trkpt lat="45.92914" lon="4.73994">
        <ele>172</ele>
        <time>2018-09-28T10:00:07Z</time>
      </trkpt>
      <trkpt lat="45.9291" lon="4.7399">
        <ele>172</ele>
        <time>2018-09-28T10:00:08Z</time>
      </trkpt>
      <trkpt lat="45.92906" lon="4.73986">
        <ele>172</ele>
        <time>2018-09-28T10:00:09Z</time>
      </trkpt>
      <trkpt lat="45.92903" lon="4.73983">
        <ele>172</ele>
        <time>2018-09-28T10:00:10Z</time>
      </trkpt>
      <trkpt lat="45.92899" lon="4.73978">
        <ele>172</ele>
        <time>2018-09-28T10:00:11Z</time>
      </trkpt>
      <trkpt lat="45.92896" lon="4.73972">
        <ele>172</ele>
        <time>2018-09-28T10:00:12Z</time>
      </trkpt>
      <trkpt lat="45.92896" lon="4.73965">
        <ele>172</ele>
        <time>2018-09-28T10:00:13Z</time>
      </trkpt>
      <trkpt lat="45.92895" lon="4.73953">
        <ele>172</ele>
        <time>2018-09-28T10:00:15Z</time>
      </trkpt>
      <trkpt lat="45.92895" lon="4.73947">
        <ele>172</ele>
        <time>2018-09-28T10:00:16Z</time>
      </trkpt>
      <trkpt lat="45.92893" lon="4.73939">
        <ele>172</ele>
        <time>2018-09-28T10:00:17Z</time>
      </trkpt>
      <trkpt lat="45.92894" lon="4.73931">
        <ele>172</ele>
        <time>2018-09-28T10:00:18Z</time>
      </trkpt>
      <trkpt lat="45.92893" lon="4.73923">
        <ele>172</ele>
        <time>2018-09-28T10:00:19Z</time>
      </trkpt>
      <trkpt lat="45.92892" lon="4.73916">
        <ele>172</ele>
        <time>2018-09-28T10:00:20Z</time>
      </trkpt>
      <trkpt lat="45.9289" lon="4.73909">
        <ele>173</ele>
        <time>2018-09-28T10:00:21Z</time>
      </trkpt>
      <trkpt lat="45.92888" lon="4.73902">
        <ele>173</ele>
        <time>2018-09-28T10:00:22Z</time>
      </trkpt>
      <trkpt lat="45.92887" lon="4.73895">
        <ele>173</ele>
        <time>2018-09-28T10:00:23Z</time>
      </trkpt>
      <trkpt lat="45.92885" lon="4.73887">
        <ele>173</ele>
        <time>2018-09-28T10:00:24Z</time>
      </trkpt>
      <trkpt lat="45.92882" lon="4.7388">
        <ele>173</ele>
        <time>2018-09-28T10:00:25Z</time>
      </trkpt>
      <trkpt lat="45.9288" lon="4.73874">
        <ele>173</ele>
        <time>2018-09-28T10:00:26Z</time>
      </trkpt>
      <trkpt lat="45.92879" lon="4.73866">
        <ele>173</ele>
        <time>2018-09-28T10:00:27Z</time>
      </trkpt>
      <trkpt lat="45.92877" lon="4.7386">
        <ele>173</ele>
        <time>2018-09-28T10:00:28Z</time>
      </trkpt>
      <trkpt lat="45.92867" lon="4.73827">
        <ele>173</ele>
        <time>2018-09-28T10:00:33Z</time>
      </trkpt>
      <trkpt lat="45.92865" lon="4.73819">
        <ele>173</ele>
        <time>2018-09-28T10:00:34Z</time>
      </trkpt>
      <trkpt lat="45.92863" lon="4.73811">
        <ele>173</ele>
        <time>2018-09-28T10:00:35Z</time>
      </trkpt>
      <trkpt lat="45.92858" lon="4.73804">
        <ele>173</ele>
        <time>2018-09-28T10:00:37Z</time>
      </trkpt>
      <trkpt lat="45.92855" lon="4.73799">
        <ele>173</ele>
        <time>2018-09-28T10:00:38Z</time>
      </trkpt>
      <trkpt lat="45.9285" lon="4.73795">
        <ele>173</ele>
        <time>2018-09-28T10:00:39Z</time>
      </trkpt>
      <trkpt lat="45.92847" lon="4.73791">
        <ele>173</ele>
        <time>2018-09-28T10:00:40Z</time>
      </trkpt>
      <trkpt lat="45.9284" lon="4.73785">
        <ele>173</ele>
        <time>2018-09-28T10:00:42Z</time>
      </trkpt>
      <trkpt lat="45.92835" lon="4.73782">
        <ele>173</ele>
        <time>2018-09-28T10:00:43Z</time>
      </trkpt>
      <trkpt lat="45.92831" lon="4.73779">
        <ele>173</ele>
        <time>2018-09-28T10:00:44Z</time>
      </trkpt>
      <trkpt lat="45.92826" lon="4.73777">
        <ele>173</ele>
        <time>2018-09-28T10:00:45Z</time>
      </trkpt>
      <trkpt lat="45.92821" lon="4.73772">
        <ele>173</ele>
        <time>2018-09-28T10:00:47Z</time>
      </trkpt>
      <trkpt lat="45.92818" lon="4.73769">
        <ele>173</ele>
        <time>2018-09-28T10:00:48Z</time>
      </trkpt>
      <trkpt lat="45.92813" lon="4.73766">
        <ele>173</ele>
        <time>2018-09-28T10:00:49Z</time>
      </trkpt>
      <trkpt lat="45.92809" lon="4.73765">
        <ele>173</ele>
        <time>2018-09-28T10:00:50Z</time>
      </trkpt>
      <trkpt lat="45.92802" lon="4.73759">
        <ele>173</ele>
        <time>2018-09-28T10:00:52Z</time>
      </trkpt>
      <trkpt lat="45.92797" lon="4.73757">
        <ele>173</ele>
        <time>2018-09-28T10:00:53Z</time>
      </trkpt>
      <trkpt lat="45.92792" lon="4.7375">
        <ele>173</ele>
        <time>2018-09-28T10:00:56Z</time>
      </trkpt>
      <trkpt lat="45.92787" lon="4.73745">
        <ele>172</ele>
        <time>2018-09-28T10:00:57Z</time>
      </trkpt>
      <trkpt lat="45.92782" lon="4.73737">
        <ele>172</ele>
        <time>2018-09-28T10:00:59Z</time>
      </trkpt>
      <trkpt lat="45.92779" lon="4.73733">
        <ele>172</ele>
        <time>2018-09-28T10:01:00Z</time>
      </trkpt>
      <trkpt lat="45.92772" lon="4.73728">
        <ele>172</ele>
        <time>2018-09-28T10:01:02Z</time>
      </trkpt>
      <trkpt lat="45.92768" lon="4.73726">
        <ele>172</ele>
        <time>2018-09-28T10:01:03Z</time>
      </trkpt>
      <trkpt lat="45.92764" lon="4.73725">
        <ele>172</ele>
        <time>2018-09-28T10:01:05Z</time>
      </trkpt>
      <trkpt lat="45.92758" lon="4.73723">
        <ele>172</ele>
        <time>2018-09-28T10:01:06Z</time>
      </trkpt>
      <trkpt lat="45.92749" lon="4.73721">
        <ele>173</ele>
        <time>2018-09-28T10:01:10Z</time>
      </trkpt>
      <trkpt lat="45.92742" lon="4.73719">
        <ele>173</ele>
        <time>2018-09-28T10:01:11Z</time>
      </trkpt>
      <trkpt lat="45.92737" lon="4.73718">
        <ele>173</ele>
        <time>2018-09-28T10:01:12Z</time>
      </trkpt>
      <trkpt lat="45.92732" lon="4.73717">
        <ele>173</ele>
        <time>2018-09-28T10:01:13Z</time>
      </trkpt>
      <trkpt lat="45.92725" lon="4.73714">
        <ele>173</ele>
        <time>2018-09-28T10:01:15Z</time>
      </trkpt>
      <trkpt lat="45.92718" lon="4.73714">
        <ele>173</ele>
        <time>2018-09-28T10:01:16Z</time>
      </trkpt>
      <trkpt lat="45.9271" lon="4.73711">
        <ele>173</ele>
        <time>2018-09-28T10:01:18Z</time>
      </trkpt>
      <trkpt lat="45.92707" lon="4.7371">
        <ele>173</ele>
        <time>2018-09-28T10:01:19Z</time>
      </trkpt>
      <trkpt lat="45.927" lon="4.73708">
        <ele>173</ele>
        <time>2018-09-28T10:01:21Z</time>
      </trkpt>
      <trkpt lat="45.92695" lon="4.73708">
        <ele>173</ele>
        <time>2018-09-28T10:01:22Z</time>
      </trkpt>
      <trkpt lat="45.92691" lon="4.73707">
        <ele>173</ele>
        <time>2018-09-28T10:01:23Z</time>
      </trkpt>
      <trkpt lat="45.92686" lon="4.73705">
        <ele>173</ele>
        <time>2018-09-28T10:01:24Z</time>
      </trkpt>
      <trkpt lat="45.92682" lon="4.73704">
        <ele>173</ele>
        <time>2018-09-28T10:01:25Z</time>
      </trkpt>
      <trkpt lat="45.92677" lon="4.73703">
        <ele>173</ele>
        <time>2018-09-28T10:01:26Z</time>
      </trkpt>
      <trkpt lat="45.9267" lon="4.73699">
        <ele>174</ele>
        <time>2018-09-28T10:01:29Z</time>
      </trkpt>
      <trkpt lat="45.92664" lon="4.73694">
        <ele>173</ele>
        <time>2018-09-28T10:01:30Z</time>
      </trkpt>
      <trkpt lat="45.92658" lon="4.73688">
        <ele>173</ele>
        <time>2018-09-28T10:01:32Z</time>
      </trkpt>
      <trkpt lat="45.92653" lon="4.73684">
        <ele>173</ele>
        <time>2018-09-28T10:01:33Z</time>
      </trkpt>
      <trkpt lat="45.92648" lon="4.73676">
        <ele>173</ele>
        <time>2018-09-28T10:01:35Z</time>
      </trkpt>
      <trkpt lat="45.92644" lon="4.7367">
        <ele>173</ele>
        <time>2018-09-28T10:01:36Z</time>
      </trkpt>
      <trkpt lat="45.9264" lon="4.73665">
        <ele>173</ele>
        <time>2018-09-28T10:01:37Z</time>
      </trkpt>
      <trkpt lat="45.92637" lon="4.73659">
        <ele>173</ele>
        <time>2018-09-28T10:01:38Z</time>
      </trkpt>
      <trkpt lat="45.92633" lon="4.73649">
        <ele>173</ele>
        <time>2018-09-28T10:01:40Z</time>
      </trkpt>
      <trkpt lat="45.92631" lon="4.73644">
        <ele>173</ele>
        <time>2018-09-28T10:01:41Z</time>
      </trkpt>
      <trkpt lat="45.92626" lon="4.73635">
        <ele>173</ele>
        <time>2018-09-28T10:01:43Z</time>
      </trkpt>
      <trkpt lat="45.92623" lon="4.73632">
        <ele>173</ele>
        <time>2018-09-28T10:01:44Z</time>
      </trkpt>
      <trkpt lat="45.92615" lon="4.73626">
        <ele>173</ele>
        <time>2018-09-28T10:01:46Z</time>
      </trkpt>
      <trkpt lat="45.9261" lon="4.73625">
        <ele>173</ele>
        <time>2018-09-28T10:01:47Z</time>
      </trkpt>
      <trkpt lat="45.92601" lon="4.73624">
        <ele>173</ele>
        <time>2018-09-28T10:01:49Z</time>
      </trkpt>
      <trkpt lat="45.92598" lon="4.73624">
        <ele>173</ele>
        <time>2018-09-28T10:01:50Z</time>
      </trkpt>
      <trkpt lat="45.92593" lon="4.73628">
        <ele>172</ele>
        <time>2018-09-28T10:01:51Z</time>
      </trkpt>
      <trkpt lat="45.92589" lon="4.73629">
        <ele>172</ele>
        <time>2018-09-28T10:01:52Z</time>
      </trkpt>
      <trkpt lat="45.92585" lon="4.73629">
        <ele>172</ele>
        <time>2018-09-28T10:01:53Z</time>
      </trkpt>
      <trkpt lat="45.9258" lon="4.73631">
        <ele>173</ele>
        <time>2018-09-28T10:01:54Z</time>
      </trkpt>
      <trkpt lat="45.92575" lon="4.73632">
        <ele>173</ele>
        <time>2018-09-28T10:01:55Z</time>
      </trkpt>
      <trkpt lat="45.92569" lon="4.73636">
        <ele>173</ele>
        <time>2018-09-28T10:01:56Z</time>
      </trkpt>
      <trkpt lat="45.92564" lon="4.73634">
        <ele>173</ele>
        <time>2018-09-28T10:01:57Z</time>
      </trkpt>
      <trkpt lat="45.92559" lon="4.73634">
        <ele>173</ele>
        <time>2018-09-28T10:01:58Z</time>
      </trkpt>
      <trkpt lat="45.92555" lon="4.73636">
        <ele>173</ele>
        <time>2018-09-28T10:01:59Z</time>
      </trkpt>
      <trkpt lat="45.9255" lon="4.73636">
        <ele>173</ele>
        <time>2018-09-28T10:02:00Z</time>
      </trkpt>
      <trkpt lat="45.92543" lon="4.73638">
        <ele>173</ele>
        <time>2018-09-28T10:02:01Z</time>
      </trkpt>
      <trkpt lat="45.92538" lon="4.73639">
        <ele>173</ele>
        <time>2018-09-28T10:02:02Z</time>
      </trkpt>
      <trkpt lat="45.9253" lon="4.73639">
        <ele>173</ele>
        <time>2018-09-28T10:02:04Z</time>
      </trkpt>
      <trkpt lat="45.92527" lon="4.73638">
        <ele>173</ele>
        <time>2018-09-28T10:02:05Z</time>
      </trkpt>
      <trkpt lat="45.92519" lon="4.73638">
        <ele>173</ele>
        <time>2018-09-28T10:02:07Z</time>
      </trkpt>
      <trkpt lat="45.92515" lon="4.73637">
        <ele>173</ele>
        <time>2018-09-28T10:02:08Z</time>
      </trkpt>
      <trkpt lat="45.92507" lon="4.73637">
        <ele>174</ele>
        <time>2018-09-28T10:02:10Z</time>
      </trkpt>
      <trkpt lat="45.92505" lon="4.73636">
        <ele>174</ele>
        <time>2018-09-28T10:02:11Z</time>
      </trkpt>
      <trkpt lat="45.925" lon="4.73636">
        <ele>174</ele>
        <time>2018-09-28T10:02:12Z</time>
      </trkpt>
      <trkpt lat="45.92496" lon="4.73636">
        <ele>174</ele>
        <time>2018-09-28T10:02:13Z</time>
      </trkpt>
      <trkpt lat="45.9249" lon="4.73637">
        <ele>174</ele>
        <time>2018-09-28T10:02:14Z</time>
      </trkpt>
      <trkpt lat="45.92486" lon="4.73636">
        <ele>174</ele>
        <time>2018-09-28T10:02:15Z</time>
      </trkpt>
      <trkpt lat="45.9248" lon="4.73639">
        <ele>174</ele>
        <time>2018-09-28T10:02:17Z</time>
      </trkpt>
      <trkpt lat="45.92476" lon="4.73642">
        <ele>174</ele>
        <time>2018-09-28T10:02:18Z</time>
      </trkpt>
      <trkpt lat="45.92473" lon="4.7365">
        <ele>174</ele>
        <time>2018-09-28T10:02:21Z</time>
      </trkpt>
      <trkpt lat="45.92472" lon="4.73654">
        <ele>174</ele>
        <time>2018-09-28T10:02:22Z</time>
      </trkpt>
      <trkpt lat="45.9247" lon="4.73667">
        <ele>174</ele>
        <time>2018-09-28T10:02:25Z</time>
      </trkpt>
      <trkpt lat="45.9247" lon="4.73672">
        <ele>174</ele>
        <time>2018-09-28T10:02:26Z</time>
      </trkpt>
      <trkpt lat="45.9247" lon="4.73681">
        <ele>174</ele>
        <time>2018-09-28T10:02:28Z</time>
      </trkpt>
      <trkpt lat="45.9247" lon="4.73685">
        <ele>174</ele>
        <time>2018-09-28T10:02:29Z</time>
      </trkpt>
      <trkpt lat="45.92469" lon="4.73695">
        <ele>174</ele>
        <time>2018-09-28T10:02:32Z</time>
      </trkpt>
      <trkpt lat="45.92468" lon="4.73698">
        <ele>174</ele>
        <time>2018-09-28T10:02:33Z</time>
      </trkpt>
      <trkpt lat="45.92465" lon="4.7371">
        <ele>174</ele>
        <time>2018-09-28T10:03:07Z</time>
      </trkpt>
      <trkpt lat="45.92464" lon="4.7371">
        <ele>174</ele>
        <time>2018-09-28T10:03:08Z</time>
      </trkpt>
      <trkpt lat="45.92464" lon="4.7371">
        <ele>174</ele>
        <time>2018-09-28T10:03:09.119Z</time>
      </trkpt>
    </trkseg>
  </trk>
</gpx>